# Wetter Temperatur Luftdruck Luftfeuchtigkeit Sichtweite Windgeschwindigkeit Windrichtung Zeit
1 Clear 4 1017 88 10000 1.54 180 14:37 01.02.2023
2 Clouds 4 1016 86 10000 1.54 180 13:20 01.02.2023
3 Clear 4 1017 88 10000 3.09 130 12:50 01.02.2023
4 Clear 5 1016 88 10000 0.45 64 11:56 01.02.2023
5 Clear 7 1017 80 10000 1.54 170 08:51 01.02.2023
6 Clouds 12 1015 57 10000 3.58 299 02:34 01.02.2023
7 Clear 16 1015 35 10000 2.24 3 21:38 31.01.2023
8 Clear 14 1017 43 10000 2.06 0 19:48 31.01.2023
9 Clear 13 1017 49 10000 2.57 160 18:50 31.01.2023
10 Clear 5 1016 76 10000 2.57 150 15:36 31.01.2023
11 Clear 5 1015 77 10000 2.57 150 15:18 31.01.2023
12 Clear 4 1015 78 10000 4.12 130 14:52 31.01.2023
13 Clear 5 1014 76 10000 3.09 140 12:19 31.01.2023
14 Clear 6 1015 73 10000 4.63 150 11:19 31.01.2023
15 Clear 6 1014 71 10000 2.57 160 09:52 31.01.2023
16 Clear 6 1014 70 10000 0.25 138 08:59 31.01.2023
17 Clear 7 1014 70 10000 2.06 150 08:35 31.01.2023
18 Clear 9 1014 63 10000 2.57 270 05:36 31.01.2023
19 Clear 16 1012 35 10000 5.66 300 23:56 30.01.2023
20 Clear 17 1012 31 10000 4.63 280 22:51 30.01.2023
21 Clear 17 1012 31 10000 4.63 280 22:30 30.01.2023
22 Clear 16 1014 31 10000 2.24 307 20:48 30.01.2023
23 Clear 15 1015 33 10000 1.34 40 19:53 30.01.2023
24 Clear 9 1016 51 10000 1.54 260 17:30 30.01.2023
25 Clear 7 1015 54 10000 1.54 250 16:32 30.01.2023
26 Clear 6 1014 50 10000 2.57 120 14:27 30.01.2023
27 Clear 7 1014 45 10000 1.54 230 12:26 30.01.2023
28 Clear 8 1014 45 10000 2.57 120 10:55 30.01.2023
29 Clear 9 1014 43 10000 3.09 20 09:54 30.01.2023
30 Clear 8 1014 54 10000 3.09 10 08:48 30.01.2023
31 Clear 11 1013 39 10000 3.6 230 06:40 30.01.2023
32 Clear 18 1011 17 10000 7.72 210 01:38 30.01.2023
33 Clear 20 1010 13 10000 11.32 200 23:34 29.01.2023
34 Clear 20 1010 14 10000 7.72 220 22:37 29.01.2023
35 Clear 19 1012 16 10000 5.66 220 21:30 29.01.2023
36 Clear 18 1013 18 10000 9.26 200 20:36 29.01.2023
37 Clear 17 1014 19 10000 7.2 160 19:33 29.01.2023
38 Clear 15 1015 21 10000 3.13 115 18:41 29.01.2023
39 Clear 11 1015 29 10000 2.57 180 17:28 29.01.2023
40 Clear 7 1015 34 10000 4.63 150 16:20 29.01.2023
41 Clear 7 1015 34 10000 4.63 150 16:20 29.01.2023
42 Clear 6 1014 35 10000 4.63 160 14:21 29.01.2023
43 Clear 7 1014 32 10000 4.12 150 13:25 29.01.2023
44 Clear 7 1014 37 10000 4.12 170 12:39 29.01.2023
45 Clear 7 1014 35 10000 4.12 170 12:20 29.01.2023
46 Clear 8 1014 35 10000 3.09 170 11:38 29.01.2023
47 Clear 8 1014 34 10000 3.6 130 10:54 29.01.2023
48 Clear 9 1015 35 10000 2.06 130 08:55 29.01.2023
49 Clear 9 1015 34 10000 3.09 160 06:49 29.01.2023
50 Clear 19 1014 16 10000 1.54 50 00:19 29.01.2023
51 Clear 18 1014 17 10000 2.24 213 21:49 28.01.2023
52 Clouds 16 1016 24 10000 0.45 0 19:59 28.01.2023
53 Clear 14 1017 27 10000 2.57 130 19:27 28.01.2023
54 Clouds 11 1016 35 10000 0.45 0 17:59 28.01.2023
55 Clouds 9 1016 34 10000 0.89 22 16:58 28.01.2023
56 Clear 7 1015 37 10000 4.12 150 16:19 28.01.2023
57 Clear 7 1015 37 10000 2.57 140 15:38 28.01.2023
58 Clouds 8 1016 33 10000 2.19 139 13:57 28.01.2023
59 Clear 6 1015 37 10000 3.6 140 12:48 28.01.2023
60 Clear 7 1015 38 10000 3.6 110 11:25 28.01.2023
61 Clear 6 1015 40 10000 4.63 140 10:33 28.01.2023
62 Clear 8 1016 39 10000 0 0 05:57 28.01.2023
63 Clear 15 1016 21 10000 3.09 320 01:35 28.01.2023
64 Clear 17 1016 18 10000 3.13 283 00:23 28.01.2023
65 Clear 15 1019 20 10000 3.09 50 20:57 27.01.2023
66 Clear 9 1022 34 10000 1.34 209 17:59 27.01.2023
67 Clear 8 1022 36 10000 2.06 30 17:39 27.01.2023
68 Clear 7 1022 39 10000 2.06 30 17:18 27.01.2023
69 Clear 4 1022 46 10000 2.06 70 16:33 27.01.2023
70 Clear 4 1022 42 10000 3.6 140 14:46 27.01.2023
71 Clear 4 1022 44 10000 3.6 140 14:23 27.01.2023
72 Clear 4 1022 41 10000 3.09 240 12:44 27.01.2023
73 Clear 6 1023 35 10000 0 0 08:37 27.01.2023
74 Clear 9 1024 30 10000 1.79 108 03:56 27.01.2023
75 Clear 14 1022 22 10000 7.2 70 22:52 26.01.2023
76 Clear 13 1023 25 10000 7.72 40 21:22 26.01.2023
77 Clear 13 1023 25 10000 7.72 40 21:22 26.01.2023
78 Clear 13 1024 26 10000 6.17 50 20:35 26.01.2023
79 Clear 8 1025 38 10000 2.24 314 18:23 26.01.2023
80 Clear 7 1024 46 10000 0.89 204 17:42 26.01.2023
81 Clear 3 1023 64 10000 2.57 160 16:27 26.01.2023
82 Clear 2 1023 63 10000 1.54 170 15:50 26.01.2023
83 Clear 1 1023 63 10000 1.54 170 15:30 26.01.2023
84 Clear 2 1022 63 10000 2.57 160 14:49 26.01.2023
85 Clear 2 1022 58 10000 1.54 20 12:48 26.01.2023
86 Clear 3 1023 59 10000 3.09 150 11:26 26.01.2023
87 Clear 4 1022 55 10000 2.57 190 10:29 26.01.2023
88 Clear 4 1023 56 10000 4.63 140 09:44 26.01.2023
89 Clear 5 1023 58 10000 4.12 120 08:25 26.01.2023
90 Clear 5 1023 58 10000 4.12 120 08:25 26.01.2023
91 Clear 14 1021 37 10000 4.02 308 23:59 25.01.2023
92 Clear 14 1021 35 10000 4.12 330 23:38 25.01.2023
93 Clear 14 1022 34 10000 1.79 274 21:57 25.01.2023
94 Clear 13 1022 36 10000 2.24 287 21:21 25.01.2023
95 Clear 9 1025 51 10000 0.89 170 18:59 25.01.2023
96 Clear 7 1026 56 10000 0.89 92 18:22 25.01.2023
97 Clear 1 1024 73 10000 1.54 140 15:50 25.01.2023
98 Clear 2 1023 70 10000 0.87 162 12:59 25.01.2023
99 Clear 3 1024 70 10000 2.57 140 11:21 25.01.2023
100 Clear 3 1024 72 10000 2.57 140 09:48 25.01.2023
101 Clear 3 1025 68 10000 2.57 240 07:45 25.01.2023
102 Clear 9 1023 47 10000 4.63 300 01:36 25.01.2023
103 Clear 11 1023 40 10000 4.02 286 00:23 25.01.2023
104 Clear 9 1024 43 10000 2.57 310 21:34 24.01.2023
105 Clear 8 1025 46 10000 2.06 280 20:22 24.01.2023
106 Clear 6 1025 57 10000 0.89 0 18:46 24.01.2023
107 Clear 3 1025 68 10000 4.12 170 17:31 24.01.2023
108 Clear 2 1024 75 10000 0.45 166 16:53 24.01.2023
109 Clear 0 1024 79 10000 2.06 120 16:26 24.01.2023
110 Clear 0 1024 79 10000 2.06 120 16:26 24.01.2023
111 Clear -1 1022 84 10000 2.06 170 13:41 24.01.2023
112 Clear 0 1021 83 10000 2.57 70 11:43 24.01.2023
113 Clear 1 1019 82 10000 0.45 254 08:38 24.01.2023
114 Clear 1 1019 79 10000 1.54 240 08:18 24.01.2023
115 Clear 2 1019 75 10000 0.89 241 07:47 24.01.2023
116 Clouds 5 1015 39 10000 3.6 270 02:40 24.01.2023
117 Clouds 7 1013 34 10000 6.17 310 00:37 24.01.2023
118 Clouds 7 1012 32 10000 5.14 290 22:28 23.01.2023
119 Clouds 7 1010 40 10000 3.13 197 20:26 23.01.2023
120 Clear 6 1010 48 10000 2.57 270 19:21 23.01.2023
121 Clouds 3 1010 70 10000 2.57 20 17:19 23.01.2023
122 Clouds 4 1008 56 10000 3.58 318 15:32 23.01.2023
123 Clouds 5 1007 55 10000 1.34 308 13:56 23.01.2023
124 Clouds 5 1006 59 10000 2.06 220 12:55 23.01.2023
125 Clouds 5 1007 60 10000 2.06 140 11:46 23.01.2023
126 Clouds 5 1007 57 10000 0.89 201 10:55 23.01.2023
127 Clouds 8 1007 52 10000 3.6 290 08:24 23.01.2023
128 Clear 17 1009 20 10000 3.09 60 23:53 22.01.2023
129 Clear 16 1012 21 10000 3.6 110 21:51 22.01.2023
130 Clear 15 1013 24 10000 3.6 110 21:19 22.01.2023
131 Clear 12 1016 36 10000 1.34 99 19:55 22.01.2023
132 Clear 12 1016 39 10000 1.54 210 19:37 22.01.2023
133 Clear 9 1018 48 10000 4.63 160 18:36 22.01.2023
134 Clear 7 1018 56 10000 1.34 129 17:55 22.01.2023
135 Clear 6 1018 62 10000 4.63 150 17:24 22.01.2023
136 Clear 2 1018 70 10000 4.63 130 15:26 22.01.2023
137 Clear 2 1019 74 10000 3.6 130 14:34 22.01.2023
138 Clear 1 1019 76 10000 3.09 120 13:27 22.01.2023
139 Clear 1 1020 77 10000 3.6 120 12:29 22.01.2023
140 Clear 3 1021 73 10000 3.09 150 11:26 22.01.2023
141 Clear 3 1022 72 10000 3.09 150 09:34 22.01.2023
142 Clear 8 1022 54 10000 1.34 315 02:59 22.01.2023
143 Clear 13 1022 39 10000 3.58 286 23:44 21.01.2023
144 Clear 12 1022 38 10000 2.24 276 22:55 21.01.2023
145 Clear 11 1022 40 10000 3.58 280 21:29 21.01.2023
146 Clear 8 1024 52 10000 0.89 172 18:53 21.01.2023
147 Clear 8 1024 52 10000 0.89 172 18:53 21.01.2023
148 Clear 2 1025 71 10000 0.27 172 15:57 21.01.2023
149 Clear 0 1022 78 10000 4.63 140 13:50 21.01.2023
150 Clear 1 1024 73 10000 0.57 4 12:56 21.01.2023
151 Clear 2 1023 73 10000 2.57 140 11:39 21.01.2023
152 Clear 2 1023 70 10000 1.54 120 10:48 21.01.2023
153 Clear 3 1023 65 10000 2.57 200 08:31 21.01.2023
154 Clear 6 1021 51 10000 4.12 330 04:29 21.01.2023
155 Clear 12 1019 36 10000 5.66 280 22:28 20.01.2023
156 Clear 12 1019 36 10000 5.14 280 21:37 20.01.2023
157 Clear 11 1019 39 10000 4.63 310 20:42 20.01.2023
158 Clouds 9 1020 49 10000 4.02 307 18:36 20.01.2023
159 Clear 4 1018 64 10000 3.09 140 15:53 20.01.2023
160 Clear 4 1018 67 10000 2.06 140 14:41 20.01.2023
161 Clear 5 1017 65 10000 1.54 160 12:45 20.01.2023
162 Clear 5 1016 67 10000 1.54 130 09:37 20.01.2023
163 Clear 6 1016 69 10000 3.6 140 08:22 20.01.2023
164 Clear 11 1015 47 10000 3.6 300 02:34 20.01.2023
165 Clouds 16 1015 28 10000 1.79 254 22:59 19.01.2023
166 Clear 15 1016 29 10000 2.06 220 22:32 19.01.2023
167 Clear 13 1018 35 10000 3.6 140 20:22 19.01.2023
168 Clouds 11 1019 47 10000 1.34 68 18:58 19.01.2023
169 Clear 2 1019 71 10000 3.09 180 15:37 19.01.2023
170 Clear 3 1020 70 10000 3.6 140 10:53 19.01.2023
171 Clouds 4 1021 66 10000 0.97 38 08:59 19.01.2023
172 Clear 13 1019 36 10000 3.09 310 23:35 18.01.2023
173 Clouds 12 1019 46 10000 2.68 304 20:55 18.01.2023
174 Clear 11 1020 48 10000 3.6 260 20:19 18.01.2023
175 Clear 11 1020 53 10000 3.09 270 19:37 18.01.2023
176 Clouds 8 1020 68 10000 2.06 160 17:34 18.01.2023
177 Clouds 4 1018 80 10000 2.06 120 15:22 18.01.2023
178 Clouds 4 1016 77 10000 2.06 150 13:29 18.01.2023
179 Clouds 5 1015 77 10000 2.57 130 11:20 18.01.2023
180 Clouds 5 1015 75 10000 3.09 240 08:23 18.01.2023
181 Clear 10 1011 49 10000 4.63 260 01:27 18.01.2023
182 Clouds 12 1010 43 10000 8.75 280 23:32 17.01.2023
183 Clouds 11 1010 56 10000 4.63 280 20:32 17.01.2023
184 Clouds 10 1011 64 10000 3.09 300 19:33 17.01.2023
185 Clouds 8 1011 76 10000 2.57 280 18:18 17.01.2023
186 Rain 6 1010 83 10000 8.75 310 16:24 17.01.2023
187 Clouds 9 1007 82 10000 5.81 323 14:55 17.01.2023
188 Rain 10 1007 88 3018 6.69 280 13:52 17.01.2023
189 Rain 11 1006 85 10000 4.12 190 12:27 17.01.2023
190 Clouds 12 1006 79 10000 7.2 180 11:38 17.01.2023
191 Clouds 13 1008 74 10000 4.02 186 09:34 17.01.2023
192 Clouds 13 1009 78 10000 4.63 160 07:53 17.01.2023
193 Clouds 12 1010 84 10000 5.14 180 03:55 17.01.2023
194 Clouds 12 1010 80 10000 3.09 70 00:57 17.01.2023
195 Clouds 12 1010 80 10000 3.6 90 23:32 16.01.2023
196 Clouds 11 1011 79 10000 4.12 110 21:52 16.01.2023
197 Clouds 10 1013 83 10000 5.14 80 20:24 16.01.2023
198 Clouds 9 1014 84 10000 4.12 80 19:30 16.01.2023
199 Clouds 9 1015 86 10000 2.57 120 18:52 16.01.2023
200 Rain 9 1015 88 10000 2.57 120 18:20 16.01.2023
201 Rain 8 1015 89 10000 3.09 110 17:34 16.01.2023
202 Rain 9 1013 91 10000 2.06 50 14:37 16.01.2023
203 Rain 9 1013 92 9656 2.06 210 13:38 16.01.2023
204 Rain 10 1011 89 10000 1.54 70 10:28 16.01.2023
205 Rain 10 1011 89 10000 2.57 60 09:34 16.01.2023
206 Clouds 13 1010 74 10000 7.72 220 23:21 15.01.2023
207 Clouds 14 1010 64 10000 7.2 230 21:35 15.01.2023
208 Clouds 13 1011 65 10000 8.23 210 20:34 15.01.2023
209 Clouds 14 1011 56 10000 8.23 210 19:44 15.01.2023
210 Clouds 14 1011 50 10000 7.72 210 17:40 15.01.2023
211 Drizzle 15 1010 42 10000 5.66 170 15:22 15.01.2023
212 Clouds 15 1010 27 10000 6.17 200 12:31 15.01.2023
213 Clouds 15 1011 25 10000 5.66 190 11:35 15.01.2023
214 Clouds 15 1011 25 10000 4.63 210 10:28 15.01.2023
215 Clouds 15 1011 27 10000 2.06 200 09:34 15.01.2023
216 Clouds 19 1012 28 10000 2.57 320 01:47 15.01.2023
217 Clouds 23 1012 20 10000 1.54 350 22:50 14.01.2023
218 Haze 23 1013 19 4828 0.89 108 21:55 14.01.2023
219 Haze 22 1013 20 1408 0.89 144 21:36 14.01.2023
220 Haze 22 1013 20 3621 0.89 137 21:18 14.01.2023
221 Clouds 21 1015 22 10000 1.54 170 20:31 14.01.2023
222 Clouds 17 1017 32 10000 2.06 210 18:38 14.01.2023
223 Clear 13 1017 34 10000 5.66 130 15:48 14.01.2023
224 Clear 12 1017 35 10000 5.66 130 15:26 14.01.2023
225 Clear 12 1016 36 10000 5.66 130 14:25 14.01.2023
226 Clear 12 1017 35 10000 3.09 150 13:33 14.01.2023
227 Clear 13 1018 34 10000 3.09 200 10:52 14.01.2023
228 Clouds 13 1017 33 10000 2.02 113 09:59 14.01.2023
229 Clear 15 1018 32 10000 3.09 130 05:37 14.01.2023
230 Clear 25 1019 14 10000 0.89 345 23:23 13.01.2023
231 Clear 25 1019 14 10000 2.57 90 22:45 13.01.2023
232 Clear 25 1019 14 10000 2.57 90 22:20 13.01.2023
233 Clear 24 1019 14 10000 4.12 140 21:23 13.01.2023
234 Clouds 22 1022 17 10000 3.58 122 19:36 13.01.2023
235 Clear 18 1022 21 10000 3.13 86 17:59 13.01.2023
236 Clear 12 1022 30 10000 6.17 130 16:24 13.01.2023
237 Clear 12 1022 27 10000 8.23 120 12:51 13.01.2023
238 Clear 13 1022 27 10000 8.23 120 12:19 13.01.2023
239 Clear 14 1022 26 10000 8.23 120 10:24 13.01.2023
240 Clear 13 1022 26 10000 4.12 110 09:45 13.01.2023
241 Clear 13 1023 26 10000 5.14 120 08:52 13.01.2023
242 Clear 13 1023 27 10000 5.14 120 08:20 13.01.2023
243 Clear 14 1023 27 10000 4.63 110 06:52 13.01.2023
244 Clear 16 1022 26 10000 1.79 66 03:56 13.01.2023
245 Clear 23 1022 16 10000 5.14 110 23:47 12.01.2023
246 Clear 23 1022 17 10000 5.66 130 22:40 12.01.2023
247 Clear 21 1023 19 10000 6.69 130 20:55 12.01.2023
248 Clear 16 1025 30 10000 3.6 150 18:53 12.01.2023
249 Clear 11 1024 46 10000 4.63 110 17:34 12.01.2023
250 Clear 9 1024 48 10000 5.14 160 15:54 12.01.2023
251 Clear 7 1023 56 10000 2.06 180 14:44 12.01.2023
252 Clear 7 1023 57 10000 2.06 180 14:22 12.01.2023
253 Clear 8 1023 57 10000 3.6 150 12:45 12.01.2023
254 Clear 7 1024 66 10000 3.09 140 10:36 12.01.2023
255 Clear 8 1024 59 10000 1.54 130 08:28 12.01.2023
256 Clear 13 1020 42 10000 3.6 290 01:50 12.01.2023
257 Clouds 16 1019 37 10000 3.13 302 23:59 11.01.2023
258 Clear 16 1020 37 10000 5.14 310 23:40 11.01.2023
259 Clear 17 1020 37 10000 5.14 310 23:20 11.01.2023
260 Clear 17 1020 37 10000 3.6 310 21:44 11.01.2023
261 Clear 15 1022 44 10000 4.12 320 19:47 11.01.2023
262 Clear 14 1021 44 10000 2.68 5 18:35 11.01.2023
263 Clear 10 1020 57 10000 1.54 170 16:42 11.01.2023
264 Clear 9 1019 56 10000 2.57 150 14:47 11.01.2023
265 Clear 11 1018 49 10000 1.54 260 12:43 11.01.2023
266 Clear 12 1019 44 10000 1.54 350 11:54 11.01.2023
267 Clear 13 1018 37 10000 1.79 294 10:20 11.01.2023
268 Clouds 14 1017 33 10000 4.63 150 07:38 11.01.2023
269 Clouds 14 1017 32 10000 4.63 150 07:20 11.01.2023
270 Clouds 23 1016 14 10000 1.34 155 23:58 10.01.2023
271 Clear 23 1017 13 10000 2.57 180 22:45 10.01.2023
272 Clear 22 1018 13 10000 3.09 160 21:30 10.01.2023
273 Clouds 19 1020 21 10000 1.79 128 19:57 10.01.2023
274 Clear 18 1020 24 10000 2.57 160 19:34 10.01.2023
275 Clouds 16 1020 28 10000 0.89 122 18:47 10.01.2023
276 Clear 14 1021 31 10000 0 0 17:54 10.01.2023
277 Clouds 12 1019 28 10000 1.27 165 15:55 10.01.2023
278 Clear 11 1019 29 10000 4.63 160 15:24 10.01.2023
279 Clear 12 1019 27 10000 3.6 150 14:25 10.01.2023
280 Clouds 12 1019 34 10000 1.34 66 11:57 10.01.2023
281 Clouds 13 1019 34 10000 1.87 143 08:58 10.01.2023
282 Clear 12 1022 39 10000 3.09 150 08:28 10.01.2023
283 Clear 12 1021 40 10000 4.63 150 07:26 10.01.2023
284 Clear 14 1021 31 10000 1.54 80 04:51 10.01.2023
285 Clear 22 1020 19 10000 2.68 345 22:51 09.01.2023
286 Clear 22 1021 19 10000 2.57 320 21:47 09.01.2023
287 Haze 21 1022 24 3219 0.89 98 20:41 09.01.2023
288 Clear 16 1023 37 10000 4.12 170 18:42 09.01.2023
289 Clouds 15 1021 43 10000 0.89 167 17:53 09.01.2023
290 Clear 12 1021 49 10000 2.2 123 16:58 09.01.2023
291 Clear 10 1022 54 10000 4.63 140 16:31 09.01.2023
292 Clear 8 1023 56 10000 5.14 150 15:22 09.01.2023
293 Clear 7 1022 57 10000 3.6 150 14:43 09.01.2023
294 Clear 9 1021 55 10000 4.12 150 12:54 09.01.2023
295 Clear 8 1021 57 10000 4.12 150 12:22 09.01.2023
296 Clear 9 1022 57 10000 2.57 150 11:20 09.01.2023
297 Clear 10 1022 57 10000 3.6 150 08:28 09.01.2023
298 Clear 11 1021 59 10000 3.6 150 06:31 09.01.2023
299 Clear 16 1019 41 10000 4.12 320 02:53 09.01.2023
300 Clear 22 1019 19 10000 1.54 40 22:31 08.01.2023
301 Haze 21 1020 23 9656 1.34 177 21:23 08.01.2023
302 Haze 21 1020 23 9656 1.79 188 21:23 08.01.2023
303 Clouds 21 1020 25 10000 0.45 347 20:57 08.01.2023
304 Clear 17 1022 36 10000 1.54 190 19:19 08.01.2023
305 Clear 14 1021 49 10000 2.57 130 17:39 08.01.2023
306 Clear 12 1022 49 10000 2.57 130 17:18 08.01.2023
307 Clear 9 1022 54 10000 4.12 150 15:38 08.01.2023
308 Clear 9 1022 54 10000 4.12 150 15:38 08.01.2023
309 Clear 9 1021 55 10000 6.17 140 14:18 08.01.2023
310 Clear 9 1021 61 10000 3.09 150 13:32 08.01.2023
311 Clouds 10 1020 58 10000 2.7 99 12:58 08.01.2023
312 Clear 10 1022 61 10000 3.6 140 11:22 08.01.2023
313 Clear 10 1021 61 10000 4.63 140 09:37 08.01.2023
314 Clouds 12 1020 58 10000 2.29 101 07:55 08.01.2023
315 Clear 14 1021 53 10000 4.12 310 02:20 08.01.2023
316 Clear 21 1020 29 10000 3.6 320 22:49 07.01.2023
317 Clear 21 1019 30 10000 3.6 320 22:24 07.01.2023
318 Clear 21 1019 30 10000 3.6 320 21:49 07.01.2023
319 Clear 20 1020 30 10000 2.24 287 20:57 07.01.2023
320 Clear 19 1020 36 10000 2.06 300 20:24 07.01.2023
321 Clear 16 1021 43 10000 2.57 170 19:18 07.01.2023
322 Clouds 13 1022 58 10000 2.24 110 17:59 07.01.2023
323 Clouds 12 1021 62 10000 0.45 139 17:39 07.01.2023
324 Clear 8 1022 67 10000 2.57 160 16:38 07.01.2023
325 Clear 5 1021 84 10000 2.06 120 15:50 07.01.2023
326 Clear 5 1021 84 10000 2.06 120 15:30 07.01.2023
327 Clear 5 1021 84 10000 0 0 14:32 07.01.2023
328 Clear 6 1020 82 10000 2.06 190 13:54 07.01.2023
329 Clear 6 1020 87 10000 2.06 190 13:54 07.01.2023
330 Clear 6 1020 82 10000 2.06 190 13:35 07.01.2023
331 Clear 8 1020 75 10000 2.57 170 12:23 07.01.2023
332 Clear 9 1020 73 10000 0 0 11:52 07.01.2023
333 Clear 9 1020 77 10000 0 0 10:26 07.01.2023
334 Clear 9 1022 77 10000 0 0 08:46 07.01.2023
335 Clouds 10 1022 77 10000 2.06 150 07:46 07.01.2023
336 Clouds 10 1022 75 10000 2.06 150 07:20 07.01.2023
337 Clouds 11 1021 70 10000 3.09 270 04:49 07.01.2023
338 Clouds 18 1020 43 10000 3.58 355 22:44 06.01.2023
339 Clouds 18 1019 43 10000 4.02 303 22:19 06.01.2023
340 Clouds 17 1020 42 10000 2.57 360 21:28 06.01.2023
341 Clouds 16 1022 47 10000 0.89 0 19:58 06.01.2023
342 Clear 16 1022 48 10000 2.24 83 19:40 06.01.2023
343 Clear 16 1022 50 10000 1.79 335 19:22 06.01.2023
344 Clouds 15 1022 53 10000 0.89 0 18:43 06.01.2023
345 Clouds 12 1022 64 10000 0.89 179 17:23 06.01.2023
346 Clouds 9 1021 76 10000 1.54 100 16:36 06.01.2023
347 Clouds 9 1020 74 10000 0.45 132 15:57 06.01.2023
348 Clouds 9 1021 77 10000 2.06 180 15:39 06.01.2023
349 Clouds 9 1020 76 10000 2.06 170 14:52 06.01.2023
350 Clear 10 1020 72 10000 0 0 12:37 06.01.2023
351 Clouds 11 1019 69 10000 1.71 326 10:58 06.01.2023
352 Clouds 12 1019 65 10000 0.45 132 08:56 06.01.2023
353 Clouds 12 1019 63 10000 1.54 250 07:44 06.01.2023
354 Clouds 18 1017 31 10000 4.12 90 01:43 06.01.2023
355 Clouds 20 1018 31 10000 1.34 13 22:55 05.01.2023
356 Clouds 20 1018 34 10000 4.12 150 21:47 05.01.2023
357 Clouds 16 1021 45 10000 4.12 150 19:29 05.01.2023
358 Clear 11 1022 57 10000 6.69 140 17:28 05.01.2023
359 Clear 9 1022 59 10000 4.12 160 16:20 05.01.2023
360 Clear 9 1021 59 10000 4.63 180 15:46 05.01.2023
361 Clouds 9 1021 60 10000 4.12 150 14:36 05.01.2023
362 Clear 9 1021 62 10000 5.66 140 12:43 05.01.2023
363 Clear 9 1021 63 10000 4.63 140 11:50 05.01.2023
364 Clear 10 1021 65 10000 4.63 150 09:52 05.01.2023
365 Clear 10 1022 63 10000 3.6 130 08:28 05.01.2023
366 Clear 10 1022 63 10000 3.09 130 07:18 05.01.2023
367 Clear 12 1021 60 10000 2.06 330 03:39 05.01.2023
368 Clear 18 1021 36 10000 1.34 280 22:53 04.01.2023
369 Clear 18 1022 36 10000 0.89 313 21:33 04.01.2023
370 Clear 17 1022 38 10000 2.06 150 20:36 04.01.2023
371 Clouds 16 1023 42 10000 0.89 186 19:56 04.01.2023
372 Clouds 16 1023 42 10000 0.89 186 19:56 04.01.2023
373 Clear 15 1024 45 10000 2.57 60 19:31 04.01.2023
374 Clear 13 1024 55 10000 3.09 140 18:30 04.01.2023
375 Clouds 7 1023 76 10000 1.54 110 16:32 04.01.2023
376 Clouds 7 1023 73 10000 3.6 150 15:34 04.01.2023
377 Clouds 7 1021 75 10000 3.09 120 13:44 04.01.2023
378 Clouds 7 1021 73 10000 2.06 150 11:40 04.01.2023
379 Clouds 7 1021 74 10000 2.06 150 11:19 04.01.2023
380 Clear 7 1021 73 10000 2.57 140 10:42 04.01.2023
381 Clear 7 1021 74 10000 2.57 140 10:21 04.01.2023
382 Clear 8 1022 76 10000 2.57 140 07:19 04.01.2023
383 Clouds 13 1019 55 10000 2.24 304 01:43 04.01.2023
384 Clouds 15 1018 46 10000 3.58 288 23:58 03.01.2023
385 Clouds 15 1018 45 10000 3.09 320 23:32 03.01.2023
386 Clear 15 1018 44 10000 4.12 250 22:26 03.01.2023
387 Clouds 13 1019 50 10000 2.57 190 20:51 03.01.2023
388 Clouds 11 1020 61 10000 3.09 180 18:52 03.01.2023
389 Clouds 7 1019 81 10000 2.06 120 16:47 03.01.2023
390 Clouds 7 1018 82 10000 3.09 160 15:47 03.01.2023
391 Clouds 6 1017 84 10000 1.54 130 13:51 03.01.2023
392 Clouds 6 1017 85 10000 1.54 130 13:29 03.01.2023
393 Clouds 6 1017 85 10000 1.37 194 12:57 03.01.2023
394 Clouds 6 1017 85 10000 0.45 73 12:29 03.01.2023
395 Clouds 7 1017 83 10000 0.45 73 10:25 03.01.2023
396 Clouds 7 1018 85 10000 2.06 120 06:20 03.01.2023
397 Clouds 8 1017 79 10000 0.45 218 03:54 03.01.2023
398 Clouds 8 1017 77 10000 3.09 180 03:34 03.01.2023
399 Clouds 11 1014 63 10000 4.12 320 23:36 02.01.2023
400 Clouds 11 1014 65 10000 5.14 300 22:41 02.01.2023
401 Clouds 10 1014 70 10000 2.06 10 21:34 02.01.2023
402 Drizzle 9 1015 77 10000 3.09 350 20:38 02.01.2023
403 Clouds 9 1015 77 10000 2.57 200 19:26 02.01.2023
404 Clouds 7 1014 81 10000 4.12 230 16:54 02.01.2023
405 Clouds 6 1012 84 10000 1.54 200 14:31 02.01.2023
406 Clouds 6 1011 85 10000 3.09 140 12:57 02.01.2023
407 Clear 6 1011 86 10000 3.09 140 11:40 02.01.2023
408 Clouds 6 1011 87 10000 3.6 120 09:42 02.01.2023
409 Clouds 6 1012 83 10000 5.14 290 07:29 02.01.2023
410 Clouds 10 1007 80 10000 10.8 250 00:39 02.01.2023
411 Clouds 12 1008 81 10000 4.02 168 21:55 01.01.2023
412 Rain 12 1008 78 10000 8.75 200 21:22 01.01.2023
413 Rain 13 1009 72 10000 9.77 220 20:42 01.01.2023
414 Rain 14 1010 70 10000 8.75 210 19:35 01.01.2023
415 Clouds 17 1009 44 10000 8.23 180 17:40 01.01.2023
416 Clouds 17 1010 45 10000 8.23 180 17:20 01.01.2023
417 Clouds 16 1010 48 10000 2.57 120 16:20 01.01.2023
418 Clouds 15 1010 51 10000 4.63 100 14:36 01.01.2023
419 Clouds 15 1011 55 10000 1.54 140 13:21 01.01.2023
420 Clouds 15 1011 55 10000 4.12 120 12:29 01.01.2023
421 Clouds 15 1012 56 10000 4.12 120 11:35 01.01.2023
422 Clear 14 1012 60 10000 3.6 160 09:49 01.01.2023
423 Clear 13 1013 64 10000 5.14 140 08:45 01.01.2023
424 Clear 13 1014 62 10000 5.14 140 08:18 01.01.2023
425 Clear 14 1014 61 10000 3.6 120 06:51 01.01.2023
426 Clear 21 1015 42 10000 2.06 70 00:19 01.01.2023
427 Clear 21 1015 42 10000 2.57 340 23:39 31.12.2022
428 Clear 20 1015 42 10000 2.06 90 22:30 31.12.2022
429 Clear 19 1016 43 10000 2.06 60 21:25 31.12.2022
430 Clear 19 1017 46 10000 2.06 90 20:33 31.12.2022
431 Clouds 15 1019 60 10000 1.34 163 18:57 31.12.2022
432 Clear 15 1019 62 10000 4.12 150 18:38 31.12.2022
433 Clouds 13 1018 69 10000 2.24 154 17:58 31.12.2022
434 Clear 12 1019 72 10000 4.63 160 17:34 31.12.2022
435 Clear 10 1017 80 10000 4.12 130 16:32 31.12.2022
436 Clear 9 1018 83 10000 5.66 140 15:43 31.12.2022
437 Clear 8 1018 84 10000 5.14 140 14:34 31.12.2022
438 Clear 9 1018 81 10000 5.14 140 13:27 31.12.2022
439 Clear 9 1018 84 10000 3.6 150 12:24 31.12.2022
440 Clear 9 1018 84 10000 4.63 150 11:56 31.12.2022
441 Clear 9 1018 85 10000 4.63 150 11:38 31.12.2022
442 Clear 9 1019 85 10000 4.12 150 10:18 31.12.2022
443 Clouds 9 1019 86 10000 4.63 130 09:50 31.12.2022
444 Clear 9 1019 85 10000 5.14 140 08:39 31.12.2022
445 Clouds 11 1019 81 10000 0 0 05:39 31.12.2022
446 Clouds 16 1017 60 10000 3.6 350 00:34 31.12.2022
447 Clouds 16 1017 60 10000 4.63 320 23:24 30.12.2022
448 Clouds 16 1017 57 10000 2.06 210 22:19 30.12.2022
449 Clouds 16 1018 58 10000 1.79 300 21:38 30.12.2022
450 Clouds 16 1017 60 10000 1.54 310 21:19 30.12.2022
451 Clouds 13 1019 75 10000 1.34 151 18:29 30.12.2022
452 Clear 12 1019 81 10000 2.06 130 17:35 30.12.2022
453 Clouds 11 1018 84 10000 0.45 230 16:49 30.12.2022
454 Clouds 10 1018 86 10000 0.45 89 14:55 30.12.2022
455 Clouds 10 1017 85 10000 1.54 60 12:57 30.12.2022
456 Clouds 12 1016 77 10000 4.63 200 08:25 30.12.2022
457 Clouds 13 1015 66 10000 1.79 192 04:24 30.12.2022
458 Clouds 14 1014 60 10000 2.06 220 02:27 30.12.2022
459 Clouds 16 1014 49 10000 4.12 250 23:46 29.12.2022
460 Clouds 17 1014 44 10000 1.79 213 21:56 29.12.2022
461 Clouds 17 1014 43 10000 2.68 225 21:28 29.12.2022
462 Clouds 17 1015 46 10000 2.68 169 20:53 29.12.2022
463 Clouds 15 1016 57 10000 3.09 160 19:22 29.12.2022
464 Clouds 12 1016 68 10000 2.06 210 17:53 29.12.2022
465 Clouds 11 1016 72 10000 2.57 190 17:26 29.12.2022
466 Clouds 10 1016 74 10000 2.06 160 16:54 29.12.2022
467 Clouds 9 1015 75 10000 2.29 132 15:55 29.12.2022
468 Clear 8 1014 77 10000 3.6 190 13:42 29.12.2022
469 Clear 9 1014 70 10000 1.54 130 11:54 29.12.2022
470 Clear 9 1015 76 10000 2.06 120 09:53 29.12.2022
471 Clouds 10 1014 77 10000 3.6 190 03:41 29.12.2022
472 Clouds 11 1013 77 10000 4.12 170 23:29 28.12.2022
473 Clouds 11 1013 78 10000 5.66 200 22:20 28.12.2022
474 Rain 11 1013 73 10000 8.75 220 21:20 28.12.2022
475 Rain 11 1013 76 10000 2.24 302 20:19 28.12.2022
476 Rain 12 1013 68 10000 7.72 230 18:31 28.12.2022
477 Clear 15 1011 32 10000 3.09 310 16:21 28.12.2022
478 Clouds 16 1010 31 10000 1.79 150 13:59 28.12.2022
479 Clouds 15 1010 34 10000 6.17 210 12:48 28.12.2022
480 Clouds 15 1011 34 10000 3.6 190 11:33 28.12.2022
481 Clear 15 1011 32 10000 8.23 190 09:34 28.12.2022
482 Clear 15 1012 34 10000 4.12 150 07:42 28.12.2022
483 Clouds 15 1012 34 10000 3.09 160 06:45 28.12.2022
484 Clouds 23 1013 22 10000 1.79 306 00:57 28.12.2022
485 Clear 25 1015 18 10000 1.54 10 21:40 27.12.2022
486 Clear 22 1017 24 10000 3.6 140 19:51 27.12.2022
487 Clouds 18 1019 32 10000 5.66 140 18:41 27.12.2022
488 Clouds 14 1019 40 10000 1.34 143 16:59 27.12.2022
489 Clear 12 1019 41 10000 3.6 140 15:54 27.12.2022
490 Clear 12 1020 41 10000 3.09 160 14:25 27.12.2022
491 Clear 13 1019 38 10000 6.69 160 12:23 27.12.2022
492 Clear 14 1019 37 10000 4.63 120 09:48 27.12.2022
493 Clear 14 1020 37 10000 4.63 120 09:24 27.12.2022
494 Clear 14 1019 40 10000 4.63 140 08:47 27.12.2022
495 Clear 14 1020 41 10000 3.09 220 04:54 27.12.2022
496 Haze 24 1018 19 6437 0.45 153 23:39 26.12.2022
497 Clear 23 1019 22 10000 1.54 30 21:50 26.12.2022
498 Clear 21 1020 26 10000 0.45 156 20:43 26.12.2022
499 Clear 19 1021 29 10000 2.57 330 19:51 26.12.2022
500 Clear 16 1021 35 10000 4.12 150 18:42 26.12.2022
501 Clear 10 1022 47 10000 3.6 180 16:51 26.12.2022
502 Clear 7 1022 52 10000 4.12 140 15:25 26.12.2022
503 Clear 7 1021 52 10000 3.6 180 12:55 26.12.2022
504 Clear 10 1021 45 10000 1.54 210 09:44 26.12.2022
505 Clear 12 1022 44 10000 2.06 150 05:41 26.12.2022
506 Clear 22 1020 22 10000 3.09 0 23:39 25.12.2022
507 Clear 22 1021 21 10000 3.09 60 22:48 25.12.2022
508 Clear 21 1021 22 10000 4.12 90 21:50 25.12.2022
509 Clear 19 1023 27 10000 3.6 70 19:38 25.12.2022
510 Clear 14 1025 39 10000 0.45 173 17:52 25.12.2022
511 Clear 12 1024 44 10000 0.89 137 17:34 25.12.2022
512 Clear 11 1024 43 10000 3.09 120 16:38 25.12.2022
513 Clear 9 1023 48 10000 2.57 80 13:28 25.12.2022
514 Clear 8 1023 55 10000 4.12 170 11:21 25.12.2022
515 Clear 14 1022 42 10000 1.34 265 02:57 25.12.2022
516 Clear 20 1022 27 10000 4.63 330 22:38 24.12.2022
517 Clear 16 1025 32 10000 1.34 207 19:52 24.12.2022
518 Clear 10 1025 48 10000 3.6 150 16:51 24.12.2022
519 Clear 6 1023 55 10000 2.57 140 14:56 24.12.2022
520 Clear 8 1022 51 10000 1.42 84 13:56 24.12.2022
521 Clear 5 1022 64 10000 3.09 160 11:44 24.12.2022
522 Clear 7 1022 53 10000 2.06 130 10:23 24.12.2022
523 Clear 8 1022 54 10000 3.09 130 09:37 24.12.2022
524 Clear 9 1022 53 10000 2.57 130 07:37 24.12.2022
525 Clear 13 1020 41 10000 3.09 300 02:51 24.12.2022
526 Clear 19 1018 25 10000 3.6 310 00:18 24.12.2022
527 Clear 19 1018 24 10000 4.63 300 22:30 23.12.2022
528 Clear 19 1019 26 10000 2.24 3 20:55 23.12.2022
529 Clear 17 1020 30 10000 2.06 140 19:40 23.12.2022
530 Clear 16 1020 31 10000 2.06 140 19:21 23.12.2022
531 Clear 14 1021 34 10000 2.57 140 18:53 23.12.2022
532 Clear 14 1021 37 10000 3.09 160 18:21 23.12.2022
533 Clear 8 1020 49 10000 4.12 130 16:48 23.12.2022
534 Clouds 6 1020 53 10000 5.14 110 15:45 23.12.2022
535 Clear 6 1020 51 10000 3.09 130 12:28 23.12.2022
536 Clear 7 1020 53 10000 3.6 150 09:52 23.12.2022
537 Clear 7 1020 53 10000 3.6 150 09:33 23.12.2022
538 Clear 8 1021 49 10000 2.57 110 07:20 23.12.2022
539 Clear 9 1020 48 10000 2.57 110 06:48 23.12.2022
540 Clear 19 1017 22 10000 2.06 340 23:24 22.12.2022
541 Clear 19 1017 21 10000 1.34 16 22:58 22.12.2022
542 Clear 19 1018 22 10000 1.79 225 21:48 22.12.2022
543 Clear 16 1020 33 10000 1.54 130 19:43 22.12.2022
544 Clear 14 1020 37 10000 1.54 130 19:18 22.12.2022
545 Clear 10 1020 53 10000 5.14 160 17:31 22.12.2022
546 Clear 6 1019 59 10000 3.09 130 16:39 22.12.2022
547 Clear 5 1020 62 10000 3.6 120 15:35 22.12.2022
548 Clear 5 1019 65 10000 4.12 150 14:53 22.12.2022
549 Clear 5 1018 69 10000 3.09 110 13:51 22.12.2022
550 Clear 5 1018 66 10000 3.09 110 13:18 22.12.2022
551 Clear 8 1018 65 10000 1.2 118 10:55 22.12.2022
552 Clear 6 1019 69 10000 4.12 140 10:30 22.12.2022
553 Clear 6 1019 68 10000 3.09 130 09:21 22.12.2022
554 Clear 7 1020 68 10000 3.09 130 08:28 22.12.2022
555 Clear 7 1019 66 10000 3.09 130 06:41 22.12.2022
556 Clear 10 1017 59 10000 0.45 184 04:18 22.12.2022
557 Clear 17 1017 31 10000 4.12 330 00:24 22.12.2022
558 Clear 18 1017 28 10000 3.09 360 22:24 21.12.2022
559 Clear 17 1017 31 10000 2.24 276 21:24 21.12.2022
560 Clear 17 1018 34 10000 0.89 182 20:54 21.12.2022
561 Clear 16 1018 36 10000 2.06 160 20:29 21.12.2022
562 Clear 14 1019 41 10000 1.34 159 19:44 21.12.2022
563 Clear 13 1020 44 10000 0.45 221 19:24 21.12.2022
564 Clear 12 1020 48 10000 3.09 170 18:46 21.12.2022
565 Clear 10 1019 55 10000 3.09 110 17:38 21.12.2022
566 Clear 2 1020 77 10000 2.06 210 14:58 21.12.2022
567 Clear 3 1019 73 10000 4.63 150 13:26 21.12.2022
568 Clear 4 1020 73 10000 2.57 160 11:46 21.12.2022
569 Clear 4 1020 75 10000 2.57 160 11:20 21.12.2022
570 Clear 5 1020 73 10000 2.06 170 09:36 21.12.2022
571 Clouds 8 1021 66 10000 0 0 07:32 21.12.2022
572 Clear 12 1020 50 10000 2.57 90 02:28 21.12.2022
573 Clouds 18 1021 27 10000 4.12 330 22:48 20.12.2022
574 Clear 18 1022 27 10000 3.6 340 21:21 20.12.2022
575 Clear 17 1023 30 10000 5.14 130 20:23 20.12.2022
576 Clear 15 1023 35 10000 3.6 120 19:33 20.12.2022
577 Clear 12 1024 44 10000 4.63 110 18:30 20.12.2022
578 Clear 11 1025 46 10000 4.12 90 17:55 20.12.2022
579 Clear 9 1025 52 10000 4.63 190 17:34 20.12.2022
580 Clear 6 1025 59 10000 3.6 140 16:35 20.12.2022
581 Clear 6 1024 59 10000 2.57 140 15:29 20.12.2022
582 Clear 7 1024 57 10000 4.63 110 14:44 20.12.2022
583 Clear 7 1024 56 10000 4.63 110 14:25 20.12.2022
584 Clear 5 1025 63 10000 3.6 110 12:44 20.12.2022
585 Clear 5 1025 63 10000 3.6 110 12:25 20.12.2022
586 Clear 5 1025 65 10000 3.09 150 11:32 20.12.2022
587 Clear 6 1025 61 10000 3.09 170 08:47 20.12.2022
588 Clear 16 1022 34 10000 2.57 280 00:35 20.12.2022
589 Clear 17 1022 30 10000 2.57 310 22:37 19.12.2022
590 Clear 16 1022 31 10000 1.54 310 21:44 19.12.2022
591 Clear 14 1023 40 10000 0.89 184 19:56 19.12.2022
592 Clear 14 1023 41 10000 1.54 140 19:38 19.12.2022
593 Clear 11 1024 49 10000 1.34 165 18:24 19.12.2022
594 Clear 6 1022 67 10000 3.09 170 16:35 19.12.2022
595 Clear 5 1020 66 10000 3.09 150 13:26 19.12.2022
596 Clouds 7 1019 62 10000 0.45 115 11:55 19.12.2022
597 Clear 6 1019 65 10000 1.54 160 10:34 19.12.2022
598 Clouds 8 1018 61 10000 2.06 230 07:40 19.12.2022
599 Clouds 12 1015 46 10000 3.09 350 02:48 19.12.2022
600 Clouds 17 1014 34 10000 3.09 160 22:20 18.12.2022
601 Clouds 17 1013 35 10000 4.12 140 21:41 18.12.2022
602 Clouds 17 1014 34 10000 4.12 140 21:20 18.12.2022
603 Clouds 15 1015 41 10000 7.72 90 19:49 18.12.2022
604 Clouds 15 1015 42 10000 7.72 90 19:31 18.12.2022
605 Clouds 10 1015 55 10000 3.6 130 17:53 18.12.2022
606 Clouds 8 1015 61 10000 2.57 250 16:27 18.12.2022
607 Clouds 8 1014 60 10000 4.12 200 15:39 18.12.2022
608 Clouds 8 1014 60 10000 4.12 200 15:18 18.12.2022
609 Clouds 8 1014 58 10000 2.06 190 13:36 18.12.2022
610 Clouds 8 1013 60 10000 0 0 12:51 18.12.2022
611 Clouds 8 1014 57 10000 3.09 170 11:54 18.12.2022
612 Clouds 7 1014 61 10000 3.09 110 10:19 18.12.2022
613 Clouds 7 1014 61 10000 3.09 110 10:19 18.12.2022
614 Clouds 7 1015 62 10000 1.54 140 08:47 18.12.2022
615 Clouds 7 1015 60 10000 2.57 110 07:20 18.12.2022
616 Clouds 7 1015 59 10000 1.54 100 06:20 18.12.2022
617 Clouds 9 1015 49 10000 0.89 221 02:59 18.12.2022
618 Clear 16 1015 28 10000 3.09 310 23:40 17.12.2022
619 Clear 16 1015 29 10000 3.09 340 21:40 17.12.2022
620 Clear 11 1019 43 10000 3.6 90 18:54 17.12.2022
621 Clear 4 1018 59 10000 4.63 100 16:39 17.12.2022
622 Clear 3 1020 61 10000 1.96 77 13:57 17.12.2022
623 Clear 3 1019 63 10000 3.6 120 11:24 17.12.2022
624 Clear 3 1019 68 10000 3.09 110 10:44 17.12.2022
625 Clear 3 1020 69 10000 2.06 100 09:41 17.12.2022
626 Clear 4 1019 69 10000 2.06 110 07:24 17.12.2022
627 Clear 5 1020 66 10000 1.54 190 06:45 17.12.2022
628 Clouds 13 1017 44 10000 4.12 320 23:39 16.12.2022
629 Clouds 13 1018 43 10000 2.24 264 20:55 16.12.2022
630 Clear 9 1020 60 10000 3.09 150 18:46 16.12.2022
631 Clear 5 1019 74 10000 1.54 120 15:37 16.12.2022
632 Clear 5 1019 76 10000 0 0 14:47 16.12.2022
633 Clouds 4 1018 79 10000 2.06 160 13:40 16.12.2022
634 Clouds 5 1019 74 10000 0.57 110 11:57 16.12.2022
635 Clouds 5 1019 76 10000 0 0 09:53 16.12.2022
636 Clouds 5 1020 75 10000 1.54 160 08:54 16.12.2022
637 Clouds 5 1019 74 10000 1 298 07:55 16.12.2022
638 Clouds 6 1020 70 10000 1.29 282 06:58 16.12.2022
639 Clear 13 1017 39 10000 3.13 278 23:19 15.12.2022
640 Clear 12 1018 40 10000 3.13 299 21:58 15.12.2022
641 Clear 11 1019 46 10000 2.24 314 20:24 15.12.2022
642 Clear 9 1020 51 10000 1.34 149 19:35 15.12.2022
643 Clouds 5 1020 71 10000 1.79 150 17:28 15.12.2022
644 Clear 3 1020 77 10000 2.06 120 16:39 15.12.2022
645 Clouds 1 1021 80 10000 1.51 119 14:57 15.12.2022
646 Clear 1 1019 80 10000 3.6 150 13:18 15.12.2022
647 Clear 1 1020 82 10000 2.06 160 12:25 15.12.2022
648 Clear 1 1020 82 10000 2.06 160 12:25 15.12.2022
649 Clear 2 1020 80 10000 2.06 120 09:28 15.12.2022
650 Clear 2 1021 79 10000 2.06 190 08:46 15.12.2022
651 Clear 4 1020 73 10000 2.57 220 05:47 15.12.2022
652 Clear 7 1019 60 10000 3.09 300 02:38 15.12.2022
653 Clear 10 1019 49 10000 2.06 310 21:24 14.12.2022
654 Clear 10 1019 51 10000 2.24 330 20:51 14.12.2022
655 Clear 9 1020 56 10000 1.34 242 20:18 14.12.2022
656 Clear 5 1021 74 10000 1.34 0 17:52 14.12.2022
657 Clear 4 1020 83 10000 0.89 119 16:57 14.12.2022
658 Clear 1 1018 87 10000 3.09 180 15:30 14.12.2022
659 Clear 1 1019 85 10000 2.57 110 13:31 14.12.2022
660 Clear 2 1018 86 10000 2.06 100 11:20 14.12.2022
661 Clear 2 1018 86 10000 2.06 100 11:20 14.12.2022
662 Clear 2 1018 85 10000 1.54 190 10:25 14.12.2022
663 Clear 3 1018 83 10000 2.57 220 08:48 14.12.2022
664 Clouds 11 1014 48 10000 5.14 260 22:46 13.12.2022
665 Clouds 10 1014 50 10000 3.13 277 21:46 13.12.2022
666 Clear 10 1015 53 10000 2.24 0 20:48 13.12.2022
667 Clouds 10 1015 56 10000 2.57 270 19:51 13.12.2022
668 Clear 6 1015 88 10000 1.54 170 16:42 13.12.2022
669 Clouds 3 1014 90 10000 1.54 190 14:59 13.12.2022
670 Clouds 4 1013 90 10000 2.06 150 13:54 13.12.2022
671 Clouds 5 1013 89 10000 0.45 334 10:55 13.12.2022
672 Clouds 5 1012 89 10000 2.06 180 10:35 13.12.2022
673 Clouds 5 1012 89 10000 2.57 210 09:21 13.12.2022
674 Clouds 10 1011 66 10000 2.57 0 22:50 12.12.2022
675 Clouds 9 1010 69 10000 2.68 142 22:21 12.12.2022
676 Clouds 8 1011 73 10000 2.57 180 20:43 12.12.2022
677 Rain 5 1012 87 10000 2.57 340 18:32 12.12.2022
678 Rain 7 1009 83 10000 11.32 330 15:46 12.12.2022
679 Clouds 11 1008 50 10000 10.29 220 14:26 12.12.2022
680 Clouds 12 1008 48 10000 10.29 220 14:26 12.12.2022
681 Clouds 11 1010 34 10000 2.24 174 09:56 12.12.2022
682 Clear 11 1011 35 10000 3.6 310 09:18 12.12.2022
683 Clear 14 1012 28 10000 2.57 140 04:52 12.12.2022
684 Clouds 18 1011 21 10000 1.79 222 01:52 12.12.2022
685 Clear 23 1013 16 10000 8.23 200 22:19 11.12.2022
686 Clear 21 1015 21 10000 4.63 160 20:41 11.12.2022
687 Clear 20 1017 27 10000 3.09 160 19:40 11.12.2022
688 Clear 17 1017 36 10000 1.79 100 18:55 11.12.2022
689 Clear 15 1018 42 10000 1.79 143 17:57 11.12.2022
690 Clear 13 1017 46 10000 4.12 160 17:28 11.12.2022
691 Clear 12 1017 50 10000 5.66 150 16:49 11.12.2022
692 Clear 9 1017 55 10000 6.17 140 15:45 11.12.2022
693 Clear 9 1017 59 10000 6.17 150 13:43 11.12.2022
694 Clear 10 1017 56 10000 4.63 150 12:43 11.12.2022
695 Clear 9 1019 62 10000 4.63 160 10:44 11.12.2022
696 Clear 12 1018 62 10000 3.6 310 03:39 11.12.2022
697 Clear 19 1017 34 10000 2.57 330 00:28 11.12.2022
698 Clear 20 1017 33 10000 2.68 316 22:50 10.12.2022
699 Clear 20 1017 33 10000 2.57 290 22:32 10.12.2022
700 Clear 19 1017 36 10000 1.54 350 21:18 10.12.2022
701 Clear 18 1018 43 10000 1.54 290 20:20 10.12.2022
702 Clear 12 1020 61 10000 1.34 141 17:54 10.12.2022
703 Clear 8 1020 70 10000 4.12 150 16:47 10.12.2022
704 Clear 4 1019 82 10000 5.14 140 15:52 10.12.2022
705 Clear 5 1019 82 10000 5.14 140 15:33 10.12.2022
706 Clear 4 1018 86 10000 3.09 160 13:44 10.12.2022
707 Clear 6 1019 80 10000 3.09 130 12:27 10.12.2022
708 Clear 7 1018 75 10000 0.2 101 10:57 10.12.2022
709 Clear 7 1019 76 10000 3.09 140 09:46 10.12.2022
710 Clear 8 1019 73 10000 3.09 170 07:23 10.12.2022
711 Clear 8 1019 72 10000 3.09 180 06:54 10.12.2022
712 Clear 17 1017 44 10000 4.12 310 23:51 09.12.2022
713 Clear 18 1017 43 10000 3.58 287 22:43 09.12.2022
714 Clear 17 1017 48 10000 2.57 330 21:41 09.12.2022
715 Clear 17 1017 51 10000 2.24 339 20:59 09.12.2022
716 Clear 15 1019 59 10000 0.89 263 19:46 09.12.2022
717 Clouds 12 1019 72 10000 1.34 156 17:56 09.12.2022
718 Clouds 12 1019 73 10000 0.89 0 17:56 09.12.2022
719 Clear 10 1019 77 10000 2.57 180 17:27 09.12.2022
720 Clouds 8 1019 79 10000 3.09 160 16:27 09.12.2022
721 Clouds 7 1019 85 10000 2.57 150 15:30 09.12.2022
722 Clear 8 1019 85 10000 2.57 140 12:50 09.12.2022
723 Clear 8 1020 86 10000 2.57 140 10:50 09.12.2022
724 Clear 8 1020 87 10000 2.57 140 10:23 09.12.2022
725 Clear 10 1021 79 10000 2.57 170 05:39 09.12.2022
726 Clear 12 1020 72 10000 3.09 270 03:18 09.12.2022
727 Clear 18 1021 41 10000 3.13 286 23:20 08.12.2022
728 Clouds 17 1022 50 10000 1.34 262 20:56 08.12.2022
729 Clouds 14 1024 63 10000 0.89 0 18:57 08.12.2022
730 Clear 9 1024 80 10000 3.09 150 16:38 08.12.2022
731 Clear 7 1023 86 10000 3.09 140 14:30 08.12.2022
732 Clear 7 1023 83 10000 3.09 160 12:28 08.12.2022
733 Clear 8 1023 82 10000 3.09 150 10:36 08.12.2022
734 Clear 8 1024 80 10000 0 0 09:28 08.12.2022
735 Clear 10 1023 75 10000 2.06 300 06:51 08.12.2022
736 Clouds 19 1019 45 10000 2.68 278 22:43 07.12.2022
737 Clouds 18 1019 47 10000 2.06 320 22:18 07.12.2022
738 Clouds 18 1019 48 10000 4.12 360 21:45 07.12.2022
739 Clouds 17 1020 56 10000 1.79 0 19:49 07.12.2022
740 Clouds 14 1021 68 10000 1.54 150 18:20 07.12.2022
741 Clouds 11 1019 77 10000 3.09 130 15:30 07.12.2022
742 Clear 11 1018 75 10000 4.12 160 13:26 07.12.2022
743 Clear 11 1017 76 10000 3.09 130 10:49 07.12.2022
744 Clouds 11 1017 76 10000 1.41 148 09:58 07.12.2022
745 Clouds 11 1017 77 10000 1.76 142 08:55 07.12.2022
746 Clear 11 1018 75 10000 2.57 160 06:50 07.12.2022
747 Clear 13 1016 74 10000 3.09 260 05:23 07.12.2022
748 Clouds 21 1013 39 10000 5.66 210 23:44 06.12.2022
749 Clouds 21 1014 41 10000 7.2 220 21:41 06.12.2022
750 Clear 19 1016 59 10000 1.79 147 18:59 06.12.2022
751 Clear 15 1016 76 10000 3.09 170 17:18 06.12.2022
752 Clouds 13 1015 83 10000 4.63 140 16:23 06.12.2022
753 Clouds 11 1015 83 10000 4.12 130 15:35 06.12.2022
754 Clear 11 1014 87 10000 4.63 140 14:35 06.12.2022
755 Clear 12 1014 86 10000 3.09 120 13:39 06.12.2022
756 Clear 12 1014 86 10000 3.09 120 13:39 06.12.2022
757 Clouds 12 1014 86 10000 3.6 140 12:40 06.12.2022
758 Clouds 12 1014 87 10000 3.09 140 10:39 06.12.2022
759 Clear 13 1014 85 10000 3.6 140 07:38 06.12.2022
760 Clouds 16 1013 68 10000 2.06 340 02:22 06.12.2022
761 Clouds 20 1013 64 10000 1.79 284 22:47 05.12.2022
762 Clouds 20 1015 70 10000 2.06 310 21:39 05.12.2022
763 Clouds 19 1015 77 10000 2.06 340 20:48 05.12.2022
764 Haze 17 1016 86 10000 1.54 330 19:51 05.12.2022
765 Haze 17 1016 87 10000 1.54 330 19:32 05.12.2022
766 Mist 15 1016 94 9656 1.54 150 16:49 05.12.2022
767 Mist 14 1016 94 1207 0 0 15:28 05.12.2022
768 Fog 15 1016 93 604 0 0 13:44 05.12.2022
769 Fog 15 1016 93 604 0.45 259 12:57 05.12.2022
770 Fog 15 1016 93 604 0.89 214 12:37 05.12.2022
771 Fog 15 1016 93 402 1.34 322 11:00 05.12.2022
772 Mist 16 1017 93 4023 0 0 06:38 05.12.2022
773 Drizzle 17 1017 91 4828 1.54 140 23:56 04.12.2022
774 Mist 17 1017 91 10000 4.12 150 22:41 04.12.2022
775 Mist 17 1017 91 10000 4.12 150 22:18 04.12.2022
776 Drizzle 17 1018 91 10000 2.57 140 21:31 04.12.2022
777 Clouds 17 1019 91 9656 5.14 120 19:53 04.12.2022
778 Rain 16 1020 91 9656 5.14 120 19:23 04.12.2022
779 Rain 16 1020 92 9656 5.14 90 18:20 04.12.2022
780 Rain 16 1021 91 10000 4.63 100 17:22 04.12.2022
781 Rain 15 1021 91 9656 3.09 170 16:36 04.12.2022
782 Rain 15 1021 91 9656 3.09 170 16:18 04.12.2022
783 Rain 15 1021 90 9656 4.12 130 15:26 04.12.2022
784 Rain 15 1019 88 9656 3.09 180 13:51 04.12.2022
785 Rain 15 1019 87 10000 5.14 130 12:46 04.12.2022
786 Clouds 15 1019 87 10000 5.14 130 12:21 04.12.2022
787 Clouds 15 1020 88 10000 5.66 160 11:19 04.12.2022
788 Clouds 15 1022 91 10000 4.63 140 07:34 04.12.2022
789 Clouds 15 1021 91 10000 2.68 329 02:24 04.12.2022
790 Drizzle 15 1021 90 10000 1.79 314 23:43 03.12.2022
791 Clouds 15 1021 89 10000 3.09 340 22:24 03.12.2022
792 Clouds 15 1021 89 10000 3.09 310 21:45 03.12.2022
793 Rain 15 1021 89 10000 3.09 90 20:36 03.12.2022
794 Mist 14 1024 84 10000 5.66 180 18:40 03.12.2022
795 Rain 17 1023 53 10000 5.66 210 17:30 03.12.2022
796 Clouds 15 1022 53 10000 3.6 130 15:49 03.12.2022
797 Clear 14 1020 47 10000 4.12 150 12:56 03.12.2022
798 Clear 14 1022 45 10000 4.12 150 12:28 03.12.2022
799 Clear 14 1021 45 10000 4.63 120 10:30 03.12.2022
800 Clouds 14 1019 43 10000 2.32 106 07:59 03.12.2022
801 Clear 19 1018 32 10000 3.6 300 01:31 03.12.2022
802 Clear 19 1018 32 10000 3.6 300 01:31 03.12.2022
803 Clear 19 1018 32 10000 3.6 300 01:31 03.12.2022
804 Clear 22 1017 25 10000 4.12 360 23:26 02.12.2022
805 Clear 23 1017 26 10000 3.13 324 21:34 02.12.2022
806 Clear 21 1019 31 10000 2.06 220 19:37 02.12.2022
807 Clear 13 1018 42 10000 3.6 140 16:23 02.12.2022
808 Clear 12 1018 39 10000 3.6 140 14:48 02.12.2022
809 Clear 13 1018 39 10000 3.6 140 14:27 02.12.2022
810 Clear 13 1017 37 10000 4.63 120 13:41 02.12.2022
811 Clear 13 1017 34 10000 2.06 110 11:47 02.12.2022
812 Clear 14 1017 36 10000 3.6 220 09:52 02.12.2022
813 Clear 15 1017 35 10000 2.57 140 07:25 02.12.2022
814 Clouds 15 1016 36 10000 0.89 128 05:58 02.12.2022
815 Clear 24 1014 20 10000 5.14 190 22:40 01.12.2022
816 Clear 24 1015 23 10000 5.14 220 21:40 01.12.2022
817 Clear 23 1016 25 10000 4.63 160 20:32 01.12.2022
818 Clouds 20 1017 32 10000 1.34 135 18:57 01.12.2022
819 Clear 13 1017 41 10000 2.57 190 16:31 01.12.2022
820 Clear 11 1016 43 10000 4.63 150 13:50 01.12.2022
821 Clear 12 1015 40 10000 3.6 160 10:43 01.12.2022
822 Clear 12 1015 40 10000 4.63 140 09:54 01.12.2022
823 Clear 12 1015 40 10000 4.63 140 09:36 01.12.2022
824 Clear 13 1015 41 10000 2.57 110 05:49 01.12.2022
825 Clouds 24 1014 22 10000 1.34 123 22:41 30.11.2022
826 Clear 23 1015 24 10000 3.13 91 21:20 30.11.2022
827 Clouds 22 1015 24 10000 2.68 169 20:55 30.11.2022
828 Clear 22 1016 25 10000 2.57 150 20:23 30.11.2022
829 Clouds 18 1017 32 10000 5.14 160 18:36 30.11.2022
830 Clouds 15 1017 37 10000 4.63 160 17:39 30.11.2022
831 Clear 11 1016 47 10000 5.14 170 16:20 30.11.2022
832 Clear 10 1017 46 10000 4.63 170 14:41 30.11.2022
833 Clear 9 1017 47 10000 4.63 170 14:23 30.11.2022
834 Clear 9 1017 46 10000 5.14 150 11:57 30.11.2022
835 Clear 10 1017 44 10000 4.12 160 08:41 30.11.2022
836 Clear 11 1016 43 10000 1.9 121 07:59 30.11.2022
837 Clear 12 1015 42 10000 3.09 60 04:56 30.11.2022
838 Clear 20 1013 26 10000 3.6 340 23:22 29.11.2022
839 Clear 19 1013 26 10000 4.12 320 21:48 29.11.2022
840 Clear 19 1013 27 10000 3.6 300 20:50 29.11.2022
841 Clear 18 1014 29 10000 3.6 340 19:46 29.11.2022
842 Clear 16 1014 34 10000 2.57 150 17:51 29.11.2022
843 Clear 11 1013 41 10000 1.54 150 16:29 29.11.2022
844 Clear 10 1012 42 10000 4.12 210 14:51 29.11.2022
845 Clear 10 1011 38 10000 5.66 200 13:38 29.11.2022
846 Clear 11 1010 35 10000 6.17 210 12:36 29.11.2022
847 Clear 11 1010 33 10000 6.69 210 11:30 29.11.2022
848 Clear 12 1010 32 10000 4.12 190 10:23 29.11.2022
849 Clear 12 1010 33 10000 3.6 170 08:43 29.11.2022
850 Clear 14 1010 28 10000 4.12 200 05:52 29.11.2022
851 Clear 22 1010 15 10000 7.72 250 23:46 28.11.2022
852 Clear 23 1009 14 10000 7.72 250 23:21 28.11.2022
853 Clouds 23 1010 15 10000 2.68 254 21:55 28.11.2022
854 Clear 23 1011 15 10000 6.17 230 21:36 28.11.2022
855 Clear 21 1013 17 10000 3.09 150 20:20 28.11.2022
856 Clear 18 1015 20 10000 3.6 150 18:40 28.11.2022
857 Clouds 15 1015 24 10000 1.34 258 17:51 28.11.2022
858 Clouds 13 1015 28 10000 0.45 153 16:59 28.11.2022
859 Clear 9 1015 29 10000 4.63 150 14:30 28.11.2022
860 Clear 9 1016 28 10000 2.57 160 13:52 28.11.2022
861 Clear 9 1016 30 10000 2.06 120 12:43 28.11.2022
862 Clouds 9 1014 28 10000 2.08 127 10:55 28.11.2022
863 Clear 9 1018 28 10000 3.6 150 07:53 28.11.2022
864 Clear 10 1018 27 10000 2.57 230 04:45 28.11.2022
865 Clear 12 1017 25 10000 0.89 285 03:59 28.11.2022
866 Clear 13 1017 23 10000 3.09 340 03:20 28.11.2022
867 Clear 20 1018 15 10000 2.57 290 22:53 27.11.2022
868 Clear 19 1018 15 10000 1.54 340 21:49 27.11.2022
869 Clear 19 1019 16 10000 0.89 272 20:36 27.11.2022
870 Clear 14 1020 24 10000 1.34 276 18:00 27.11.2022
871 Haze 7 1019 31 6437 3.6 150 15:35 27.11.2022
872 Haze 7 1018 32 8047 2.57 130 13:33 27.11.2022
873 Haze 7 1018 31 8047 3.6 140 10:57 27.11.2022
874 Haze 8 1017 28 8047 3.6 150 08:47 27.11.2022
875 Haze 11 1016 24 9656 2.57 140 04:47 27.11.2022
876 Clear 20 1017 14 10000 3.6 310 22:34 26.11.2022
877 Clear 18 1019 18 10000 3.13 295 20:51 26.11.2022
878 Clear 16 1021 25 10000 1.54 230 19:29 26.11.2022
879 Clear 13 1021 32 10000 1.34 267 17:54 26.11.2022
880 Clear 5 1021 47 10000 4.12 140 15:53 26.11.2022
881 Clear 4 1021 49 10000 3.09 120 13:35 26.11.2022
882 Clear 6 1022 44 10000 3.6 110 11:45 26.11.2022
883 Clear 7 1022 43 10000 2.57 100 10:22 26.11.2022
884 Clear 7 1022 42 10000 4.63 140 09:31 26.11.2022
885 Clear 9 1022 37 10000 4.12 120 06:30 26.11.2022
886 Clear 18 1022 21 10000 2.57 120 21:46 25.11.2022
887 Clear 18 1023 22 10000 3.13 19 21:22 25.11.2022
888 Clear 17 1024 24 10000 3.58 90 19:56 25.11.2022
889 Clear 12 1026 34 10000 1.79 44 16:49 25.11.2022
890 Clear 9 1025 41 10000 2.68 43 14:21 25.11.2022
891 Clear 9 1024 34 10000 3.6 180 09:21 25.11.2022
892 Clear 10 1024 32 10000 3.09 100 08:40 25.11.2022
893 Clear 11 1024 29 10000 4.12 50 06:54 25.11.2022
894 Clear 11 1024 29 10000 4.12 50 06:22 25.11.2022
895 Clear 18 1019 17 10000 5.14 70 23:54 24.11.2022
896 Clear 18 1019 17 10000 4.12 310 22:50 24.11.2022
897 Clear 17 1018 17 10000 3.58 46 21:58 24.11.2022
898 Clear 16 1019 20 10000 7.2 340 20:19 24.11.2022
899 Clear 13 1020 29 10000 6.26 329 18:19 24.11.2022
900 Clear 12 1020 33 10000 5.81 320 17:38 24.11.2022
901 Clear 11 1019 37 10000 2.68 344 17:20 24.11.2022
902 Haze 8 1018 37 3621 4.12 160 14:37 24.11.2022
903 Haze 8 1018 39 3621 2.06 140 13:48 24.11.2022
904 Haze 9 1017 44 4023 0 0 11:55 24.11.2022
905 Haze 8 1017 44 3219 2.57 170 10:35 24.11.2022
906 Clear 10 1017 41 10000 3.09 210 07:53 24.11.2022
907 Clear 15 1015 29 10000 3.09 280 03:19 24.11.2022
908 Clear 22 1014 21 10000 5.66 310 23:33 23.11.2022
909 Clear 22 1014 22 10000 1.79 0 21:56 23.11.2022
910 Clear 22 1015 24 10000 2.57 290 21:19 23.11.2022
911 Clear 20 1016 28 10000 0.89 110 19:58 23.11.2022
912 Clear 18 1017 31 10000 0.89 0 18:58 23.11.2022
913 Clear 17 1017 33 10000 2.06 180 18:33 23.11.2022
914 Clear 11 1018 47 10000 3.09 160 16:22 23.11.2022
915 Clear 9 1017 45 10000 3.09 160 13:26 23.11.2022
916 Clouds 10 1018 44 10000 0.94 93 12:58 23.11.2022
917 Clear 10 1017 43 10000 3.09 160 11:54 23.11.2022
918 Clear 10 1017 43 10000 3.09 160 11:19 23.11.2022
919 Clear 11 1018 41 10000 3.09 150 10:42 23.11.2022
920 Clear 11 1018 40 10000 3.6 150 09:41 23.11.2022
921 Clear 11 1018 39 10000 3.6 150 09:23 23.11.2022
922 Clear 12 1018 40 10000 3.09 140 08:36 23.11.2022
923 Clouds 14 1017 33 10000 3.6 290 05:21 23.11.2022
924 Clear 17 1016 27 10000 5.14 320 02:36 23.11.2022
925 Clear 23 1016 23 10000 1.79 5 22:38 22.11.2022
926 Clear 22 1017 23 10000 2.24 86 21:52 22.11.2022
927 Clear 22 1017 23 10000 1.79 6 21:32 22.11.2022
928 Clear 22 1017 25 10000 1.54 110 20:45 22.11.2022
929 Clear 20 1019 28 10000 4.12 120 19:52 22.11.2022
930 Clear 16 1020 33 10000 4.12 130 17:54 22.11.2022
931 Clear 13 1020 39 10000 2.57 140 16:48 22.11.2022
932 Clouds 10 1018 43 10000 0.89 133 14:56 22.11.2022
933 Clear 10 1019 39 10000 4.63 140 13:21 22.11.2022
934 Clear 12 1019 34 10000 4.12 140 10:23 22.11.2022
935 Clouds 12 1020 35 10000 1.79 158 08:59 22.11.2022
936 Clear 12 1020 32 10000 5.66 110 06:45 22.11.2022
937 Clouds 18 1019 22 10000 1.34 354 01:35 22.11.2022
938 Clear 22 1018 14 10000 2.57 130 23:28 21.11.2022
939 Clear 22 1019 14 10000 3.6 90 22:26 21.11.2022
940 Clear 21 1019 15 10000 5.14 120 21:33 21.11.2022
941 Clear 21 1020 17 10000 7.2 120 20:35 21.11.2022
942 Clear 19 1021 21 10000 7.2 130 19:40 21.11.2022
943 Clear 18 1022 25 10000 8.75 120 18:52 21.11.2022
944 Clear 14 1022 35 10000 8.23 120 17:45 21.11.2022
945 Clear 12 1022 43 10000 8.75 130 16:44 21.11.2022
946 Clear 10 1022 48 10000 8.75 130 16:23 21.11.2022
947 Clear 8 1022 52 10000 4.12 150 15:24 21.11.2022
948 Clear 8 1020 53 10000 6.17 130 13:54 21.11.2022
949 Clear 8 1020 53 10000 6.17 130 13:27 21.11.2022
950 Clear 9 1021 52 10000 4.63 130 10:19 21.11.2022
951 Clear 10 1021 49 10000 5.14 120 08:19 21.11.2022
952 Clear 16 1019 35 10000 4.12 120 02:18 21.11.2022
953 Clear 19 1019 30 10000 3.58 80 21:59 20.11.2022
954 Clear 18 1020 31 10000 9.26 130 20:48 20.11.2022
955 Clear 17 1021 33 10000 4.02 134 19:57 20.11.2022
956 Clear 14 1022 38 10000 8.23 120 17:43 20.11.2022
957 Clear 10 1021 47 10000 5.66 140 15:50 20.11.2022
958 Clear 9 1021 48 10000 5.66 140 15:24 20.11.2022
959 Clear 10 1021 47 10000 5.66 130 14:25 20.11.2022
960 Clear 10 1021 46 10000 8.05 115 13:32 20.11.2022
961 Clear 10 1021 46 10000 8.05 115 13:32 20.11.2022
962 Clear 10 1021 46 10000 8.05 115 13:32 20.11.2022
963 Clear 11 1020 44 10000 5.14 140 12:23 20.11.2022
964 Clear 11 1020 43 10000 3.58 133 10:58 20.11.2022
965 Clear 12 1019 41 10000 6.26 140 09:44 20.11.2022
966 Clear 13 1019 40 10000 6.17 70 08:55 20.11.2022
967 Clear 13 1019 39 10000 6.17 70 08:32 20.11.2022
968 Clear 13 1019 39 10000 6.17 70 08:32 20.11.2022
969 Clear 14 1019 38 10000 6.17 70 07:27 20.11.2022
970 Clear 18 1015 28 10000 3.6 60 01:30 20.11.2022
971 Clear 20 1016 26 10000 4.63 70 00:57 20.11.2022
972 Clear 20 1015 25 10000 4.63 70 00:38 20.11.2022
973 Clear 21 1015 24 10000 4.63 70 00:19 20.11.2022
974 Clear 21 1015 24 10000 3.09 340 23:34 19.11.2022
975 Clear 21 1015 24 10000 3.58 297 22:49 19.11.2022
976 Clear 21 1015 24 10000 2.57 10 22:18 19.11.2022
977 Clear 21 1015 25 10000 3.6 330 21:27 19.11.2022
978 Clear 20 1016 26 10000 3.09 340 20:41 19.11.2022
979 Clear 19 1017 27 10000 1.79 136 19:51 19.11.2022
980 Clear 17 1017 29 10000 1.54 210 18:54 19.11.2022
981 Clear 14 1017 35 10000 1.34 160 17:39 19.11.2022
982 Clear 13 1017 36 10000 1.54 170 17:18 19.11.2022
983 Clear 8 1016 45 10000 1.82 80 14:58 19.11.2022
984 Clear 7 1015 43 10000 3.6 160 13:36 19.11.2022
985 Clear 9 1015 40 10000 3.09 160 11:56 19.11.2022
986 Clear 10 1015 39 10000 3.09 140 09:51 19.11.2022
987 Clear 10 1015 37 10000 3.09 130 08:19 19.11.2022
988 Clear 10 1015 37 10000 3.09 130 08:19 19.11.2022
989 Clear 13 1014 32 10000 2.57 240 04:45 19.11.2022
990 Clear 20 1011 22 10000 6.69 300 00:50 19.11.2022
991 Clear 22 1011 19 10000 4.92 329 23:35 18.11.2022
992 Clear 23 1011 19 10000 5.14 310 22:24 18.11.2022
993 Clear 22 1012 19 10000 2.06 190 21:36 18.11.2022
994 Clear 22 1013 21 10000 1.34 63 20:58 18.11.2022
995 Clear 21 1013 21 10000 2.06 130 20:25 18.11.2022
996 Clear 20 1015 23 10000 2.24 63 19:37 18.11.2022
997 Clear 16 1016 31 10000 1.34 96 17:45 18.11.2022
998 Clear 12 1016 38 10000 5.66 150 16:32 18.11.2022
999 Clouds 10 1016 39 10000 2.57 120 12:39 18.11.2022
1000 Clouds 10 1017 38 10000 2.57 160 10:45 18.11.2022
1001 Clear 11 1018 35 10000 1.54 150 07:52 18.11.2022
1002 Clear 12 1018 34 10000 1.54 140 05:37 18.11.2022
1003 Clear 15 1018 27 10000 2.57 330 02:49 18.11.2022
1004 Clear 21 1018 20 10000 2.57 50 23:48 17.11.2022
1005 Clear 20 1021 23 10000 6.69 130 20:48 17.11.2022
1006 Clear 19 1022 25 10000 3.13 136 19:57 17.11.2022
1007 Clear 18 1022 25 10000 6.69 120 19:31 17.11.2022
1008 Clear 17 1023 27 10000 6.69 110 18:34 17.11.2022
1009 Clear 14 1024 30 10000 6.69 110 17:32 17.11.2022
1010 Clear 11 1023 36 10000 5.14 120 16:31 17.11.2022
1011 Clear 10 1023 36 10000 5.66 120 12:20 17.11.2022
1012 Clear 11 1022 36 10000 6.17 120 10:47 17.11.2022
1013 Clear 12 1023 33 10000 3.13 127 07:35 17.11.2022
1014 Clear 17 1021 22 10000 5.14 320 01:30 17.11.2022
1015 Clear 19 1020 19 10000 4.12 350 23:31 16.11.2022
1016 Clear 19 1021 19 10000 3.58 294 22:19 16.11.2022
1017 Clear 17 1022 21 10000 4.02 283 20:31 16.11.2022
1018 Clear 14 1023 26 10000 2.24 332 18:49 16.11.2022
1019 Clear 14 1023 26 10000 2.24 319 18:49 16.11.2022
1020 Clear 14 1023 27 10000 3.13 319 18:30 16.11.2022
1021 Clear 7 1022 39 10000 2.06 150 15:41 16.11.2022
1022 Clear 9 1022 36 10000 2.06 130 11:23 16.11.2022
1023 Clouds 11 1020 35 10000 3.09 160 06:54 16.11.2022
1024 Clouds 17 1018 24 10000 2.68 312 01:42 16.11.2022
1025 Clear 21 1017 19 10000 4.12 280 23:31 15.11.2022
1026 Clear 21 1017 21 10000 1.34 139 21:42 15.11.2022
1027 Clear 18 1018 21 10000 1.34 91 19:48 15.11.2022
1028 Clear 16 1019 24 10000 1.34 232 18:53 15.11.2022
1029 Clear 13 1020 29 10000 2.06 160 17:36 15.11.2022
1030 Clear 9 1020 36 10000 3.6 140 16:20 15.11.2022
1031 Clear 9 1020 36 10000 3.6 140 16:20 15.11.2022
1032 Clear 6 1019 37 10000 4.12 150 15:37 15.11.2022
1033 Clouds 7 1019 30 10000 1.1 73 13:57 15.11.2022
1034 Clear 5 1019 36 10000 4.63 150 12:54 15.11.2022
1035 Clear 7 1019 36 10000 3.6 150 11:21 15.11.2022
1036 Clear 8 1020 36 10000 3.6 150 09:38 15.11.2022
1037 Clear 17 1018 19 10000 2.06 300 00:42 15.11.2022
1038 Clear 18 1018 18 10000 2.06 300 00:23 15.11.2022
1039 Clouds 18 1018 20 10000 1.34 236 21:56 14.11.2022
1040 Clear 16 1019 24 10000 1.54 0 20:44 14.11.2022
1041 Clear 15 1019 26 10000 1.54 60 19:42 14.11.2022
1042 Clear 13 1020 31 10000 2.06 150 18:25 14.11.2022
1043 Clear 6 1017 46 10000 1.34 89 12:55 14.11.2022
1044 Clear 6 1017 46 10000 3.6 130 12:55 14.11.2022
1045 Clear 6 1016 45 10000 2.06 170 11:46 14.11.2022
1046 Clear 7 1016 45 10000 2.35 292 10:57 14.11.2022
1047 Clear 9 1015 37 10000 4.63 290 08:30 14.11.2022
1048 Clouds 10 1015 37 10000 3.6 280 07:52 14.11.2022
1049 Clear 18 1009 19 10000 6.69 250 01:24 14.11.2022
1050 Clear 22 1009 16 10000 8.23 250 22:47 13.11.2022
1051 Clear 22 1010 18 10000 5.66 230 21:40 13.11.2022
1052 Clear 22 1010 19 10000 6.17 230 20:45 13.11.2022
1053 Clear 20 1013 30 10000 4.63 170 18:54 13.11.2022
1054 Clouds 17 1013 39 10000 2.24 170 17:49 13.11.2022
1055 Clear 11 1014 52 10000 4.12 150 15:40 13.11.2022
1056 Clear 11 1014 52 10000 4.12 150 15:40 13.11.2022
1057 Clear 11 1014 50 10000 4.12 160 14:31 13.11.2022
1058 Clouds 11 1013 50 10000 1.12 188 12:56 13.11.2022
1059 Clear 10 1015 51 10000 3.09 150 11:35 13.11.2022
1060 Clear 10 1015 46 10000 3.6 140 10:28 13.11.2022
1061 Clear 13 1015 42 10000 3.09 170 05:52 13.11.2022
1062 Clear 23 1014 25 10000 3.09 50 23:54 12.11.2022
1063 Clear 23 1015 26 10000 2.24 150 21:32 12.11.2022
1064 Clear 22 1016 28 10000 2.57 240 20:41 12.11.2022
1065 Clouds 19 1017 29 10000 1.79 138 18:57 12.11.2022
1066 Clear 13 1017 38 10000 4.63 180 16:52 12.11.2022
1067 Clear 8 1017 45 10000 4.12 160 15:37 12.11.2022
1068 Clear 8 1017 44 10000 4.63 140 13:32 12.11.2022
1069 Clear 9 1018 40 10000 4.12 150 09:39 12.11.2022
1070 Clear 10 1017 37 10000 3.09 150 07:47 12.11.2022
1071 Clear 19 1015 25 10000 3.09 310 23:37 11.11.2022
1072 Clouds 18 1016 30 10000 1.79 288 20:56 11.11.2022
1073 Clear 18 1017 32 10000 2.57 60 20:28 11.11.2022
1074 Clear 17 1018 37 10000 1.54 200 19:26 11.11.2022
1075 Clear 15 1018 43 10000 0.89 0 18:32 11.11.2022
1076 Clear 13 1018 52 10000 0.89 227 17:40 11.11.2022
1077 Clear 6 1017 72 10000 2.57 130 14:31 11.11.2022
1078 Clear 7 1018 69 10000 3.09 130 13:42 11.11.2022
1079 Clear 7 1017 69 10000 3.09 150 12:18 11.11.2022
1080 Clear 9 1016 65 10000 2.57 250 08:57 11.11.2022
1081 Clear 9 1016 63 10000 2.57 250 08:26 11.11.2022
1082 Clear 17 1015 46 10000 6.17 330 00:31 11.11.2022
1083 Clear 18 1014 45 10000 6.17 310 22:51 10.11.2022
1084 Clouds 18 1015 46 10000 6.17 350 21:44 10.11.2022
1085 Clouds 18 1015 47 10000 6.17 350 21:25 10.11.2022
1086 Clouds 17 1016 54 10000 4.12 290 20:24 10.11.2022
1087 Clouds 17 1017 56 10000 2.24 279 19:56 10.11.2022
1088 Clouds 15 1017 63 10000 3.6 340 18:45 10.11.2022
1089 Clouds 12 1017 76 10000 2.24 318 16:55 10.11.2022
1090 Clouds 12 1017 79 10000 3.6 150 16:25 10.11.2022
1091 Clouds 11 1015 83 10000 0 0 13:34 10.11.2022
1092 Clouds 11 1016 80 10000 2.06 140 09:30 10.11.2022
1093 Clouds 12 1017 80 10000 2.06 280 07:21 10.11.2022
1094 Clear 21 1014 37 10000 4.02 267 00:57 10.11.2022
1095 Clear 24 1013 24 10000 5.36 284 22:58 09.11.2022
1096 Clear 24 1014 21 10000 7.2 220 21:32 09.11.2022
1097 Clear 24 1014 23 10000 6.69 220 20:41 09.11.2022
1098 Clear 23 1015 24 10000 6.69 220 20:22 09.11.2022
1099 Clear 22 1016 29 10000 6.17 210 19:25 09.11.2022
1100 Clear 20 1016 46 10000 3.58 166 17:45 09.11.2022
1101 Clear 14 1015 62 10000 0.45 141 14:57 09.11.2022
1102 Clear 15 1015 59 10000 4.12 110 14:28 09.11.2022
1103 Clear 15 1015 58 10000 0.89 190 13:58 09.11.2022
1104 Clear 15 1014 55 10000 2.06 30 12:53 09.11.2022
1105 Clear 16 1014 43 10000 2.57 150 09:29 09.11.2022
1106 Clear 17 1014 38 10000 2.57 120 07:47 09.11.2022
1107 Clear 17 1015 34 10000 3.6 130 06:33 09.11.2022
1108 Clear 27 1013 15 10000 5.14 230 22:38 08.11.2022
1109 Clear 27 1014 16 10000 6.17 220 21:40 08.11.2022
1110 Clear 26 1014 17 10000 3.13 154 20:55 08.11.2022
1111 Clear 25 1015 18 10000 3.58 182 20:21 08.11.2022
1112 Clear 24 1016 22 10000 2.68 339 19:28 08.11.2022
1113 Clear 19 1017 33 10000 3.6 150 17:37 08.11.2022
1114 Clear 13 1017 47 10000 4.12 140 15:37 08.11.2022
1115 Clear 13 1016 46 10000 4.63 170 14:36 08.11.2022
1116 Clear 12 1016 46 10000 3.6 160 13:29 08.11.2022
1117 Clear 14 1017 41 10000 3.6 150 11:21 08.11.2022
1118 Clear 16 1015 32 10000 3.09 120 07:43 08.11.2022
1119 Clear 17 1015 29 10000 3.09 120 06:28 08.11.2022
1120 Clouds 28 1013 18 10000 0.89 0 22:59 07.11.2022
1121 Clear 27 1014 17 10000 2.57 0 21:52 07.11.2022
1122 Clear 26 1015 18 10000 5.14 120 20:54 07.11.2022
1123 Clear 25 1017 22 10000 2.24 131 19:42 07.11.2022
1124 Clouds 20 1016 31 10000 1.34 92 17:43 07.11.2022
1125 Clear 13 1016 44 10000 4.63 140 15:40 07.11.2022
1126 Clouds 15 1014 37 10000 2.42 132 14:57 07.11.2022
1127 Clear 15 1015 35 10000 5.66 150 13:33 07.11.2022
1128 Clear 15 1016 36 10000 4.12 160 12:24 07.11.2022
1129 Clear 15 1015 34 10000 4.63 140 10:45 07.11.2022
1130 Clear 16 1015 29 10000 2.57 160 08:31 07.11.2022
1131 Clear 16 1015 28 10000 3.09 160 06:33 07.11.2022
1132 Clear 23 1012 20 10000 1.54 360 01:48 07.11.2022
1133 Clear 27 1013 14 10000 3.6 20 23:33 06.11.2022
1134 Clear 26 1015 16 10000 3.09 210 21:22 06.11.2022
1135 Clear 25 1014 16 10000 2.06 170 20:48 06.11.2022
1136 Clear 24 1015 19 10000 1.34 0 19:56 06.11.2022
1137 Clear 23 1015 22 10000 1.34 160 19:24 06.11.2022
1138 Clear 20 1016 29 10000 2.06 0 18:20 06.11.2022
1139 Clear 17 1015 33 10000 4.12 160 17:23 06.11.2022
1140 Clear 17 1015 34 10000 1.9 151 16:58 06.11.2022
1141 Clear 14 1014 39 10000 6.69 170 16:18 06.11.2022
1142 Clear 11 1014 45 10000 5.66 140 14:45 06.11.2022
1143 Clear 10 1014 46 10000 6.17 140 12:45 06.11.2022
1144 Clear 10 1014 46 10000 6.17 140 12:45 06.11.2022
1145 Clouds 11 1012 46 10000 1.89 116 10:55 06.11.2022
1146 Clear 11 1015 48 10000 5.14 150 09:51 06.11.2022
1147 Clear 11 1015 50 10000 3.6 140 07:39 06.11.2022
1148 Clear 21 1015 24 10000 4.12 310 23:23 05.11.2022
1149 Clear 19 1017 28 10000 1.54 0 20:40 05.11.2022
1150 Clear 14 1017 43 10000 2.06 160 18:22 05.11.2022
1151 Clear 9 1019 58 10000 3.09 150 16:26 05.11.2022
1152 Clear 5 1018 68 10000 2.57 180 14:34 05.11.2022
1153 Clear 5 1019 68 10000 3.09 160 13:29 05.11.2022
1154 Clear 7 1021 63 10000 0 0 10:54 05.11.2022
1155 Clear 7 1021 61 10000 2.57 130 08:54 05.11.2022
1156 Clear 8 1021 57 10000 0.45 64 07:22 05.11.2022
1157 Clear 8 1021 57 10000 1.54 250 06:54 05.11.2022
1158 Clear 15 1021 33 10000 3.13 324 23:36 04.11.2022
1159 Clear 16 1021 34 10000 3.58 297 23:18 04.11.2022
1160 -273 0 0 0 0 0 20:32 04.11.2022
1161 Clear 14 1022 40 10000 3.09 0 20:32 04.11.2022
1162 Clear 14 1022 40 10000 3.09 0 20:31 04.11.2022
1163 Clear 12 1023 44 10000 4.12 290 19:24 04.11.2022
1164 Clear 9 1024 57 10000 0.89 142 17:23 04.11.2022
1165 Clear 4 1020 76 10000 1.54 150 13:52 04.11.2022
1166 Clear 5 1020 76 10000 1.54 120 12:27 04.11.2022
1167 Clear 5 1019 76 10000 2.57 160 10:40 04.11.2022
1168 Clear 6 1019 74 10000 1.54 160 08:53 04.11.2022
1169 Clear 7 1019 66 10000 2.57 240 07:43 04.11.2022
1170 Clouds 9 1018 54 10000 2.06 260 05:20 04.11.2022
1171 Clouds 14 1014 44 10000 7.72 300 23:26 03.11.2022
1172 Drizzle 14 1014 46 10000 6.71 308 20:51 03.11.2022
1173 Clouds 15 1015 44 10000 6.17 330 20:28 03.11.2022
1174 Clouds 15 1015 45 10000 6.71 295 19:29 03.11.2022
1175 Clear 14 1015 48 10000 8.75 220 17:49 03.11.2022
1176 Clear 15 1016 52 10000 8.23 220 16:52 03.11.2022
1177 Clear 15 1015 61 10000 6.17 240 14:19 03.11.2022
1178 Clear 15 1014 63 10000 6.17 250 12:39 03.11.2022
1179 Clouds 16 1014 62 10000 4.63 270 11:50 03.11.2022
1180 Clouds 17 1014 63 10000 4.63 270 09:37 03.11.2022
1181 Clouds 18 1014 63 10000 2.57 220 07:43 03.11.2022
1182 Clouds 25 1015 31 10000 7.2 210 21:30 02.11.2022
1183 Clouds 24 1016 33 10000 8.23 180 20:39 02.11.2022
1184 Clear 24 1017 36 10000 5.36 246 19:59 02.11.2022
1185 Clear 20 1018 39 10000 4.12 130 17:18 02.11.2022
1186 Clouds 16 1020 44 10000 3.6 160 15:54 02.11.2022
1187 Clouds 15 1016 45 10000 5.14 140 14:47 02.11.2022
1188 Clear 15 1016 39 10000 4.12 150 12:44 02.11.2022
1189 Clear 15 1016 36 10000 3.6 130 11:39 02.11.2022
1190 Clear 16 1015 32 10000 2.06 120 08:52 02.11.2022
1191 Clouds 17 1015 32 10000 3.6 140 05:30 02.11.2022
1192 Clouds 26 1014 17 10000 5.66 230 00:21 02.11.2022
1193 Clouds 27 1014 15 10000 7.2 210 22:19 01.11.2022
1194 Clouds 27 1015 15 10000 8.23 220 21:38 01.11.2022
1195 Clouds 24 1015 23 10000 2.57 240 20:26 01.11.2022
1196 Clouds 23 1016 24 10000 3.6 160 19:43 01.11.2022
1197 Clear 22 1016 26 10000 3.09 150 18:49 01.11.2022
1198 Clear 19 1016 31 10000 6.17 150 17:28 01.11.2022
1199 Clouds 16 1017 30 10000 6.17 150 16:20 01.11.2022
1200 Clear 15 1016 31 10000 5.14 160 14:22 01.11.2022
1201 Clear 15 1015 32 10000 4.63 170 12:27 01.11.2022
1202 Clear 16 1015 30 10000 4.12 120 11:23 01.11.2022
1203 Clear 16 1015 29 10000 1.54 0 10:23 01.11.2022
1204 Clear 16 1016 29 10000 3.6 160 08:42 01.11.2022
1205 Clear 16 1014 31 10000 3.6 130 07:29 01.11.2022
1206 Clear 16 1015 30 10000 4.63 160 06:47 01.11.2022
1207 Clear 17 1013 29 10000 0.47 169 05:56 01.11.2022
1208 Clear 20 1013 25 10000 2.57 320 03:37 01.11.2022
1209 Clear 26 1013 16 10000 3.09 10 21:46 31.10.2022
1210 Clear 24 1014 20 10000 2.06 360 20:30 31.10.2022
1211 Clear 21 1015 28 10000 1.34 46 18:50 31.10.2022
1212 Clear 18 1016 34 10000 3.09 180 17:26 31.10.2022
1213 Clear 16 1016 38 10000 4.12 150 16:39 31.10.2022
1214 Clear 11 1015 41 10000 4.12 160 13:24 31.10.2022
1215 Clear 12 1015 40 10000 3.09 140 10:20 31.10.2022
1216 Clear 14 1015 37 10000 3.6 140 08:37 31.10.2022
1217 Clear 17 1014 31 10000 2.57 270 04:48 31.10.2022
1218 Clear 20 1013 25 10000 2.57 290 02:20 31.10.2022
1219 Clear 24 1013 19 10000 4.12 320 23:18 30.10.2022
1220 Clear 24 1015 20 10000 2.24 297 20:49 30.10.2022
1221 Clear 24 1015 21 10000 2.57 0 20:21 30.10.2022
1222 Clear 20 1017 27 10000 2.06 180 18:20 30.10.2022
1223 Clear 13 1018 36 10000 4.63 150 15:29 30.10.2022
1224 Clear 12 1017 38 10000 4.12 140 13:52 30.10.2022
1225 Clear 11 1017 38 10000 3.09 150 12:46 30.10.2022
1226 Clear 12 1017 34 10000 3.09 150 11:24 30.10.2022
1227 Clear 13 1017 32 10000 4.12 140 09:37 30.10.2022
1228 Clear 15 1018 30 10000 3.09 140 08:25 30.10.2022
1229 Clear 26 1016 12 10000 2.24 270 00:50 30.10.2022
1230 Clear 27 1016 12 10000 2.24 267 00:27 30.10.2022
1231 Clear 26 1017 12 10000 2.06 310 23:44 29.10.2022
1232 Clear 24 1019 17 10000 5.14 120 20:54 29.10.2022
1233 Clear 16 1020 32 10000 5.66 140 17:34 29.10.2022
1234 Clear 13 1020 34 10000 5.14 140 15:51 29.10.2022
1235 Clear 13 1018 34 10000 5.14 140 15:24 29.10.2022
1236 Clear 13 1019 35 10000 3.6 160 14:43 29.10.2022
1237 Clear 14 1020 34 10000 2.57 140 12:34 29.10.2022
1238 Clear 15 1020 31 10000 5.14 120 10:36 29.10.2022
1239 Clear 16 1020 28 10000 4.63 110 07:33 29.10.2022
1240 Clear 18 1020 25 10000 1.79 106 05:55 29.10.2022
1241 Clear 20 1020 21 10000 1.79 55 03:54 29.10.2022
1242 Clear 24 1021 14 10000 7.2 130 22:33 28.10.2022
1243 Clear 23 1023 15 10000 9.26 110 20:46 28.10.2022
1244 Clear 20 1024 17 10000 4.47 152 18:58 28.10.2022
1245 Clear 19 1024 18 10000 9.26 130 18:31 28.10.2022
1246 Clear 12 1022 22 10000 6.17 120 15:30 28.10.2022
1247 Clear 12 1022 22 10000 6.17 120 15:30 28.10.2022
1248 Clear 12 1021 22 10000 5.66 150 14:43 28.10.2022
1249 Clear 11 1020 25 10000 4.63 160 12:31 28.10.2022
1250 Clear 12 1022 24 10000 4.63 140 11:34 28.10.2022
1251 Clear 13 1021 24 10000 0 0 10:47 28.10.2022
1252 Clear 13 1020 25 10000 1.54 180 09:47 28.10.2022
1253 Clear 14 1020 23 10000 2.57 210 08:21 28.10.2022
1254 Clear 19 1016 23 10000 4.12 290 03:43 28.10.2022
1255 Clear 23 1015 21 10000 6.17 320 23:49 27.10.2022
1256 Clear 23 1015 21 10000 6.69 300 22:40 27.10.2022
1257 Clear 23 1015 23 10000 3.13 0 21:35 27.10.2022
1258 Clear 22 1016 26 10000 3.09 280 20:27 27.10.2022
1259 Clear 18 1016 32 10000 2.06 190 18:22 27.10.2022
1260 Clouds 13 1014 35 10000 1.23 213 13:58 27.10.2022
1261 Clear 15 1012 30 10000 1.54 20 09:20 27.10.2022
1262 Clear 17 1012 25 10000 3.09 140 06:21 27.10.2022
1263 Clear 26 1012 15 10000 2.57 320 23:55 26.10.2022
1264 Clear 26 1013 17 10000 2.06 260 22:47 26.10.2022
1265 Clear 25 1013 17 10000 2.06 260 22:22 26.10.2022
1266 Clear 25 1013 17 10000 2.06 260 22:22 26.10.2022
1267 Clear 21 1016 24 10000 1.54 130 19:34 26.10.2022
1268 Clear 12 1016 37 10000 3.6 150 16:35 26.10.2022
1269 Clear 12 1017 35 10000 4.12 130 14:52 26.10.2022
1270 Clear 11 1016 37 10000 4.12 140 12:37 26.10.2022
1271 Clear 13 1017 33 10000 3.6 150 10:24 26.10.2022
1272 Clear 13 1017 35 10000 3.09 160 08:54 26.10.2022
1273 Clear 13 1017 35 10000 3.09 160 08:24 26.10.2022
1274 Clear 24 1016 13 10000 1.54 310 00:46 26.10.2022
1275 Clear 24 1016 13 10000 2.24 271 00:21 26.10.2022
1276 Clear 22 1018 16 10000 1.54 40 21:52 25.10.2022
1277 Clear 21 1019 18 10000 1.54 40 21:22 25.10.2022
1278 Clear 18 1020 27 10000 1.79 140 19:40 25.10.2022
1279 Clear 14 1019 38 10000 1.62 119 17:51 25.10.2022
1280 Clear 9 1015 53 10000 2.57 180 14:37 25.10.2022
1281 Clear 11 1022 40 10000 3.09 120 11:38 25.10.2022
1282 Clear 10 1021 43 10000 3.09 170 10:37 25.10.2022
1283 Clear 11 1023 39 10000 2.06 150 09:44 25.10.2022
1284 Clear 12 1021 37 10000 2.06 150 08:19 25.10.2022
1285 Clear 12 1021 37 10000 4.12 170 07:54 25.10.2022
1286 Clear 12 1021 37 10000 1.79 320 06:56 25.10.2022
1287 Clear 15 1020 32 10000 3.6 320 03:46 25.10.2022
1288 Clear 19 1019 22 10000 2.57 10 00:37 25.10.2022
1289 Clear 19 1019 22 10000 2.68 298 23:49 24.10.2022
1290 Clear 18 1019 22 10000 2.68 253 22:24 24.10.2022
1291 Clear 17 1020 24 10000 5.66 340 21:33 24.10.2022
1292 Clear 16 1020 27 10000 6.69 300 20:42 24.10.2022
1293 Clear 14 1020 32 10000 6.17 300 18:52 24.10.2022
1294 Clear 13 1019 33 10000 3.6 300 17:50 24.10.2022
1295 Clear 11 1017 38 10000 4.47 314 16:34 24.10.2022
1296 Clouds 13 1014 36 10000 7.2 280 14:22 24.10.2022
1297 Clouds 13 1013 38 10000 8.23 290 13:34 24.10.2022
1298 Clouds 14 1012 44 10000 4.02 278 11:54 24.10.2022
1299 Drizzle 15 1011 71 10000 5.66 340 08:45 24.10.2022
1300 Clouds 21 1008 51 10000 5.66 290 00:50 24.10.2022
1301 Clouds 23 1009 41 10000 5.66 270 21:23 23.10.2022
1302 Clouds 22 1009 46 10000 4.63 300 19:50 23.10.2022
1303 Clouds 20 1009 56 10000 1.79 149 17:55 23.10.2022
1304 Clear 19 1011 60 10000 4.63 220 17:27 23.10.2022
1305 Clear 17 1009 67 10000 3.6 240 15:19 23.10.2022
1306 Clouds 19 1008 66 10000 2.24 193 12:59 23.10.2022
1307 Clouds 20 1008 65 10000 3.13 244 10:59 23.10.2022
1308 Clouds 22 1007 60 10000 4.12 240 07:53 23.10.2022
1309 Clear 30 1006 34 10000 8.75 200 23:40 22.10.2022
1310 Clouds 30 1007 37 10000 8.23 220 22:31 22.10.2022
1311 Clear 29 1008 41 10000 7.2 230 21:42 22.10.2022
1312 Clouds 28 1009 46 10000 4.12 190 20:49 22.10.2022
1313 Clear 27 1010 50 10000 5.66 210 19:32 22.10.2022
1314 Clouds 26 1011 51 10000 2.68 150 18:55 22.10.2022
1315 Clouds 23 1011 58 10000 2.06 100 17:35 22.10.2022
1316 Clear 19 1012 62 10000 5.14 150 15:28 22.10.2022
1317 Clouds 19 1012 61 10000 2.06 150 14:36 22.10.2022
1318 Clouds 20 1011 58 10000 2.06 150 13:33 22.10.2022
1319 Clear 21 1012 54 10000 2.57 150 09:50 22.10.2022
1320 Clear 21 1013 52 10000 2.57 150 09:18 22.10.2022
1321 Clear 23 1012 46 10000 2.57 160 07:33 22.10.2022
1322 Clear 30 1011 30 10000 5.66 250 02:44 22.10.2022
1323 Clear 32 1011 27 10000 3.6 350 23:44 21.10.2022
1324 Clear 30 1014 32 10000 4.12 270 21:34 21.10.2022
1325 Clouds 29 1014 34 10000 1.34 162 20:56 21.10.2022
1326 Clear 26 1015 38 10000 2.24 177 18:55 21.10.2022
1327 Clear 18 1014 52 10000 4.63 140 15:26 21.10.2022
1328 Clear 19 1015 46 10000 1.92 132 13:56 21.10.2022
1329 Clear 19 1014 48 10000 4.63 150 12:39 21.10.2022
1330 Clear 20 1015 41 10000 3.6 150 10:28 21.10.2022
1331 Clear 20 1015 42 10000 4.12 140 09:38 21.10.2022
1332 Clear 21 1015 39 10000 2.57 140 08:26 21.10.2022
1333 Clear 22 1014 36 10000 1.54 190 06:21 21.10.2022
1334 Clear 31 1014 20 10000 2.57 40 00:21 21.10.2022
1335 Clear 30 1017 22 10000 3.09 50 21:50 20.10.2022
1336 Clear 28 1018 29 10000 3.6 130 20:25 20.10.2022
1337 Clear 27 1018 33 10000 5.14 130 19:32 20.10.2022
1338 Clear 22 1019 43 10000 1.79 136 17:52 20.10.2022
1339 Clear 18 1019 53 10000 4.63 140 16:22 20.10.2022
1340 Clear 18 1018 49 10000 4.63 120 12:36 20.10.2022
1341 Clear 19 1018 49 10000 4.63 120 12:18 20.10.2022
1342 Clear 19 1018 49 10000 4.63 120 12:18 20.10.2022
1343 Clouds 19 1018 46 10000 1.34 0 10:56 20.10.2022
1344 Clear 19 1018 45 10000 5.14 120 10:24 20.10.2022
1345 Clear 21 1018 40 10000 3.13 104 07:44 20.10.2022
1346 Clear 25 1017 30 10000 5.66 70 03:31 20.10.2022
1347 Clear 29 1018 25 10000 4.63 130 00:20 20.10.2022
1348 Clear 28 1018 27 10000 8.23 130 22:35 19.10.2022
1349 Clear 27 1019 28 10000 9.26 120 21:48 19.10.2022
1350 Clear 26 1021 30 10000 10.29 130 20:40 19.10.2022
1351 Clear 22 1021 39 10000 10.8 130 17:55 19.10.2022
1352 Clouds 19 1021 45 10000 4.02 169 16:58 19.10.2022
1353 Clear 19 1020 45 10000 8.23 110 14:46 19.10.2022
1354 Clear 19 1019 45 10000 11.83 130 12:42 19.10.2022
1355 Clear 20 1018 41 10000 8.23 130 09:26 19.10.2022
1356 Clear 21 1019 42 10000 7.2 120 07:31 19.10.2022
1357 Clear 23 1017 38 10000 7.2 70 03:44 19.10.2022
1358 Clear 27 1016 33 10000 7.2 130 00:21 19.10.2022
1359 Clear 27 1017 34 10000 7.15 25 22:41 18.10.2022
1360 Clear 26 1018 35 10000 10.8 130 21:32 18.10.2022
1361 Clear 25 1018 37 10000 10.8 130 20:35 18.10.2022
1362 Clear 23 1019 41 10000 9.26 120 19:22 18.10.2022
1363 Clear 19 1019 54 10000 3.58 122 16:59 18.10.2022
1364 Clear 17 1019 57 10000 6.26 88 16:19 18.10.2022
1365 Clear 17 1017 57 10000 5.66 130 13:49 18.10.2022
1366 Clear 18 1017 55 10000 4.12 120 11:48 18.10.2022
1367 Clear 18 1017 54 10000 4.47 145 11:18 18.10.2022
1368 Clear 19 1016 52 10000 5.81 89 09:26 18.10.2022
1369 Clear 20 1016 50 10000 3.58 293 07:20 18.10.2022
1370 Clouds 26 1014 34 10000 5.14 50 00:34 18.10.2022
1371 Clear 25 1016 38 10000 5.66 130 21:45 17.10.2022
1372 Clear 25 1016 40 10000 6.17 130 20:50 17.10.2022
1373 Clear 24 1016 41 10000 6.17 130 20:30 17.10.2022
1374 Clear 23 1017 46 10000 2.24 176 19:46 17.10.2022
1375 Clear 19 1017 62 10000 0.89 0 17:58 17.10.2022
1376 Clear 15 1018 66 10000 0 0 16:34 17.10.2022
1377 Clear 13 1017 72 10000 1.54 140 15:28 17.10.2022
1378 Clear 14 1018 71 10000 3.6 150 13:36 17.10.2022
1379 Clear 15 1018 69 10000 0 0 09:46 17.10.2022
1380 Clear 20 1015 55 10000 2.57 300 03:55 17.10.2022
1381 Clouds 23 1015 47 10000 4.63 300 23:24 16.10.2022
1382 Clouds 22 1015 57 10000 4.63 330 21:46 16.10.2022
1383 Clouds 20 1016 66 10000 3.09 280 20:28 16.10.2022
1384 Clouds 20 1016 70 10000 1.79 169 19:45 16.10.2022
1385 Clouds 18 1015 82 10000 0.45 183 17:47 16.10.2022
1386 Clouds 16 1015 90 10000 0.45 175 16:32 16.10.2022
1387 Clear 16 1015 91 10000 0.45 339 15:56 16.10.2022
1388 Clouds 17 1013 89 10000 2.06 270 12:49 16.10.2022
1389 Clouds 17 1013 89 10000 2.06 280 12:20 16.10.2022
1390 Clouds 18 1013 86 10000 2.06 350 10:27 16.10.2022
1391 Clear 19 1013 78 10000 3.09 280 08:26 16.10.2022
1392 Clouds 29 1009 44 10000 7.72 200 23:47 15.10.2022
1393 Clouds 27 1010 52 10000 1.34 196 22:18 15.10.2022
1394 Clouds 26 1012 54 10000 4.12 250 21:21 15.10.2022
1395 Clouds 25 1012 55 10000 2.06 60 19:55 15.10.2022
1396 Clear 23 1013 56 10000 2.06 210 17:26 15.10.2022
1397 Clouds 21 1012 55 10000 2.06 120 15:45 15.10.2022
1398 Clouds 21 1011 51 10000 0.89 73 14:21 15.10.2022
1399 Clouds 22 1012 46 10000 1.54 60 11:52 15.10.2022
1400 Clouds 22 1011 44 10000 3.6 120 10:26 15.10.2022
1401 Clear 23 1013 43 10000 2.57 140 08:20 15.10.2022
1402 Clouds 30 1010 29 10000 4.63 200 00:41 15.10.2022
1403 Clouds 31 1010 29 10000 3.6 180 23:25 14.10.2022
1404 Clouds 31 1011 28 10000 2.68 131 22:22 14.10.2022
1405 Clouds 31 1011 28 10000 2.68 131 22:22 14.10.2022
1406 Clouds 30 1011 30 10000 2.57 150 21:24 14.10.2022
1407 Clouds 26 1012 38 10000 3.6 160 19:22 14.10.2022
1408 Clouds 20 1013 46 10000 4.12 170 16:19 14.10.2022
1409 Clouds 21 1012 41 10000 4.12 140 13:21 14.10.2022
1410 Clouds 21 1013 40 10000 2.57 100 11:36 14.10.2022
1411 Clear 23 1010 36 10000 1.73 112 08:59 14.10.2022
1412 Clear 25 1011 30 10000 1.54 170 06:53 14.10.2022
1413 Clear 25 1012 32 10000 3.09 220 06:18 14.10.2022
1414 Clear 26 1012 30 10000 3.09 310 05:42 14.10.2022
1415 Clear 28 1012 25 10000 2.06 260 03:24 14.10.2022
1416 Clear 33 1013 19 10000 2.57 0 23:43 13.10.2022
1417 Clouds 32 1014 21 10000 1.34 195 21:57 13.10.2022
1418 Clear 31 1015 23 10000 2.06 300 21:20 13.10.2022
1419 Clouds 28 1016 32 10000 0.89 196 19:43 13.10.2022
1420 Clouds 26 1017 38 10000 1.79 142 18:52 13.10.2022
1421 Clear 25 1018 42 10000 2.57 170 18:21 13.10.2022
1422 Clouds 21 1015 39 10000 0.77 104 15:58 13.10.2022
1423 Clear 20 1018 44 10000 4.12 150 15:40 13.10.2022
1424 Clear 20 1018 45 10000 3.09 150 14:18 13.10.2022
1425 Clear 21 1018 44 10000 3.09 150 12:43 13.10.2022
1426 Clouds 22 1014 42 10000 1.26 51 10:59 13.10.2022
1427 Clear 23 1018 39 10000 2.57 140 08:50 13.10.2022
1428 Clear 23 1016 38 10000 3.6 150 07:38 13.10.2022
1429 Clear 26 1016 34 10000 2.06 310 05:28 13.10.2022
1430 Clear 32 1016 22 10000 3.09 340 01:41 13.10.2022
1431 Clear 32 1016 22 10000 3.09 360 00:41 13.10.2022
1432 Clear 31 1017 23 10000 3.6 190 22:45 12.10.2022
1433 Clear 31 1017 26 10000 2.24 247 21:48 12.10.2022
1434 Clear 30 1018 29 10000 1.54 200 21:19 12.10.2022
1435 Clear 29 1019 32 10000 0.89 311 20:35 12.10.2022
1436 Clear 27 1019 39 10000 1.54 140 19:22 12.10.2022
1437 Clear 23 1019 48 10000 1.34 127 17:57 12.10.2022
1438 Clear 21 1016 56 10000 0.82 132 16:59 12.10.2022
1439 Clear 18 1018 58 10000 4.12 140 14:27 12.10.2022
1440 Clear 20 1016 52 10000 0.78 136 13:53 12.10.2022
1441 Clear 20 1019 52 10000 3.6 150 11:54 12.10.2022
1442 Clear 21 1017 51 10000 3.09 120 09:36 12.10.2022
1443 Clear 22 1016 46 10000 3.6 170 07:42 12.10.2022
1444 Clear 23 1014 44 10000 2.57 130 06:44 12.10.2022
1445 Clear 24 1015 41 10000 1.54 250 05:27 12.10.2022
1446 Clear 30 1014 26 10000 1.34 319 23:56 11.10.2022
1447 Clear 29 1016 31 10000 1.79 254 21:25 11.10.2022
1448 Clear 28 1016 35 10000 2.06 220 20:30 11.10.2022
1449 Clear 24 1017 49 10000 3.09 150 18:27 11.10.2022
1450 Clear 18 1017 62 10000 5.14 140 16:24 11.10.2022
1451 Clear 17 1016 66 10000 5.14 150 13:44 11.10.2022
1452 Clear 19 1015 62 10000 4.12 140 10:48 11.10.2022
1453 Clear 19 1014 61 10000 4.12 140 10:26 11.10.2022
1454 Clear 20 1015 58 10000 4.63 160 08:46 11.10.2022
1455 Clear 24 1014 47 10000 2.57 170 04:23 11.10.2022
1456 Drizzle 26 1013 40 10000 3.6 110 01:51 11.10.2022
1457 Thunderstorm 27 1013 37 10000 4.12 240 00:23 11.10.2022
1458 Clear 28 1015 38 10000 2.68 175 21:18 10.10.2022
1459 Clear 26 1017 43 10000 4.63 150 19:43 10.10.2022
1460 Clear 23 1017 52 10000 4.12 170 18:18 10.10.2022
1461 Clear 19 1016 64 10000 3.6 130 16:39 10.10.2022
1462 Clear 17 1017 69 10000 4.12 160 14:31 10.10.2022
1463 Clear 18 1016 66 10000 3.6 130 12:24 10.10.2022
1464 Clear 18 1017 65 10000 4.63 140 10:20 10.10.2022
1465 Clear 19 1017 61 10000 4.12 130 07:47 10.10.2022
1466 Clouds 20 1017 58 10000 3.6 100 05:38 10.10.2022
1467 Clouds 24 1016 45 10000 6.17 100 02:42 10.10.2022
1468 Clear 28 1016 31 10000 6.69 160 00:25 10.10.2022
1469 Clear 28 1018 33 10000 2.57 130 22:27 09.10.2022
1470 Clear 28 1018 35 10000 4.47 148 21:50 09.10.2022
1471 Clear 27 1019 38 10000 6.17 140 20:54 09.10.2022
1472 Clear 26 1019 41 10000 6.69 120 19:53 09.10.2022
1473 Clear 25 1020 43 10000 6.69 120 19:20 09.10.2022
1474 Clear 23 1020 49 10000 8.75 130 18:28 09.10.2022
1475 Clear 19 1020 60 10000 4.63 150 16:56 09.10.2022
1476 Clear 18 1020 65 10000 7.72 130 16:25 09.10.2022
1477 Clear 17 1019 67 10000 4.63 150 15:33 09.10.2022
1478 Clear 17 1020 66 10000 7.2 140 14:28 09.10.2022
1479 Clear 17 1020 66 10000 7.2 140 14:28 09.10.2022
1480 Clear 18 1019 64 10000 2.24 132 12:57 09.10.2022
1481 Clear 18 1019 64 10000 2.24 132 12:57 09.10.2022
1482 Clear 17 1019 64 10000 4.12 130 11:42 09.10.2022
1483 Clear 18 1019 63 10000 3.6 130 10:24 09.10.2022
1484 Clear 19 1019 57 10000 4.12 100 07:57 09.10.2022
1485 Clouds 21 1018 54 10000 5.66 170 03:33 09.10.2022
1486 Clouds 22 1017 52 10000 6.17 70 02:23 09.10.2022
1487 Clouds 25 1017 42 10000 4.63 190 23:56 08.10.2022
1488 Thunderstorm 26 1018 38 10000 6.17 120 22:53 08.10.2022
1489 Clouds 28 1019 36 10000 2.57 0 21:43 08.10.2022
1490 Clouds 26 1020 42 10000 2.68 127 19:57 08.10.2022
1491 Clouds 23 1021 54 10000 4.12 170 18:32 08.10.2022
1492 Clouds 19 1021 65 10000 3.58 128 15:59 08.10.2022
1493 Clouds 19 1020 64 10000 5.66 140 14:42 08.10.2022
1494 Clouds 19 1020 63 10000 5.66 120 12:38 08.10.2022
1495 Clouds 19 1019 63 10000 5.14 120 10:37 08.10.2022
1496 Clouds 19 1019 64 10000 7.72 120 09:52 08.10.2022
1497 Clear 20 1020 59 10000 7.2 110 08:41 08.10.2022
1498 Clouds 21 1018 56 10000 2.06 90 03:50 08.10.2022
1499 Thunderstorm 26 1016 43 10000 10.8 200 00:35 08.10.2022
1500 Clear 30 1017 33 10000 3.6 100 23:21 07.10.2022
1501 Clear 29 1017 34 10000 3.09 90 22:39 07.10.2022
1502 Clear 28 1020 39 10000 6.17 140 20:50 07.10.2022
1503 Clouds 26 1020 43 10000 7.72 120 19:32 07.10.2022
1504 Clear 23 1020 53 10000 6.69 130 17:47 07.10.2022
1505 Clear 20 1020 62 10000 8.23 130 16:40 07.10.2022
1506 Clear 19 1019 64 10000 5.14 120 14:55 07.10.2022
1507 Clear 19 1019 61 10000 5.66 120 12:37 07.10.2022
1508 Clear 19 1018 63 10000 3.6 140 09:37 07.10.2022
1509 Clear 19 1019 63 10000 3.6 140 09:18 07.10.2022
1510 Clouds 21 1018 59 10000 0.45 13 06:58 07.10.2022
1511 Clear 28 1017 36 10000 6.69 150 01:34 07.10.2022
1512 Clear 30 1017 32 10000 3.09 130 22:51 06.10.2022
1513 Clear 29 1018 34 10000 4.63 150 21:46 06.10.2022
1514 Clear 29 1018 36 10000 4.63 150 21:25 06.10.2022
1515 Clear 28 1019 39 10000 4.63 150 20:30 06.10.2022
1516 Clouds 24 1020 51 10000 5.14 130 18:38 06.10.2022
1517 Clouds 23 1020 53 10000 5.14 130 18:18 06.10.2022
1518 Clouds 18 1019 68 10000 2.57 140 15:33 06.10.2022
1519 Clouds 19 1017 66 10000 5.14 110 11:45 06.10.2022
1520 Clear 21 1017 62 10000 5.66 150 07:35 06.10.2022
1521 Thunderstorm 26 1015 44 6437 6.69 360 03:37 06.10.2022
1522 Clear 30 1015 30 10000 2.06 300 00:27 06.10.2022
1523 Clear 29 1017 36 10000 1.34 223 21:41 05.10.2022
1524 Clear 26 1018 45 10000 1.34 113 19:30 05.10.2022
1525 Clear 21 1018 61 10000 3.09 160 17:36 05.10.2022
1526 Clear 18 1020 70 10000 5.14 140 16:20 05.10.2022
1527 Clear 18 1017 70 10000 3.6 140 14:47 05.10.2022
1528 Clear 18 1017 69 10000 3.6 140 14:19 05.10.2022
1529 Clear 18 1015 68 10000 3.6 130 12:23 05.10.2022
1530 Clear 19 1015 66 10000 3.09 160 09:28 05.10.2022
1531 Clear 20 1016 64 10000 4.63 120 07:44 05.10.2022
1532 Clear 20 1016 62 10000 5.66 140 06:19 05.10.2022
1533 Clouds 22 1015 54 10000 4.63 130 04:21 05.10.2022
1534 Clouds 22 1017 51 10000 8.75 130 00:50 05.10.2022
1535 Clouds 25 1015 50 10000 8.75 130 00:27 05.10.2022
1536 Clouds 25 1015 52 10000 4.63 70 22:38 04.10.2022
1537 Rain 25 1017 56 10000 5.66 40 20:39 04.10.2022
1538 Thunderstorm 25 1016 51 10000 5.66 50 18:59 04.10.2022
1539 Rain 24 1016 51 10000 4.63 60 18:38 04.10.2022
1540 Clouds 23 1015 56 10000 6.17 120 17:48 04.10.2022
1541 Clouds 22 1016 63 10000 5.66 120 16:35 04.10.2022
1542 Clouds 21 1015 61 10000 0.45 92 12:58 04.10.2022
1543 Clear 22 1013 54 10000 3.09 160 09:46 04.10.2022
1544 Clear 25 1014 47 10000 5.66 280 07:24 04.10.2022
1545 Clear 32 1011 25 10000 2.57 0 02:27 04.10.2022
1546 Clear 33 1013 25 10000 2.06 110 23:40 03.10.2022
1547 Clear 33 1014 27 10000 2.06 200 21:53 03.10.2022
1548 Clear 32 1014 29 10000 2.06 200 21:23 03.10.2022
1549 Clear 30 1015 34 10000 4.12 140 19:52 03.10.2022
1550 Clear 26 1015 47 10000 2.68 148 17:59 03.10.2022
1551 Clear 24 1015 51 10000 4.12 140 17:25 03.10.2022
1552 Clear 20 1016 60 10000 5.14 150 15:47 03.10.2022
1553 Clear 21 1014 57 10000 3.6 160 13:51 03.10.2022
1554 Clear 23 1013 54 10000 4.12 160 12:28 03.10.2022
1555 Clouds 24 1014 52 10000 3.6 120 10:39 03.10.2022
1556 Clear 25 1014 48 10000 4.12 130 09:37 03.10.2022
1557 Clouds 27 1014 42 10000 1.79 166 06:30 03.10.2022
1558 Clouds 31 1012 32 10000 4.12 120 02:53 03.10.2022
1559 Clear 33 1013 28 10000 3.09 120 22:35 02.10.2022
1560 Clear 31 1014 32 10000 5.14 140 20:51 02.10.2022
1561 Clear 27 1015 48 10000 4.63 150 18:42 02.10.2022
1562 Clear 25 1015 53 10000 1.79 118 17:52 02.10.2022
1563 Clear 22 1014 64 10000 4.12 140 16:33 02.10.2022
1564 Clear 21 1013 62 10000 1.03 133 15:56 02.10.2022
1565 Clear 20 1014 67 10000 3.6 150 13:52 02.10.2022
1566 Clear 21 1015 65 10000 2.57 150 13:21 02.10.2022
1567 Clouds 21 1014 64 10000 4.12 130 12:29 02.10.2022
1568 Clear 21 1012 67 10000 3.6 120 11:39 02.10.2022
1569 Clear 22 1012 67 10000 3.6 120 11:19 02.10.2022
1570 Clear 23 1013 65 10000 4.12 130 09:28 02.10.2022
1571 Clear 24 1013 61 10000 2.57 200 07:41 02.10.2022
1572 Clear 30 1010 38 10000 3.6 190 02:55 02.10.2022
1573 Clouds 32 1010 33 10000 1.54 230 00:46 02.10.2022
1574 Clouds 32 1010 33 10000 1.54 230 00:21 02.10.2022
1575 Clear 32 1011 34 10000 3.6 150 22:43 01.10.2022
1576 Clear 30 1013 37 10000 2.24 80 20:53 01.10.2022
1577 Clouds 27 1013 48 10000 1.34 110 18:50 01.10.2022
1578 Clouds 21 1012 64 10000 2.57 120 16:36 01.10.2022
1579 Clear 19 1011 70 10000 4.63 170 14:41 01.10.2022
1580 Clouds 20 1012 72 10000 3.6 160 13:31 01.10.2022
1581 Clouds 20 1012 69 10000 3.6 160 12:33 01.10.2022
1582 Clouds 20 1010 70 10000 3.6 160 11:21 01.10.2022
1583 Clear 20 1010 68 10000 4.63 140 10:32 01.10.2022
1584 Clear 21 1012 68 10000 6.69 140 09:28 01.10.2022
1585 Clouds 21 1011 69 10000 1.79 112 08:58 01.10.2022
1586 Clouds 22 1013 66 10000 5.14 130 05:28 01.10.2022
1587 Haze 22 1011 69 10000 5.14 80 03:32 01.10.2022
1588 Clouds 33 1009 30 10000 2.57 0 00:29 01.10.2022
1589 Clear 32 1010 31 10000 2.57 270 22:48 30.09.2022
1590 Clear 31 1012 34 10000 3.09 0 21:29 30.09.2022
1591 Clear 30 1013 37 10000 3.09 240 20:44 30.09.2022
1592 Clear 30 1013 38 10000 3.09 240 20:18 30.09.2022
1593 Clouds 24 1014 61 10000 4.63 150 17:38 30.09.2022
1594 Clouds 20 1012 72 10000 1.54 150 15:56 30.09.2022
1595 Clouds 21 1014 70 10000 3.6 140 13:30 30.09.2022
1596 Clouds 22 1014 69 10000 2.01 129 11:58 30.09.2022
1597 Clouds 22 1015 66 10000 3.58 157 10:40 30.09.2022
1598 Clear 22 1015 64 10000 3.09 100 08:26 30.09.2022
1599 Clouds 23 1015 62 10000 4.12 170 05:54 30.09.2022
1600 Clouds 27 1014 49 10000 2.68 251 02:36 30.09.2022
1601 Clouds 30 1017 31 10000 6.17 60 22:31 29.09.2022
1602 Clear 28 1017 38 10000 3.6 70 21:27 29.09.2022
1603 Clouds 27 1018 42 10000 1.34 257 20:57 29.09.2022
1604 Clear 24 1019 58 10000 2.57 160 18:45 29.09.2022
1605 Clouds 22 1018 71 10000 3.09 170 17:23 29.09.2022
1606 Clouds 22 1019 70 10000 3.09 150 16:28 29.09.2022
1607 Clouds 21 1019 72 10000 2.06 150 15:36 29.09.2022
1608 Clouds 21 1019 73 10000 2.57 150 14:29 29.09.2022
1609 Clouds 22 1017 66 10000 3.6 190 10:29 29.09.2022
1610 Clouds 24 1019 62 10000 1.34 86 06:58 29.09.2022
1611 Clouds 27 1014 48 10000 3.6 290 02:49 29.09.2022
1612 Clouds 32 1014 31 10000 2.57 160 23:55 28.09.2022
1613 Clouds 33 1017 30 10000 7.2 130 22:42 28.09.2022
1614 Clear 33 1017 30 10000 9.26 140 21:29 28.09.2022
1615 Clouds 33 1019 29 10000 8.75 130 20:22 28.09.2022
1616 Clouds 30 1018 35 10000 7.72 120 18:31 28.09.2022
1617 Clear 24 1017 48 10000 3.09 130 14:52 28.09.2022
1618 Clouds 24 1017 47 10000 1.79 164 12:56 28.09.2022
1619 Clear 26 1016 40 10000 4.12 160 10:51 28.09.2022
1620 Clear 28 1016 33 10000 2.57 170 08:33 28.09.2022
1621 Clear 29 1016 30 10000 2.57 90 07:19 28.09.2022
1622 Clear 34 1013 22 10000 4.12 140 02:36 28.09.2022
1623 Clear 35 1013 22 10000 6.17 160 01:33 28.09.2022
1624 Clear 35 1014 22 10000 7.2 100 23:20 27.09.2022
1625 Clear 34 1015 26 10000 8.23 110 21:44 27.09.2022
1626 Clear 33 1016 28 10000 9.77 130 20:38 27.09.2022
1627 Clear 32 1017 29 10000 9.77 120 19:47 27.09.2022
1628 Clear 31 1016 32 10000 9.77 120 18:40 27.09.2022
1629 Clear 29 1016 35 10000 4.63 70 17:44 27.09.2022
1630 Clear 25 1016 43 10000 4.12 120 15:31 27.09.2022
1631 Clear 25 1016 43 10000 3.09 100 14:55 27.09.2022
1632 Clear 24 1016 50 10000 6.69 120 12:42 27.09.2022
1633 Clear 25 1015 51 10000 4.63 100 11:32 27.09.2022
1634 Clear 26 1016 47 10000 3.6 170 08:49 27.09.2022
1635 Clouds 28 1016 40 10000 7.72 160 06:39 27.09.2022
1636 Clouds 33 1012 31 10000 5.81 88 01:57 27.09.2022
1637 Clear 34 1012 29 10000 8.23 50 01:27 27.09.2022
1638 Clear 36 1013 25 10000 6.69 100 23:26 26.09.2022
1639 Clear 36 1014 25 10000 8.75 120 22:34 26.09.2022
1640 Clear 35 1015 26 10000 9.77 120 20:45 26.09.2022
1641 Clear 33 1015 27 10000 9.77 130 19:30 26.09.2022
1642 Clouds 32 1015 30 10000 4.63 80 18:31 26.09.2022
1643 Clear 27 1016 41 10000 4.63 130 16:34 26.09.2022
1644 Clear 25 1013 42 10000 5.14 150 14:28 26.09.2022
1645 Clear 26 1013 39 10000 2.06 90 11:29 26.09.2022
1646 Clear 26 1013 36 10000 2.57 110 10:38 26.09.2022
1647 Clear 27 1013 34 10000 2.57 110 10:20 26.09.2022
1648 Clouds 27 1013 32 10000 2.57 120 09:54 26.09.2022
1649 Clouds 27 1013 32 10000 2.57 120 09:24 26.09.2022
1650 Clouds 28 1014 28 10000 0.89 110 07:37 26.09.2022
1651 Clear 35 1012 18 10000 4.02 234 02:51 26.09.2022
1652 Clear 36 1014 16 10000 3.6 10 23:46 25.09.2022
1653 Clear 36 1015 19 10000 3.6 320 21:54 25.09.2022
1654 Clear 35 1016 20 10000 3.6 320 21:34 25.09.2022
1655 Clear 34 1016 26 10000 2.24 283 20:45 25.09.2022
1656 Clear 32 1016 37 10000 1.54 80 19:32 25.09.2022
1657 Clear 29 1017 44 10000 1.54 120 18:35 25.09.2022
1658 Clear 28 1014 48 10000 2.06 140 17:52 25.09.2022
1659 Clear 24 1017 55 10000 3.6 140 16:35 25.09.2022
1660 Clear 22 1017 60 10000 3.09 140 15:44 25.09.2022
1661 Clear 23 1016 57 10000 2.57 140 14:22 25.09.2022
1662 Clear 24 1016 56 10000 3.09 140 12:49 25.09.2022
1663 Clear 25 1015 52 10000 3.09 200 10:29 25.09.2022
1664 Clear 27 1016 47 10000 2.57 230 08:24 25.09.2022
1665 Clear 30 1015 39 10000 3.09 280 05:36 25.09.2022
1666 Clear 36 1014 29 10000 3.6 310 00:39 25.09.2022
1667 Clear 35 1016 32 10000 2.68 326 22:35 24.09.2022
1668 Clear 33 1017 38 10000 2.24 236 20:54 24.09.2022
1669 Clear 31 1018 46 10000 0.89 68 19:22 24.09.2022
1670 Clear 26 1017 60 10000 3.09 130 17:19 24.09.2022
1671 Clear 24 1016 68 10000 3.09 160 16:24 24.09.2022
1672 Clear 22 1017 70 10000 2.06 150 15:19 24.09.2022
1673 Clear 23 1016 68 10000 3.6 150 13:23 24.09.2022
1674 Clear 23 1014 67 10000 2.06 150 12:41 24.09.2022
1675 Clear 25 1015 60 10000 4.63 150 10:38 24.09.2022
1676 Clear 26 1015 58 10000 3.6 150 09:35 24.09.2022
1677 Clear 26 1016 55 10000 4.63 180 08:43 24.09.2022
1678 Clouds 29 1015 47 10000 4.12 280 06:26 24.09.2022
1679 Clouds 31 1013 42 10000 5.14 290 04:35 24.09.2022
1680 Clouds 35 1012 32 10000 4.02 270 01:45 24.09.2022
1681 Clear 34 1014 36 10000 2.57 350 22:24 23.09.2022
1682 Clear 33 1015 40 10000 3.13 275 21:26 23.09.2022
1683 Clear 33 1015 43 10000 2.24 307 20:55 23.09.2022
1684 Clouds 31 1015 50 10000 1.54 100 19:46 23.09.2022
1685 Clouds 28 1016 58 10000 2.57 130 18:24 23.09.2022
1686 Clear 22 1015 74 10000 3.09 150 13:41 23.09.2022
1687 Clouds 24 1014 71 10000 1.54 220 10:25 23.09.2022
1688 Clouds 24 1015 69 10000 5.66 120 08:56 23.09.2022
1689 Clouds 26 1014 61 10000 6.17 280 04:42 23.09.2022
1690 Clear 34 1013 37 10000 4.12 250 23:30 22.09.2022
1691 Clear 34 1014 38 10000 3.6 290 22:28 22.09.2022
1692 Clear 33 1015 39 10000 3.13 298 21:39 22.09.2022
1693 Clear 32 1016 46 10000 1.79 0 20:31 22.09.2022
1694 Clouds 29 1016 57 10000 1.34 160 19:00 22.09.2022
1695 Clear 23 1019 83 10000 4.12 140 16:23 22.09.2022
1696 Clear 22 1016 78 10000 2.06 150 10:56 22.09.2022
1697 Clear 23 1016 78 10000 2.57 140 10:19 22.09.2022
1698 Clear 24 1014 81 10000 3.6 130 08:22 22.09.2022
1699 Clear 24 1014 82 10000 2.57 0 06:18 22.09.2022
1700 Clouds 28 1013 64 10000 3.6 140 01:27 22.09.2022
1701 Clouds 32 1014 50 10000 3.09 0 22:29 21.09.2022
1702 Clouds 31 1015 52 10000 2.24 87 21:24 21.09.2022
1703 Clouds 28 1017 59 10000 2.57 120 19:22 21.09.2022
1704 Clouds 25 1015 75 10000 2.57 160 17:45 21.09.2022
1705 Clouds 24 1015 84 10000 3.09 150 16:20 21.09.2022
1706 Clouds 23 1015 87 10000 2.57 130 13:56 21.09.2022
1707 Clouds 23 1013 85 10000 2.57 110 11:44 21.09.2022
1708 Clouds 23 1012 87 10000 2.57 110 11:21 21.09.2022
1709 Clouds 23 1015 85 10000 3.09 170 09:44 21.09.2022
1710 Clouds 23 1015 88 10000 3.6 140 08:50 21.09.2022
1711 Rain 28 1016 61 10000 6.69 230 04:57 21.09.2022
1712 Clear 33 1009 37 10000 2.24 158 02:40 21.09.2022
1713 Clear 34 1013 37 10000 1.54 40 01:58 21.09.2022
1714 Clouds 34 1011 35 10000 2.68 0 00:20 21.09.2022
1715 Clouds 34 1013 37 10000 1.34 0 21:53 20.09.2022
1716 Clouds 32 1014 42 10000 2.68 289 20:33 20.09.2022
1717 Clear 30 1015 50 10000 2.06 290 18:51 20.09.2022
1718 Clouds 25 1014 65 10000 3.09 140 15:51 20.09.2022
1719 Clouds 25 1014 62 10000 5.14 120 14:18 20.09.2022
1720 Clouds 27 1013 55 10000 6.69 120 11:51 20.09.2022
1721 Clouds 28 1012 50 10000 4.63 140 08:44 20.09.2022
1722 Clouds 28 1012 50 10000 4.63 140 08:23 20.09.2022
1723 Clouds 30 1010 45 10000 6.69 120 04:37 20.09.2022
1724 Clouds 35 1008 30 10000 9.77 140 01:42 20.09.2022
1725 Clear 37 1009 27 10000 3.09 110 22:44 19.09.2022
1726 Clear 35 1011 29 10000 2.68 97 21:28 19.09.2022
1727 Clear 35 1011 30 10000 5.14 130 20:40 19.09.2022
1728 Clear 31 1012 35 10000 3.6 150 18:49 19.09.2022
1729 Clear 27 1012 44 10000 4.12 150 17:20 19.09.2022
1730 Clear 24 1012 43 10000 3.09 180 13:47 19.09.2022
1731 Clear 24 1011 42 10000 2.57 170 12:26 19.09.2022
1732 Clear 25 1010 39 10000 2.06 210 10:19 19.09.2022
1733 Clear 28 1010 32 10000 2.57 220 08:37 19.09.2022
1734 Clouds 34 1007 23 10000 2.06 250 03:39 19.09.2022
1735 Clear 37 1007 20 10000 4.12 240 00:52 19.09.2022
1736 Clear 37 1009 19 10000 3.09 220 22:42 18.09.2022
1737 Clear 35 1010 21 10000 3.13 115 21:26 18.09.2022
1738 Clear 33 1011 24 10000 3.13 161 19:40 18.09.2022
1739 Clear 28 1011 34 10000 1.34 0 17:52 18.09.2022
1740 Clear 26 1014 39 10000 1.34 122 16:56 18.09.2022
1741 Clear 23 1011 38 10000 3.6 150 14:52 18.09.2022
1742 Clear 23 1010 38 10000 4.63 160 13:41 18.09.2022
1743 Clear 24 1010 36 10000 4.12 140 12:20 18.09.2022
1744 Clear 25 1009 35 10000 3.6 140 09:44 18.09.2022
1745 Clear 36 1007 16 10000 6.17 200 01:44 18.09.2022
1746 Clear 37 1008 16 10000 6.17 200 01:20 18.09.2022
1747 Clear 37 1009 14 10000 7.72 210 23:36 17.09.2022
1748 Clear 35 1010 14 10000 4.02 129 20:56 17.09.2022
1749 Clear 33 1011 19 10000 2.57 110 19:39 17.09.2022
1750 Clear 29 1011 29 10000 4.63 150 18:30 17.09.2022
1751 Clear 20 1011 36 10000 4.12 150 14:27 17.09.2022
1752 Clear 22 1011 33 10000 4.12 150 13:32 17.09.2022
1753 Clear 23 1012 33 10000 5.14 150 10:49 17.09.2022
1754 Clear 25 1011 35 10000 2.57 160 07:28 17.09.2022
1755 Clear 26 1011 33 10000 3.09 140 06:21 17.09.2022
1756 Clear 36 1011 19 10000 5.66 300 23:41 16.09.2022
1757 Clear 35 1012 23 10000 3.09 210 22:27 16.09.2022
1758 Clear 34 1012 25 10000 3.13 173 20:54 16.09.2022
1759 Clear 34 1012 25 10000 3.13 173 20:54 16.09.2022
1760 Clear 31 1013 36 10000 2.57 0 19:35 16.09.2022
1761 Clear 23 1013 56 10000 4.12 150 16:24 16.09.2022
1762 Clear 21 1014 57 10000 3.6 150 14:52 16.09.2022
1763 Clear 22 1014 52 10000 2.57 130 13:21 16.09.2022
1764 Clear 24 1013 48 10000 3.6 150 10:24 16.09.2022
1765 Clear 26 1012 40 10000 2.06 180 07:26 16.09.2022
1766 Clear 27 1012 38 10000 4.12 180 06:48 16.09.2022
1767 Clear 28 1012 39 10000 1.34 293 05:57 16.09.2022
1768 Clear 34 1011 25 10000 3.09 260 02:30 16.09.2022
1769 Clear 33 1013 30 10000 2.57 0 21:44 15.09.2022
1770 Clear 32 1014 35 10000 2.57 0 20:38 15.09.2022
1771 Clear 30 1015 40 10000 3.09 210 19:31 15.09.2022
1772 Clear 26 1015 51 10000 3.6 180 17:41 15.09.2022
1773 Clear 25 1014 54 10000 3.6 180 17:22 15.09.2022
1774 Clear 21 1015 64 10000 3.09 140 15:38 15.09.2022
1775 Clear 22 1015 61 10000 3.09 170 12:50 15.09.2022
1776 Clear 23 1013 59 10000 3.09 160 11:48 15.09.2022
1777 Clouds 25 1013 53 10000 3.09 90 09:44 15.09.2022
1778 Clouds 28 1012 43 10000 2.57 230 06:45 15.09.2022
1779 Clouds 31 1010 33 10000 1.54 220 03:29 15.09.2022
1780 Clouds 33 1012 32 10000 5.14 170 22:51 14.09.2022
1781 Clouds 31 1013 41 10000 3.6 190 20:30 14.09.2022
1782 Clear 29 1014 46 10000 3.6 170 19:32 14.09.2022
1783 Clear 26 1014 58 10000 2.57 150 17:37 14.09.2022
1784 Clouds 23 1013 64 10000 3.09 140 16:36 14.09.2022
1785 Clear 22 1011 66 10000 2.06 130 14:50 14.09.2022
1786 Clouds 22 1013 68 10000 3.6 150 12:38 14.09.2022
1787 Clear 24 1011 62 10000 2.06 170 09:52 14.09.2022
1788 Clouds 25 1011 55 10000 3.09 210 08:21 14.09.2022
1789 Clouds 26 1011 56 10000 1.79 94 06:49 14.09.2022
1790 Clouds 27 1011 52 10000 0.89 94 06:25 14.09.2022
1791 Thunderstorm 31 1010 40 10000 2.57 310 02:19 14.09.2022
1792 Clouds 32 1009 40 10000 4.12 320 01:32 14.09.2022
1793 Clear 33 1009 38 10000 4.63 240 00:52 14.09.2022
1794 Clouds 33 1010 38 10000 2.68 176 23:54 13.09.2022
1795 Clouds 33 1010 39 10000 3.13 278 23:36 13.09.2022
1796 Clouds 33 1010 39 10000 3.13 278 23:18 13.09.2022
1797 Clouds 32 1012 41 10000 1.54 340 22:22 13.09.2022
1798 Clear 31 1013 47 10000 1.54 50 20:45 13.09.2022
1799 Clear 28 1014 53 10000 0.89 208 18:43 13.09.2022
1800 Clouds 22 1012 74 10000 2.06 140 16:19 13.09.2022
1801 Clouds 21 1012 74 10000 2.06 180 15:18 13.09.2022
1802 Clear 22 1012 70 10000 4.12 130 13:31 13.09.2022
1803 Clouds 23 1013 66 10000 5.14 120 09:51 13.09.2022
1804 Clear 22 1015 69 10000 6.17 130 07:31 13.09.2022
1805 Thunderstorm 25 1015 71 10000 3.6 180 00:52 13.09.2022
1806 Drizzle 31 1015 50 10000 5.14 250 22:52 12.09.2022
1807 Clouds 31 1015 50 10000 5.14 270 22:26 12.09.2022
1808 Clear 32 1015 44 10000 2.57 330 20:54 12.09.2022
1809 Clear 30 1016 48 10000 2.57 210 19:26 12.09.2022
1810 Clear 27 1016 56 10000 4.63 150 17:46 12.09.2022
1811 Clouds 23 1017 72 10000 2.57 130 15:22 12.09.2022
1812 Clouds 24 1017 67 10000 4.63 80 11:57 12.09.2022
1813 Thunderstorm 24 1016 76 10000 1.79 296 10:20 12.09.2022
1814 Rain 26 1016 69 10000 4.12 120 05:57 12.09.2022
1815 Drizzle 28 1014 53 10000 4.63 240 04:32 12.09.2022
1816 Clear 37 1013 29 10000 6.69 120 23:59 11.09.2022
1817 Clear 36 1015 30 10000 4.12 110 22:45 11.09.2022
1818 Clear 34 1015 34 10000 5.66 110 21:19 11.09.2022
1819 Clear 33 1016 38 10000 2.68 278 20:42 11.09.2022
1820 Clear 31 1017 46 10000 1.79 77 19:26 11.09.2022
1821 Clear 29 1017 53 10000 2.68 163 18:38 11.09.2022
1822 Clear 26 1017 64 10000 0.89 180 16:57 11.09.2022
1823 Clear 23 1015 73 10000 2.57 170 15:22 11.09.2022
1824 Clear 23 1016 71 10000 2.06 170 13:18 11.09.2022
1825 Clear 25 1015 64 10000 2.57 220 10:35 11.09.2022
1826 Clear 28 1014 57 10000 3.6 290 07:49 11.09.2022
1827 Clear 31 1011 43 10000 6.69 310 03:34 11.09.2022
1828 Clouds 33 1012 36 10000 3.09 300 23:45 10.09.2022
1829 Clear 32 1013 43 10000 2.57 350 21:35 10.09.2022
1830 Clear 29 1014 53 10000 1.54 130 19:56 10.09.2022
1831 Clear 29 1015 55 10000 1.54 130 19:37 10.09.2022
1832 Clear 28 1015 58 10000 1.54 130 19:19 10.09.2022
1833 Clear 24 1014 76 10000 0.89 180 16:58 10.09.2022
1834 Clear 21 1014 88 10000 0 0 15:28 10.09.2022
1835 Clear 22 1013 86 10000 1.54 310 12:55 10.09.2022
1836 Clear 22 1013 86 10000 1.54 310 12:55 10.09.2022
1837 Clouds 23 1012 81 10000 2.06 310 11:36 10.09.2022
1838 Clouds 23 1012 79 10000 3.09 340 10:25 10.09.2022
1839 Clouds 24 1012 77 10000 3.09 300 08:37 10.09.2022
1840 Clouds 24 1012 76 10000 3.09 300 08:18 10.09.2022
1841 Clouds 27 1005 63 10000 7.2 110 02:54 10.09.2022
1842 Clouds 32 1008 38 10000 2.57 0 23:35 09.09.2022
1843 Clouds 32 1009 37 10000 5.66 180 22:21 09.09.2022
1844 Clouds 30 1011 42 10000 2.57 140 20:48 09.09.2022
1845 Clouds 30 1011 46 10000 1.79 134 19:25 09.09.2022
1846 Clouds 29 1010 47 10000 4.12 130 18:55 09.09.2022
1847 Clouds 29 1010 47 10000 4.12 130 18:55 09.09.2022
1848 Clouds 26 1009 54 10000 3.6 120 16:34 09.09.2022
1849 Clouds 25 1009 53 10000 2.57 140 14:27 09.09.2022
1850 Clouds 26 1009 50 10000 3.09 130 12:56 09.09.2022
1851 Clouds 27 1008 42 10000 3.6 190 10:22 09.09.2022
1852 Clouds 29 1009 32 10000 4.63 160 06:46 09.09.2022
1853 Clouds 33 1007 22 10000 6.69 150 03:24 09.09.2022
1854 Clouds 35 1010 22 10000 8.75 130 21:57 08.09.2022
1855 Clouds 35 1011 22 10000 9.26 110 21:36 08.09.2022
1856 Clouds 35 1012 23 10000 4.63 120 20:38 08.09.2022
1857 Clouds 35 1012 25 10000 6.26 147 20:19 08.09.2022
1858 Clouds 30 1013 43 10000 2.06 160 18:26 08.09.2022
1859 Clouds 25 1013 60 10000 3.6 140 16:27 08.09.2022
1860 Clear 25 1014 63 10000 1.79 311 14:40 08.09.2022
1861 Clouds 25 1015 62 10000 2.57 310 13:27 08.09.2022
1862 Clouds 26 1016 61 10000 3.13 322 12:24 08.09.2022
1863 Clouds 27 1015 59 10000 2.24 286 10:58 08.09.2022
1864 Clouds 28 1017 49 10000 1.79 293 08:54 08.09.2022
1865 Clear 30 1017 29 10000 4.12 130 06:43 08.09.2022
1866 Clear 34 1015 23 10000 5.66 140 02:37 08.09.2022
1867 Clear 35 1015 23 10000 7.72 140 02:19 08.09.2022
1868 Clear 35 1015 22 10000 6.69 130 01:38 08.09.2022
1869 Clouds 38 1016 17 10000 6.69 110 22:54 07.09.2022
1870 Clear 37 1017 18 10000 9.26 130 21:43 07.09.2022
1871 Clear 36 1018 21 10000 2.68 116 20:49 07.09.2022
1872 Clear 33 1020 29 10000 1.34 319 19:42 07.09.2022
1873 Clear 30 1020 36 10000 1.79 165 18:37 07.09.2022
1874 Clear 25 1015 36 10000 2.06 170 14:45 07.09.2022
1875 Clear 27 1016 31 10000 0 0 10:49 07.09.2022
1876 Clear 29 1017 29 10000 0.89 80 09:39 07.09.2022
1877 Clear 30 1017 26 10000 4.12 100 07:23 07.09.2022
1878 Clear 36 1014 16 10000 6.17 140 03:33 07.09.2022
1879 Clear 38 1014 14 10000 7.72 120 23:38 06.09.2022
1880 Clear 37 1015 17 10000 6.69 90 21:42 06.09.2022
1881 Clear 36 1016 18 10000 11.83 130 20:45 06.09.2022
1882 Clear 34 1016 21 10000 8.23 120 18:45 06.09.2022
1883 Clear 34 1016 23 10000 8.23 120 18:22 06.09.2022
1884 Clear 31 1015 30 10000 6.69 120 17:22 06.09.2022
1885 Clear 29 1013 32 10000 4.63 120 16:37 06.09.2022
1886 Clouds 26 1014 34 10000 6.17 120 15:22 06.09.2022
1887 Clear 27 1012 33 10000 5.66 140 13:45 06.09.2022
1888 Clear 26 1013 33 10000 5.66 140 13:45 06.09.2022
1889 Clear 27 1013 33 10000 5.66 140 13:23 06.09.2022
1890 Clear 27 1013 32 10000 1.34 136 11:57 06.09.2022
1891 Clear 28 1013 30 10000 5.14 120 10:41 06.09.2022
1892 Clear 29 1013 28 10000 5.14 120 08:50 06.09.2022
1893 Clear 30 1012 29 10000 4.63 120 07:45 06.09.2022
1894 Clear 37 1009 19 10000 6.17 130 02:44 06.09.2022
1895 Clear 38 1010 19 10000 8.23 120 23:23 05.09.2022
1896 Clear 37 1012 20 10000 8.23 110 21:53 05.09.2022
1897 Clear 35 1013 24 10000 7.2 90 20:33 05.09.2022
1898 Clear 34 1014 28 10000 7.2 120 19:19 05.09.2022
1899 Clear 33 1014 30 10000 4.63 110 18:45 05.09.2022
1900 Clear 32 1014 33 10000 4.63 110 18:21 05.09.2022
1901 Clear 28 1014 44 10000 4.12 110 16:35 05.09.2022
1902 Clear 26 1014 46 10000 5.66 90 15:47 05.09.2022
1903 Clear 26 1013 40 10000 6.17 140 13:25 05.09.2022
1904 Clear 26 1013 41 10000 5.66 160 12:27 05.09.2022
1905 Clear 27 1012 39 10000 4.12 130 09:44 05.09.2022
1906 Clear 30 1012 33 10000 4.12 110 06:40 05.09.2022
1907 Clear 36 1011 23 10000 6.17 110 01:56 05.09.2022
1908 Clear 36 1012 25 10000 5.66 120 22:59 04.09.2022
1909 Clear 36 1013 25 10000 7.2 100 22:27 04.09.2022
1910 Clear 35 1014 29 10000 8.23 80 20:50 04.09.2022
1911 Clear 33 1016 33 10000 6.17 70 19:32 04.09.2022
1912 Clouds 31 1016 39 10000 4.47 51 17:55 04.09.2022
1913 Clear 29 1016 43 10000 4.63 80 16:42 04.09.2022
1914 Clear 28 1016 46 10000 3.6 100 14:30 04.09.2022
1915 Clear 28 1016 46 10000 3.6 120 13:28 04.09.2022
1916 Clear 28 1016 50 10000 4.63 130 11:54 04.09.2022
1917 Clouds 27 1016 55 10000 0.45 99 10:28 04.09.2022
1918 Clear 29 1016 52 10000 4.63 120 07:29 04.09.2022
1919 Clear 31 1015 45 10000 4.12 170 04:44 04.09.2022
1920 Clouds 35 1014 35 10000 9.26 110 00:42 04.09.2022
1921 Clouds 35 1015 37 10000 9.77 110 22:21 03.09.2022
1922 Clouds 34 1016 39 10000 10.8 130 21:23 03.09.2022
1923 Clouds 32 1016 44 10000 5.36 112 18:59 03.09.2022
1924 Clear 30 1016 46 10000 6.17 50 17:26 03.09.2022
1925 Clear 28 1016 54 10000 2.24 92 16:27 03.09.2022
1926 Clear 26 1015 61 10000 2.57 140 14:44 03.09.2022
1927 Clear 26 1014 62 10000 0.45 0 13:58 03.09.2022
1928 Clear 27 1014 61 10000 2.06 150 12:19 03.09.2022
1929 Clear 28 1014 58 10000 1.54 250 10:27 03.09.2022
1930 Clouds 29 1014 52 10000 2.06 250 08:27 03.09.2022
1931 Clouds 31 1014 45 10000 2.57 170 06:53 03.09.2022
1932 Clear 34 1011 31 10000 3.6 140 04:31 03.09.2022
1933 Clear 38 1010 24 10000 4.12 150 23:54 02.09.2022
1934 Clear 37 1011 26 10000 3.58 25 22:45 02.09.2022
1935 Clear 35 1012 35 10000 1.79 339 20:59 02.09.2022
1936 Clear 34 1013 37 10000 3.09 90 20:27 02.09.2022
1937 Clear 32 1013 43 10000 0.89 168 19:00 02.09.2022
1938 Clear 30 1013 47 10000 1.34 246 18:28 02.09.2022
1939 Clear 29 1013 52 10000 2.57 160 17:43 02.09.2022
1940 Clear 27 1013 58 10000 0.89 92 16:46 02.09.2022
1941 Clear 25 1010 62 10000 1.54 270 13:55 02.09.2022
1942 Clear 25 1013 58 10000 3.6 150 12:24 02.09.2022
1943 Clear 28 1012 49 10000 3.6 130 09:50 02.09.2022
1944 Clear 28 1012 48 10000 4.12 130 08:56 02.09.2022
1945 Clear 30 1012 44 10000 5.14 140 07:30 02.09.2022
1946 Clear 30 1011 41 10000 5.66 130 06:36 02.09.2022
1947 Clear 36 1009 29 10000 5.66 120 02:37 02.09.2022
1948 Clouds 35 1011 31 10000 4.02 84 22:30 01.09.2022
1949 Clouds 35 1012 33 10000 3.13 86 21:43 01.09.2022
1950 Clouds 34 1012 34 10000 3.58 148 21:23 01.09.2022
1951 Clear 34 1013 36 10000 4.12 120 20:37 01.09.2022
1952 Clear 32 1014 40 10000 4.63 90 18:49 01.09.2022
1953 Clear 30 1014 46 10000 6.17 110 17:21 01.09.2022
1954 Clear 26 1014 54 10000 4.63 130 15:34 01.09.2022
1955 Clear 26 1014 53 10000 4.12 110 13:49 01.09.2022
1956 Clear 27 1013 51 10000 2.24 121 12:57 01.09.2022
1957 Clear 27 1013 49 10000 5.14 140 11:52 01.09.2022
1958 Clear 27 1013 49 10000 5.14 140 11:30 01.09.2022
1959 Clear 28 1013 45 10000 4.63 120 09:49 01.09.2022
1960 Clear 30 1013 40 10000 4.12 90 07:50 01.09.2022
1961 Clouds 31 1012 38 10000 1.79 62 05:58 01.09.2022
1962 Clear 35 1011 30 10000 6.17 50 01:31 01.09.2022
1963 Clear 35 1011 30 10000 6.17 50 01:31 01.09.2022
1964 Clear 35 1011 30 10000 6.17 50 01:31 01.09.2022
1965 Clear 35 1013 30 10000 9.26 50 23:19 31.08.2022
1966 Clear 34 1015 32 10000 10.29 80 20:48 31.08.2022
1967 Clear 32 1016 35 10000 5.66 100 19:23 31.08.2022
1968 Clear 30 1016 40 10000 5.66 80 17:25 31.08.2022
1969 Clear 27 1016 45 10000 4.63 140 15:39 31.08.2022
1970 Clouds 28 1015 42 10000 5.14 130 13:38 31.08.2022
1971 Clouds 28 1015 42 10000 5.14 130 13:38 31.08.2022
1972 Clear 28 1015 39 10000 5.66 100 12:18 31.08.2022
1973 Clouds 30 1015 34 10000 6.69 70 09:36 31.08.2022
1974 Clouds 31 1015 32 10000 5.66 60 08:31 31.08.2022
1975 Clear 37 1012 24 10000 4.02 68 02:59 31.08.2022
1976 Clear 38 1013 25 10000 5.66 50 22:29 30.08.2022
1977 Clear 38 1013 25 10000 5.66 50 22:29 30.08.2022
1978 Clear 37 1014 29 10000 3.58 74 21:30 30.08.2022
1979 Clear 36 1014 33 10000 1.54 210 20:35 30.08.2022
1980 Clear 30 1014 52 10000 1.54 170 17:24 30.08.2022
1981 Clouds 26 1014 55 10000 2.06 160 13:53 30.08.2022
1982 Clear 27 1014 56 10000 3.6 180 12:25 30.08.2022
1983 Clear 27 1014 54 10000 3.09 190 11:20 30.08.2022
1984 Clear 27 1014 54 10000 3.09 190 11:20 30.08.2022
1985 Clear 28 1010 51 10000 0.89 81 09:58 30.08.2022
1986 Clear 31 1012 44 10000 3.09 280 06:49 30.08.2022
1987 Clear 37 1010 33 10000 4.92 296 01:18 30.08.2022
1988 Clear 36 1012 40 10000 5.66 290 22:39 29.08.2022
1989 Clear 35 1013 41 10000 4.02 297 21:54 29.08.2022
1990 Clear 33 1014 46 10000 4.12 340 20:47 29.08.2022
1991 Clear 31 1014 53 10000 2.68 308 19:35 29.08.2022
1992 Clear 28 1012 62 10000 1.54 190 17:33 29.08.2022
1993 Clear 27 1013 65 10000 0.45 61 16:59 29.08.2022
1994 Clear 24 1014 76 10000 1.54 190 15:20 29.08.2022
1995 Clear 24 1012 71 10000 2.06 140 13:55 29.08.2022
1996 Clear 25 1013 67 10000 2.06 150 12:24 29.08.2022
1997 Clear 26 1013 66 10000 3.09 160 10:48 29.08.2022
1998 Clear 27 1011 64 10000 3.09 140 09:19 29.08.2022
1999 Clear 28 1010 59 10000 2.57 160 07:20 29.08.2022
2000 Clouds 33 1008 41 10000 4.63 300 02:31 29.08.2022
2001 Clear 35 1009 39 10000 3.58 332 23:35 28.08.2022
2002 Clear 34 1011 42 10000 4.02 310 21:48 28.08.2022
2003 Clear 34 1012 44 10000 3.13 104 21:25 28.08.2022
2004 Clear 32 1012 49 10000 2.57 250 20:18 28.08.2022
2005 Clear 30 1012 58 10000 1.54 0 18:22 28.08.2022
2006 Clear 29 1012 60 10000 1.34 86 17:59 28.08.2022
2007 Clear 27 1012 68 10000 2.06 160 16:44 28.08.2022
2008 Clouds 24 1012 77 10000 2.57 130 15:33 28.08.2022
2009 Clear 25 1011 72 10000 2.57 120 13:19 28.08.2022
2010 Clear 26 1011 68 10000 3.6 130 11:25 28.08.2022
2011 Clear 26 1011 66 10000 2.57 170 10:20 28.08.2022
2012 Clear 28 1011 62 10000 3.09 160 08:52 28.08.2022
2013 Clear 28 1010 59 10000 2.57 150 07:53 28.08.2022
2014 Clear 28 1011 58 10000 3.09 170 07:23 28.08.2022
2015 Clear 35 1008 37 10000 5.66 300 00:36 28.08.2022
2016 Clear 35 1009 38 10000 4.47 293 22:58 27.08.2022
2017 Clear 35 1011 39 10000 5.14 320 22:24 27.08.2022
2018 Clear 34 1012 44 10000 3.09 260 20:35 27.08.2022
2019 Clear 32 1013 51 10000 1.34 107 18:57 27.08.2022
2020 Clear 26 1013 67 10000 3.6 160 16:26 27.08.2022
2021 Clear 24 1014 71 10000 4.12 140 15:31 27.08.2022
2022 Clear 26 1014 67 10000 3.09 140 13:18 27.08.2022
2023 Clouds 26 1013 66 10000 0.45 104 11:58 27.08.2022
2024 Clouds 27 1012 64 10000 3.6 130 10:27 27.08.2022
2025 Clear 28 1012 62 10000 4.63 180 09:31 27.08.2022
2026 Clouds 31 1012 51 10000 0.89 306 05:59 27.08.2022
2027 Clouds 36 1011 36 10000 2.57 350 00:51 27.08.2022
2028 Clouds 36 1012 39 10000 2.24 125 23:35 26.08.2022
2029 Clear 35 1014 43 10000 2.57 340 21:45 26.08.2022
2030 Clear 33 1015 49 10000 0.89 157 19:50 26.08.2022
2031 Clear 29 1014 65 10000 1.34 158 17:49 26.08.2022
2032 Clear 24 1017 81 10000 2.57 150 15:40 26.08.2022
2033 Clear 24 1012 78 10000 0.39 275 14:59 26.08.2022
2034 Clouds 25 1012 84 10000 0.96 319 12:56 26.08.2022
2035 Clouds 26 1016 77 10000 1.54 60 11:43 26.08.2022
2036 Clouds 26 1016 83 10000 1.54 60 11:21 26.08.2022
2037 Clouds 27 1016 72 10000 3.09 150 08:21 26.08.2022
2038 Clouds 32 1013 48 10000 3.13 140 02:57 26.08.2022
2039 Clouds 34 1014 40 10000 4.12 30 23:45 25.08.2022
2040 Clouds 34 1016 43 10000 5.14 120 21:55 25.08.2022
2041 Clear 33 1016 45 10000 3.09 80 20:53 25.08.2022
2042 Clear 31 1017 50 10000 3.6 110 19:27 25.08.2022
2043 Clear 30 1017 57 10000 2.06 140 18:29 25.08.2022
2044 Clear 28 1017 65 10000 3.09 120 17:31 25.08.2022
2045 Clear 26 1016 72 10000 4.12 140 16:36 25.08.2022
2046 Clear 24 1015 79 10000 2.06 160 15:28 25.08.2022
2047 Clear 24 1014 75 10000 2.57 150 13:20 25.08.2022
2048 Clouds 25 1014 74 10000 3.6 120 10:49 25.08.2022
2049 Clouds 26 1015 71 10000 4.12 150 09:46 25.08.2022
2050 Clouds 26 1013 69 10000 5.14 130 07:31 25.08.2022
2051 Clear 32 1011 46 10000 5.14 170 02:29 25.08.2022
2052 Clear 34 1013 40 10000 3.09 70 23:29 24.08.2022
2053 Clouds 33 1013 42 10000 1.79 124 22:54 24.08.2022
2054 Clear 32 1014 46 10000 1.34 140 21:39 24.08.2022
2055 Clear 32 1014 47 10000 2.24 295 21:20 24.08.2022
2056 Clear 29 1015 55 10000 2.24 160 19:43 24.08.2022
2057 Clear 25 1015 70 10000 3.6 150 16:50 24.08.2022
2058 Clear 23 1015 71 10000 4.12 120 15:52 24.08.2022
2059 Clear 23 1013 72 10000 4.63 110 13:49 24.08.2022
2060 Clear 24 1012 69 10000 3.6 120 12:24 24.08.2022
2061 Clear 24 1013 68 10000 3.6 130 11:18 24.08.2022
2062 Clear 25 1013 67 10000 6.69 120 08:28 24.08.2022
2063 Clouds 31 1009 46 10000 13.38 100 03:44 24.08.2022
2064 Clear 36 1010 33 10000 3.6 130 23:47 23.08.2022
2065 Clear 36 1011 35 10000 5.66 100 22:33 23.08.2022
2066 Clear 35 1012 36 10000 4.63 110 21:39 23.08.2022
2067 Clear 34 1012 40 10000 6.17 130 20:31 23.08.2022
2068 Clear 31 1013 47 10000 5.66 140 18:50 23.08.2022
2069 Clear 29 1013 56 10000 4.63 120 17:51 23.08.2022
2070 Clear 28 1013 61 10000 4.63 110 17:18 23.08.2022
2071 Clear 24 1013 72 10000 4.12 150 15:39 23.08.2022
2072 Clear 24 1013 74 10000 3.09 130 13:36 23.08.2022
2073 Clear 24 1012 70 10000 3.09 110 12:30 23.08.2022
2074 Clear 25 1013 68 10000 4.63 100 10:51 23.08.2022
2075 Clear 25 1013 67 10000 4.63 100 10:32 23.08.2022
2076 Clear 26 1013 64 10000 5.14 110 08:54 23.08.2022
2077 Clear 26 1013 64 10000 5.14 110 08:22 23.08.2022
2078 Clear 27 1014 63 10000 3.6 90 07:43 23.08.2022
2079 Clouds 27 1014 61 10000 0.89 133 06:58 23.08.2022
2080 Clear 28 1013 57 10000 6.69 110 05:52 23.08.2022
2081 Clear 34 1012 44 10000 4.02 308 00:52 23.08.2022
2082 Clear 34 1013 44 10000 3.58 276 00:24 23.08.2022
2083 Clear 33 1014 46 10000 3.09 360 22:52 22.08.2022
2084 Clear 32 1015 48 10000 3.09 300 21:51 22.08.2022
2085 Clear 30 1017 57 10000 1.34 52 19:49 22.08.2022
2086 Clear 29 1017 61 10000 1.34 268 19:27 22.08.2022
2087 Clouds 27 1017 70 10000 1.34 207 17:55 22.08.2022
2088 Clouds 23 1017 85 10000 1.54 150 15:40 22.08.2022
2089 Clouds 23 1017 85 10000 3.09 170 14:32 22.08.2022
2090 Clouds 24 1016 79 10000 2.06 220 11:19 22.08.2022
2091 Clouds 26 1015 73 10000 3.09 220 08:22 22.08.2022
2092 Clear 29 1015 55 10000 4.12 290 04:34 22.08.2022
2093 Clouds 32 1015 49 10000 4.02 303 00:49 22.08.2022
2094 Clouds 32 1015 50 10000 4.02 293 00:29 22.08.2022
2095 Clouds 31 1016 54 10000 3.6 340 22:54 21.08.2022
2096 Clouds 30 1017 57 10000 2.68 229 21:36 21.08.2022
2097 Clouds 29 1018 60 10000 1.79 0 20:57 21.08.2022
2098 Clouds 27 1018 68 10000 0.89 0 19:27 21.08.2022
2099 Clouds 25 1018 76 10000 1.34 135 17:59 21.08.2022
2100 Clouds 22 1018 83 10000 3.09 120 15:58 21.08.2022
2101 Clouds 22 1018 84 10000 3.09 120 15:28 21.08.2022
2102 Clouds 22 1016 84 10000 2.06 120 13:58 21.08.2022
2103 Clouds 22 1017 84 10000 3.6 170 13:34 21.08.2022
2104 Clouds 22 1016 85 10000 3.6 180 11:56 21.08.2022
2105 Clouds 22 1016 86 10000 4.12 140 09:32 21.08.2022
2106 Clouds 23 1016 86 10000 0.89 307 08:56 21.08.2022
2107 Clouds 23 1016 85 10000 3.6 160 08:38 21.08.2022
2108 Clouds 23 1016 85 10000 3.6 180 07:27 21.08.2022
2109 Clouds 25 1013 79 10000 3.09 90 03:41 21.08.2022
2110 Clouds 24 1013 84 10000 2.06 290 00:24 21.08.2022
2111 Rain 25 1014 76 10000 5.66 300 22:41 20.08.2022
2112 Clouds 26 1015 70 10000 3.09 0 21:38 20.08.2022
2113 Clouds 25 1015 73 10000 2.06 200 20:41 20.08.2022
2114 Drizzle 24 1015 78 10000 2.06 170 19:41 20.08.2022
2115 Clouds 24 1014 79 10000 2.57 190 18:31 20.08.2022
2116 Clouds 24 1014 82 10000 2.57 190 17:51 20.08.2022
2117 Clouds 23 1013 86 10000 3.6 110 16:52 20.08.2022
2118 Clouds 22 1013 90 10000 2.06 140 15:33 20.08.2022
2119 Clouds 22 1012 90 10000 2.06 130 13:26 20.08.2022
2120 Clouds 22 1012 90 10000 2.57 150 11:50 20.08.2022
2121 Clouds 23 1012 89 10000 2.57 140 09:37 20.08.2022
2122 Drizzle 23 1012 88 10000 2.57 150 08:31 20.08.2022
2123 Rain 24 1011 88 10000 0 0 05:52 20.08.2022
2124 Clouds 24 1009 86 10000 0 0 00:59 20.08.2022
2125 Rain 24 1009 86 10000 0 0 00:35 20.08.2022
2126 Rain 24 1012 89 10000 2.57 300 23:18 19.08.2022
2127 Rain 26 1011 73 10000 2.06 40 21:41 19.08.2022
2128 Drizzle 28 1011 66 10000 2.24 276 20:20 19.08.2022
2129 Clouds 27 1012 73 10000 1.79 154 17:35 19.08.2022
2130 Clouds 24 1012 84 10000 0.45 212 15:18 19.08.2022
2131 Clear 24 1012 81 10000 1.34 0 13:18 19.08.2022
2132 Clouds 26 1011 74 10000 4.12 170 10:53 19.08.2022
2133 Clouds 26 1012 72 10000 4.12 170 10:21 19.08.2022
2134 Clouds 28 1012 63 10000 5.14 150 06:27 19.08.2022
2135 Drizzle 31 1010 52 10000 1.54 330 00:56 19.08.2022
2136 Clouds 32 1010 51 10000 3.09 250 00:26 19.08.2022
2137 Rain 33 1011 47 10000 9.26 90 23:37 18.08.2022
2138 Clouds 33 1012 46 10000 4.47 324 22:38 18.08.2022
2139 Clouds 32 1013 49 10000 3.58 357 21:55 18.08.2022
2140 Clouds 32 1013 50 10000 3.6 10 21:26 18.08.2022
2141 Clouds 30 1014 58 10000 2.57 300 19:55 18.08.2022
2142 Clouds 29 1014 62 10000 3.09 270 19:25 18.08.2022
2143 Clouds 27 1014 74 10000 3.6 290 17:49 18.08.2022
2144 Clear 25 1015 80 10000 1.54 220 16:55 18.08.2022
2145 Clear 24 1012 81 10000 3.09 170 14:42 18.08.2022
2146 Clear 24 1012 80 10000 3.09 170 14:19 18.08.2022
2147 Clear 23 1012 83 10000 1.54 80 12:46 18.08.2022
2148 Clouds 23 1015 83 10000 0 0 11:31 18.08.2022
2149 Clouds 23 1015 81 10000 1.54 360 09:43 18.08.2022
2150 Clear 23 1016 81 10000 3.09 220 08:37 18.08.2022
2151 Clear 24 1015 81 10000 4.12 210 07:18 18.08.2022
2152 Clear 33 1012 42 10000 3.13 104 03:23 18.08.2022
2153 Clouds 36 1011 34 10000 3.6 320 23:18 17.08.2022
2154 Clear 34 1013 38 10000 2.57 250 21:28 17.08.2022
2155 Clouds 33 1014 42 10000 1.34 202 19:59 17.08.2022
2156 Clear 31 1014 47 10000 0.89 0 18:39 17.08.2022
2157 Clouds 29 1015 55 10000 2.57 160 17:27 17.08.2022
2158 Clear 26 1014 63 10000 3.09 160 16:21 17.08.2022
2159 Clear 24 1014 68 10000 3.09 120 14:48 17.08.2022
2160 Clouds 25 1014 67 10000 2.57 180 12:50 17.08.2022
2161 Clear 25 1013 64 10000 2.57 100 11:36 17.08.2022
2162 Clear 26 1013 64 10000 1.54 120 09:30 17.08.2022
2163 Clear 27 1013 60 10000 5.14 150 07:28 17.08.2022
2164 Clouds 37 1010 29 10000 4.12 310 01:45 17.08.2022
2165 Clear 37 1010 32 10000 5.14 240 23:33 16.08.2022
2166 Clear 36 1011 35 10000 2.06 0 21:48 16.08.2022
2167 Clear 33 1014 40 10000 2.57 0 20:26 16.08.2022
2168 Clear 33 1013 42 10000 1.79 331 19:40 16.08.2022
2169 Clouds 30 1013 50 10000 1.54 220 18:18 16.08.2022
2170 Clear 29 1013 57 10000 2.06 140 17:28 16.08.2022
2171 Haze 25 1013 69 10000 2.06 150 15:46 16.08.2022
2172 Clear 24 1012 69 10000 1.54 100 14:55 16.08.2022
2173 Haze 24 1012 69 10000 3.09 150 14:36 16.08.2022
2174 Haze 25 1012 68 10000 5.14 140 12:40 16.08.2022
2175 Haze 26 1011 63 10000 3.09 180 10:29 16.08.2022
2176 Haze 27 1012 60 10000 3.6 180 09:29 16.08.2022
2177 Haze 27 1012 57 10000 3.09 140 08:26 16.08.2022
2178 Haze 28 1012 53 10000 4.12 150 07:20 16.08.2022
2179 Clouds 34 1011 28 10000 4.12 270 01:23 16.08.2022
2180 Haze 34 1013 36 10000 4.63 340 22:29 15.08.2022
2181 Haze 34 1013 40 10000 2.57 0 21:51 15.08.2022
2182 Haze 32 1014 48 10000 2.24 337 20:39 15.08.2022
2183 Clouds 31 1014 52 10000 1.34 223 20:00 15.08.2022
2184 Clouds 28 1013 61 10000 3.09 130 18:20 15.08.2022
2185 Clouds 25 1013 73 10000 2.06 310 16:26 15.08.2022
2186 Clouds 25 1014 75 10000 0 0 15:55 15.08.2022
2187 Clouds 25 1012 73 10000 2.06 230 13:54 15.08.2022
2188 Clouds 25 1013 69 10000 2.06 250 12:24 15.08.2022
2189 Dust 27 1014 63 6437 3.09 210 09:57 15.08.2022
2190 Dust 28 1015 59 10000 4.63 270 08:21 15.08.2022
2191 Clouds 30 1012 49 10000 6.17 270 04:36 15.08.2022
2192 Clear 35 1012 32 10000 3.09 360 01:26 15.08.2022
2193 Clear 34 1015 38 10000 2.24 283 22:39 14.08.2022
2194 Clouds 33 1015 41 10000 2.06 0 21:38 14.08.2022
2195 Clouds 30 1016 51 10000 1.54 20 19:54 14.08.2022
2196 Clouds 29 1017 56 10000 0.89 94 18:58 14.08.2022
2197 Clouds 28 1017 59 10000 0.45 0 18:19 14.08.2022
2198 Clouds 26 1016 66 10000 3.6 130 16:53 14.08.2022
2199 Clouds 25 1016 71 10000 3.6 130 15:48 14.08.2022
2200 Clouds 23 1015 73 10000 2.06 140 14:27 14.08.2022
2201 Clouds 23 1017 75 10000 3.6 150 13:50 14.08.2022
2202 Clouds 24 1017 75 10000 3.6 150 13:19 14.08.2022
2203 Clouds 24 1016 74 10000 5.66 140 12:23 14.08.2022
2204 Clear 24 1016 74 10000 4.63 140 10:49 14.08.2022
2205 Clouds 25 1017 67 10000 3.09 70 08:50 14.08.2022
2206 Clear 26 1017 68 10000 10.29 80 06:21 14.08.2022
2207 Clouds 28 1017 57 10000 10.8 200 02:48 14.08.2022
2208 Clouds 36 1014 35 10000 5.14 270 23:53 13.08.2022
2209 Clear 36 1014 35 10000 7.2 330 22:52 13.08.2022
2210 Clouds 35 1017 39 10000 1.79 242 20:58 13.08.2022
2211 Clear 34 1017 41 10000 2.06 230 20:31 13.08.2022
2212 Clear 32 1018 47 10000 3.09 160 19:29 13.08.2022
2213 Clear 29 1017 60 10000 2.24 155 17:40 13.08.2022
2214 Clear 24 1017 76 10000 3.09 150 15:23 13.08.2022
2215 Clear 24 1017 74 10000 2.57 130 14:26 13.08.2022
2216 Clear 24 1017 77 10000 2.06 190 13:38 13.08.2022
2217 Clear 25 1016 74 10000 0 0 11:52 13.08.2022
2218 Clear 25 1016 73 10000 0 0 09:58 13.08.2022
2219 Clouds 26 1018 71 10000 3.09 150 08:23 13.08.2022
2220 Clouds 26 1018 71 10000 3.09 150 08:23 13.08.2022
2221 Clouds 26 1018 71 10000 3.09 150 08:23 13.08.2022
2222 Clouds 29 1015 57 10000 3.13 136 04:21 13.08.2022
2223 Clouds 33 1017 46 10000 6.69 280 23:47 12.08.2022
2224 Clear 34 1015 42 10000 2.57 0 21:42 12.08.2022
2225 Clouds 34 1017 42 10000 3.6 160 20:51 12.08.2022
2226 Clouds 32 1017 47 10000 4.63 150 19:39 12.08.2022
2227 Clouds 31 1017 52 10000 3.09 130 18:46 12.08.2022
2228 Clear 28 1016 61 10000 4.63 130 16:37 12.08.2022
2229 Clear 26 1017 67 10000 4.63 120 15:40 12.08.2022
2230 Clouds 26 1016 68 10000 3.6 150 14:27 12.08.2022
2231 Clouds 26 1016 69 10000 5.14 130 12:53 12.08.2022
2232 Clouds 26 1016 68 10000 3.09 140 09:52 12.08.2022
2233 Clouds 28 1016 64 10000 3.6 160 07:47 12.08.2022
2234 Clouds 28 1017 65 10000 4.63 120 06:31 12.08.2022
2235 Clouds 34 1013 40 10000 3.09 270 02:22 12.08.2022
2236 Thunderstorm 34 1014 41 10000 7.72 170 00:24 12.08.2022
2237 Clouds 34 1016 39 10000 2.57 140 23:35 11.08.2022
2238 Clear 34 1017 41 10000 2.06 40 22:24 11.08.2022
2239 Clouds 33 1017 44 10000 2.57 160 21:39 11.08.2022
2240 Clear 31 1020 49 10000 2.57 190 20:32 11.08.2022
2241 Clouds 29 1019 52 10000 0.45 96 19:57 11.08.2022
2242 Clouds 29 1017 55 10000 3.6 150 19:32 11.08.2022
2243 Clouds 27 1018 58 10000 6.69 110 17:47 11.08.2022
2244 Clear 25 1018 67 10000 6.69 110 16:32 11.08.2022
2245 Clouds 24 1018 68 10000 8.23 120 15:21 11.08.2022
2246 Clouds 25 1018 71 10000 4.63 150 12:41 11.08.2022
2247 Clouds 25 1018 73 10000 1.54 170 09:54 11.08.2022
2248 Clouds 26 1019 69 10000 4.12 140 06:59 11.08.2022
2249 Clouds 32 1015 45 10000 2.24 277 03:45 11.08.2022
2250 Clouds 37 1014 31 10000 2.24 225 00:35 11.08.2022
2251 Clear 35 1017 35 10000 5.66 140 22:21 10.08.2022
2252 Clear 34 1017 38 10000 4.12 130 21:24 10.08.2022
2253 Clear 33 1018 40 10000 5.66 120 20:47 10.08.2022
2254 Clear 30 1018 48 10000 2.57 110 18:55 10.08.2022
2255 Clouds 28 1018 59 10000 7.2 120 17:37 10.08.2022
2256 Clouds 26 1018 66 10000 6.17 110 16:33 10.08.2022
2257 Clear 24 1017 75 10000 0.89 227 13:35 10.08.2022
2258 Clouds 24 1017 72 10000 2.06 0 12:27 10.08.2022
2259 Clouds 26 1018 68 10000 4.47 124 08:55 10.08.2022
2260 Clouds 26 1018 69 10000 1.79 142 08:31 10.08.2022
2261 Clear 26 1017 68 10000 3.6 120 06:22 10.08.2022
2262 Clouds 29 1014 57 10000 3.09 0 02:45 10.08.2022
2263 Clouds 34 1014 40 10000 5.66 180 23:34 09.08.2022
2264 Clear 35 1014 37 10000 3.6 350 22:55 09.08.2022
2265 Clouds 34 1016 40 10000 2.57 0 21:34 09.08.2022
2266 Clear 32 1017 46 10000 4.63 140 19:35 09.08.2022
2267 Clear 29 1017 54 10000 3.09 120 18:29 09.08.2022
2268 Clear 27 1016 63 10000 3.09 160 17:27 09.08.2022
2269 Clear 26 1018 69 10000 5.14 120 16:40 09.08.2022
2270 Clear 24 1015 73 10000 4.12 80 15:40 09.08.2022
2271 Clear 24 1015 76 10000 3.09 120 12:25 09.08.2022
2272 Rain 23 1017 82 10000 6.69 60 09:22 09.08.2022
2273 Rain 23 1017 82 10000 11.32 20 08:26 09.08.2022
2274 Clouds 29 1016 56 10000 4.47 341 07:20 09.08.2022
2275 Clouds 34 1016 39 10000 2.06 330 03:32 09.08.2022
2276 Clear 35 1014 36 10000 2.24 257 23:27 08.08.2022
2277 Clear 34 1015 37 10000 2.24 293 22:53 08.08.2022
2278 Clear 34 1016 40 10000 3.6 310 21:49 08.08.2022
2279 Clear 32 1017 43 10000 2.68 37 20:52 08.08.2022
2280 Clear 31 1017 47 10000 2.57 360 19:50 08.08.2022
2281 Clear 29 1018 53 10000 2.68 281 18:35 08.08.2022
2282 Clouds 25 1017 71 10000 2.06 120 16:34 08.08.2022
2283 Clouds 23 1016 75 10000 2.57 90 15:38 08.08.2022
2284 Clouds 23 1016 75 10000 2.57 90 15:38 08.08.2022
2285 Clear 22 1017 82 10000 5.14 150 12:50 08.08.2022
2286 Rain 23 1019 76 10000 5.14 20 11:53 08.08.2022
2287 Clouds 26 1019 58 10000 4.92 142 09:36 08.08.2022
2288 Thunderstorm 26 1015 69 10000 5.14 80 05:37 08.08.2022
2289 Clear 36 1013 29 10000 4.12 270 02:24 08.08.2022
2290 Clear 36 1015 33 10000 1.79 230 22:20 07.08.2022
2291 Clear 35 1015 35 10000 3.09 330 21:38 07.08.2022
2292 Clear 33 1016 40 10000 1.79 163 20:25 07.08.2022
2293 Clouds 32 1016 43 10000 2.24 319 19:54 07.08.2022
2294 Clear 32 1016 46 10000 2.57 140 19:29 07.08.2022
2295 Clear 30 1016 52 10000 2.57 130 18:21 07.08.2022
2296 Clear 27 1015 61 10000 0.89 354 16:53 07.08.2022
2297 Clear 25 1017 69 10000 2.06 190 15:54 07.08.2022
2298 Clear 25 1016 62 10000 1.54 130 14:39 07.08.2022
2299 Clouds 25 1012 62 10000 1.34 44 12:59 07.08.2022
2300 Clouds 24 1014 69 10000 4.73 140 10:57 07.08.2022
2301 Clouds 24 1017 69 10000 7.2 150 10:28 07.08.2022
2302 Clouds 35 1010 32 10000 3.13 134 04:58 07.08.2022
2303 Clear 38 1009 27 10000 7.72 330 03:18 07.08.2022
2304 Clear 38 1011 28 10000 4.02 1 23:29 06.08.2022
2305 Clear 38 1012 30 10000 3.09 270 22:20 06.08.2022
2306 Clear 36 1014 34 10000 2.24 314 20:20 06.08.2022
2307 Clear 35 1014 37 10000 3.09 160 19:38 06.08.2022
2308 Clear 33 1014 45 10000 2.06 30 18:19 06.08.2022
2309 Clear 29 1015 58 10000 4.63 110 16:33 06.08.2022
2310 Clear 26 1014 68 10000 0 0 13:52 06.08.2022
2311 Clear 26 1011 66 10000 3.09 140 12:50 06.08.2022
2312 Clear 27 1011 64 10000 3.6 140 11:21 06.08.2022
2313 Clear 28 1014 60 10000 3.09 140 09:50 06.08.2022
2314 Clear 29 1013 57 10000 3.09 190 07:36 06.08.2022
2315 Rain 34 1012 38 10000 5.14 310 02:22 06.08.2022
2316 Clear 37 1013 33 10000 4.12 320 23:27 05.08.2022
2317 Clear 35 1015 37 10000 2.24 108 21:51 05.08.2022
2318 Clear 32 1016 50 10000 2.24 74 19:29 05.08.2022
2319 Clear 31 1016 55 10000 1.34 96 18:44 05.08.2022
2320 Clear 28 1017 64 10000 1.54 130 17:26 05.08.2022
2321 Clear 27 1017 70 10000 1.54 160 16:43 05.08.2022
2322 Clear 24 1017 77 10000 3.6 170 15:21 05.08.2022
2323 Clear 25 1016 75 10000 0 0 13:43 05.08.2022
2324 Clear 25 1016 76 10000 0 0 13:22 05.08.2022
2325 Clear 25 1014 73 10000 1.54 230 12:24 05.08.2022
2326 Clear 26 1014 69 10000 2.06 180 10:30 05.08.2022
2327 Clear 27 1015 62 10000 3.09 310 07:58 05.08.2022
2328 Clear 29 1014 55 10000 4.12 300 05:30 05.08.2022
2329 Clouds 34 1014 39 10000 3.09 250 23:51 04.08.2022
2330 Haze 33 1015 42 8047 3.09 140 22:25 04.08.2022
2331 Clear 32 1016 47 10000 1.54 120 21:25 04.08.2022
2332 Clear 31 1016 49 10000 2.06 0 20:42 04.08.2022
2333 Clear 29 1016 56 10000 4.12 120 19:23 04.08.2022
2334 Clear 28 1016 62 10000 0.89 0 18:35 04.08.2022
2335 Clear 26 1016 69 10000 0.89 102 17:31 04.08.2022
2336 Rain 23 1016 80 10000 4.63 30 13:44 04.08.2022
2337 Drizzle 25 1015 76 10000 11.32 130 11:47 04.08.2022
2338 Drizzle 26 1013 74 10000 4.63 110 10:50 04.08.2022
2339 Clouds 30 1014 40 10000 1.54 280 07:52 04.08.2022
2340 Clear 32 1011 40 10000 4.63 290 04:30 04.08.2022
2341 Clear 35 1011 38 10000 5.14 350 02:20 04.08.2022
2342 Clear 34 1012 42 10000 3.09 320 23:43 03.08.2022
2343 Clear 32 1014 50 10000 2.68 329 21:50 03.08.2022
2344 Clouds 30 1016 58 10000 2.68 0 20:45 03.08.2022
2345 Rain 25 1016 81 10000 4.02 305 19:29 03.08.2022
2346 Rain 24 1016 81 10000 8.75 160 17:58 03.08.2022
2347 Clouds 25 1014 73 10000 2.57 140 16:24 03.08.2022
2348 Clouds 25 1014 73 10000 2.57 140 16:24 03.08.2022
2349 Clouds 26 1013 66 10000 3.09 180 14:44 03.08.2022
2350 Clouds 28 1015 58 10000 5.14 190 12:30 03.08.2022
2351 Clouds 30 1013 53 10000 2.06 230 08:26 03.08.2022
2352 Clear 33 1013 42 10000 4.12 300 04:47 03.08.2022
2353 Clouds 35 1012 37 10000 3.6 300 03:28 03.08.2022
2354 Clouds 35 1013 39 10000 3.09 340 01:18 03.08.2022
2355 Clouds 35 1014 41 10000 4.12 210 23:18 02.08.2022
2356 Clear 35 1015 42 10000 2.57 330 21:55 02.08.2022
2357 Clear 34 1015 45 10000 2.57 330 21:21 02.08.2022
2358 Clear 32 1017 54 10000 1.54 360 18:52 02.08.2022
2359 Clear 27 1016 71 10000 1.54 160 16:24 02.08.2022
2360 Clear 26 1016 75 10000 2.06 150 12:34 02.08.2022
2361 Clear 27 1015 72 10000 2.57 180 09:34 02.08.2022
2362 Clear 28 1016 67 10000 3.09 180 07:54 02.08.2022
2363 Clear 29 1015 63 10000 3.6 190 06:43 02.08.2022
2364 Clear 31 1014 52 10000 3.6 200 04:55 02.08.2022
2365 Clouds 36 1015 39 10000 3.6 320 23:51 01.08.2022
2366 Clear 35 1016 41 10000 3.6 360 22:36 01.08.2022
2367 Clear 33 1017 48 10000 2.24 276 20:53 01.08.2022
2368 Clear 31 1018 54 10000 0.89 19 19:32 01.08.2022
2369 Clear 29 1018 57 10000 1.34 182 18:40 01.08.2022
2370 Clouds 26 1018 73 10000 1.34 0 16:53 01.08.2022
2371 Clear 24 1019 78 10000 4.63 150 15:52 01.08.2022
2372 Clear 23 1019 85 10000 4.63 150 15:30 01.08.2022
2373 Clear 23 1018 81 10000 3.09 140 14:43 01.08.2022
2374 Clouds 23 1017 78 10000 3.6 110 12:47 01.08.2022
2375 Clear 24 1019 80 10000 3.6 180 09:43 01.08.2022
2376 Clouds 25 1020 69 10000 2.57 200 08:34 01.08.2022
2377 Clouds 24 1018 76 10000 4.63 30 04:56 01.08.2022
2378 Clouds 25 1017 74 10000 11.83 30 03:49 01.08.2022
2379 Clear 36 1015 36 10000 4.47 129 00:36 01.08.2022
2380 Clear 35 1016 37 10000 2.06 0 22:40 31.07.2022
2381 Clear 34 1018 41 10000 1.54 290 21:29 31.07.2022
2382 Clear 32 1018 46 10000 0.89 0 19:56 31.07.2022
2383 Clear 29 1019 55 10000 4.12 160 18:35 31.07.2022
2384 Clouds 24 1019 71 10000 5.14 110 15:45 31.07.2022
2385 Clear 23 1018 76 10000 4.63 130 13:44 31.07.2022
2386 Clouds 24 1017 74 10000 3.09 90 11:59 31.07.2022
2387 Rain 25 1018 73 10000 3.58 14 09:55 31.07.2022
2388 Clouds 25 1016 76 10000 3.6 150 08:18 31.07.2022
2389 Clouds 26 1017 63 10000 7.72 210 03:28 31.07.2022
2390 Clouds 30 1016 50 10000 3.09 60 23:46 30.07.2022
2391 Clear 35 1015 40 10000 4.12 150 22:19 30.07.2022
2392 Clear 35 1015 40 10000 4.12 150 22:19 30.07.2022
2393 Clear 35 1015 41 10000 3.13 246 21:49 30.07.2022
2394 Clear 34 1015 45 10000 1.34 191 20:58 30.07.2022
2395 Clouds 32 1016 48 10000 2.24 117 19:59 30.07.2022
2396 Clouds 31 1017 53 10000 0.89 186 18:57 30.07.2022
2397 Clear 29 1017 64 10000 2.57 130 17:45 30.07.2022
2398 Clouds 25 1016 79 10000 3.09 130 15:54 30.07.2022
2399 Clouds 24 1016 84 10000 3.09 130 15:24 30.07.2022
2400 Clouds 24 1016 85 10000 2.06 150 13:19 30.07.2022
2401 Clouds 24 1015 84 10000 3.09 160 12:20 30.07.2022
2402 Clouds 24 1015 82 10000 3.09 120 10:35 30.07.2022
2403 Clear 24 1015 82 10000 0.45 323 09:57 30.07.2022
2404 Clear 25 1014 79 10000 2.06 120 07:55 30.07.2022
2405 Clouds 27 1014 69 10000 3.09 50 04:20 30.07.2022
2406 Thunderstorm 28 1013 67 10000 5.14 260 02:28 30.07.2022
2407 Clouds 32 1015 37 10000 0 0 22:46 29.07.2022
2408 Clouds 31 1016 41 10000 3.09 180 21:24 29.07.2022
2409 Clear 29 1017 50 10000 2.57 170 20:50 29.07.2022
2410 Clouds 27 1015 62 10000 4.63 90 18:27 29.07.2022
2411 Clouds 23 1017 78 10000 4.63 100 16:32 29.07.2022
2412 Rain 22 1015 84 10000 2.57 150 13:45 29.07.2022
2413 Rain 25 1013 73 10000 8.23 150 11:30 29.07.2022
2414 Clouds 25 1014 69 10000 0.45 232 08:50 29.07.2022
2415 Clouds 26 1014 68 10000 0.45 232 08:20 29.07.2022
2416 Clouds 29 1012 54 10000 4.12 260 02:29 29.07.2022
2417 Clouds 28 1014 63 10000 6.17 300 23:18 28.07.2022
2418 Clouds 27 1016 65 10000 4.63 300 21:30 28.07.2022
2419 Clouds 27 1015 65 10000 4.12 290 20:45 28.07.2022
2420 Clouds 28 1015 63 10000 3.6 200 19:44 28.07.2022
2421 Clouds 27 1015 65 10000 3.6 200 19:25 28.07.2022
2422 Clouds 27 1015 64 10000 4.63 180 17:44 28.07.2022
2423 Clouds 26 1015 68 10000 5.14 180 16:59 28.07.2022
2424 Clouds 26 1015 70 10000 3.6 160 16:36 28.07.2022
2425 Clouds 24 1014 76 10000 3.6 130 13:47 28.07.2022
2426 Clouds 25 1015 73 10000 5.14 120 11:43 28.07.2022
2427 Clouds 27 1015 66 10000 4.12 120 06:59 28.07.2022
2428 Drizzle 27 1014 62 10000 3.6 120 05:33 28.07.2022
2429 Clouds 29 1012 57 10000 5.14 220 03:53 28.07.2022
2430 Clouds 33 1014 44 10000 4.63 320 22:56 27.07.2022
2431 Clouds 32 1015 46 10000 3.6 330 21:29 27.07.2022
2432 Clear 31 1017 50 10000 1.79 282 19:46 27.07.2022
2433 Clouds 30 1017 56 10000 1.34 292 18:41 27.07.2022
2434 Clouds 26 1017 73 10000 2.06 170 16:31 27.07.2022
2435 Clouds 24 1016 80 10000 3.09 140 15:40 27.07.2022
2436 Clear 23 1016 83 10000 3.6 130 14:41 27.07.2022
2437 Clouds 24 1015 81 10000 3.6 140 12:52 27.07.2022
2438 Clouds 25 1016 78 10000 3.6 130 08:55 27.07.2022
2439 Clouds 25 1017 75 10000 3.6 120 07:33 27.07.2022
2440 Clouds 25 1016 71 10000 7.2 120 02:43 27.07.2022
2441 Clear 33 1013 44 10000 5.14 290 22:39 26.07.2022
2442 Clouds 32 1015 43 10000 5.14 300 21:23 26.07.2022
2443 Clear 32 1015 45 10000 3.6 300 20:47 26.07.2022
2444 Clouds 30 1016 55 10000 0.89 304 18:46 26.07.2022
2445 Clouds 29 1016 59 10000 0.89 277 18:20 26.07.2022
2446 Clouds 27 1016 67 10000 2.06 120 16:46 26.07.2022
2447 Clouds 24 1017 78 10000 3.09 130 15:42 26.07.2022
2448 Clear 24 1015 77 10000 2.57 140 13:47 26.07.2022
2449 Clear 24 1016 78 10000 2.06 150 11:40 26.07.2022
2450 Clear 25 1016 80 10000 2.06 180 09:32 26.07.2022
2451 Clouds 25 1017 78 10000 1.54 220 07:31 26.07.2022
2452 Clouds 33 1011 40 10000 4.63 240 01:21 26.07.2022
2453 Clouds 34 1013 38 10000 5.66 280 23:33 25.07.2022
2454 Clear 33 1015 40 10000 2.06 360 22:27 25.07.2022
2455 Clouds 33 1015 41 10000 4.63 330 21:43 25.07.2022
2456 Clouds 31 1016 44 10000 2.68 303 20:42 25.07.2022
2457 Clouds 30 1016 48 10000 2.06 350 19:50 25.07.2022
2458 Clouds 28 1016 57 10000 3.09 170 18:21 25.07.2022
2459 Clouds 28 1016 61 10000 3.09 190 17:31 25.07.2022
2460 Clouds 24 1015 77 10000 4.12 150 15:30 25.07.2022
2461 Clouds 24 1015 80 10000 3.6 150 12:29 25.07.2022
2462 Clear 24 1014 78 10000 1.54 160 10:32 25.07.2022
2463 Clouds 25 1017 77 10000 2.57 120 06:32 25.07.2022
2464 Clouds 33 1015 45 10000 8.23 240 23:55 24.07.2022
2465 Clouds 34 1013 42 10000 10.29 180 23:18 24.07.2022
2466 Clouds 35 1013 39 10000 3.58 325 22:35 24.07.2022
2467 Clouds 34 1014 39 10000 3.6 290 21:28 24.07.2022
2468 Clouds 34 1015 39 10000 2.24 265 20:53 24.07.2022
2469 Clear 33 1015 43 10000 3.09 270 20:27 24.07.2022
2470 Clouds 31 1015 49 10000 1.34 64 18:56 24.07.2022
2471 Clear 26 1015 70 10000 3.09 180 16:48 24.07.2022
2472 Clouds 25 1016 72 10000 2.57 120 15:51 24.07.2022
2473 Clouds 24 1017 79 10000 7.2 130 14:40 24.07.2022
2474 Thunderstorm 26 1015 70 10000 9.77 120 12:55 24.07.2022
2475 Clouds 27 1015 67 10000 4.63 110 12:18 24.07.2022
2476 Clouds 27 1013 71 10000 5.14 180 11:26 24.07.2022
2477 Clear 27 1013 71 10000 4.12 160 08:56 24.07.2022
2478 Clouds 27 1012 69 10000 5.14 20 07:52 24.07.2022
2479 Rain 26 1014 72 10000 5.14 290 06:34 24.07.2022
2480 Clouds 39 1009 23 10000 2.68 297 01:50 24.07.2022
2481 Clouds 37 1013 26 10000 1.79 288 22:25 23.07.2022
2482 Clear 35 1012 30 10000 2.57 250 20:35 23.07.2022
2483 Clear 32 1014 37 10000 4.12 120 18:51 23.07.2022
2484 Clouds 31 1016 43 10000 5.66 140 17:41 23.07.2022
2485 Clouds 30 1016 47 10000 3.09 190 17:23 23.07.2022
2486 Clouds 28 1014 51 10000 3.6 170 15:42 23.07.2022
2487 Clouds 27 1013 53 10000 1.34 188 14:59 23.07.2022
2488 Clouds 27 1014 53 10000 6.17 140 14:35 23.07.2022
2489 Clouds 28 1014 51 10000 7.2 120 13:50 23.07.2022
2490 Clouds 30 1014 45 10000 8.23 120 11:19 23.07.2022
2491 Clouds 31 1013 43 10000 7.2 170 10:23 23.07.2022
2492 Clouds 31 1011 43 10000 9.26 130 08:55 23.07.2022
2493 Clouds 33 1011 41 10000 7.72 140 03:40 23.07.2022
2494 Rain 38 1008 29 10000 9.26 150 01:58 23.07.2022
2495 Clouds 40 1009 24 10000 4.12 260 23:39 22.07.2022
2496 Clear 38 1012 29 10000 1.79 164 20:57 22.07.2022
2497 Clear 37 1013 33 10000 3.09 170 19:47 22.07.2022
2498 Clouds 34 1013 41 10000 3.58 171 18:29 22.07.2022
2499 Clear 33 1013 43 10000 6.17 190 17:28 22.07.2022
2500 Clouds 30 1013 46 10000 1.54 120 15:26 22.07.2022
2501 Clouds 31 1010 42 10000 2.06 190 12:23 22.07.2022
2502 Clouds 33 1011 36 10000 2.57 130 09:43 22.07.2022
2503 Clouds 33 1011 36 10000 2.57 130 09:18 22.07.2022
2504 Clear 34 1010 32 10000 2.57 270 07:21 22.07.2022
2505 Clouds 37 1009 30 10000 4.02 288 03:59 22.07.2022
2506 Clear 39 1011 26 10000 4.02 262 22:53 21.07.2022
2507 Clear 38 1012 28 10000 5.66 300 21:34 21.07.2022
2508 Clouds 36 1014 33 10000 4.47 312 19:31 21.07.2022
2509 Clear 33 1014 39 10000 5.14 10 18:28 21.07.2022
2510 Clear 30 1015 46 10000 3.6 20 17:19 21.07.2022
2511 Clear 28 1019 51 10000 5.66 180 15:39 21.07.2022
2512 Clear 27 1019 54 10000 8.75 190 14:39 21.07.2022
2513 Clouds 28 1016 56 10000 7.72 190 12:46 21.07.2022
2514 Clouds 31 1015 44 10000 10.8 160 11:19 21.07.2022
2515 Clear 32 1014 38 10000 3.09 260 09:41 21.07.2022
2516 Clouds 34 1014 34 10000 1.79 277 08:52 21.07.2022
2517 Clear 35 1013 31 10000 2.57 330 07:50 21.07.2022
2518 Clear 36 1013 30 10000 4.12 330 06:24 21.07.2022
2519 Clear 38 1013 28 10000 6.69 350 00:48 21.07.2022
2520 Clear 36 1015 32 10000 4.47 293 22:22 20.07.2022
2521 Clouds 35 1017 34 10000 4.02 278 20:59 20.07.2022
2522 Clear 34 1017 33 10000 4.92 128 19:54 20.07.2022
2523 Clear 34 1017 35 10000 4.92 290 19:25 20.07.2022
2524 Clear 33 1017 36 10000 3.58 297 18:52 20.07.2022
2525 Clear 32 1018 38 10000 2.57 270 18:26 20.07.2022
2526 Clear 29 1018 45 10000 3.09 150 16:46 20.07.2022
2527 Clear 28 1017 48 10000 2.06 170 15:32 20.07.2022
2528 Clear 28 1018 46 10000 3.6 140 14:20 20.07.2022
2529 Clouds 29 1016 42 10000 4.92 163 11:55 20.07.2022
2530 Clouds 31 1015 39 10000 6.69 220 09:43 20.07.2022
2531 Clear 38 1014 26 10000 9.26 290 04:36 20.07.2022
2532 Clear 40 1011 23 10000 6.69 300 00:52 20.07.2022
2533 Clear 40 1013 24 10000 7.2 280 23:41 19.07.2022
2534 Clouds 39 1013 25 10000 5.14 270 22:33 19.07.2022
2535 Clouds 39 1014 27 10000 6.69 280 21:46 19.07.2022
2536 Clear 38 1015 29 10000 3.6 280 20:48 19.07.2022
2537 Clear 35 1016 34 10000 4.63 230 19:21 19.07.2022
2538 Clear 34 1016 37 10000 1.79 328 18:31 19.07.2022
2539 Clear 33 1016 42 10000 0.89 203 17:46 19.07.2022
2540 Clear 28 1016 52 10000 2.06 140 14:57 19.07.2022
2541 Clear 30 1014 44 10000 4.12 280 11:44 19.07.2022
2542 Clear 31 1014 43 10000 4.63 240 10:55 19.07.2022
2543 Clear 31 1016 43 10000 2.57 190 09:25 19.07.2022
2544 Clear 31 1017 44 10000 3.09 180 08:39 19.07.2022
2545 Clear 33 1015 36 10000 2.06 260 07:19 19.07.2022
2546 Clear 35 1014 30 10000 5.66 300 05:30 19.07.2022
2547 Clear 36 1014 30 10000 5.14 310 04:55 19.07.2022
2548 Clear 38 1012 30 10000 4.63 290 01:19 19.07.2022
2549 Clear 39 1014 28 10000 5.14 280 23:47 18.07.2022
2550 Clear 39 1014 28 10000 5.66 310 23:18 18.07.2022
2551 Clear 38 1015 30 10000 5.66 300 21:58 18.07.2022
2552 Clear 37 1016 31 10000 3.6 310 20:51 18.07.2022
2553 Clear 35 1017 35 10000 5.14 260 19:33 18.07.2022
2554 Clear 32 1017 45 10000 2.06 170 17:31 18.07.2022
2555 Clear 28 1016 56 10000 2.57 150 15:52 18.07.2022
2556 Clear 26 1016 61 10000 2.06 100 14:34 18.07.2022
2557 Clear 27 1015 59 10000 2.57 140 13:23 18.07.2022
2558 Clear 28 1014 57 10000 1.54 170 11:31 18.07.2022
2559 Clear 29 1014 52 10000 1.54 120 08:57 18.07.2022
2560 Clear 29 1014 50 10000 1.54 160 07:38 18.07.2022
2561 Clear 38 1010 22 10000 3.09 220 01:43 18.07.2022
2562 Clear 39 1011 26 10000 2.24 178 22:46 17.07.2022
2563 Clear 39 1011 27 10000 2.24 321 22:22 17.07.2022
2564 Clear 37 1012 30 10000 1.79 242 21:23 17.07.2022
2565 Clear 37 1013 32 10000 3.13 298 20:44 17.07.2022
2566 Clear 35 1013 37 10000 2.68 161 19:34 17.07.2022
2567 Clear 34 1013 40 10000 1.34 193 18:54 17.07.2022
2568 Clear 31 1013 47 10000 1.79 90 17:38 17.07.2022
2569 Clear 30 1013 52 10000 0.89 128 16:51 17.07.2022
2570 Clear 29 1013 54 10000 1.34 0 16:26 17.07.2022
2571 Clear 26 1010 60 10000 1.6 189 14:58 17.07.2022
2572 Clear 26 1012 62 10000 3.6 170 13:32 17.07.2022
2573 Clear 27 1012 58 10000 2.06 160 11:50 17.07.2022
2574 Clear 28 1012 54 10000 4.12 150 09:30 17.07.2022
2575 Clear 30 1012 47 10000 4.12 180 05:54 17.07.2022
2576 Clouds 38 1009 28 10000 4.12 250 02:33 17.07.2022
2577 Clear 40 1012 26 10000 5.66 310 23:21 16.07.2022
2578 Clouds 38 1013 28 10000 5.14 280 21:47 16.07.2022
2579 Clear 36 1014 33 10000 3.13 257 19:53 16.07.2022
2580 Clear 34 1015 37 10000 2.24 287 18:35 16.07.2022
2581 Clear 31 1015 46 10000 1.54 0 17:19 16.07.2022
2582 Clear 27 1014 54 10000 5.66 190 14:31 16.07.2022
2583 Clear 28 1014 52 10000 2.06 190 11:38 16.07.2022
2584 Clouds 29 1013 49 10000 3.09 110 09:35 16.07.2022
2585 Clouds 30 1014 48 10000 1.54 290 08:47 16.07.2022
2586 Clouds 30 1014 48 10000 1.79 24 08:29 16.07.2022
2587 Clear 31 1013 43 10000 1.54 90 04:24 16.07.2022
2588 Drizzle 32 1012 40 10000 7.72 270 03:22 16.07.2022
2589 Clouds 41 1012 19 10000 2.24 87 23:37 15.07.2022
2590 Clouds 41 1013 20 10000 2.24 289 22:41 15.07.2022
2591 Clouds 40 1014 24 10000 2.24 263 21:29 15.07.2022
2592 Clear 38 1015 27 10000 3.09 350 20:31 15.07.2022
2593 Clear 35 1015 35 10000 2.57 170 18:44 15.07.2022
2594 Clear 33 1016 40 10000 3.6 130 17:44 15.07.2022
2595 Clouds 27 1016 58 10000 4.63 130 14:54 15.07.2022
2596 Clouds 27 1015 60 10000 2.57 140 13:18 15.07.2022
2597 Clouds 28 1015 55 10000 3.09 170 11:44 15.07.2022
2598 Clouds 29 1015 53 10000 3.09 110 10:27 15.07.2022
2599 Clouds 31 1015 47 10000 3.09 260 06:30 15.07.2022
2600 Thunderstorm 35 1009 33 10000 3.6 240 01:32 15.07.2022
2601 Clouds 40 1011 23 10000 2.68 191 00:22 15.07.2022
2602 Clouds 40 1012 23 10000 2.68 122 22:53 14.07.2022
2603 Clouds 39 1013 24 10000 2.68 1 21:54 14.07.2022
2604 Clear 39 1014 25 10000 2.24 294 21:30 14.07.2022
2605 Clear 38 1015 26 10000 3.13 254 20:45 14.07.2022
2606 Clear 37 1014 27 10000 2.24 336 20:24 14.07.2022
2607 Clear 35 1015 31 10000 2.24 256 19:19 14.07.2022
2608 Clouds 29 1016 43 10000 5.66 180 16:23 14.07.2022
2609 Clear 29 1017 45 10000 3.6 150 15:34 14.07.2022
2610 Clear 28 1015 49 10000 3.6 140 14:31 14.07.2022
2611 Clouds 28 1015 49 10000 0.89 176 12:58 14.07.2022
2612 Clear 29 1014 47 10000 2.06 110 11:54 14.07.2022
2613 Clear 29 1014 48 10000 2.06 110 11:23 14.07.2022
2614 Clouds 30 1014 45 10000 1.34 130 10:37 14.07.2022
2615 Clear 30 1014 46 10000 0.89 163 07:55 14.07.2022
2616 Clear 36 1013 27 10000 6.17 290 01:27 14.07.2022
2617 Clouds 35 1013 30 10000 7.2 300 00:54 14.07.2022
2618 Clouds 41 1011 19 10000 3.13 280 22:57 13.07.2022
2619 Clear 41 1012 19 10000 3.6 280 22:22 13.07.2022
2620 Clear 40 1013 22 10000 3.09 0 21:21 13.07.2022
2621 Clear 39 1014 24 10000 2.06 0 20:23 13.07.2022
2622 Clouds 34 1014 34 10000 2.68 177 17:54 13.07.2022
2623 Clouds 31 1014 41 10000 4.63 120 16:47 13.07.2022
2624 Clouds 29 1016 46 10000 2.57 110 15:43 13.07.2022
2625 Clouds 28 1014 48 10000 4.63 140 13:24 13.07.2022
2626 Clouds 29 1013 47 10000 2.57 130 10:46 13.07.2022
2627 Clouds 29 1013 46 10000 2.57 130 10:28 13.07.2022
2628 Clouds 29 1013 46 10000 2.57 130 10:28 13.07.2022
2629 Clouds 30 1014 44 10000 1.54 120 09:27 13.07.2022
2630 Clouds 30 1014 42 10000 2.57 330 07:53 13.07.2022
2631 Clouds 35 1011 30 10000 9.77 120 03:26 13.07.2022
2632 Clouds 39 1010 23 10000 2.68 265 00:19 13.07.2022
2633 Clouds 39 1011 22 10000 4.47 310 22:18 12.07.2022
2634 Clouds 39 1013 22 10000 2.68 273 21:36 12.07.2022
2635 Clear 38 1013 23 10000 2.68 290 20:42 12.07.2022
2636 Clear 37 1013 25 10000 3.13 117 19:42 12.07.2022
2637 Clear 35 1013 29 10000 2.24 283 18:21 12.07.2022
2638 Drizzle 32 1013 39 10000 3.09 130 16:20 12.07.2022
2639 Clouds 30 1014 41 10000 2.57 110 14:31 12.07.2022
2640 Clouds 30 1013 40 10000 3.09 120 13:24 12.07.2022
2641 Clouds 31 1013 38 10000 4.63 190 11:46 12.07.2022
2642 Clouds 31 1012 38 10000 4.12 170 10:25 12.07.2022
2643 Clouds 32 1013 36 10000 4.12 80 08:40 12.07.2022
2644 Clear 33 1013 35 10000 4.63 160 07:47 12.07.2022
2645 Clouds 33 1014 35 10000 13.38 130 05:45 12.07.2022
2646 Clouds 39 1009 19 10000 3.6 290 04:18 12.07.2022
2647 Clear 42 1010 15 10000 5.36 276 23:50 11.07.2022
2648 Clear 41 1011 16 10000 5.14 310 22:39 11.07.2022
2649 Clouds 40 1012 18 10000 3.13 290 20:56 11.07.2022
2650 Clear 39 1013 19 10000 4.02 278 20:32 11.07.2022
2651 Clear 36 1014 25 10000 2.06 220 18:48 11.07.2022
2652 Clear 35 1014 27 10000 2.06 220 18:23 11.07.2022
2653 Clear 35 1014 27 10000 2.06 220 18:23 11.07.2022
2654 Clear 30 1014 37 10000 2.57 160 16:26 11.07.2022
2655 Clouds 29 1012 35 10000 1.47 233 14:58 11.07.2022
2656 Clear 30 1012 34 10000 3.09 180 12:38 11.07.2022
2657 Clear 31 1013 32 10000 0.45 178 10:56 11.07.2022
2658 Clear 33 1013 30 10000 4.12 180 09:54 11.07.2022
2659 Clear 33 1014 29 10000 4.12 180 09:21 11.07.2022
2660 Clear 34 1013 25 10000 3.6 170 07:52 11.07.2022
2661 Clear 41 1013 17 10000 4.02 219 00:56 11.07.2022
2662 Clear 41 1014 17 10000 3.13 294 23:53 10.07.2022
2663 Clear 40 1015 19 10000 3.09 0 22:37 10.07.2022
2664 Clouds 38 1017 21 10000 2.68 221 20:55 10.07.2022
2665 Clear 38 1017 22 10000 2.57 290 20:24 10.07.2022
2666 Clear 36 1018 25 10000 0.89 183 19:28 10.07.2022
2667 Clouds 34 1018 33 10000 2.68 132 17:59 10.07.2022
2668 Clear 32 1018 35 10000 3.6 130 17:20 10.07.2022
2669 Clouds 29 1018 41 10000 4.63 110 16:20 10.07.2022
2670 Clouds 27 1019 45 10000 4.63 110 14:44 10.07.2022
2671 Clouds 28 1019 42 10000 7.72 140 13:29 10.07.2022
2672 Clear 29 1017 43 10000 5.14 130 11:39 10.07.2022
2673 Clouds 29 1019 42 10000 8.23 120 09:45 10.07.2022
2674 Clouds 30 1020 40 10000 12.35 100 08:43 10.07.2022
2675 Clouds 31 1019 38 10000 8.23 90 06:39 10.07.2022
2676 Clear 41 1016 17 10000 2.57 0 23:47 09.07.2022
2677 Clouds 39 1018 19 10000 3.09 230 22:26 09.07.2022
2678 Clear 39 1018 20 10000 1.54 90 21:41 09.07.2022
2679 Clear 37 1019 24 10000 2.24 171 19:44 09.07.2022
2680 Clear 37 1019 24 10000 2.24 171 19:44 09.07.2022
2681 Clear 35 1019 28 10000 2.57 0 18:26 09.07.2022
2682 Clear 33 1019 32 10000 2.57 150 17:32 09.07.2022
2683 Clouds 30 1019 38 10000 3.6 170 16:34 09.07.2022
2684 Clouds 29 1018 41 10000 6.69 140 15:39 09.07.2022
2685 Clouds 28 1018 41 10000 3.6 160 14:23 09.07.2022
2686 Clouds 28 1017 39 10000 2.57 170 13:48 09.07.2022
2687 Clear 29 1016 39 10000 0.89 50 11:54 09.07.2022
2688 Clouds 31 1019 36 10000 6.69 170 10:27 09.07.2022
2689 Clouds 31 1019 35 10000 8.23 120 09:56 09.07.2022
2690 Clouds 35 1016 23 10000 3.13 178 07:44 09.07.2022
2691 Clear 37 1013 16 10000 5.66 290 04:45 09.07.2022
2692 Clear 40 1014 15 10000 5.14 360 23:43 08.07.2022
2693 Clouds 39 1015 16 10000 2.24 355 22:33 08.07.2022
2694 Clear 38 1016 17 10000 3.09 270 21:26 08.07.2022
2695 Clear 37 1016 19 10000 3.09 280 20:35 08.07.2022
2696 Clear 35 1017 20 10000 2.57 0 19:38 08.07.2022
2697 Clear 32 1017 25 10000 1.79 267 17:50 08.07.2022
2698 Clear 29 1017 32 10000 2.06 140 16:29 08.07.2022
2699 Clear 26 1016 35 10000 3.09 150 14:50 08.07.2022
2700 Clear 27 1016 32 10000 3.09 120 12:42 08.07.2022
2701 Clear 29 1015 28 10000 3.6 200 10:52 08.07.2022
2702 Clear 30 1014 25 10000 4.12 280 09:58 08.07.2022
2703 Clear 32 1014 22 10000 2.57 280 07:53 08.07.2022
2704 Clear 34 1013 19 10000 5.14 300 05:37 08.07.2022
2705 Clear 39 1013 14 10000 4.92 292 00:40 08.07.2022
2706 Clouds 38 1014 15 10000 5.14 270 22:52 07.07.2022
2707 Clear 37 1015 16 10000 4.02 278 21:48 07.07.2022
2708 Clear 34 1016 18 10000 3.58 273 19:34 07.07.2022
2709 Clear 31 1016 22 10000 0.45 60 17:43 07.07.2022
2710 Clear 27 1017 29 10000 2.06 120 16:23 07.07.2022
2711 Clear 24 1016 30 10000 3.09 100 14:21 07.07.2022
2712 Clear 25 1014 29 10000 2.57 160 12:43 07.07.2022
2713 Clear 26 1011 27 10000 2.57 150 12:23 07.07.2022
2714 Clear 27 1014 25 10000 3.09 130 11:33 07.07.2022
2715 Clear 27 1014 25 10000 2.57 170 10:45 07.07.2022
2716 Clear 28 1014 24 10000 3.58 131 10:27 07.07.2022
2717 Clear 29 1013 22 10000 2.68 147 09:22 07.07.2022
2718 Clear 32 1012 19 10000 3.6 290 06:26 07.07.2022
2719 Clear 38 1012 15 10000 3.13 4 00:28 07.07.2022
2720 Clear 38 1012 15 10000 2.68 276 23:36 06.07.2022
2721 Clear 37 1013 16 10000 3.58 130 23:18 06.07.2022
2722 Clear 37 1014 16 10000 2.57 0 22:51 06.07.2022
2723 Clear 37 1012 16 10000 3.58 98 22:33 06.07.2022
2724 Clear 35 1015 21 10000 2.68 139 20:19 06.07.2022
2725 Clear 33 1016 25 10000 1.34 138 18:48 06.07.2022
2726 Clear 30 1016 34 10000 2.06 130 17:21 06.07.2022
2727 Clear 26 1015 42 10000 2.57 140 15:50 06.07.2022
2728 Clear 25 1013 44 10000 2.06 140 12:44 06.07.2022
2729 Clear 26 1013 42 10000 2.06 200 11:52 06.07.2022
2730 Clear 27 1013 40 10000 0.89 281 10:48 06.07.2022
2731 Clear 28 1013 36 10000 2.06 280 08:46 06.07.2022
2732 Clear 29 1013 31 10000 3.09 180 07:43 06.07.2022
2733 Clear 31 1012 27 10000 3.09 180 06:43 06.07.2022
2734 Clear 36 1012 23 10000 6.17 190 22:52 05.07.2022
2735 Clear 36 1013 23 10000 6.17 190 22:34 05.07.2022
2736 Clear 34 1013 33 10000 4.02 136 20:45 05.07.2022
2737 Clear 33 1014 36 10000 2.06 150 19:54 05.07.2022
2738 Clear 33 1014 36 10000 2.68 154 19:35 05.07.2022
2739 Clear 31 1014 45 10000 2.24 129 17:49 05.07.2022
2740 Clear 30 1015 51 10000 4.12 110 17:18 05.07.2022
2741 Clear 27 1014 60 10000 2.06 140 15:48 05.07.2022
2742 Clouds 25 1014 68 10000 2.57 160 14:44 05.07.2022
2743 Clear 26 1013 63 10000 2.06 90 12:53 05.07.2022
2744 Clear 26 1013 63 10000 2.06 90 12:21 05.07.2022
2745 Clouds 27 1013 58 10000 2.06 180 10:45 05.07.2022
2746 Clouds 28 1014 56 10000 4.12 180 09:32 05.07.2022
2747 Clouds 29 1013 52 10000 4.12 210 08:19 05.07.2022
2748 Clouds 30 1013 47 10000 3.6 180 06:22 05.07.2022
2749 Clouds 32 1012 40 10000 3.09 80 04:26 05.07.2022
2750 Clouds 32 1013 45 10000 4.63 170 00:43 05.07.2022
2751 Clouds 33 1012 39 10000 4.12 140 23:36 04.07.2022
2752 Clouds 34 1012 35 10000 6.17 200 22:54 04.07.2022
2753 Clouds 35 1013 32 10000 2.06 70 21:53 04.07.2022
2754 Clouds 34 1013 33 10000 2.24 160 20:54 04.07.2022
2755 Clouds 34 1014 33 10000 2.24 125 20:35 04.07.2022
2756 Clear 33 1013 35 10000 4.12 160 19:55 04.07.2022
2757 Clear 33 1014 36 10000 4.12 160 19:36 04.07.2022
2758 Clear 32 1014 39 10000 2.57 0 18:34 04.07.2022
2759 Clouds 29 1014 47 10000 4.12 160 16:36 04.07.2022
2760 Clear 26 1013 53 10000 3.09 110 15:34 04.07.2022
2761 Clear 26 1013 52 10000 1.54 130 13:35 04.07.2022
2762 Clear 27 1012 50 10000 3.09 150 12:36 04.07.2022
2763 Clear 28 1012 48 10000 3.09 170 10:39 04.07.2022
2764 Clear 28 1012 46 10000 3.09 170 10:18 04.07.2022
2765 Clear 29 1012 41 10000 3.09 110 08:31 04.07.2022
2766 Clouds 33 1010 30 10000 2.24 82 05:34 04.07.2022
2767 Clouds 36 1010 27 10000 3.09 290 00:42 04.07.2022
2768 Clouds 36 1011 27 10000 4.47 258 23:25 03.07.2022
2769 Clouds 36 1011 29 10000 1.79 161 21:58 03.07.2022
2770 Clouds 35 1012 32 10000 1.54 30 20:41 03.07.2022
2771 Clear 33 1012 35 10000 2.57 340 19:42 03.07.2022
2772 Clouds 33 1013 36 10000 3.09 110 19:23 03.07.2022
2773 Clear 31 1014 44 10000 4.12 150 17:45 03.07.2022
2774 Clear 28 1013 50 10000 3.09 110 16:54 03.07.2022
2775 Clouds 27 1013 56 10000 4.12 140 15:24 03.07.2022
2776 Clouds 27 1012 55 10000 4.12 140 14:32 03.07.2022
2777 Clouds 27 1012 52 10000 3.6 120 13:48 03.07.2022
2778 Clouds 27 1012 54 10000 4.63 130 12:35 03.07.2022
2779 Clouds 27 1010 53 10000 4.12 130 11:29 03.07.2022
2780 Clouds 27 1012 52 10000 4.63 120 10:39 03.07.2022
2781 Clouds 28 1011 49 10000 3.6 170 09:59 03.07.2022
2782 Clouds 29 1012 45 10000 4.63 160 07:36 03.07.2022
2783 Clouds 30 1010 41 10000 6.69 170 05:18 03.07.2022
2784 Clouds 36 1011 28 10000 4.12 30 00:23 03.07.2022
2785 Clouds 36 1012 31 10000 2.57 310 22:35 02.07.2022
2786 Clear 35 1013 32 10000 1.79 16 21:38 02.07.2022
2787 Clear 32 1014 39 10000 2.24 140 19:52 02.07.2022
2788 Clear 31 1015 44 10000 2.68 61 19:23 02.07.2022
2789 Clouds 29 1014 53 10000 2.57 150 17:51 02.07.2022
2790 Clouds 28 1014 54 10000 2.57 150 17:33 02.07.2022
2791 Clouds 24 1011 68 10000 2.06 80 14:52 02.07.2022
2792 Clouds 25 1014 68 10000 1.54 190 12:22 02.07.2022
2793 Clouds 25 1013 68 10000 3.09 120 11:27 02.07.2022
2794 Clouds 24 1013 71 10000 3.6 170 10:43 02.07.2022
2795 Clouds 24 1014 73 10000 3.6 120 09:25 02.07.2022
2796 Clouds 25 1014 70 10000 3.09 100 08:20 02.07.2022
2797 Clouds 25 1014 66 10000 2.57 80 07:48 02.07.2022
2798 Rain 26 1015 59 10000 5.66 280 02:51 02.07.2022
2799 Clouds 32 1014 41 10000 4.63 270 00:26 02.07.2022
2800 Clouds 36 1013 32 10000 5.66 160 22:58 01.07.2022
2801 Clouds 35 1014 34 10000 3.6 140 21:49 01.07.2022
2802 Clouds 35 1015 34 10000 3.6 140 21:29 01.07.2022
2803 Clouds 34 1016 34 10000 3.09 160 20:43 01.07.2022
2804 Clear 34 1016 36 10000 2.06 0 19:47 01.07.2022
2805 Clouds 31 1017 44 10000 2.68 170 17:53 01.07.2022
2806 Clouds 28 1016 53 10000 4.12 140 16:24 01.07.2022
2807 Clear 25 1015 60 10000 4.63 170 13:55 01.07.2022
2808 Clouds 26 1015 58 10000 5.66 160 12:55 01.07.2022
2809 Clear 28 1014 51 10000 3.6 180 10:20 01.07.2022
2810 Clear 28 1015 50 10000 4.92 145 09:47 01.07.2022
2811 Clouds 31 1014 40 10000 5.14 260 05:25 01.07.2022
2812 Clouds 37 1013 26 10000 4.02 328 00:42 01.07.2022
2813 Clouds 36 1015 27 10000 3.13 347 23:22 30.06.2022
2814 Clouds 36 1015 28 10000 2.06 250 22:44 30.06.2022
2815 Clouds 35 1018 29 10000 2.06 250 22:25 30.06.2022
2816 Clouds 35 1017 32 10000 2.57 160 21:45 30.06.2022
2817 Clouds 33 1018 34 10000 2.57 300 20:30 30.06.2022
2818 Clear 33 1021 35 10000 3.09 300 19:54 30.06.2022
2819 Clear 32 1018 36 10000 3.09 300 19:25 30.06.2022
2820 Clouds 31 1019 38 10000 1.79 192 18:42 30.06.2022
2821 Clouds 30 1019 42 10000 1.54 190 17:44 30.06.2022
2822 Clouds 29 1018 47 10000 1.79 109 16:55 30.06.2022
2823 Clear 26 1018 56 10000 3.09 150 15:42 30.06.2022
2824 Clouds 25 1018 58 10000 3.09 140 13:36 30.06.2022
2825 Clouds 26 1018 56 10000 4.12 130 12:35 30.06.2022
2826 Clouds 26 1017 54 10000 2.06 120 11:43 30.06.2022
2827 Clouds 27 1017 51 10000 4.63 170 09:55 30.06.2022
2828 Clouds 27 1018 50 10000 5.14 160 09:35 30.06.2022
2829 Clouds 28 1017 46 10000 4.63 120 08:19 30.06.2022
2830 Clouds 28 1017 45 10000 2.57 190 07:23 30.06.2022
2831 Clear 32 1017 36 10000 4.63 150 01:47 30.06.2022
2832 Clouds 34 1016 33 10000 4.63 230 23:34 29.06.2022
2833 Clouds 34 1018 34 10000 7.72 220 22:40 29.06.2022
2834 Clouds 36 1017 31 10000 8.23 170 21:43 29.06.2022
2835 Clear 37 1018 26 10000 3.6 190 20:34 29.06.2022
2836 Clouds 36 1019 28 10000 2.68 141 19:48 29.06.2022
2837 Clear 33 1018 34 10000 5.14 120 17:54 29.06.2022
2838 Clouds 31 1018 42 10000 4.12 130 16:48 29.06.2022
2839 Clear 28 1018 48 10000 4.63 120 15:32 29.06.2022
2840 Clear 27 1016 49 10000 5.66 120 13:20 29.06.2022
2841 Clear 28 1016 47 10000 3.09 120 11:57 29.06.2022
2842 Clouds 30 1017 44 10000 5.14 130 09:35 29.06.2022
2843 Clouds 30 1017 43 10000 4.63 150 08:46 29.06.2022
2844 Clear 32 1016 37 10000 4.63 160 05:42 29.06.2022
2845 Clear 36 1015 28 10000 4.63 30 02:21 29.06.2022
2846 Clouds 36 1016 26 10000 3.6 90 00:38 29.06.2022
2847 Clouds 36 1017 28 10000 4.12 130 23:26 28.06.2022
2848 Clouds 35 1018 29 10000 3.6 150 22:48 28.06.2022
2849 Clouds 35 1018 30 10000 5.14 140 21:55 28.06.2022
2850 Clouds 35 1018 31 10000 5.14 140 21:33 28.06.2022
2851 Clear 35 1019 32 10000 3.09 110 20:51 28.06.2022
2852 Clear 34 1019 34 10000 5.66 120 19:43 28.06.2022
2853 Clear 33 1020 36 10000 5.66 120 19:23 28.06.2022
2854 Clear 30 1020 44 10000 7.2 130 17:44 28.06.2022
2855 Clouds 28 1020 50 10000 7.2 120 16:24 28.06.2022
2856 Clouds 27 1020 51 10000 8.75 130 15:53 28.06.2022
2857 Clouds 26 1019 53 10000 6.69 110 14:21 28.06.2022
2858 Clear 26 1019 53 10000 4.12 120 13:55 28.06.2022
2859 Clear 26 1018 53 10000 7.2 120 13:26 28.06.2022
2860 Clouds 27 1018 51 10000 6.69 110 11:37 28.06.2022
2861 Clear 28 1018 47 10000 8.75 130 09:41 28.06.2022
2862 Clouds 29 1018 46 10000 5.66 130 08:45 28.06.2022
2863 Clouds 29 1018 46 10000 2.68 176 07:58 28.06.2022
2864 Clouds 29 1018 45 10000 9.77 130 07:19 28.06.2022
2865 Clouds 33 1016 37 10000 4.02 164 01:36 28.06.2022
2866 Clouds 34 1017 33 10000 2.68 147 23:45 27.06.2022
2867 Clouds 34 1018 33 10000 5.14 50 22:55 27.06.2022
2868 Clouds 33 1019 36 10000 4.12 110 21:38 27.06.2022
2869 Clouds 33 1019 36 10000 4.12 110 21:38 27.06.2022
2870 Clear 33 1020 36 10000 2.68 3 20:55 27.06.2022
2871 Clouds 31 1020 42 10000 3.09 80 19:44 27.06.2022
2872 Clouds 29 1020 46 10000 5.14 120 18:40 27.06.2022
2873 Clouds 25 1020 59 10000 2.57 80 16:44 27.06.2022
2874 Clouds 24 1021 65 10000 4.63 70 15:42 27.06.2022
2875 Clouds 23 1022 67 10000 4.12 110 13:40 27.06.2022
2876 Clouds 23 1022 72 10000 4.12 150 12:57 27.06.2022
2877 Drizzle 25 1021 61 10000 6.17 160 10:41 27.06.2022
2878 Clouds 27 1020 52 10000 1.54 210 09:37 27.06.2022
2879 Clouds 27 1019 50 10000 1.79 299 08:32 27.06.2022
2880 Clouds 28 1020 48 10000 3.6 280 07:38 27.06.2022
2881 Clouds 30 1017 43 10000 7.72 110 04:21 27.06.2022
2882 Clear 34 1017 28 10000 4.02 190 01:19 27.06.2022
2883 Clouds 33 1019 35 10000 4.63 110 22:27 26.06.2022
2884 Clouds 32 1019 39 10000 5.66 120 20:55 26.06.2022
2885 Clouds 31 1020 42 10000 3.13 128 19:59 26.06.2022
2886 Clouds 30 1019 42 10000 8.23 120 18:32 26.06.2022
2887 Clouds 29 1019 44 10000 8.23 110 17:33 26.06.2022
2888 Clouds 27 1017 52 10000 8.75 110 15:31 26.06.2022
2889 Clouds 27 1017 47 10000 7.72 110 13:55 26.06.2022
2890 Clouds 28 1017 45 10000 7.72 110 13:23 26.06.2022
2891 Clouds 29 1016 39 10000 7.2 140 11:31 26.06.2022
2892 Clouds 30 1016 34 10000 4.02 191 10:29 26.06.2022
2893 Clouds 30 1016 34 10000 4.02 191 10:28 26.06.2022
2894 Clouds 31 1015 31 10000 4.63 290 09:39 26.06.2022
2895 Clouds 32 1015 28 10000 2.06 0 07:46 26.06.2022
2896 Clouds 36 1012 17 10000 2.57 250 03:19 26.06.2022
2897 Clear 37 1012 19 10000 2.57 60 00:36 26.06.2022
2898 Clear 37 1012 19 10000 2.68 58 00:18 26.06.2022
2899 Clouds 36 1013 22 10000 4.63 80 23:24 25.06.2022
2900 Clouds 35 1015 25 10000 3.6 90 22:27 25.06.2022
2901 Clouds 35 1015 26 10000 4.63 10 21:50 25.06.2022
2902 Clouds 35 1015 27 10000 4.63 10 21:20 25.06.2022
2903 Clouds 34 1015 29 10000 2.68 185 20:30 25.06.2022
2904 Clouds 33 1015 30 10000 1.34 222 19:54 25.06.2022
2905 Clouds 31 1016 37 10000 4.63 90 18:19 25.06.2022
2906 Clouds 29 1015 44 10000 5.66 120 17:25 25.06.2022
2907 Clouds 26 1016 54 10000 5.14 150 15:42 25.06.2022
2908 Clouds 26 1015 53 10000 2.06 20 13:48 25.06.2022
2909 Clouds 26 1015 50 10000 4.12 250 12:38 25.06.2022
2910 Clouds 27 1014 48 10000 4.02 145 10:58 25.06.2022
2911 Clouds 27 1014 50 10000 6.17 100 09:22 25.06.2022
2912 Clouds 26 1014 52 10000 6.69 140 08:46 25.06.2022
2913 Clouds 26 1014 52 10000 6.69 140 08:19 25.06.2022
2914 Clouds 33 1012 27 10000 7.15 115 05:23 25.06.2022
2915 Clear 38 1010 21 10000 3.6 260 00:43 25.06.2022
2916 Clear 38 1012 23 10000 2.68 260 22:56 24.06.2022
2917 Clear 36 1013 25 10000 1.79 256 21:44 24.06.2022
2918 Clear 36 1013 25 10000 1.79 284 21:19 24.06.2022
2919 Clear 34 1014 28 10000 2.24 287 20:19 24.06.2022
2920 Clear 34 1014 28 10000 2.24 287 20:19 24.06.2022
2921 Clear 33 1015 31 10000 4.02 310 19:22 24.06.2022
2922 Clear 32 1015 34 10000 2.68 291 18:49 24.06.2022
2923 Clear 32 1015 36 10000 2.24 134 18:30 24.06.2022
2924 Clear 30 1015 39 10000 3.13 233 17:41 24.06.2022
2925 Clear 26 1016 50 10000 4.12 110 15:51 24.06.2022
2926 Clouds 25 1015 55 10000 5.14 110 14:28 24.06.2022
2927 Clear 25 1015 55 10000 4.12 140 13:55 24.06.2022
2928 Clear 25 1013 53 10000 3.6 160 11:54 24.06.2022
2929 Clear 26 1013 52 10000 3.6 160 11:34 24.06.2022
2930 Clouds 27 1013 49 10000 3.6 150 10:22 24.06.2022
2931 Clouds 27 1014 47 10000 4.12 120 09:40 24.06.2022
2932 Clouds 28 1014 46 10000 5.14 160 08:52 24.06.2022
2933 Clouds 28 1014 45 10000 2.57 170 06:50 24.06.2022
2934 Clouds 29 1013 45 10000 2.57 170 06:31 24.06.2022
2935 Clouds 29 1013 44 10000 2.57 200 05:57 24.06.2022
2936 Rain 31 1011 40 10000 9.77 150 02:31 24.06.2022
2937 Clouds 39 1010 18 10000 5.14 110 22:55 23.06.2022
2938 Clouds 39 1011 18 10000 5.14 110 22:33 23.06.2022
2939 Clear 38 1013 23 10000 3.13 302 20:56 23.06.2022
2940 Clear 37 1014 24 10000 5.66 120 20:32 23.06.2022
2941 Clear 35 1013 29 10000 4.02 197 18:59 23.06.2022
2942 Clear 33 1014 32 10000 6.17 150 17:50 23.06.2022
2943 Clear 33 1014 32 10000 2.68 110 17:50 23.06.2022
2944 Clouds 30 1014 38 10000 5.14 120 16:50 23.06.2022
2945 Clouds 28 1014 44 10000 6.17 120 15:43 23.06.2022
2946 Clouds 27 1014 45 10000 6.17 120 15:23 23.06.2022
2947 Clear 26 1014 46 10000 5.66 140 13:21 23.06.2022
2948 Clear 28 1013 43 10000 7.2 110 11:23 23.06.2022
2949 Clouds 29 1014 40 10000 8.75 110 09:46 23.06.2022
2950 Clouds 29 1013 38 10000 9.26 110 08:18 23.06.2022
2951 Clouds 38 1011 24 10000 2.68 160 02:19 23.06.2022
2952 Clouds 38 1013 24 10000 3.09 180 00:25 23.06.2022
2953 Clear 37 1013 25 10000 2.57 130 23:27 22.06.2022
2954 Clouds 36 1014 27 10000 2.24 193 22:24 22.06.2022
2955 Clear 35 1015 31 10000 3.09 130 20:57 22.06.2022
2956 Clear 34 1015 34 10000 4.12 90 20:21 22.06.2022
2957 Clear 33 1015 35 10000 6.17 160 19:50 22.06.2022
2958 Clear 31 1016 41 10000 7.2 120 18:21 22.06.2022
2959 Clear 29 1017 45 10000 9.26 120 17:24 22.06.2022
2960 Clear 26 1016 53 10000 3.13 193 15:53 22.06.2022
2961 Clear 24 1017 56 10000 7.72 110 15:24 22.06.2022
2962 Clear 24 1017 58 10000 6.69 110 13:50 22.06.2022
2963 Clear 24 1016 57 10000 6.69 110 13:25 22.06.2022
2964 Clouds 24 1016 56 10000 6.69 150 12:56 22.06.2022
2965 Clouds 25 1016 54 10000 10.29 140 11:47 22.06.2022
2966 Clear 25 1016 53 10000 8.23 130 10:54 22.06.2022
2967 Clouds 25 1016 52 10000 8.23 150 09:44 22.06.2022
2968 Clouds 26 1017 52 10000 6.69 150 07:56 22.06.2022
2969 Clouds 27 1017 47 10000 9.26 150 03:25 22.06.2022
2970 Clouds 30 1015 39 10000 11.32 140 01:22 22.06.2022
2971 Clouds 33 1015 32 10000 11.83 70 23:39 21.06.2022
2972 Clouds 36 1015 20 10000 1.79 303 21:31 21.06.2022
2973 Clouds 32 1016 28 10000 2.68 155 19:43 21.06.2022
2974 Clouds 31 1016 33 10000 2.06 230 18:30 21.06.2022
2975 Clouds 27 1016 42 10000 4.12 120 16:52 21.06.2022
2976 Clouds 24 1015 46 10000 3.09 120 12:40 21.06.2022
2977 Clear 25 1015 44 10000 3.09 150 10:55 21.06.2022
2978 Clouds 26 1014 43 10000 4.63 140 09:40 21.06.2022
2979 Clouds 28 1014 39 10000 3.09 140 08:22 21.06.2022
2980 Clear 31 1012 32 10000 7.2 180 05:37 21.06.2022
2981 Clouds 37 1012 21 10000 5.14 280 00:37 21.06.2022
2982 Clouds 36 1013 24 10000 3.58 283 22:23 20.06.2022
2983 Clear 36 1014 26 10000 3.13 246 21:49 20.06.2022
2984 Clear 34 1015 29 10000 1.34 320 20:32 20.06.2022
2985 Clear 34 1015 29 10000 1.34 320 20:32 20.06.2022
2986 Clear 33 1015 32 10000 2.24 240 19:38 20.06.2022
2987 Clear 31 1015 36 10000 3.09 250 18:44 20.06.2022
2988 Clear 30 1016 39 10000 0.89 213 17:50 20.06.2022
2989 Clear 29 1016 40 10000 1.34 175 17:29 20.06.2022
2990 Clear 25 1016 45 10000 2.06 90 15:53 20.06.2022
2991 Clear 25 1014 40 10000 4.12 130 12:41 20.06.2022
2992 Clear 25 1012 27 10000 3.09 120 10:32 20.06.2022
2993 Clear 26 1013 24 10000 2.57 260 09:30 20.06.2022
2994 Clear 26 1013 24 10000 2.57 230 08:44 20.06.2022
2995 Clear 32 1011 16 10000 5.14 270 05:35 20.06.2022
2996 Clear 36 1010 23 10000 6.17 240 01:44 20.06.2022
2997 Clouds 37 1011 23 10000 4.12 230 00:26 20.06.2022
2998 Clouds 36 1012 25 10000 4.92 296 22:50 19.06.2022
2999 Clouds 36 1012 27 10000 4.12 250 21:57 19.06.2022
3000 Clouds 35 1013 27 10000 4.63 240 21:39 19.06.2022
3001 Clouds 34 1014 28 10000 4.12 150 20:38 19.06.2022
3002 Clouds 33 1014 29 10000 4.12 240 19:47 19.06.2022
3003 Clear 32 1014 31 10000 3.13 210 18:45 19.06.2022
3004 Clouds 31 1015 32 10000 4.63 190 18:26 19.06.2022
3005 Clouds 29 1015 39 10000 4.63 150 17:22 19.06.2022
3006 Clear 27 1015 47 10000 3.6 120 16:35 19.06.2022
3007 Clear 26 1014 55 10000 4.63 120 15:41 19.06.2022
3008 Clear 24 1014 60 10000 6.17 130 14:57 19.06.2022
3009 Clear 24 1014 60 10000 6.17 130 14:20 19.06.2022
3010 Clear 25 1013 59 10000 5.14 130 13:23 19.06.2022
3011 Clouds 26 1012 54 10000 6.17 140 11:21 19.06.2022
3012 Clear 26 1012 58 10000 1.79 139 09:58 19.06.2022
3013 Clear 25 1013 61 10000 3.09 130 08:49 19.06.2022
3014 Clear 26 1013 60 10000 3.09 130 08:19 19.06.2022
3015 Clear 27 1011 55 10000 4.12 40 05:42 19.06.2022
3016 Clouds 32 1011 40 10000 7.2 320 02:26 19.06.2022
3017 Clear 35 1011 27 10000 6.17 210 00:25 19.06.2022
3018 Clouds 35 1012 29 10000 7.2 210 23:36 18.06.2022
3019 Clouds 35 1012 29 10000 5.14 210 22:44 18.06.2022
3020 Clouds 35 1012 30 10000 5.66 190 21:38 18.06.2022
3021 Clouds 34 1014 32 10000 3.58 236 20:42 18.06.2022
3022 Clear 34 1014 30 10000 3.58 154 19:40 18.06.2022
3023 Clear 33 1014 31 10000 2.57 0 18:53 18.06.2022
3024 Clouds 30 1013 39 10000 3.09 100 17:35 18.06.2022
3025 Clouds 29 1013 43 10000 1.34 166 16:59 18.06.2022
3026 Clouds 27 1014 44 10000 6.17 180 15:37 18.06.2022
3027 Clouds 27 1013 43 10000 4.12 190 14:46 18.06.2022
3028 Clear 26 1013 41 10000 4.63 130 13:30 18.06.2022
3029 Clouds 27 1011 39 10000 3.09 160 11:56 18.06.2022
3030 Clear 28 1011 38 10000 3.6 150 10:55 18.06.2022
3031 Clouds 29 1010 36 10000 1.54 130 09:28 18.06.2022
3032 Clouds 29 1013 34 10000 4.12 170 08:30 18.06.2022
3033 Clouds 30 1011 31 10000 2.57 140 07:20 18.06.2022
3034 Clouds 34 1009 22 10000 4.63 120 03:47 18.06.2022
3035 Clouds 36 1011 17 10000 4.12 140 01:26 18.06.2022
3036 Clouds 36 1011 17 10000 4.12 140 01:26 18.06.2022
3037 Clouds 36 1012 18 10000 5.66 180 00:48 18.06.2022
3038 Clouds 37 1013 18 10000 0.89 179 23:59 17.06.2022
3039 Clouds 36 1010 18 10000 5.14 180 23:24 17.06.2022
3040 Clouds 35 1011 19 10000 5.66 150 21:27 17.06.2022
3041 Clouds 34 1012 21 10000 5.14 140 20:26 17.06.2022
3042 Clouds 33 1012 22 10000 2.57 140 18:52 17.06.2022
3043 Clouds 32 1012 22 10000 3.09 170 17:46 17.06.2022
3044 Clouds 31 1012 22 10000 4.12 130 16:43 17.06.2022
3045 Clouds 30 1011 22 10000 4.12 130 16:18 17.06.2022
3046 Clouds 29 1011 22 10000 2.57 110 15:34 17.06.2022
3047 Clouds 28 1012 21 10000 2.57 100 14:21 17.06.2022
3048 Clouds 29 1012 20 10000 4.12 210 13:48 17.06.2022
3049 Clouds 29 1012 19 10000 4.12 210 13:26 17.06.2022
3050 Clouds 29 1010 19 10000 0.89 0 11:58 17.06.2022
3051 Clear 30 1011 19 10000 2.57 130 11:39 17.06.2022
3052 Clear 30 1011 18 10000 4.63 140 11:21 17.06.2022
3053 Clear 32 1010 15 10000 2.06 210 08:30 17.06.2022
3054 Clear 33 1009 14 10000 4.63 280 07:51 17.06.2022
3055 Clouds 36 1009 11 10000 8.23 270 06:32 17.06.2022
3056 Clear 41 1006 8 10000 4.92 333 03:20 17.06.2022
3057 Clouds 42 1007 7 10000 3.13 333 00:43 17.06.2022
3058 Clear 42 1010 6 10000 1.79 139 22:45 16.06.2022
3059 Clear 42 1010 6 10000 1.79 8 22:26 16.06.2022
3060 Clear 40 1011 6 10000 2.68 288 21:19 16.06.2022
3061 Clear 40 1011 7 10000 2.24 259 20:50 16.06.2022
3062 Clear 39 1011 6 10000 1.34 228 19:58 16.06.2022
3063 Clear 36 1012 7 10000 1.34 122 18:44 16.06.2022
3064 Clear 33 1012 9 10000 2.06 140 17:44 16.06.2022
3065 Clear 31 1012 10 10000 2.06 140 17:20 16.06.2022
3066 Clear 27 1012 11 10000 3.6 140 15:44 16.06.2022
3067 Clear 26 1012 11 10000 3.6 140 15:20 16.06.2022
3068 Clear 24 1012 13 10000 3.09 120 13:49 16.06.2022
3069 Clear 24 1010 13 10000 3.09 120 12:38 16.06.2022
3070 Clear 25 1010 13 10000 3.09 120 11:55 16.06.2022
3071 Clear 25 1011 12 10000 3.09 120 11:21 16.06.2022
3072 Clear 26 1010 12 10000 3.09 140 10:35 16.06.2022
3073 Clear 27 1011 12 10000 3.09 140 09:37 16.06.2022
3074 Clear 28 1010 12 10000 3.09 170 08:50 16.06.2022
3075 Clear 29 1011 11 10000 3.09 270 07:38 16.06.2022
3076 Clear 33 1009 8 10000 4.12 290 05:43 16.06.2022
3077 Clear 38 1009 6 10000 5.66 300 03:23 16.06.2022
3078 Clear 39 1009 8 10000 5.66 270 01:52 16.06.2022
3079 Clear 39 1009 8 10000 5.66 270 01:52 16.06.2022
3080 Clear 40 1009 8 10000 5.66 270 01:22 16.06.2022
3081 Clear 40 1009 8 10000 5.66 270 01:22 16.06.2022
3082 Clear 39 1010 11 10000 4.12 310 23:58 15.06.2022
3083 Clear 38 1010 12 10000 3.09 0 22:47 15.06.2022
3084 Clouds 37 1011 13 10000 3.6 170 21:29 15.06.2022
3085 Clear 36 1012 13 10000 1.79 151 20:57 15.06.2022
3086 Clear 36 1012 14 10000 2.57 40 20:35 15.06.2022
3087 Clear 35 1012 15 10000 3.09 0 19:52 15.06.2022
3088 Clear 33 1012 23 10000 2.06 210 18:30 15.06.2022
3089 Clear 31 1012 23 10000 3.09 140 17:43 15.06.2022
3090 Clear 27 1011 25 10000 3.09 130 16:21 15.06.2022
3091 Clear 23 1012 26 10000 3.6 130 14:37 15.06.2022
3092 Clear 22 1010 24 10000 1.54 70 13:20 15.06.2022
3093 Clear 23 1010 22 10000 3.09 130 12:39 15.06.2022
3094 Clear 24 1010 20 10000 4.12 150 11:22 15.06.2022
3095 Clear 25 1011 19 10000 3.6 140 10:21 15.06.2022
3096 Clear 25 1011 19 10000 3.6 140 10:21 15.06.2022
3097 Clear 26 1010 19 10000 0.89 0 08:59 15.06.2022
3098 Clear 28 1010 15 10000 3.09 270 07:32 15.06.2022
3099 Clear 32 1009 12 10000 6.69 260 05:36 15.06.2022
3100 Clear 38 1008 10 10000 8.23 250 02:40 15.06.2022
3101 Clear 38 1008 10 10000 6.69 240 01:36 15.06.2022
3102 Clear 39 1010 10 10000 8.23 260 00:18 15.06.2022
3103 Clear 39 1009 10 10000 9.77 250 23:38 14.06.2022
3104 Clear 38 1010 11 10000 9.26 260 22:45 14.06.2022
3105 Clear 38 1011 12 10000 4.63 210 21:43 14.06.2022
3106 Clear 37 1011 14 10000 5.14 200 20:58 14.06.2022
3107 Clear 37 1011 15 10000 7.2 220 20:38 14.06.2022
3108 Clear 35 1011 20 10000 5.66 200 19:47 14.06.2022
3109 Clear 33 1012 22 10000 4.12 150 18:33 14.06.2022
3110 Clear 30 1012 26 10000 2.68 165 16:50 14.06.2022
3111 Clear 29 1011 26 10000 2.68 163 16:25 14.06.2022
3112 Clear 27 1011 27 10000 3.09 160 15:36 14.06.2022
3113 Clear 24 1011 29 10000 1.54 80 14:53 14.06.2022
3114 Clear 24 1010 30 10000 3.6 200 13:57 14.06.2022
3115 Clear 25 1010 29 10000 0.89 140 12:58 14.06.2022
3116 Clear 26 1009 30 10000 3.09 180 11:54 14.06.2022
3117 Clear 26 1009 30 10000 0 0 10:51 14.06.2022
3118 Clear 27 1009 28 10000 2.57 180 10:25 14.06.2022
3119 Clear 27 1009 28 10000 2.57 180 10:25 14.06.2022
3120 Clear 29 1009 25 10000 2.57 170 08:52 14.06.2022
3121 Clear 30 1009 24 10000 2.57 170 08:23 14.06.2022
3122 Clear 33 1008 20 10000 4.63 280 06:19 14.06.2022
3123 Clear 37 1007 16 10000 7.2 260 03:39 14.06.2022
3124 Clear 39 1007 16 10000 8.23 260 01:36 14.06.2022
3125 Clear 40 1008 17 10000 5.66 240 23:53 13.06.2022
3126 Clear 40 1009 19 10000 6.69 250 22:27 13.06.2022
3127 Clouds 39 1009 19 10000 5.66 270 21:59 13.06.2022
3128 Clouds 39 1010 20 10000 6.69 260 21:24 13.06.2022
3129 Clear 37 1011 21 10000 4.12 270 19:42 13.06.2022
3130 Clear 36 1011 22 10000 2.06 0 18:52 13.06.2022
3131 Clear 35 1011 24 10000 1.79 259 17:52 13.06.2022
3132 Clear 34 1011 25 10000 3.09 220 17:21 13.06.2022
3133 Clear 31 1011 27 10000 1.79 129 16:22 13.06.2022
3134 Clear 28 1009 31 10000 3.09 150 14:48 13.06.2022
3135 Clear 27 1010 32 10000 3.09 150 14:18 13.06.2022
3136 Clear 27 1010 30 10000 3.6 130 13:23 13.06.2022
3137 Clouds 28 1009 29 10000 3.6 140 11:50 13.06.2022
3138 Clear 29 1009 27 10000 2.57 140 10:36 13.06.2022
3139 Clouds 30 1009 25 10000 3.6 170 09:42 13.06.2022
3140 Clouds 32 1009 22 10000 2.57 200 08:30 13.06.2022
3141 Clear 34 1009 19 10000 2.57 290 06:35 13.06.2022
3142 Clear 38 1007 15 10000 7.2 310 04:23 13.06.2022
3143 Clear 41 1007 11 10000 6.17 290 01:44 13.06.2022
3144 Clear 42 1007 11 10000 6.17 290 01:18 13.06.2022
3145 Clear 41 1009 13 10000 7.2 310 23:41 12.06.2022
3146 Clouds 41 1010 14 10000 5.66 320 22:34 12.06.2022
3147 Clear 41 1011 14 10000 3.58 86 21:45 12.06.2022
3148 Clear 40 1011 16 10000 4.02 305 20:49 12.06.2022
3149 Clear 38 1012 19 10000 2.24 1 19:43 12.06.2022
3150 Clear 36 1012 22 10000 1.79 118 18:53 12.06.2022
3151 Clear 34 1012 25 10000 2.06 100 17:20 12.06.2022
3152 Clear 30 1012 28 10000 5.66 140 15:34 12.06.2022
3153 Clear 27 1012 29 10000 4.63 140 14:48 12.06.2022
3154 Clear 27 1012 29 10000 4.63 140 14:18 12.06.2022
3155 Clear 27 1012 28 10000 3.6 180 13:43 12.06.2022
3156 Clear 28 1011 26 10000 1.34 240 11:58 12.06.2022
3157 Clouds 29 1011 25 10000 2.57 140 10:46 12.06.2022
3158 Clear 31 1011 23 10000 2.57 180 09:36 12.06.2022
3159 Clouds 32 1012 21 10000 3.6 190 08:50 12.06.2022
3160 Clouds 34 1011 19 10000 2.24 247 07:51 12.06.2022
3161 Clear 35 1010 15 10000 4.63 280 06:27 12.06.2022
3162 Clear 39 1009 12 10000 7.72 310 03:44 12.06.2022
3163 Clouds 41 1009 10 10000 7.2 330 01:49 12.06.2022
3164 Clouds 41 1009 9 10000 7.2 330 01:29 12.06.2022
3165 Clear 42 1010 9 10000 6.69 320 00:43 12.06.2022
3166 Clear 42 1010 9 10000 6.69 320 00:18 12.06.2022
3167 Clouds 42 1011 10 10000 7.2 360 22:58 11.06.2022
3168 Clouds 42 1012 11 10000 7.2 330 22:31 11.06.2022
3169 Clear 40 1012 14 10000 5.14 350 21:18 11.06.2022
3170 Clouds 39 1013 17 10000 5.14 310 20:26 11.06.2022
3171 Clear 38 1013 21 10000 4.92 316 19:33 11.06.2022
3172 Clear 36 1014 23 10000 2.24 275 18:42 11.06.2022
3173 Clear 35 1014 24 10000 1.79 295 18:24 11.06.2022
3174 Clear 34 1014 26 10000 2.06 190 17:38 11.06.2022
3175 Clear 33 1014 27 10000 2.06 190 17:19 11.06.2022
3176 Clear 31 1014 29 10000 2.57 140 16:42 11.06.2022
3177 Clear 30 1013 31 10000 3.09 140 15:47 11.06.2022
3178 Clear 27 1014 34 10000 4.12 150 14:23 11.06.2022
3179 Clear 27 1014 34 10000 3.09 170 13:47 11.06.2022
3180 Clouds 29 1012 29 10000 3.09 200 11:36 11.06.2022
3181 Clouds 30 1013 27 10000 3.6 150 10:29 11.06.2022
3182 Clear 31 1013 25 10000 2.06 220 09:40 11.06.2022
3183 Clear 33 1013 22 10000 3.6 90 08:21 11.06.2022
3184 Clouds 36 1012 17 10000 4.63 350 06:32 11.06.2022
3185 Clouds 37 1011 17 10000 6.69 40 05:26 11.06.2022
3186 Clear 41 1010 14 10000 6.17 270 02:34 11.06.2022
3187 Clear 41 1010 13 10000 7.72 330 01:41 11.06.2022
3188 Clear 42 1010 13 10000 5.36 320 00:37 11.06.2022
3189 Clouds 41 1011 15 10000 5.81 262 22:38 10.06.2022
3190 Clear 40 1012 16 10000 4.02 275 21:56 10.06.2022
3191 Clear 39 1013 17 10000 3.6 340 20:55 10.06.2022
3192 Clouds 39 1013 18 10000 3.6 340 20:36 10.06.2022
3193 Clouds 38 1014 19 10000 3.6 340 20:18 10.06.2022
3194 Clear 37 1014 21 10000 2.57 300 19:18 10.06.2022
3195 Clear 37 1014 21 10000 2.57 300 19:18 10.06.2022
3196 Clear 35 1015 23 10000 1.54 170 18:20 10.06.2022
3197 Clear 33 1014 26 10000 1.54 190 17:37 10.06.2022
3198 Clear 32 1014 27 10000 1.34 0 16:59 10.06.2022
3199 Clear 30 1014 30 10000 1.54 130 16:20 10.06.2022
3200 Clear 28 1014 34 10000 3.6 130 15:36 10.06.2022
3201 Clear 27 1014 33 10000 2.06 130 13:52 10.06.2022
3202 Clear 28 1012 32 10000 3.09 100 12:41 10.06.2022
3203 Clear 29 1012 30 10000 4.12 150 11:41 10.06.2022
3204 Clear 30 1013 29 10000 4.63 160 10:44 10.06.2022
3205 Clear 30 1013 28 10000 4.63 150 09:44 10.06.2022
3206 Clear 32 1013 25 10000 6.69 140 08:30 10.06.2022
3207 Clear 32 1012 24 10000 3.09 150 07:20 10.06.2022
3208 Clear 33 1011 22 10000 2.57 270 06:43 10.06.2022
3209 Clear 33 1011 22 10000 2.57 270 06:24 10.06.2022
3210 Clouds 38 1010 15 10000 6.17 270 03:50 10.06.2022
3211 Clear 40 1010 14 10000 4.12 290 01:41 10.06.2022
3212 Clear 40 1010 15 10000 5.66 340 00:27 10.06.2022
3213 Clear 39 1010 16 10000 3.58 195 23:28 09.06.2022
3214 Clouds 38 1012 18 10000 4.63 350 21:48 09.06.2022
3215 Clouds 38 1012 18 10000 4.63 350 21:29 09.06.2022
3216 Clouds 37 1013 19 10000 3.6 350 20:54 09.06.2022
3217 Clouds 36 1013 21 10000 2.24 276 19:59 09.06.2022
3218 Clouds 34 1013 24 10000 1.79 315 18:49 09.06.2022
3219 Clouds 34 1013 24 10000 2.68 283 18:21 09.06.2022
3220 Clouds 32 1013 28 10000 2.57 360 16:48 09.06.2022
3221 Clouds 29 1012 32 10000 3.6 90 15:47 09.06.2022
3222 Clouds 28 1013 32 10000 2.57 230 14:35 09.06.2022
3223 Clouds 28 1013 32 10000 0.89 209 13:47 09.06.2022
3224 Clouds 29 1012 31 10000 0.45 85 13:26 09.06.2022
3225 Clouds 30 1012 30 10000 2.06 170 11:53 09.06.2022
3226 Clouds 30 1012 30 10000 0.89 302 10:51 09.06.2022
3227 Clear 31 1012 28 10000 4.63 220 09:42 09.06.2022
3228 Clear 31 1012 27 10000 4.63 220 09:23 09.06.2022
3229 Clear 33 1011 20 10000 6.17 220 07:44 09.06.2022
3230 Clear 35 1008 16 10000 3.6 340 05:46 09.06.2022
3231 Clouds 40 1007 12 10000 2.68 323 01:59 09.06.2022
3232 Clear 40 1009 12 10000 1.79 347 23:34 08.06.2022
3233 Clear 40 1010 13 10000 2.68 265 22:51 08.06.2022
3234 Clear 39 1011 14 10000 2.57 340 22:26 08.06.2022
3235 Clear 39 1011 16 10000 2.06 310 21:49 08.06.2022
3236 Clear 38 1011 18 10000 2.24 287 20:43 08.06.2022
3237 Clear 36 1012 20 10000 4.12 350 19:50 08.06.2022
3238 Clouds 34 1012 22 10000 1.79 24 18:58 08.06.2022
3239 Clouds 34 1012 23 10000 1.34 79 18:40 08.06.2022
3240 Clear 30 1013 30 10000 1.54 160 16:34 08.06.2022
3241 Clear 26 1013 34 10000 4.63 130 15:26 08.06.2022
3242 Clear 25 1013 36 10000 2.06 90 13:36 08.06.2022
3243 Clear 27 1012 32 10000 3.09 180 11:50 08.06.2022
3244 Clear 27 1011 31 10000 3.09 180 11:24 08.06.2022
3245 Clear 29 1011 26 10000 4.12 270 09:47 08.06.2022
3246 Clear 29 1011 24 10000 4.12 270 09:20 08.06.2022
3247 Clear 31 1010 21 10000 2.24 93 07:32 08.06.2022
3248 Clear 34 1009 15 10000 3.09 290 05:22 08.06.2022
3249 Clear 39 1008 12 10000 3.6 330 02:38 08.06.2022
3250 Clear 39 1010 13 10000 5.14 270 23:42 07.06.2022
3251 Clear 39 1010 14 10000 5.14 270 23:24 07.06.2022
3252 Clouds 38 1010 15 10000 3.09 270 22:39 07.06.2022
3253 Clear 38 1011 16 10000 2.68 355 21:52 07.06.2022
3254 Clear 37 1011 17 10000 2.24 281 21:27 07.06.2022
3255 Clouds 37 1012 18 10000 1.79 199 20:46 07.06.2022
3256 Clear 36 1012 18 10000 2.24 276 20:23 07.06.2022
3257 Clear 34 1012 19 10000 1.79 141 18:51 07.06.2022
3258 Clear 32 1012 21 10000 3.09 130 17:54 07.06.2022
3259 Clear 30 1012 24 10000 1.54 100 16:54 07.06.2022
3260 Clear 29 1012 25 10000 1.54 100 16:32 07.06.2022
3261 Clear 26 1012 28 10000 1.54 10 15:40 07.06.2022
3262 Clear 25 1011 30 10000 1.54 10 15:22 07.06.2022
3263 Clear 24 1011 30 10000 5.66 150 14:45 07.06.2022
3264 Clear 23 1010 32 10000 3.6 150 13:46 07.06.2022
3265 Clear 23 1009 32 10000 3.6 150 13:26 07.06.2022
3266 Clear 24 1010 30 10000 2.57 160 11:56 07.06.2022
3267 Clear 26 1010 27 10000 1.54 360 10:57 07.06.2022
3268 Clear 28 1010 24 10000 2.06 350 09:28 07.06.2022
3269 Clear 29 1010 22 10000 3.09 230 08:31 07.06.2022
3270 Clear 31 1010 20 10000 4.12 270 07:19 07.06.2022
3271 Clear 34 1008 16 10000 4.63 280 05:19 07.06.2022
3272 Clear 38 1008 14 10000 5.14 300 01:44 07.06.2022
3273 Clear 38 1008 14 10000 4.63 280 00:20 07.06.2022
3274 Clear 37 1009 14 10000 5.14 290 23:25 06.06.2022
3275 Clouds 37 1009 14 10000 5.66 290 22:37 06.06.2022
3276 Clear 36 1010 15 10000 2.57 330 21:33 06.06.2022
3277 Clear 33 1011 18 10000 1.79 56 19:37 06.06.2022
3278 Clear 33 1012 18 10000 1.79 138 19:19 06.06.2022
3279 Clear 32 1011 19 10000 1.34 233 18:34 06.06.2022
3280 Clear 30 1011 21 10000 3.6 170 17:31 06.06.2022
3281 Clear 27 1011 25 10000 3.6 150 16:21 06.06.2022
3282 Clear 24 1010 27 10000 3.09 150 15:33 06.06.2022
3283 Clear 22 1011 28 10000 4.12 180 14:36 06.06.2022
3284 Clear 22 1010 29 10000 3.09 130 13:27 06.06.2022
3285 Clear 23 1011 29 10000 2.06 100 12:37 06.06.2022
3286 Clear 23 1009 28 10000 0.45 288 11:54 06.06.2022
3287 Clear 25 1010 26 10000 1.54 150 10:46 06.06.2022
3288 Clear 26 1010 24 10000 1.54 80 09:40 06.06.2022
3289 Clear 28 1010 22 10000 3.6 250 08:33 06.06.2022
3290 Clear 29 1010 20 10000 4.12 280 07:28 06.06.2022
3291 Clear 32 1008 14 10000 3.6 280 05:29 06.06.2022
3292 Clear 35 1008 11 10000 4.92 304 03:44 06.06.2022
3293 Clear 37 1008 9 10000 4.63 280 01:23 06.06.2022
3294 Clear 36 1009 9 10000 4.63 290 00:42 06.06.2022
3295 Clear 36 1009 9 10000 4.12 280 23:43 05.06.2022
3296 Clouds 35 1010 10 10000 4.12 280 22:47 05.06.2022
3297 Clouds 33 1011 11 10000 1.79 259 20:57 05.06.2022
3298 Clear 32 1011 13 10000 2.57 310 19:44 05.06.2022
3299 Clear 30 1012 15 10000 0.89 128 18:30 05.06.2022
3300 Clear 30 1012 15 10000 0.89 128 18:30 05.06.2022
3301 Clouds 29 1011 17 10000 0.89 158 17:55 05.06.2022
3302 Clear 28 1012 19 10000 2.57 180 17:26 05.06.2022
3303 Clouds 27 1011 23 10000 1.34 131 16:52 05.06.2022
3304 Clear 26 1011 24 10000 4.63 140 16:34 05.06.2022
3305 Clear 21 1010 32 10000 3.6 140 14:27 05.06.2022
3306 Clear 22 1010 31 10000 1.54 100 12:57 05.06.2022
3307 Clear 23 1010 30 10000 1.54 100 11:47 05.06.2022
3308 Clear 24 1010 27 10000 2.06 120 10:39 05.06.2022
3309 Clear 25 1010 27 10000 2.57 150 10:20 05.06.2022
3310 Clear 27 1011 24 10000 2.57 160 08:34 05.06.2022
3311 Clear 28 1010 22 10000 3.09 250 07:48 05.06.2022
3312 Clear 32 1009 16 10000 6.17 250 05:22 05.06.2022
3313 Clear 34 1009 11 10000 2.68 123 04:19 05.06.2022
3314 Clear 37 1009 8 10000 6.69 260 01:32 05.06.2022
3315 Clear 37 1009 8 10000 6.69 260 01:32 05.06.2022
3316 Clear 37 1009 8 10000 9.26 210 00:39 05.06.2022
3317 Clear 35 1010 10 10000 3.6 230 22:36 04.06.2022
3318 Clear 34 1012 12 10000 2.06 310 20:33 04.06.2022
3319 Clear 31 1013 16 10000 1.34 141 18:45 04.06.2022
3320 Clear 27 1013 22 10000 2.06 120 16:47 04.06.2022
3321 Clear 26 1013 24 10000 3.6 130 16:18 04.06.2022
3322 Clear 22 1013 27 10000 2.57 170 14:53 04.06.2022
3323 Clear 22 1011 26 10000 1.54 140 12:38 04.06.2022
3324 Clear 24 1010 24 10000 2.57 260 11:19 04.06.2022
3325 Clear 24 1010 24 10000 3.6 150 10:44 04.06.2022
3326 Clear 25 1010 22 10000 2.57 160 09:44 04.06.2022
3327 Clear 27 1010 20 10000 0.45 0 08:43 04.06.2022
3328 Clear 29 1010 18 10000 2.57 260 07:41 04.06.2022
3329 Clear 32 1009 13 10000 5.14 250 05:29 04.06.2022
3330 Clear 38 1007 7 10000 6.69 250 01:42 04.06.2022
3331 Clear 38 1008 9 10000 5.66 260 23:59 03.06.2022
3332 Clear 37 1009 11 10000 2.24 346 22:40 03.06.2022
3333 Clouds 36 1010 12 10000 6.17 310 21:39 03.06.2022
3334 Clear 35 1010 14 10000 3.09 150 20:37 03.06.2022
3335 Clear 35 1010 14 10000 3.09 150 20:37 03.06.2022
3336 Clear 32 1011 19 10000 3.09 180 18:41 03.06.2022
3337 Clear 28 1011 22 10000 3.09 120 16:49 03.06.2022
3338 Clear 25 1010 25 10000 4.12 120 15:37 03.06.2022
3339 Clear 22 1011 24 10000 4.12 110 13:28 03.06.2022
3340 Clear 23 1011 22 10000 3.09 80 11:50 03.06.2022
3341 Clear 25 1010 19 10000 0.45 0 09:50 03.06.2022
3342 Clear 25 1010 19 10000 0.45 0 09:50 03.06.2022
3343 Clear 25 1009 18 10000 0.89 317 09:28 03.06.2022
3344 Clear 29 1009 15 10000 4.12 240 07:27 03.06.2022
3345 Clear 30 1010 12 10000 3.6 240 06:44 03.06.2022
3346 Clear 30 1008 12 10000 3.6 240 06:26 03.06.2022
3347 Clear 38 1007 8 10000 4.63 310 01:23 03.06.2022
3348 Clear 38 1009 8 10000 4.12 310 23:31 02.06.2022
3349 Clear 36 1009 9 10000 3.13 266 21:57 02.06.2022
3350 Clear 35 1011 11 10000 1.79 191 20:25 02.06.2022
3351 Clear 34 1011 11 10000 2.06 70 19:52 02.06.2022
3352 Clear 34 1011 11 10000 2.06 70 19:33 02.06.2022
3353 Clear 30 1011 17 10000 0.89 169 17:58 02.06.2022
3354 Clear 25 1011 20 10000 3.09 140 16:28 02.06.2022
3355 Clear 22 1013 21 10000 1.7 116 14:58 02.06.2022
3356 Clear 21 1011 23 10000 4.63 130 13:30 02.06.2022
3357 Clear 21 1011 24 10000 2.57 90 12:42 02.06.2022
3358 Clear 23 1011 20 10000 3.6 190 10:31 02.06.2022
3359 Clear 25 1010 17 10000 3.09 280 09:28 02.06.2022
3360 Clear 26 1010 16 10000 3.6 260 08:29 02.06.2022
3361 Clear 27 1010 15 10000 3.6 240 07:48 02.06.2022
3362 Clear 31 1009 12 10000 4.12 300 05:33 02.06.2022
3363 Clear 35 1008 11 10000 6.17 280 03:48 02.06.2022
3364 Clear 36 1009 10 10000 5.14 280 23:55 01.06.2022
3365 Clear 36 1011 11 10000 3.6 240 22:55 01.06.2022
3366 Clouds 35 1011 12 10000 3.6 210 21:45 01.06.2022
3367 Clouds 34 1011 12 10000 3.6 210 21:20 01.06.2022
3368 Clear 34 1011 13 10000 3.09 290 20:38 01.06.2022
3369 Clear 33 1011 15 10000 2.24 137 19:48 01.06.2022
3370 Clear 29 1011 20 10000 1.34 215 17:57 01.06.2022
3371 Clear 26 1011 24 10000 0.89 178 16:41 01.06.2022
3372 Clear 23 1011 26 10000 3.09 130 15:37 01.06.2022
3373 Clear 20 1010 29 10000 4.12 150 13:57 01.06.2022
3374 Clear 21 1010 28 10000 2.57 120 12:29 01.06.2022
3375 Clear 23 1010 23 10000 3.6 260 10:37 01.06.2022
3376 Clear 25 1010 19 10000 3.6 270 09:25 01.06.2022
3377 Clear 27 1009 14 10000 5.14 270 07:25 01.06.2022
3378 Clear 28 1009 12 10000 3.6 280 06:40 01.06.2022
3379 Clear 35 1006 9 10000 4.02 292 01:29 01.06.2022
3380 Clear 35 1008 10 10000 3.6 290 23:41 31.05.2022
3381 Clouds 34 1008 10 10000 1.79 319 22:37 31.05.2022
3382 Clear 33 1009 10 10000 2.06 40 21:46 31.05.2022
3383 Clear 32 1010 11 10000 2.24 121 20:52 31.05.2022
3384 Clear 31 1010 12 10000 2.06 180 20:31 31.05.2022
3385 Clear 29 1010 14 10000 2.24 198 18:54 31.05.2022
3386 Clear 27 1010 19 10000 2.24 135 17:51 31.05.2022
3387 Clear 26 1010 22 10000 3.09 150 17:20 31.05.2022
3388 Clear 21 1011 30 10000 3.09 130 15:41 31.05.2022
3389 Clear 18 1008 34 10000 2.57 100 14:33 31.05.2022
3390 Clear 19 1008 33 10000 3.09 150 12:22 31.05.2022
3391 Clear 20 1008 30 10000 2.57 160 11:23 31.05.2022
3392 Clear 22 1008 29 10000 2.06 230 09:49 31.05.2022
3393 Clear 25 1008 26 10000 2.24 266 07:36 31.05.2022
3394 Clear 28 1007 21 10000 6.69 280 05:24 31.05.2022
3395 Clear 34 1005 10 10000 6.69 250 01:41 31.05.2022
3396 Clear 33 1006 10 10000 5.81 282 23:29 30.05.2022
3397 Clear 33 1007 10 10000 4.63 280 22:57 30.05.2022
3398 Clear 32 1007 12 10000 4.63 280 22:21 30.05.2022
3399 Clouds 32 1008 12 10000 6.69 230 21:34 30.05.2022
3400 Clear 30 1008 16 10000 3.09 250 20:20 30.05.2022
3401 Clear 28 1008 18 10000 1.79 145 18:41 30.05.2022
3402 Clear 26 1009 21 10000 4.12 150 17:41 30.05.2022
3403 Clear 23 1008 25 10000 4.63 160 16:44 30.05.2022
3404 Clear 18 1008 31 10000 4.63 140 14:51 30.05.2022
3405 Clear 19 1007 29 10000 3.09 170 12:37 30.05.2022
3406 Clear 20 1007 26 10000 3.09 200 10:47 30.05.2022
3407 Clear 22 1007 23 10000 4.12 240 09:39 30.05.2022
3408 Clear 25 1006 21 10000 4.63 260 07:23 30.05.2022
3409 Clear 27 1005 19 10000 6.17 270 05:50 30.05.2022
3410 Clear 32 1003 14 10000 7.72 270 02:24 30.05.2022
3411 Clear 33 1004 12 10000 6.69 300 23:21 29.05.2022
3412 Clouds 32 1004 12 10000 7.72 240 22:38 29.05.2022
3413 Clouds 32 1005 12 10000 7.2 240 21:19 29.05.2022
3414 Clear 31 1005 15 10000 6.69 220 19:38 29.05.2022
3415 Clear 30 1005 14 10000 6.17 250 19:18 29.05.2022
3416 Clear 28 1005 10 10000 6.69 190 17:32 29.05.2022
3417 Clear 23 1005 14 10000 3.09 100 15:49 29.05.2022
3418 Clear 21 1006 15 10000 4.12 90 15:23 29.05.2022
3419 Clear 20 1005 15 10000 4.63 170 14:19 29.05.2022
3420 Clear 21 1005 12 10000 3.09 240 11:48 29.05.2022
3421 Clear 22 1006 10 10000 5.66 180 10:40 29.05.2022
3422 Clear 23 1006 9 10000 5.14 200 09:51 29.05.2022
3423 Clear 28 1007 5 10000 5.14 250 06:51 29.05.2022
3424 Clear 33 1005 3 10000 6.17 230 04:47 29.05.2022
3425 Clear 33 1005 8 10000 6.17 230 04:19 29.05.2022
3426 Clouds 36 1007 4 10000 6.69 260 23:53 28.05.2022
3427 Clouds 37 1008 4 10000 7.2 240 23:34 28.05.2022
3428 Clouds 36 1009 6 10000 6.69 270 22:40 28.05.2022
3429 Clouds 35 1010 8 10000 6.69 260 21:38 28.05.2022
3430 Clear 33 1011 10 10000 7.72 170 19:51 28.05.2022
3431 Clear 32 1012 10 10000 5.66 170 18:58 28.05.2022
3432 Clear 29 1012 11 10000 5.66 180 17:38 28.05.2022
3433 Clear 26 1012 16 10000 4.12 170 16:50 28.05.2022
3434 Clear 24 1012 20 10000 3.6 160 15:43 28.05.2022
3435 Clear 22 1013 21 10000 4.12 130 14:28 28.05.2022
3436 Clear 22 1012 22 10000 4.63 140 13:21 28.05.2022
3437 Clear 22 1012 22 10000 3.6 130 12:39 28.05.2022
3438 Clear 23 1011 21 10000 3.09 140 11:23 28.05.2022
3439 Clear 24 1011 19 10000 2.57 100 10:21 28.05.2022
3440 Clear 26 1012 17 10000 2.24 294 09:22 28.05.2022
3441 Clear 29 1012 15 10000 3.6 300 07:23 28.05.2022
3442 Clear 32 1009 12 10000 5.14 240 05:48 28.05.2022
3443 Clear 38 1009 9 10000 5.14 190 02:52 28.05.2022
3444 Clear 39 1011 11 10000 4.92 228 00:33 28.05.2022
3445 Clear 38 1012 12 10000 3.6 280 23:32 27.05.2022
3446 Clear 37 1014 13 10000 2.68 172 21:50 27.05.2022
3447 Clear 36 1015 14 10000 2.24 277 20:56 27.05.2022
3448 Clear 35 1015 15 10000 3.09 120 20:25 27.05.2022
3449 Clear 35 1015 16 10000 1.79 341 19:48 27.05.2022
3450 Clear 34 1015 17 10000 2.24 101 19:29 27.05.2022
3451 Clear 32 1016 19 10000 2.57 110 18:24 27.05.2022
3452 Clear 28 1016 25 10000 3.09 140 16:40 27.05.2022
3453 Clear 24 1016 29 10000 3.6 140 15:33 27.05.2022
3454 Clear 22 1015 31 10000 3.09 140 14:26 27.05.2022
3455 Clear 22 1015 30 10000 3.6 130 13:23 27.05.2022
3456 Clear 24 1014 28 10000 2.57 150 11:34 27.05.2022
3457 Clear 25 1014 26 10000 1.79 288 10:57 27.05.2022
3458 Clear 25 1014 26 10000 1.79 282 10:31 27.05.2022
3459 Clear 27 1014 24 10000 3.09 150 09:37 27.05.2022
3460 Clear 29 1014 20 10000 5.66 270 07:55 27.05.2022
3461 Clear 32 1012 14 10000 3.09 290 05:44 27.05.2022
3462 Clear 38 1011 9 10000 3.6 300 02:47 27.05.2022
3463 Clear 39 1011 8 10000 5.14 270 00:29 27.05.2022
3464 Clouds 38 1013 9 10000 2.06 330 22:43 26.05.2022
3465 Clear 37 1014 10 10000 2.24 261 21:40 26.05.2022
3466 Clear 36 1014 11 10000 1.34 291 20:53 26.05.2022
3467 Clear 33 1015 15 10000 2.24 164 19:19 26.05.2022
3468 Clear 31 1015 17 10000 2.06 0 18:18 26.05.2022
3469 Clear 27 1015 22 10000 3.6 150 16:42 26.05.2022
3470 Clear 24 1009 24 10000 1.57 144 15:45 26.05.2022
3471 Clear 22 1013 26 10000 3.6 140 14:43 26.05.2022
3472 Clear 21 1013 25 10000 2.57 140 12:37 26.05.2022
3473 Clear 23 1013 23 10000 2.57 120 11:23 26.05.2022
3474 Clear 24 1012 20 10000 3.09 200 09:44 26.05.2022
3475 Clear 25 1012 19 10000 3.09 200 09:26 26.05.2022
3476 Clear 26 1012 16 10000 3.09 200 08:30 26.05.2022
3477 Clear 32 1011 10 10000 4.63 340 04:41 26.05.2022
3478 Clear 36 1011 8 10000 4.47 296 00:38 26.05.2022
3479 Clear 36 1011 8 10000 4.12 260 23:40 25.05.2022
3480 Clear 35 1012 9 10000 3.13 325 21:56 25.05.2022
3481 Clear 34 1012 9 10000 3.13 279 21:31 25.05.2022
3482 Clear 33 1013 13 10000 4.12 300 20:35 25.05.2022
3483 Clear 31 1014 17 10000 5.14 310 19:21 25.05.2022
3484 Clear 28 1013 22 10000 2.24 151 17:40 25.05.2022
3485 Clouds 25 1013 23 10000 0.89 0 16:37 25.05.2022
3486 Clouds 24 1011 26 10000 0.85 145 15:54 25.05.2022
3487 Clear 20 1014 28 10000 3.6 140 14:51 25.05.2022
3488 Clear 19 1014 29 10000 3.6 140 14:32 25.05.2022
3489 Clear 19 1012 27 10000 4.12 140 13:45 25.05.2022
3490 Clear 20 1011 24 10000 3.09 120 12:37 25.05.2022
3491 Clear 21 1011 20 10000 3.09 140 10:43 25.05.2022
3492 Clear 22 1011 18 10000 2.57 150 09:54 25.05.2022
3493 Clear 23 1011 15 10000 2.24 202 08:37 25.05.2022
3494 Clouds 24 1010 14 10000 0.89 140 07:23 25.05.2022
3495 Clear 31 1009 8 10000 6.69 290 03:34 25.05.2022
3496 Clear 33 1009 8 10000 7.2 300 23:56 24.05.2022
3497 Clear 33 1009 9 10000 7.2 300 23:31 24.05.2022
3498 Clear 32 1010 10 10000 6.26 256 22:21 24.05.2022
3499 Clear 32 1010 11 10000 6.69 320 21:40 24.05.2022
3500 Clear 31 1010 12 10000 6.69 320 21:20 24.05.2022
3501 Clear 30 1011 15 10000 2.68 278 19:45 24.05.2022
3502 Clear 28 1011 17 10000 2.68 277 18:54 24.05.2022
3503 Clear 24 1011 23 10000 3.6 140 16:45 24.05.2022
3504 Clear 23 1011 25 10000 3.6 140 16:22 24.05.2022
3505 Clear 19 1011 32 10000 4.12 120 14:56 24.05.2022
3506 Clear 19 1011 33 10000 4.12 120 14:20 24.05.2022
3507 Haze 20 1010 32 9656 4.12 100 12:49 24.05.2022
3508 Clear 21 1010 31 10000 2.06 10 11:26 24.05.2022
3509 Clear 23 1010 29 10000 3.6 200 09:44 24.05.2022
3510 Clear 24 1010 27 10000 3.6 260 08:50 24.05.2022
3511 Clear 26 1009 19 10000 5.14 280 06:57 24.05.2022
3512 Clear 30 1008 11 10000 6.17 270 04:20 24.05.2022
3513 Clear 33 1007 9 10000 5.36 274 01:55 24.05.2022
3514 Clear 34 1008 9 10000 6.26 275 01:36 24.05.2022
3515 Clear 34 1009 10 10000 8.23 260 23:31 23.05.2022
3516 Clear 33 1010 12 10000 5.14 250 21:56 23.05.2022
3517 Clear 32 1011 12 10000 5.14 250 21:29 23.05.2022
3518 Clear 32 1012 13 10000 4.63 240 20:35 23.05.2022
3519 Clear 30 1013 17 10000 3.13 141 19:32 23.05.2022
3520 Clouds 29 1013 19 10000 1.79 194 18:58 23.05.2022
3521 Clear 28 1014 21 10000 1.54 0 18:30 23.05.2022
3522 Clear 26 1013 25 10000 3.6 140 17:20 23.05.2022
3523 Clear 20 1013 32 10000 3.6 120 15:31 23.05.2022
3524 Clear 19 1013 32 10000 2.57 110 13:22 23.05.2022
3525 Clear 20 1013 29 10000 3.09 110 11:33 23.05.2022
3526 Clear 21 1013 27 10000 0.45 0 10:31 23.05.2022
3527 Clear 23 1014 25 10000 2.57 220 09:39 23.05.2022
3528 Clear 24 1014 23 10000 3.6 270 08:32 23.05.2022
3529 Clear 27 1013 20 10000 4.12 280 06:46 23.05.2022
3530 Clear 29 1013 17 10000 6.17 270 05:39 23.05.2022
3531 Clear 34 1011 10 10000 4.02 63 02:34 23.05.2022
3532 Clear 35 1011 9 10000 3.6 220 01:39 23.05.2022
3533 Clear 35 1012 10 10000 4.63 280 00:23 23.05.2022
3534 Clouds 33 1013 11 10000 2.24 276 22:40 22.05.2022
3535 Clear 32 1014 12 10000 4.12 300 21:55 22.05.2022
3536 Clear 32 1014 13 10000 4.12 300 21:32 22.05.2022
3537 Clear 31 1015 14 10000 1.79 204 20:32 22.05.2022
3538 Clouds 31 1015 15 10000 3.09 150 19:56 22.05.2022
3539 Clear 29 1015 19 10000 3.6 130 18:55 22.05.2022
3540 Clear 28 1015 23 10000 3.6 130 18:25 22.05.2022
3541 Clouds 26 1016 29 10000 3.6 140 17:34 22.05.2022
3542 Clear 23 1015 34 10000 4.63 140 16:36 22.05.2022
3543 Clear 19 1016 44 10000 4.63 90 14:49 22.05.2022
3544 Clear 19 1015 45 10000 2.06 120 13:54 22.05.2022
3545 Clouds 20 1015 44 10000 2.57 80 12:52 22.05.2022
3546 Clear 20 1015 43 10000 1.54 90 11:47 22.05.2022
3547 Clear 23 1015 37 10000 3.09 240 09:45 22.05.2022
3548 Clear 24 1015 36 10000 2.68 143 08:54 22.05.2022
3549 Clear 26 1014 32 10000 3.09 280 07:22 22.05.2022
3550 Clear 27 1014 29 10000 5.14 260 06:24 22.05.2022
3551 Clear 34 1011 10 10000 7.2 280 02:33 22.05.2022
3552 Clear 34 1010 8 10000 5.66 200 00:44 22.05.2022
3553 Clear 34 1010 8 10000 5.66 200 00:44 22.05.2022
3554 Clear 34 1011 9 10000 5.66 220 23:55 21.05.2022
3555 Clear 34 1011 10 10000 5.66 220 23:21 21.05.2022
3556 Clear 32 1012 11 10000 4.12 230 21:45 21.05.2022
3557 Clear 32 1012 12 10000 3.6 240 21:25 21.05.2022
3558 Haze 30 1012 14 8047 2.68 325 20:25 21.05.2022
3559 Haze 29 1013 16 8047 5.14 170 19:37 21.05.2022
3560 Clear 26 1013 20 10000 4.47 169 17:57 21.05.2022
3561 Clear 25 1013 24 10000 2.68 168 16:53 21.05.2022
3562 Clear 20 1012 35 10000 3.09 140 14:38 21.05.2022
3563 Clear 20 1011 34 10000 3.13 187 13:53 21.05.2022
3564 Clear 21 1010 32 10000 2.24 179 12:57 21.05.2022
3565 Clear 21 1010 32 10000 2.24 130 12:37 21.05.2022
3566 Haze 23 1011 26 6437 3.6 190 10:44 21.05.2022
3567 Clear 23 1009 25 10000 4.63 190 09:48 21.05.2022
3568 Clear 24 1008 26 10000 3.09 200 08:58 21.05.2022
3569 Clear 24 1010 26 10000 6.17 210 08:33 21.05.2022
3570 Clear 30 1008 22 10000 3.58 276 04:33 21.05.2022
3571 Clear 34 1005 12 10000 8.23 170 00:58 21.05.2022
3572 Clear 34 1005 11 10000 7.72 230 23:22 20.05.2022
3573 Clear 33 1006 11 10000 8.23 220 22:24 20.05.2022
3574 Clear 33 1006 12 10000 8.75 190 21:47 20.05.2022
3575 Clear 32 1007 12 10000 7.72 190 20:57 20.05.2022
3576 Clear 31 1007 13 10000 8.23 200 20:29 20.05.2022
3577 Clear 30 1007 13 10000 6.17 170 19:27 20.05.2022
3578 Clear 29 1008 13 10000 9.77 190 18:47 20.05.2022
3579 Clear 26 1007 16 10000 7.72 190 17:37 20.05.2022
3580 Clear 23 1006 25 10000 4.12 130 16:20 20.05.2022
3581 Clear 22 1007 25 10000 3.6 100 15:53 20.05.2022
3582 Clear 20 1006 30 10000 3.09 100 14:31 20.05.2022
3583 Clear 20 1006 30 10000 1.54 100 13:55 20.05.2022
3584 Clear 21 1007 24 10000 6.17 160 11:38 20.05.2022
3585 Clear 22 1008 24 10000 3.09 180 10:19 20.05.2022
3586 Clear 24 1007 24 10000 2.06 190 08:45 20.05.2022
3587 Clear 26 1008 21 10000 2.57 260 07:18 20.05.2022
3588 Clear 27 1008 21 10000 4.63 270 06:32 20.05.2022
3589 Clear 29 1007 18 10000 6.71 273 04:59 20.05.2022
3590 Clear 35 1007 6 10000 6.69 220 00:54 20.05.2022
3591 Clear 34 1010 8 10000 3.6 320 22:48 19.05.2022
3592 Clear 34 1010 9 10000 3.6 320 22:20 19.05.2022
3593 Clear 34 1011 10 10000 6.17 260 21:48 19.05.2022
3594 Clear 33 1012 11 10000 2.24 246 21:22 19.05.2022
3595 Clear 33 1012 13 10000 1.54 160 20:34 19.05.2022
3596 Clear 32 1012 14 10000 3.13 144 19:50 19.05.2022
3597 Clear 29 1013 24 10000 3.6 160 18:22 19.05.2022
3598 Clear 25 1014 30 10000 2.68 113 16:51 19.05.2022
3599 Clear 20 1013 39 10000 3.6 160 15:19 19.05.2022
3600 Clear 19 1013 41 10000 3.6 150 14:25 19.05.2022
3601 Clear 20 1014 39 10000 3.09 140 13:23 19.05.2022
3602 Clear 22 1013 34 10000 2.06 190 11:29 19.05.2022
3603 Clear 25 1014 31 10000 2.24 262 09:28 19.05.2022
3604 Clear 27 1014 28 10000 4.63 310 07:50 19.05.2022
3605 Clear 28 1013 16 10000 5.14 250 06:18 19.05.2022
3606 Clear 35 1012 7 10000 6.17 250 02:23 19.05.2022
3607 Clear 36 1014 7 10000 4.63 190 23:57 18.05.2022
3608 Clear 35 1015 7 10000 4.12 220 22:47 18.05.2022
3609 Clear 34 1016 7 10000 4.12 270 21:51 18.05.2022
3610 Clear 34 1016 7 10000 4.12 270 21:29 18.05.2022
3611 Clear 33 1015 8 10000 3.6 190 20:47 18.05.2022
3612 Clear 33 1016 8 10000 3.6 190 20:18 18.05.2022
3613 Clear 30 1014 15 10000 3.6 140 18:33 18.05.2022
3614 Clear 28 1016 20 10000 3.6 120 17:41 18.05.2022
3615 Clear 28 1016 22 10000 3.6 120 17:23 18.05.2022
3616 Clear 25 1016 26 10000 4.12 140 16:34 18.05.2022
3617 Clear 23 1016 30 10000 4.12 120 15:41 18.05.2022
3618 Clear 20 1016 32 10000 3.6 120 14:35 18.05.2022
3619 Clear 20 1016 32 10000 3.6 130 13:35 18.05.2022
3620 Clear 21 1015 31 10000 3.09 130 12:43 18.05.2022
3621 Clear 23 1014 29 10000 3.09 190 11:34 18.05.2022
3622 Clear 23 1014 28 10000 3.6 160 10:56 18.05.2022
3623 Clear 23 1014 28 10000 3.6 160 10:56 18.05.2022
3624 Clear 25 1014 26 10000 0.89 258 09:31 18.05.2022
3625 Clear 27 1014 23 10000 2.57 260 07:36 18.05.2022
3626 Clear 30 1012 15 10000 2.68 241 05:56 18.05.2022
3627 Clear 37 1011 6 10000 4.12 230 01:22 18.05.2022
3628 Clear 36 1012 6 10000 2.57 260 00:22 18.05.2022
3629 Clear 35 1013 7 10000 1.79 252 21:56 17.05.2022
3630 Clear 34 1014 7 10000 3.09 140 21:20 17.05.2022
3631 Clear 32 1014 8 10000 2.68 165 19:59 17.05.2022
3632 Clear 32 1015 9 10000 4.63 180 19:27 17.05.2022
3633 Clear 29 1014 12 10000 2.68 184 17:51 17.05.2022
3634 Clear 27 1014 14 10000 4.12 150 16:59 17.05.2022
3635 Clear 25 1014 17 10000 4.12 150 16:29 17.05.2022
3636 Clear 21 1013 19 10000 4.12 140 15:25 17.05.2022
3637 Clear 20 1013 18 10000 4.63 130 14:30 17.05.2022
3638 Clear 21 1013 16 10000 3.6 120 13:34 17.05.2022
3639 Clear 22 1012 16 10000 3.6 180 11:43 17.05.2022
3640 Clear 24 1012 15 10000 3.6 140 09:27 17.05.2022
3641 Clear 25 1012 14 10000 1.54 180 08:25 17.05.2022
3642 Clear 29 1011 11 10000 4.12 270 06:46 17.05.2022
3643 Clear 36 1009 5 10000 5.14 210 03:20 17.05.2022
3644 Clear 37 1009 5 10000 2.24 118 00:36 17.05.2022
3645 Clear 36 1011 5 10000 2.57 340 22:42 16.05.2022
3646 Clear 36 1012 6 10000 2.68 284 21:41 16.05.2022
3647 Clear 35 1013 6 10000 1.79 194 20:47 16.05.2022
3648 Clear 33 1013 7 10000 0.89 159 19:43 16.05.2022
3649 Clear 31 1013 9 10000 1.34 118 18:20 16.05.2022
3650 Clear 24 1011 13 10000 3.09 150 15:49 16.05.2022
3651 Clear 20 1011 15 10000 4.12 140 13:49 16.05.2022
3652 Clear 21 1011 13 10000 4.12 140 13:20 16.05.2022
3653 Clear 23 1011 12 10000 0.89 65 10:53 16.05.2022
3654 Clear 24 1013 11 10000 2.06 70 09:23 16.05.2022
3655 Clear 29 1012 8 10000 3.6 240 06:47 16.05.2022
3656 Clear 37 1010 4 10000 6.26 290 03:31 16.05.2022
3657 Clear 39 1011 8 10000 2.24 257 23:26 15.05.2022
3658 Clear 39 1012 4 10000 2.24 338 22:29 15.05.2022
3659 Clear 38 1012 3 10000 2.06 0 21:44 15.05.2022
3660 Clouds 37 1012 4 10000 2.68 269 20:54 15.05.2022
3661 Clear 34 1014 6 10000 2.57 230 19:28 15.05.2022
3662 Clear 29 1014 10 10000 2.57 180 17:51 15.05.2022
3663 Clouds 25 1012 10 10000 1.56 142 15:56 15.05.2022
3664 Clear 20 1014 13 10000 4.63 130 13:50 15.05.2022
3665 Clear 21 1015 12 10000 3.6 170 12:23 15.05.2022
3666 Clear 21 1015 12 10000 4.12 140 11:38 15.05.2022
3667 Clear 21 1015 12 10000 4.12 140 11:38 15.05.2022
3668 Clear 23 1013 11 10000 4.12 140 10:23 15.05.2022
3669 Clear 26 1013 10 10000 3.09 260 07:46 15.05.2022
3670 Clear 27 1012 9 10000 3.09 290 06:57 15.05.2022
3671 Haze 33 1011 6 8047 6.17 290 04:44 15.05.2022
3672 Clear 38 1012 6 10000 2.57 0 00:48 15.05.2022
3673 Clear 37 1013 4 10000 2.57 250 23:38 14.05.2022
3674 Clear 37 1014 4 10000 1.79 273 22:45 14.05.2022
3675 Clear 35 1015 5 10000 1.34 45 21:27 14.05.2022
3676 Clear 34 1016 6 10000 1.54 0 20:44 14.05.2022
3677 Clear 31 1016 7 10000 0.89 198 19:21 14.05.2022
3678 Clear 31 1016 7 10000 0.89 339 19:21 14.05.2022
3679 Clear 30 1016 8 10000 0.89 134 18:59 14.05.2022
3680 Clear 27 1016 10 10000 0.89 153 17:56 14.05.2022
3681 Clear 24 1016 15 10000 4.12 150 16:37 14.05.2022
3682 Clear 19 1013 21 10000 0.45 219 14:58 14.05.2022
3683 Clear 17 1015 22 10000 3.09 140 14:30 14.05.2022
3684 Clear 18 1016 14 10000 3.6 150 12:23 14.05.2022
3685 Clear 19 1013 20 10000 4.12 160 10:53 14.05.2022
3686 Clear 19 1015 14 10000 4.12 160 10:20 14.05.2022
3687 Clear 20 1015 14 10000 3.6 160 09:51 14.05.2022
3688 Clear 21 1014 12 10000 2.57 200 08:22 14.05.2022
3689 Clear 27 1013 10 10000 5.14 290 05:26 14.05.2022
3690 Clear 34 1013 4 10000 4.63 290 01:58 14.05.2022
3691 Clear 33 1014 7 10000 2.57 340 23:32 13.05.2022
3692 Clear 33 1015 4 10000 4.02 294 22:57 13.05.2022
3693 Clear 32 1015 4 10000 3.6 350 22:23 13.05.2022
3694 Clear 31 1016 4 10000 3.09 280 21:35 13.05.2022
3695 Clouds 30 1016 8 10000 1.79 282 20:43 13.05.2022
3696 Clear 29 1016 6 10000 1.34 218 20:23 13.05.2022
3697 Clouds 26 1017 7 10000 1.54 360 19:21 13.05.2022
3698 Clear 22 1017 10 10000 0.89 0 17:50 13.05.2022
3699 Clear 21 1017 11 10000 2.06 180 17:24 13.05.2022
3700 Clear 15 1017 11 10000 3.6 140 15:53 13.05.2022
3701 Clear 13 1016 12 10000 1.54 130 14:50 13.05.2022
3702 Clear 14 1016 14 10000 2.57 110 12:58 13.05.2022
3703 Clear 14 1017 14 10000 3.09 140 12:25 13.05.2022
3704 Clear 15 1016 15 10000 3.6 130 10:35 13.05.2022
3705 Clear 16 1016 13 10000 2.57 160 09:29 13.05.2022
3706 Clear 18 1017 12 10000 3.09 230 08:20 13.05.2022
3707 Clear 19 1016 12 10000 4.63 250 07:30 13.05.2022
3708 Clear 21 1015 9 10000 3.09 290 05:58 13.05.2022
3709 Clear 29 1015 5 10000 5.66 310 01:49 13.05.2022
3710 Clear 29 1016 5 10000 5.14 280 23:43 12.05.2022
3711 Clear 28 1017 6 10000 3.09 240 22:42 12.05.2022
3712 Clear 27 1018 7 10000 3.09 290 21:36 12.05.2022
3713 Clear 25 1019 9 10000 1.54 310 20:22 12.05.2022
3714 Clear 21 1019 11 10000 2.06 330 18:30 12.05.2022
3715 Clear 17 1019 14 10000 2.06 290 16:52 12.05.2022
3716 Clear 13 1019 18 10000 2.57 160 15:30 12.05.2022
3717 Clear 13 1018 17 10000 3.6 170 13:58 12.05.2022
3718 Clear 15 1018 14 10000 4.63 260 12:46 12.05.2022
3719 Clear 18 1017 11 10000 4.63 270 10:34 12.05.2022
3720 Clear 20 1017 11 10000 5.66 280 08:58 12.05.2022
3721 Clear 20 1017 11 10000 5.66 280 08:37 12.05.2022
3722 Clear 21 1016 12 10000 4.92 330 07:36 12.05.2022
3723 Clouds 26 1014 14 10000 5.36 299 04:50 12.05.2022
3724 Clear 32 1012 11 10000 7.2 210 01:55 12.05.2022
3725 Clear 33 1013 10 10000 8.75 250 23:42 11.05.2022
3726 Clouds 32 1013 10 10000 5.14 270 22:22 11.05.2022
3727 Clouds 32 1013 12 10000 2.24 314 21:27 11.05.2022
3728 Clear 31 1014 13 10000 3.6 250 20:45 11.05.2022
3729 Clouds 24 1014 19 10000 1.34 121 17:54 11.05.2022
3730 Clouds 22 1014 23 10000 1.91 161 16:47 11.05.2022
3731 Clear 16 1014 26 10000 3.6 130 14:49 11.05.2022
3732 Clear 16 1012 28 10000 3.6 130 14:25 11.05.2022
3733 Clear 16 1012 27 10000 3.09 130 13:37 11.05.2022
3734 Clear 18 1013 25 10000 3.09 140 11:48 11.05.2022
3735 Clear 20 1014 22 10000 2.06 270 09:34 11.05.2022
3736 Clear 24 1015 17 10000 1.34 290 06:59 11.05.2022
3737 Clear 31 1011 10 10000 6.17 230 03:38 11.05.2022
3738 Clear 33 1013 11 10000 5.66 240 23:45 10.05.2022
3739 Clear 32 1014 12 10000 5.66 300 22:30 10.05.2022
3740 Clear 31 1014 14 10000 2.68 284 21:43 10.05.2022
3741 Clear 30 1015 15 10000 3.09 310 20:48 10.05.2022
3742 Clear 28 1015 18 10000 2.57 0 19:18 10.05.2022
3743 Clear 24 1015 24 10000 1.34 168 17:43 10.05.2022
3744 Clear 21 1015 29 10000 3.6 150 16:39 10.05.2022
3745 Clear 16 1014 31 10000 3.6 140 13:54 10.05.2022
3746 Clear 17 1013 28 10000 2.06 110 12:30 10.05.2022
3747 Clear 17 1012 28 10000 2.06 200 11:42 10.05.2022
3748 Clear 18 1013 28 10000 3.09 140 10:57 10.05.2022
3749 Clear 20 1013 23 10000 1.54 250 09:52 10.05.2022
3750 Clear 22 1013 20 10000 2.06 230 08:22 10.05.2022
3751 Clear 25 1012 25 10000 5.66 260 06:21 10.05.2022
3752 Clear 32 1009 11 10000 7.72 250 02:31 10.05.2022
3753 Clear 32 1009 12 10000 5.14 220 23:55 09.05.2022
3754 Clear 32 1010 13 10000 5.81 104 22:41 09.05.2022
3755 Clear 31 1011 14 10000 4.12 230 21:42 09.05.2022
3756 Clear 29 1011 15 10000 3.6 230 20:21 09.05.2022
3757 Clear 26 1012 17 10000 6.17 170 18:29 09.05.2022
3758 Clear 24 1012 18 10000 5.14 180 17:27 09.05.2022
3759 Clear 21 1011 23 10000 3.6 130 16:19 09.05.2022
3760 Clear 20 1010 24 10000 2.57 100 15:47 09.05.2022
3761 Clear 17 1010 26 10000 2.06 60 14:37 09.05.2022
3762 Clear 17 1010 27 10000 1.34 142 13:59 09.05.2022
3763 Clear 17 1009 26 10000 3.09 120 13:23 09.05.2022
3764 Clear 18 1008 24 10000 5.66 210 11:53 09.05.2022
3765 Clear 19 1009 21 10000 5.66 180 10:48 09.05.2022
3766 Clear 20 1009 21 10000 5.66 180 10:26 09.05.2022
3767 Clear 22 1009 14 10000 2.24 229 07:57 09.05.2022
3768 Clear 26 1009 10 10000 1.34 0 05:59 09.05.2022
3769 Clear 32 1005 8 10000 6.69 210 01:59 09.05.2022
3770 Clear 33 1006 12 10000 8.75 220 23:29 08.05.2022
3771 Clear 33 1007 14 10000 9.26 250 22:32 08.05.2022
3772 Clear 33 1007 13 10000 8.75 230 21:24 08.05.2022
3773 Clouds 32 1008 13 10000 8.23 260 20:25 08.05.2022
3774 Clear 31 1008 14 10000 9.26 210 19:33 08.05.2022
3775 Clear 29 1009 13 10000 6.17 200 18:38 08.05.2022
3776 Clear 27 1009 13 10000 3.6 140 17:40 08.05.2022
3777 Clear 24 1010 15 10000 4.12 150 16:22 08.05.2022
3778 Clear 21 1009 18 10000 2.57 90 15:22 08.05.2022
3779 Clear 21 1008 17 10000 6.69 190 12:49 08.05.2022
3780 Clear 22 1008 18 10000 2.57 150 11:45 08.05.2022
3781 Clear 23 1008 17 10000 6.17 140 10:25 08.05.2022
3782 Clear 23 1009 15 10000 5.14 130 09:53 08.05.2022
3783 Clear 25 1010 12 10000 2.57 220 07:44 08.05.2022
3784 Clear 28 1008 10 10000 3.6 220 05:57 08.05.2022
3785 Clear 34 1007 6 10000 8.23 240 03:22 08.05.2022
3786 Clear 36 1008 6 10000 7.72 240 00:48 08.05.2022
3787 Clear 36 1009 5 10000 4.47 50 23:56 07.05.2022
3788 Clear 36 1009 5 10000 4.92 256 23:28 07.05.2022
3789 Clear 36 1010 5 10000 6.17 250 22:35 07.05.2022
3790 Clear 35 1011 6 10000 4.02 103 21:56 07.05.2022
3791 Clear 34 1011 6 10000 3.58 282 21:21 07.05.2022
3792 Clear 33 1012 7 10000 2.57 310 20:23 07.05.2022
3793 Clear 30 1013 9 10000 2.06 200 18:41 07.05.2022
3794 Clear 23 1013 19 10000 4.12 140 16:24 07.05.2022
3795 Clear 20 1011 21 10000 3.09 120 14:53 07.05.2022
3796 Clear 21 1012 18 10000 3.6 130 11:23 07.05.2022
3797 Clear 23 1014 16 10000 2.57 120 09:42 07.05.2022
3798 Clear 24 1013 14 10000 2.06 170 08:30 07.05.2022
3799 Clear 26 1013 12 10000 2.06 250 06:44 07.05.2022
3800 Clear 27 1012 11 10000 2.06 250 06:24 07.05.2022
3801 Clear 33 1011 7 10000 5.66 300 03:57 07.05.2022
3802 Clear 35 1013 6 10000 2.57 300 23:44 06.05.2022
3803 Clear 34 1015 7 10000 4.12 280 22:35 06.05.2022
3804 Clear 34 1015 7 10000 2.24 302 21:52 06.05.2022
3805 Clear 33 1015 7 10000 2.06 0 21:24 06.05.2022
3806 Clear 31 1016 9 10000 2.24 320 19:43 06.05.2022
3807 Clear 30 1016 10 10000 1.54 240 19:21 06.05.2022
3808 Clear 28 1016 11 10000 2.06 160 18:29 06.05.2022
3809 Clear 25 1016 14 10000 4.12 170 17:34 06.05.2022
3810 Clear 20 1016 15 10000 4.63 150 15:51 06.05.2022
3811 Clear 18 1017 16 10000 1.71 120 14:58 06.05.2022
3812 Clear 18 1017 18 10000 2.57 170 13:38 06.05.2022
3813 Clear 18 1014 18 10000 3.09 150 12:42 06.05.2022
3814 Clear 19 1014 17 10000 0.89 92 11:58 06.05.2022
3815 Clear 19 1015 16 10000 3.09 170 10:41 06.05.2022
3816 Clear 20 1015 15 10000 4.12 180 09:47 06.05.2022
3817 Clear 21 1014 15 10000 1.79 0 08:59 06.05.2022
3818 Clear 23 1014 12 10000 2.57 230 07:27 06.05.2022
3819 Clear 25 1014 10 10000 3.09 300 06:24 06.05.2022
3820 Clear 32 1013 6 10000 3.58 348 02:54 06.05.2022
3821 Clear 33 1013 6 10000 2.24 275 01:57 06.05.2022
3822 Clear 32 1017 6 10000 3.6 360 22:48 05.05.2022
3823 Clear 31 1015 7 10000 2.24 246 21:45 05.05.2022
3824 Clear 30 1016 8 10000 2.24 255 20:27 05.05.2022
3825 Clear 27 1016 12 10000 1.79 179 18:36 05.05.2022
3826 Clear 22 1016 18 10000 5.14 140 16:40 05.05.2022
3827 Clear 16 1014 20 10000 1.77 123 14:53 05.05.2022
3828 Clear 17 1016 21 10000 4.63 140 13:25 05.05.2022
3829 Clear 16 1015 21 10000 3.6 140 12:54 05.05.2022
3830 Clear 17 1014 20 10000 3.09 160 10:53 05.05.2022
3831 Clear 18 1015 20 10000 2.57 170 09:40 05.05.2022
3832 Clear 21 1014 17 10000 3.09 280 07:45 05.05.2022
3833 Clear 24 1012 13 10000 4.63 310 05:42 05.05.2022
3834 Clear 30 1011 9 10000 6.17 320 01:59 05.05.2022
3835 Clear 30 1011 9 10000 7.72 330 01:32 05.05.2022
3836 Clear 30 1011 10 10000 4.63 240 23:53 04.05.2022
3837 Clear 30 1012 12 10000 5.14 290 22:46 04.05.2022
3838 Clear 29 1012 14 10000 3.6 240 21:50 04.05.2022
3839 Clear 29 1012 15 10000 3.6 240 21:29 04.05.2022
3840 Clouds 27 1013 18 10000 2.24 315 20:27 04.05.2022
3841 Clear 27 1013 20 10000 1.34 289 19:53 04.05.2022
3842 Clear 26 1013 21 10000 2.24 305 19:18 04.05.2022
3843 Clear 24 1013 27 10000 1.54 310 18:22 04.05.2022
3844 Clear 23 1013 29 10000 1.34 114 17:51 04.05.2022
3845 Clear 17 1012 40 10000 2.57 130 15:42 04.05.2022
3846 Clear 15 1013 43 10000 2.57 130 15:23 04.05.2022
3847 Clear 15 1011 44 10000 3.09 130 14:21 04.05.2022
3848 Clear 15 1011 44 10000 3.09 140 13:49 04.05.2022
3849 Clear 15 1013 41 10000 2.06 100 12:33 04.05.2022
3850 Clear 17 1011 36 10000 1.54 120 10:43 04.05.2022
3851 Clear 18 1012 33 10000 2.57 220 09:44 04.05.2022
3852 Clear 20 1012 31 10000 2.06 170 08:47 04.05.2022
3853 Clear 22 1011 24 10000 3.09 260 06:49 04.05.2022
3854 Clear 28 1009 12 10000 7.72 210 02:59 04.05.2022
3855 Clouds 31 1009 10 10000 5.66 230 00:48 04.05.2022
3856 Clouds 31 1010 11 10000 8.23 190 22:40 03.05.2022
3857 Clouds 30 1010 14 10000 6.69 190 21:46 03.05.2022
3858 Clouds 29 1011 16 10000 6.17 220 20:56 03.05.2022
3859 Clear 29 1011 17 10000 3.6 210 20:30 03.05.2022
3860 Clear 27 1013 22 10000 2.57 130 18:54 03.05.2022
3861 Clear 26 1012 25 10000 2.68 115 18:21 03.05.2022
3862 Clear 24 1013 30 10000 3.09 150 17:19 03.05.2022
3863 Clear 20 1013 35 10000 4.63 110 15:43 03.05.2022
3864 Clear 19 1012 34 10000 2.57 130 13:28 03.05.2022
3865 Clear 19 1012 33 10000 2.57 110 12:27 03.05.2022
3866 Clouds 20 1012 33 10000 0.45 0 10:58 03.05.2022
3867 Clear 21 1012 30 10000 2.06 160 09:46 03.05.2022
3868 Clear 23 1011 25 10000 2.57 190 07:58 03.05.2022
3869 Clear 25 1010 21 10000 2.06 220 06:45 03.05.2022
3870 Clear 32 1009 10 10000 6.69 290 01:52 03.05.2022
3871 Clear 31 1012 11 10000 2.57 260 22:44 02.05.2022
3872 Clear 30 1012 12 10000 2.68 268 21:55 02.05.2022
3873 Clear 29 1013 13 10000 3.6 290 21:23 02.05.2022
3874 Clear 26 1014 17 10000 3.6 160 18:46 02.05.2022
3875 Clear 25 1014 18 10000 3.6 160 18:25 02.05.2022
3876 Clear 24 1014 20 10000 4.12 110 17:37 02.05.2022
3877 Clear 21 1014 27 10000 3.6 140 16:24 02.05.2022
3878 Clear 18 1014 29 10000 4.12 150 15:37 02.05.2022
3879 Clear 17 1013 31 10000 0.89 91 13:58 02.05.2022
3880 Clear 19 1012 29 10000 2.06 150 12:27 02.05.2022
3881 Clear 20 1012 26 10000 2.57 240 10:52 02.05.2022
3882 Clear 21 1012 22 10000 2.57 240 09:31 02.05.2022
3883 Clear 23 1011 18 10000 3.09 220 07:57 02.05.2022
3884 Clear 28 1008 11 10000 5.66 210 04:44 02.05.2022
3885 Clear 34 1007 6 10000 6.69 250 00:25 02.05.2022
3886 Clear 34 1008 6 10000 8.23 270 23:52 01.05.2022
3887 Clear 33 1008 6 10000 8.23 260 22:40 01.05.2022
3888 Clouds 32 1008 7 10000 8.23 200 21:30 01.05.2022
3889 Clear 31 1009 9 10000 7.72 190 20:19 01.05.2022
3890 Clear 30 1009 10 10000 8.23 170 19:18 01.05.2022
3891 Clear 29 1009 12 10000 4.12 150 18:46 01.05.2022
3892 Clear 26 1010 15 10000 1.79 332 17:46 01.05.2022
3893 Clear 21 1010 19 10000 5.14 150 16:24 01.05.2022
3894 Clear 19 1009 18 10000 5.14 130 15:38 01.05.2022
3895 Clear 18 1008 19 10000 3.6 140 14:22 01.05.2022
3896 Clear 19 1008 16 10000 4.12 150 11:41 01.05.2022
3897 Clear 21 1008 13 10000 3.09 220 09:32 01.05.2022
3898 Clear 21 1009 13 10000 4.12 230 08:47 01.05.2022
3899 Clear 28 1007 9 10000 4.12 330 04:31 01.05.2022
3900 Clear 33 1009 6 10000 4.63 290 00:34 01.05.2022
3901 Clear 32 1010 8 10000 2.24 290 21:51 30.04.2022
3902 Clouds 31 1012 9 10000 1.54 130 21:19 30.04.2022
3903 Clear 28 1013 12 10000 1.34 76 19:45 30.04.2022
3904 Clear 26 1013 15 10000 1.79 152 18:45 30.04.2022
3905 Clear 22 1010 21 10000 1.99 139 16:54 30.04.2022
3906 Clear 17 1013 22 10000 4.63 150 15:50 30.04.2022
3907 Clear 15 1014 24 10000 3.6 130 14:54 30.04.2022
3908 Clear 15 1013 26 10000 4.12 140 13:30 30.04.2022
3909 Clear 16 1014 25 10000 2.57 90 11:34 30.04.2022
3910 Clear 17 1013 23 10000 3.6 150 10:49 30.04.2022
3911 Clear 17 1013 23 10000 2.57 190 09:48 30.04.2022
3912 Clear 20 1012 20 10000 2.06 260 07:31 30.04.2022
3913 Clear 27 1011 12 10000 4.12 300 03:34 30.04.2022
3914 Clear 29 1012 12 10000 5.14 270 23:53 29.04.2022
3915 Clouds 28 1013 11 10000 5.66 310 22:34 29.04.2022
3916 Clear 27 1013 11 10000 2.68 272 21:54 29.04.2022
3917 Clouds 26 1014 11 10000 2.06 310 20:51 29.04.2022
3918 Clear 24 1015 12 10000 1.34 314 19:47 29.04.2022
3919 Clear 22 1015 15 10000 0.89 259 18:36 29.04.2022
3920 Clear 19 1014 18 10000 2.06 140 17:26 29.04.2022
3921 Clear 15 1012 21 10000 4.12 160 15:52 29.04.2022
3922 Clear 13 1012 23 10000 3.6 130 14:23 29.04.2022
3923 Clear 13 1012 23 10000 1.54 340 13:22 29.04.2022
3924 Clear 15 1011 23 10000 3.09 150 11:51 29.04.2022
3925 Clear 18 1012 19 10000 1.54 120 09:23 29.04.2022
3926 Clear 21 1011 16 10000 2.57 260 07:28 29.04.2022
3927 Clear 22 1011 14 10000 3.6 280 06:46 29.04.2022
3928 Clear 23 1009 11 10000 4.12 280 05:44 29.04.2022
3929 Clear 31 1009 6 10000 9.77 260 00:47 29.04.2022
3930 Clear 31 1010 7 10000 7.2 230 23:48 28.04.2022
3931 Clear 31 1010 8 10000 6.17 210 22:45 28.04.2022
3932 Clear 30 1011 9 10000 8.75 240 21:47 28.04.2022
3933 Clear 30 1011 9 10000 8.75 240 21:22 28.04.2022
3934 Clear 29 1012 10 10000 4.63 190 20:35 28.04.2022
3935 Clear 28 1013 12 10000 3.13 180 19:46 28.04.2022
3936 Clear 27 1013 12 10000 2.57 230 19:23 28.04.2022
3937 Clear 26 1013 13 10000 3.6 150 18:36 28.04.2022
3938 Clear 23 1013 16 10000 4.63 140 17:32 28.04.2022
3939 Clear 20 1012 21 10000 3.09 150 16:41 28.04.2022
3940 Clear 18 1014 22 10000 3.09 150 16:19 28.04.2022
3941 Clear 17 1013 21 10000 4.63 140 15:40 28.04.2022
3942 Clear 16 1011 24 10000 3.6 120 14:36 28.04.2022
3943 Clear 16 1011 22 10000 2.06 100 13:19 28.04.2022
3944 Clear 17 1012 23 10000 0.45 172 11:59 28.04.2022
3945 Clear 18 1012 21 10000 1.54 160 10:47 28.04.2022
3946 Clear 18 1012 20 10000 1.54 160 10:26 28.04.2022
3947 Clear 19 1013 19 10000 0.45 266 08:59 28.04.2022
3948 Clear 22 1013 15 10000 3.09 130 07:37 28.04.2022
3949 Clear 24 1013 12 10000 3.6 260 06:33 28.04.2022
3950 Clear 26 1012 11 10000 4.12 240 05:39 28.04.2022
3951 Clear 28 1011 10 10000 5.66 220 04:40 28.04.2022
3952 Clear 33 1011 8 10000 8.23 240 00:36 28.04.2022
3953 Clear 33 1012 8 10000 7.2 190 22:45 27.04.2022
3954 Clear 32 1011 8 10000 7.2 220 21:56 27.04.2022
3955 Clear 32 1012 8 10000 8.23 200 21:27 27.04.2022
3956 Clear 31 1013 8 10000 7.72 230 20:38 27.04.2022
3957 Clear 30 1014 9 10000 8.23 190 19:39 27.04.2022
3958 Clear 29 1014 10 10000 8.23 190 19:18 27.04.2022
3959 Clear 27 1014 12 10000 3.6 170 18:25 27.04.2022
3960 Clear 25 1014 15 10000 4.12 120 17:26 27.04.2022
3961 Clear 18 1014 20 10000 2.06 130 15:22 27.04.2022
3962 Clear 20 1012 17 10000 3.09 110 12:27 27.04.2022
3963 Clear 20 1012 17 10000 2.57 170 11:21 27.04.2022
3964 Clear 21 1012 18 10000 1.54 150 09:59 27.04.2022
3965 Clear 25 1012 13 10000 3.6 280 07:25 27.04.2022
3966 Clear 28 1013 11 10000 5.14 240 05:37 27.04.2022
3967 Clear 35 1010 8 10000 4.63 250 01:52 27.04.2022
3968 Clear 36 1011 8 10000 3.6 280 00:52 27.04.2022
3969 Clear 36 1011 8 10000 3.13 156 23:57 26.04.2022
3970 Clear 35 1012 9 10000 5.14 230 23:23 26.04.2022
3971 Clouds 35 1012 10 10000 4.12 250 22:41 26.04.2022
3972 Clear 34 1013 10 10000 6.17 130 21:48 26.04.2022
3973 Clear 33 1015 12 10000 7.2 150 20:54 26.04.2022
3974 Clear 33 1014 12 10000 7.2 150 20:34 26.04.2022
3975 Clear 31 1013 14 10000 7.2 120 19:33 26.04.2022
3976 Clear 29 1015 17 10000 9.26 120 18:51 26.04.2022
3977 Clear 27 1015 18 10000 9.26 120 18:18 26.04.2022
3978 Clear 24 1014 22 10000 8.75 130 17:22 26.04.2022
3979 Clear 19 1015 20 10000 4.63 170 14:46 26.04.2022
3980 Clear 18 1015 18 10000 3.6 170 13:34 26.04.2022
3981 Clear 19 1013 13 10000 3.09 140 12:22 26.04.2022
3982 Clear 19 1013 13 10000 3.6 150 10:44 26.04.2022
3983 Clear 20 1014 12 10000 3.6 210 09:36 26.04.2022
3984 Clear 22 1014 10 10000 3.09 330 07:54 26.04.2022
3985 Clear 27 1012 8 10000 3.13 349 04:33 26.04.2022
3986 Clear 32 1013 8 10000 2.06 20 01:54 26.04.2022
3987 Clear 32 1014 5 10000 2.57 100 00:26 26.04.2022
3988 Clear 32 1015 6 10000 3.09 140 22:46 25.04.2022
3989 Clear 31 1016 7 10000 2.57 360 21:43 25.04.2022
3990 Clear 29 1017 7 10000 1.79 67 20:40 25.04.2022
3991 Clear 25 1017 11 10000 1.79 0 18:58 25.04.2022
3992 Clear 22 1016 13 10000 1.54 350 17:54 25.04.2022
3993 Clear 20 1017 15 10000 1.54 350 17:23 25.04.2022
3994 Clear 14 1016 17 10000 1.54 160 15:29 25.04.2022
3995 Clear 14 1017 17 10000 3.09 130 14:46 25.04.2022
3996 Clear 14 1016 18 10000 2.06 170 13:35 25.04.2022
3997 Clear 14 1016 17 10000 3.09 150 11:43 25.04.2022
3998 Clear 15 1016 16 10000 3.09 130 10:26 25.04.2022
3999 Clear 17 1014 15 10000 3.09 140 08:46 25.04.2022
4000 Clear 19 1015 13 10000 3.6 280 06:45 25.04.2022
4001 Clear 23 1013 10 10000 4.12 280 04:27 25.04.2022
4002 Clear 27 1013 8 10000 4.47 282 00:57 25.04.2022
4003 Clear 28 1013 9 10000 7.2 300 23:51 24.04.2022
4004 Clear 27 1014 9 10000 5.36 320 22:43 24.04.2022
4005 Clear 27 1014 10 10000 5.14 310 22:20 24.04.2022
4006 Clouds 26 1015 11 10000 4.02 296 21:26 24.04.2022
4007 Clear 25 1015 11 10000 2.68 243 20:49 24.04.2022
4008 Clear 25 1015 12 10000 2.24 307 20:29 24.04.2022
4009 Clear 24 1015 13 10000 0.89 0 19:46 24.04.2022
4010 Clear 21 1015 18 10000 1.54 140 18:20 24.04.2022
4011 Clear 19 1014 22 10000 0.89 0 17:28 24.04.2022
4012 Clear 17 1012 24 10000 0.45 55 16:58 24.04.2022
4013 Clear 16 1016 26 10000 0.73 113 16:32 24.04.2022
4014 Clear 16 1005 34 10000 0.45 195 15:54 24.04.2022
4015 Clear 12 1012 28 10000 0.83 56 14:58 24.04.2022
4016 Clear 13 1010 34 10000 3.09 120 13:56 24.04.2022
4017 Clear 13 1013 28 10000 3.09 120 13:24 24.04.2022
4018 Clear 13 1011 30 10000 3.09 140 11:56 24.04.2022
4019 Clear 13 1013 26 10000 3.09 140 11:27 24.04.2022
4020 Clear 15 1013 24 10000 3.09 190 09:55 24.04.2022
4021 Clear 15 1013 24 10000 3.09 190 09:19 24.04.2022
4022 Clear 19 1013 19 10000 2.57 300 06:18 24.04.2022
4023 Clear 22 1012 13 10000 5.66 310 03:37 24.04.2022
4024 Clear 22 1012 13 10000 5.66 310 03:37 24.04.2022
4025 Clear 25 1012 14 10000 4.12 300 01:37 24.04.2022
4026 Clear 25 1013 13 10000 5.14 280 23:57 23.04.2022
4027 Clear 24 1013 14 10000 5.14 280 23:26 23.04.2022
4028 Clear 24 1013 16 10000 4.12 210 22:46 23.04.2022
4029 Clear 23 1014 17 10000 4.02 191 21:51 23.04.2022
4030 Clear 23 1014 17 10000 3.13 245 21:32 23.04.2022
4031 Clear 22 1015 19 10000 2.68 290 20:33 23.04.2022
4032 Clear 21 1016 20 10000 1.79 260 19:41 23.04.2022
4033 Clear 20 1016 22 10000 1.79 167 19:18 23.04.2022
4034 Clear 20 1015 25 10000 2.06 320 18:46 23.04.2022
4035 Clear 18 1016 26 10000 1.79 196 17:48 23.04.2022
4036 Clear 15 1016 30 10000 0.89 132 16:49 23.04.2022
4037 Clear 14 1015 34 10000 2.06 170 16:21 23.04.2022
4038 Clear 11 1014 38 10000 2.06 150 14:27 23.04.2022
4039 Clouds 13 1014 33 10000 0.89 198 11:59 23.04.2022
4040 Clear 14 1014 30 10000 2.57 260 10:40 23.04.2022
4041 Clear 14 1014 30 10000 2.57 260 10:40 23.04.2022
4042 Clear 16 1014 25 10000 5.66 290 08:42 23.04.2022
4043 Clear 20 1013 24 10000 5.36 271 05:45 23.04.2022
4044 Clouds 22 1011 19 10000 6.26 283 03:54 23.04.2022
4045 Clear 26 1011 22 10000 8.94 294 00:18 23.04.2022
4046 Clear 26 1011 23 10000 8.75 270 23:25 22.04.2022
4047 Clear 27 1010 21 10000 9.77 240 21:59 22.04.2022
4048 Clear 27 1011 20 10000 9.77 240 21:40 22.04.2022
4049 Clear 26 1011 20 10000 7.72 250 20:37 22.04.2022
4050 Clear 25 1012 20 10000 8.75 240 19:39 22.04.2022
4051 Clear 25 1012 20 10000 8.75 240 19:18 22.04.2022
4052 Clear 24 1013 18 10000 7.72 210 18:33 22.04.2022
4053 Clear 23 1013 18 10000 5.66 230 17:34 22.04.2022
4054 Clear 20 1012 22 10000 3.6 130 16:29 22.04.2022
4055 Clear 19 1013 20 10000 3.6 140 15:31 22.04.2022
4056 Clear 18 1011 19 10000 3.09 120 14:38 22.04.2022
4057 Clear 18 1012 20 10000 3.6 90 13:42 22.04.2022
4058 Clear 18 1011 21 10000 3.09 140 12:55 22.04.2022
4059 Clear 20 1012 19 10000 3.09 180 11:24 22.04.2022
4060 Clear 20 1012 19 10000 0.45 181 10:58 22.04.2022
4061 Clear 20 1012 19 10000 3.09 170 10:40 22.04.2022
4062 Clear 20 1012 18 10000 3.09 170 10:20 22.04.2022
4063 Clear 21 1012 18 10000 3.6 250 09:30 22.04.2022
4064 Clear 21 1013 19 10000 3.6 240 08:49 22.04.2022
4065 Clear 24 1012 17 10000 2.06 180 06:54 22.04.2022
4066 Clear 33 1012 6 10000 7.72 190 01:34 22.04.2022
4067 Clear 34 1012 8 10000 6.17 200 23:35 21.04.2022
4068 Clear 34 1013 8 10000 5.14 220 22:48 21.04.2022
4069 Clear 32 1014 9 10000 7.2 200 21:43 21.04.2022
4070 Clear 30 1014 10 10000 4.12 220 20:32 21.04.2022
4071 Clear 28 1015 10 10000 2.57 180 19:24 21.04.2022
4072 Clear 27 1015 14 10000 0.89 92 18:32 21.04.2022
4073 Clear 24 1015 17 10000 6.17 160 17:46 21.04.2022
4074 Clear 20 1014 22 10000 3.6 150 16:21 21.04.2022
4075 Clear 16 1015 24 10000 3.6 170 15:19 21.04.2022
4076 Clear 17 1014 23 10000 4.12 150 14:29 21.04.2022
4077 Clear 18 1013 22 10000 2.57 90 13:22 21.04.2022
4078 Clear 18 1013 21 10000 2.57 120 12:29 21.04.2022
4079 Clear 19 1014 23 10000 0.89 221 09:58 21.04.2022
4080 Clear 20 1014 21 10000 2.57 170 08:49 21.04.2022
4081 Clear 23 1013 16 10000 2.57 250 06:46 21.04.2022
4082 Clear 28 1011 11 10000 5.66 280 04:21 21.04.2022
4083 Clear 30 1011 9 10000 5.66 270 03:23 21.04.2022
4084 Clear 31 1011 8 10000 7.2 250 02:45 21.04.2022
4085 Clear 31 1011 8 10000 7.2 250 02:45 21.04.2022
4086 Clear 32 1011 8 10000 7.2 290 00:35 21.04.2022
4087 Clear 32 1011 8 10000 7.2 310 23:46 20.04.2022
4088 Clear 32 1012 7 10000 6.26 274 23:21 20.04.2022
4089 Clear 32 1012 7 10000 7.72 260 22:41 20.04.2022
4090 Clear 31 1012 7 10000 4.47 292 21:57 20.04.2022
4091 Clear 30 1013 8 10000 2.06 340 20:50 20.04.2022
4092 Clear 29 1014 9 10000 2.06 340 20:21 20.04.2022
4093 Clear 29 1013 8 10000 3.6 310 19:47 20.04.2022
4094 Clear 27 1015 10 10000 1.79 231 18:52 20.04.2022
4095 Clear 25 1013 14 10000 2.06 120 17:52 20.04.2022
4096 Clear 22 1014 18 10000 0.45 190 16:39 20.04.2022
4097 Clear 18 1012 19 10000 3.6 170 15:33 20.04.2022
4098 Clear 18 1012 18 10000 3.09 140 12:47 20.04.2022
4099 Clear 19 1010 17 10000 3.09 90 11:42 20.04.2022
4100 Clear 20 1010 17 10000 3.09 220 10:51 20.04.2022
4101 Clear 22 1011 15 10000 4.12 180 09:34 20.04.2022
4102 Clear 22 1011 14 10000 2.57 200 08:51 20.04.2022
4103 Clear 23 1012 13 10000 2.57 200 08:19 20.04.2022
4104 Clouds 26 1011 11 10000 3.09 240 06:26 20.04.2022
4105 Clouds 32 1009 7 10000 4.02 65 02:58 20.04.2022
4106 Clouds 33 1010 8 10000 9.77 270 00:22 20.04.2022
4107 Clouds 34 1011 7 10000 6.69 250 23:19 19.04.2022
4108 Clouds 34 1011 7 10000 2.24 307 22:24 19.04.2022
4109 Clouds 33 1012 8 10000 1.79 173 21:55 19.04.2022
4110 Clouds 33 1012 8 10000 1.79 173 21:55 19.04.2022
4111 Clouds 33 1013 8 10000 1.54 350 21:18 19.04.2022
4112 Clouds 31 1013 8 10000 0.89 60 20:37 19.04.2022
4113 Clouds 30 1014 9 10000 2.57 150 19:43 19.04.2022
4114 Clear 28 1013 12 10000 4.12 140 18:37 19.04.2022
4115 Clear 24 1014 15 10000 4.63 140 17:24 19.04.2022
4116 Clear 22 1014 14 10000 3.6 150 16:42 19.04.2022
4117 Clear 22 1014 14 10000 3.6 150 16:42 19.04.2022
4118 Clear 21 1014 13 10000 3.6 150 16:20 19.04.2022
4119 Clear 20 1014 13 10000 3.6 140 14:47 19.04.2022
4120 Clear 20 1014 12 10000 4.63 140 13:22 19.04.2022
4121 Clear 21 1014 14 10000 4.12 130 12:49 19.04.2022
4122 Clear 20 1012 13 10000 3.09 100 11:39 19.04.2022
4123 Clear 21 1013 12 10000 3.6 150 09:57 19.04.2022
4124 Clear 22 1012 12 10000 2.06 160 08:43 19.04.2022
4125 Clear 28 1012 6 10000 3.09 310 04:41 19.04.2022
4126 Clear 31 1011 7 10000 6.17 320 03:19 19.04.2022
4127 Clear 35 1011 4 10000 6.17 300 00:24 19.04.2022
4128 Clear 34 1013 5 10000 5.66 280 22:58 18.04.2022
4129 Clear 33 1014 7 10000 4.12 300 21:29 18.04.2022
4130 Clear 32 1014 8 10000 2.68 11 20:46 18.04.2022
4131 Clear 31 1014 9 10000 3.58 283 20:25 18.04.2022
4132 Clear 30 1015 10 10000 2.24 255 19:41 18.04.2022
4133 Clear 27 1015 12 10000 1.34 191 18:52 18.04.2022
4134 Clear 25 1017 14 10000 1.79 173 17:53 18.04.2022
4135 Clear 22 1018 16 10000 4.12 130 17:28 18.04.2022
4136 Clear 20 1016 16 10000 5.14 140 16:40 18.04.2022
4137 Clear 15 1015 17 10000 3.6 150 15:43 18.04.2022
4138 Clear 16 1015 18 10000 3.6 130 14:42 18.04.2022
4139 Clear 16 1015 18 10000 3.6 130 14:42 18.04.2022
4140 Clear 16 1015 18 10000 3.6 150 13:31 18.04.2022
4141 Clear 17 1015 16 10000 3.09 140 12:28 18.04.2022
4142 Clear 17 1016 18 10000 4.63 140 11:20 18.04.2022
4143 Clear 19 1015 17 10000 3.6 140 10:28 18.04.2022
4144 Clear 19 1016 16 10000 3.6 150 09:30 18.04.2022
4145 Clear 21 1016 15 10000 2.57 260 07:35 18.04.2022
4146 Clear 26 1014 11 10000 5.14 300 04:40 18.04.2022
4147 Clear 32 1016 5 10000 1.79 286 23:42 17.04.2022
4148 Clear 31 1017 6 10000 3.58 267 22:40 17.04.2022
4149 Clear 30 1017 8 10000 1.79 300 21:42 17.04.2022
4150 Clear 29 1018 8 10000 2.24 294 21:21 17.04.2022
4151 Clear 28 1019 10 10000 1.79 148 20:32 17.04.2022
4152 Clear 26 1020 12 10000 1.54 100 19:21 17.04.2022
4153 Clear 22 1019 17 10000 0.89 175 17:38 17.04.2022
4154 Clear 13 1018 23 10000 3.6 150 15:38 17.04.2022
4155 Clear 14 1019 22 10000 3.6 150 14:54 17.04.2022
4156 Clear 15 1017 21 10000 3.6 160 13:45 17.04.2022
4157 Clear 16 1017 20 10000 2.57 160 12:56 17.04.2022
4158 Clear 16 1016 20 10000 3.09 270 11:53 17.04.2022
4159 Clear 18 1017 18 10000 4.12 270 10:40 17.04.2022
4160 Clear 18 1017 18 10000 4.12 270 10:19 17.04.2022
4161 Clear 20 1017 16 10000 2.57 250 09:23 17.04.2022
4162 Clear 20 1016 15 10000 3.09 220 08:41 17.04.2022
4163 Clear 22 1015 13 10000 1.34 289 06:59 17.04.2022
4164 Clear 28 1014 8 10000 4.12 270 03:53 17.04.2022
4165 Clear 31 1013 7 10000 7.2 260 00:55 17.04.2022
4166 Clear 31 1014 7 10000 5.66 280 23:50 16.04.2022
4167 Clear 30 1015 8 10000 3.6 320 22:27 16.04.2022
4168 Clear 29 1016 8 10000 3.09 260 21:29 16.04.2022
4169 Clear 28 1016 9 10000 2.57 0 19:57 16.04.2022
4170 Clear 26 1017 9 10000 0.89 204 18:54 16.04.2022
4171 Clear 23 1016 13 10000 3.6 140 17:40 16.04.2022
4172 Clear 19 1015 17 10000 4.63 150 16:32 16.04.2022
4173 Clouds 17 1015 16 10000 4.63 130 15:40 16.04.2022
4174 Clear 15 1016 18 10000 4.12 130 14:51 16.04.2022
4175 Clouds 16 1014 18 10000 3.09 140 13:57 16.04.2022
4176 Clouds 16 1014 18 10000 3.09 140 13:26 16.04.2022
4177 Clear 17 1013 17 10000 3.09 110 12:18 16.04.2022
4178 Clear 17 1014 17 10000 4.12 180 10:42 16.04.2022
4179 Clear 18 1015 15 10000 2.57 170 09:43 16.04.2022
4180 Clouds 19 1014 15 10000 3.09 180 08:57 16.04.2022
4181 Clouds 21 1014 12 10000 2.06 160 07:32 16.04.2022
4182 Clear 21 1013 13 10000 2.57 260 06:46 16.04.2022
4183 Clouds 30 1011 7 10000 3.13 293 01:59 16.04.2022
4184 Clear 30 1012 7 10000 3.13 157 00:21 16.04.2022
4185 Clouds 29 1013 7 10000 4.63 340 22:54 15.04.2022
4186 Clouds 29 1013 7 10000 4.63 340 22:31 15.04.2022
4187 Clouds 28 1014 8 10000 2.57 280 21:47 15.04.2022
4188 Clouds 27 1014 8 10000 1.79 274 20:56 15.04.2022
4189 Clear 26 1015 8 10000 1.34 85 19:59 15.04.2022
4190 Clear 26 1015 9 10000 0.89 180 19:38 15.04.2022
4191 Clear 23 1014 12 10000 2.06 90 18:46 15.04.2022
4192 Clear 23 1014 12 10000 2.06 90 18:24 15.04.2022
4193 Clear 20 1014 15 10000 3.6 130 17:30 15.04.2022
4194 Clear 17 1012 19 10000 4.63 130 16:26 15.04.2022
4195 Clear 15 1013 17 10000 3.6 150 15:59 15.04.2022
4196 Clear 13 1013 18 10000 4.63 140 14:41 15.04.2022
4197 Clear 14 1013 17 10000 3.6 150 13:33 15.04.2022
4198 Clear 14 1013 17 10000 3.6 140 12:40 15.04.2022
4199 Clear 14 1012 16 10000 2.57 130 11:54 15.04.2022
4200 Clear 15 1012 15 10000 2.57 140 10:53 15.04.2022
4201 Clear 15 1012 16 10000 2.57 140 10:24 15.04.2022
4202 Clear 15 1012 15 10000 3.09 150 09:38 15.04.2022
4203 Clear 16 1012 15 10000 3.09 150 09:18 15.04.2022
4204 Clear 18 1013 13 10000 3.09 180 07:24 15.04.2022
4205 Clear 19 1012 12 10000 1.54 300 05:57 15.04.2022
4206 Clear 27 1011 6 10000 6.17 320 02:34 15.04.2022
4207 Clear 28 1013 10 10000 3.09 280 23:30 14.04.2022
4208 Clear 27 1014 5 10000 4.02 284 22:47 14.04.2022
4209 Clear 27 1014 4 10000 3.09 240 22:28 14.04.2022
4210 Clouds 26 1014 6 10000 1.79 271 21:57 14.04.2022
4211 Clear 24 1016 3 10000 2.06 250 20:35 14.04.2022
4212 Clear 22 1016 6 10000 1.79 164 19:22 14.04.2022
4213 Clear 19 1016 9 10000 3.6 140 18:18 14.04.2022
4214 Clear 16 1016 12 10000 5.66 160 17:28 14.04.2022
4215 Clear 14 1016 12 10000 5.14 150 16:33 14.04.2022
4216 Clear 9 1015 14 10000 3.6 130 14:27 14.04.2022
4217 Clear 10 1015 13 10000 3.6 140 13:39 14.04.2022
4218 Clear 10 1015 14 10000 3.09 140 12:51 14.04.2022
4219 Clear 10 1015 13 10000 3.09 140 12:30 14.04.2022
4220 Clear 10 1016 13 10000 4.12 140 11:23 14.04.2022
4221 Clear 11 1017 13 10000 3.09 160 10:36 14.04.2022
4222 Clear 12 1016 13 10000 2.06 110 09:56 14.04.2022
4223 Clear 12 1017 12 10000 1.54 180 08:40 14.04.2022
4224 Clear 14 1017 12 10000 1.54 250 06:51 14.04.2022
4225 Clear 21 1016 6 10000 6.17 310 02:53 14.04.2022
4226 Clear 21 1018 6 10000 4.12 250 22:56 13.04.2022
4227 Clear 20 1018 6 10000 4.02 237 21:44 13.04.2022
4228 Clear 19 1019 7 10000 2.24 235 20:55 13.04.2022
4229 Clear 18 1020 7 10000 2.24 267 20:22 13.04.2022
4230 Clear 17 1019 8 10000 2.57 160 19:24 13.04.2022
4231 Clear 15 1018 10 10000 1.34 0 18:19 13.04.2022
4232 Clear 13 1019 13 10000 2.06 120 17:23 13.04.2022
4233 Clear 11 1020 16 10000 1.34 144 16:34 13.04.2022
4234 Clear 7 1017 17 10000 4.12 140 15:38 13.04.2022
4235 Clear 6 1017 19 10000 3.09 170 14:50 13.04.2022
4236 Clear 7 1017 18 10000 3.09 170 14:19 13.04.2022
4237 Clear 7 1016 19 10000 2.57 200 13:19 13.04.2022
4238 Clear 8 1016 18 10000 2.57 190 12:25 13.04.2022
4239 Clear 10 1015 14 10000 4.12 250 10:47 13.04.2022
4240 Clear 12 1014 14 10000 5.14 310 08:58 13.04.2022
4241 Clear 13 1013 13 10000 5.14 310 08:33 13.04.2022
4242 Clear 15 1013 12 10000 7.2 290 06:51 13.04.2022
4243 Clear 15 1013 14 10000 7.2 290 06:25 13.04.2022
4244 Clear 16 1011 16 10000 9.26 300 05:20 13.04.2022
4245 Clear 23 1008 29 10000 11.32 260 00:21 13.04.2022
4246 Clear 24 1009 29 10000 10.8 280 23:29 12.04.2022
4247 Clear 23 1009 33 10000 7.72 240 21:58 12.04.2022
4248 Clear 22 1010 36 10000 7.72 270 20:57 12.04.2022
4249 Clear 22 1010 37 10000 7.72 270 20:38 12.04.2022
4250 Clear 21 1010 37 10000 8.23 280 19:48 12.04.2022
4251 Clear 21 1010 36 10000 8.23 280 19:29 12.04.2022
4252 Clear 21 1010 36 10000 8.23 280 19:29 12.04.2022
4253 Clear 20 1010 32 10000 6.71 275 17:59 12.04.2022
4254 Clear 19 1010 33 10000 2.24 205 16:58 12.04.2022
4255 Clear 18 1009 35 10000 5.66 210 16:19 12.04.2022
4256 Clear 16 1009 36 10000 5.14 200 15:26 12.04.2022
4257 Clear 16 1008 35 10000 5.66 220 14:21 12.04.2022
4258 Clear 17 1008 34 10000 9.26 200 13:28 12.04.2022
4259 Clear 17 1007 34 10000 4.63 220 12:49 12.04.2022
4260 Clear 18 1008 35 10000 6.69 230 11:46 12.04.2022
4261 Clear 19 1009 34 10000 5.66 190 10:32 12.04.2022
4262 Clear 20 1009 35 10000 7.2 200 08:57 12.04.2022
4263 Clear 20 1008 34 10000 8.23 200 07:51 12.04.2022
4264 Clear 23 1007 31 10000 6.17 260 05:49 12.04.2022
4265 Clear 24 1007 30 10000 9.77 220 04:46 12.04.2022
4266 Clear 30 1007 18 10000 7.72 230 23:53 11.04.2022
4267 Clear 29 1008 18 10000 6.69 190 22:44 11.04.2022
4268 Clear 28 1009 18 10000 7.2 190 21:37 11.04.2022
4269 Clear 28 1009 19 10000 7.72 240 20:55 11.04.2022
4270 Clear 27 1010 19 10000 7.72 200 20:28 11.04.2022
4271 Clear 26 1011 23 10000 8.75 200 19:37 11.04.2022
4272 Clear 25 1011 25 10000 8.75 200 19:18 11.04.2022
4273 Clear 24 1011 29 10000 9.26 200 18:40 11.04.2022
4274 Clear 22 1011 32 10000 6.17 190 17:56 11.04.2022
4275 Clear 20 1010 37 10000 4.02 151 16:54 11.04.2022
4276 Clear 18 1010 43 10000 3.13 158 15:45 11.04.2022
4277 Clear 17 1010 41 10000 3.6 170 13:53 11.04.2022
4278 Clear 18 1009 39 10000 2.57 190 12:44 11.04.2022
4279 Clear 18 1009 38 10000 2.57 190 12:25 11.04.2022
4280 Clouds 19 1009 40 10000 2.68 181 10:58 11.04.2022
4281 Clouds 20 1009 37 10000 3.13 184 09:58 11.04.2022
4282 Clear 21 1009 29 10000 5.66 230 08:24 11.04.2022
4283 Clear 24 1008 23 10000 6.69 230 05:38 11.04.2022
4284 Clear 30 1006 12 10000 6.71 269 00:57 11.04.2022
4285 Clear 30 1008 13 10000 6.69 250 22:33 10.04.2022
4286 Clear 30 1008 14 10000 5.14 260 21:54 10.04.2022
4287 Clear 29 1009 14 10000 5.14 260 21:26 10.04.2022
4288 Clear 28 1009 17 10000 9.26 230 20:25 10.04.2022
4289 Clear 27 1010 19 10000 6.17 200 19:37 10.04.2022
4290 Clear 25 1010 23 10000 7.72 210 18:50 10.04.2022
4291 Clear 25 1010 24 10000 7.72 210 18:30 10.04.2022
4292 Clear 23 1010 26 10000 3.6 160 17:49 10.04.2022
4293 Clear 22 1009 30 10000 2.24 134 16:59 10.04.2022
4294 Clear 18 1010 35 10000 4.63 200 15:41 10.04.2022
4295 Clear 18 1009 33 10000 5.14 180 14:42 10.04.2022
4296 Clear 19 1009 31 10000 5.14 220 13:45 10.04.2022
4297 Clear 20 1008 30 10000 3.6 220 12:32 10.04.2022
4298 Clear 20 1008 26 10000 4.12 230 11:44 10.04.2022
4299 Clear 21 1008 25 10000 4.12 230 11:20 10.04.2022
4300 Clear 21 1008 19 10000 3.09 200 10:34 10.04.2022
4301 Clear 22 1009 15 10000 4.63 160 09:41 10.04.2022
4302 Clouds 23 1009 13 10000 3.6 190 08:28 10.04.2022
4303 Clear 23 1009 13 10000 4.63 260 07:57 10.04.2022
4304 Clouds 25 1009 13 10000 3.58 245 06:59 10.04.2022
4305 Clear 29 1007 8 10000 6.17 230 03:38 10.04.2022
4306 Clear 31 1007 7 10000 5.66 240 02:19 10.04.2022
4307 Clear 33 1009 6 10000 6.17 260 23:53 09.04.2022
4308 Clear 33 1010 6 10000 6.69 240 22:55 09.04.2022
4309 Clear 33 1010 6 10000 6.69 240 22:54 09.04.2022
4310 Clear 33 1010 5 10000 6.71 269 22:33 09.04.2022
4311 Clear 32 1012 7 10000 5.66 270 21:19 09.04.2022
4312 Clear 31 1013 8 10000 2.24 288 20:30 09.04.2022
4313 Clear 30 1013 8 10000 5.14 210 19:56 09.04.2022
4314 Clear 30 1014 9 10000 6.17 150 19:38 09.04.2022
4315 Clear 26 1014 10 10000 6.69 170 18:23 09.04.2022
4316 Clear 24 1014 12 10000 4.63 140 17:48 09.04.2022
4317 Clear 22 1012 13 10000 6.17 140 16:56 09.04.2022
4318 Clear 20 1013 15 10000 6.17 140 16:38 09.04.2022
4319 Clear 18 1013 12 10000 5.66 150 15:49 09.04.2022
4320 Clear 19 1013 12 10000 5.66 150 15:49 09.04.2022
4321 Clear 19 1013 12 10000 5.66 150 15:49 09.04.2022
4322 Clear 19 1013 12 10000 5.66 150 15:49 09.04.2022
4323 Clear 18 1013 14 10000 5.66 150 15:25 09.04.2022
4324 Clear 19 1014 13 10000 5.14 130 14:25 09.04.2022
4325 Clear 20 1014 12 10000 4.63 130 13:26 09.04.2022
4326 Clear 21 1012 11 10000 5.66 140 12:53 09.04.2022
4327 Clear 20 1013 11 10000 6.17 140 11:44 09.04.2022
4328 Clear 20 1013 11 10000 5.14 140 10:41 09.04.2022
4329 Clear 20 1014 10 10000 5.14 140 10:18 09.04.2022
4330 Clear 22 1013 9 10000 3.09 100 09:22 09.04.2022
4331 Clear 23 1013 10 10000 4.12 140 07:49 09.04.2022
4332 Clear 30 1011 6 10000 0.89 24 03:57 09.04.2022
4333 Clear 33 1013 8 10000 4.63 70 00:33 09.04.2022
4334 Clear 33 1014 4 10000 3.09 130 23:20 08.04.2022
4335 Clear 32 1015 4 10000 7.2 100 21:42 08.04.2022
4336 Clear 31 1017 4 10000 9.26 120 20:41 08.04.2022
4337 Clear 29 1017 5 10000 10.29 110 19:41 08.04.2022
4338 Clear 28 1018 6 10000 7.2 120 18:38 08.04.2022
4339 Clear 27 1018 6 10000 7.2 120 18:18 08.04.2022
4340 Clear 24 1018 9 10000 2.24 174 17:27 08.04.2022
4341 Clear 23 1017 10 10000 4.63 110 16:52 08.04.2022
4342 Clear 19 1016 12 10000 4.63 110 16:22 08.04.2022
4343 Clear 19 1018 10 10000 4.12 110 15:28 08.04.2022
4344 Clear 18 1016 9 10000 4.63 120 14:44 08.04.2022
4345 Clear 19 1014 10 10000 4.06 89 13:59 08.04.2022
4346 Clear 19 1016 9 10000 4.63 110 13:30 08.04.2022
4347 Clear 19 1016 10 10000 3.6 120 12:45 08.04.2022
4348 Clear 20 1017 10 10000 3.09 130 10:56 08.04.2022
4349 Clear 21 1017 10 10000 3.6 170 09:41 08.04.2022
4350 Clear 21 1014 10 10000 2.5 96 08:59 08.04.2022
4351 Clear 22 1016 10 10000 2.06 160 07:42 08.04.2022
4352 Clear 23 1017 9 10000 2.06 110 06:44 08.04.2022
4353 Clear 31 1014 5 10000 2.24 64 02:37 08.04.2022
4354 Clear 32 1017 5 10000 4.63 20 00:29 08.04.2022
4355 Clear 32 1017 4 10000 5.36 93 23:42 07.04.2022
4356 Clear 31 1018 5 10000 4.12 50 22:41 07.04.2022
4357 Clear 31 1018 5 10000 4.12 50 22:23 07.04.2022
4358 Clear 30 1018 5 10000 3.58 51 21:58 07.04.2022
4359 Clear 30 1019 5 10000 2.24 109 21:28 07.04.2022
4360 Clear 29 1019 5 10000 3.58 117 20:42 07.04.2022
4361 Clear 27 1020 6 10000 3.09 0 19:51 07.04.2022
4362 Clear 21 1020 10 10000 4.12 90 17:29 07.04.2022
4363 Clear 20 1019 11 10000 0.45 0 16:59 07.04.2022
4364 Clear 19 1019 12 10000 3.09 110 16:33 07.04.2022
4365 Clear 17 1020 12 10000 2.57 50 15:40 07.04.2022
4366 Clear 18 1018 10 10000 2.57 150 13:54 07.04.2022
4367 Clear 18 1019 10 10000 2.57 150 13:23 07.04.2022
4368 Clear 19 1019 11 10000 2.06 280 11:52 07.04.2022
4369 Clear 20 1019 12 10000 1.34 316 10:54 07.04.2022
4370 Clear 22 1018 13 10000 8.23 50 08:44 07.04.2022
4371 Clear 24 1018 14 10000 3.58 331 06:59 07.04.2022
4372 Clear 25 1017 20 10000 4.47 326 05:21 07.04.2022
4373 Clear 30 1015 13 10000 7.2 280 02:34 07.04.2022
4374 Clear 31 1016 12 10000 5.66 360 00:43 07.04.2022
4375 Clear 31 1016 13 10000 5.14 280 23:36 06.04.2022
4376 Clear 30 1017 14 10000 6.17 290 22:44 06.04.2022
4377 Clear 30 1016 15 10000 6.17 290 22:20 06.04.2022
4378 Clear 28 1017 19 10000 5.14 310 20:47 06.04.2022
4379 Clear 27 1017 20 10000 4.02 302 19:59 06.04.2022
4380 Clear 26 1018 21 10000 4.02 269 19:24 06.04.2022
4381 Clear 26 1017 23 10000 1.34 175 18:48 06.04.2022
4382 Clear 22 1018 29 10000 3.6 140 17:36 06.04.2022
4383 Clear 21 1015 32 10000 0.89 138 16:56 06.04.2022
4384 Clear 19 1014 35 10000 0.45 86 16:32 06.04.2022
4385 Clear 16 1016 37 10000 2.57 130 15:43 06.04.2022
4386 Clear 17 1014 36 10000 3.09 160 13:48 06.04.2022
4387 Clear 17 1014 35 10000 3.09 140 12:30 06.04.2022
4388 Clear 19 1014 31 10000 0.45 0 10:57 06.04.2022
4389 Clear 19 1014 31 10000 1.54 110 10:33 06.04.2022
4390 Clear 20 1013 30 10000 1.34 355 09:59 06.04.2022
4391 Clear 21 1013 29 10000 1.79 268 08:59 06.04.2022
4392 Clear 22 1013 27 10000 2.24 254 07:59 06.04.2022
4393 Clear 25 1011 23 10000 2.57 290 05:45 06.04.2022
4394 Clear 30 1011 16 10000 6.17 300 00:45 06.04.2022
4395 Clear 30 1011 17 10000 5.14 300 23:48 05.04.2022
4396 Clear 28 1013 19 10000 4.92 273 21:58 05.04.2022
4397 Clear 28 1013 20 10000 4.47 220 21:18 05.04.2022
4398 Clear 26 1014 24 10000 4.12 280 20:24 05.04.2022
4399 Clear 23 1014 30 10000 0.89 155 18:32 05.04.2022
4400 Clear 20 1014 36 10000 2.57 170 17:22 05.04.2022
4401 Clear 18 1013 38 10000 3.09 150 16:43 05.04.2022
4402 Clear 15 1014 42 10000 3.6 150 15:51 05.04.2022
4403 Clear 15 1014 43 10000 3.6 150 15:31 05.04.2022
4404 Clear 16 1014 42 10000 3.09 180 13:49 05.04.2022
4405 Clear 16 1012 42 10000 3.6 110 12:39 05.04.2022
4406 Clear 16 1013 40 10000 2.57 180 11:43 05.04.2022
4407 Clear 17 1013 38 10000 2.57 180 11:25 05.04.2022
4408 Clear 17 1013 38 10000 2.57 180 11:25 05.04.2022
4409 Clear 17 1013 37 10000 3.09 100 09:40 05.04.2022
4410 Clear 18 1013 35 10000 2.57 200 08:47 05.04.2022
4411 Clear 24 1010 25 10000 5.14 290 04:19 05.04.2022
4412 Clear 27 1010 20 10000 7.6 300 23:45 04.04.2022
4413 Clear 26 1010 22 10000 6.17 310 22:38 04.04.2022
4414 Clear 26 1011 24 10000 5.81 290 21:51 04.04.2022
4415 Clear 25 1011 25 10000 4.47 344 21:20 04.04.2022
4416 Clear 25 1011 27 10000 2.57 0 20:47 04.04.2022
4417 Clear 22 1012 32 10000 0.89 197 19:30 04.04.2022
4418 Clear 21 1011 35 10000 0.89 0 18:44 04.04.2022
4419 Clear 18 1011 43 10000 3.09 160 17:21 04.04.2022
4420 Clouds 16 1008 47 10000 0.89 126 16:34 04.04.2022
4421 Clear 13 1010 52 10000 3.6 80 15:34 04.04.2022
4422 Clear 13 1009 53 10000 2.57 160 14:46 04.04.2022
4423 Clear 13 1010 53 10000 2.57 160 14:28 04.04.2022
4424 Clear 14 1007 48 10000 0.45 40 12:59 04.04.2022
4425 Clear 15 1009 44 10000 1.54 90 11:29 04.04.2022
4426 Clear 16 1010 43 10000 2.57 240 10:29 04.04.2022
4427 Clear 20 1008 25 10000 2.24 288 06:58 04.04.2022
4428 Clear 27 1007 14 10000 6.69 260 03:18 04.04.2022
4429 Clear 28 1009 14 10000 5.66 300 23:47 03.04.2022
4430 Clear 28 1011 15 10000 4.63 270 22:24 03.04.2022
4431 Clear 27 1012 15 10000 5.14 210 21:32 03.04.2022
4432 Clear 26 1013 16 10000 5.14 220 20:36 03.04.2022
4433 Clear 24 1014 20 10000 2.24 129 19:29 03.04.2022
4434 Clouds 22 1014 28 10000 2.06 160 18:26 03.04.2022
4435 Clouds 20 1014 32 10000 3.09 160 17:41 03.04.2022
4436 Clear 18 1012 38 10000 3.6 130 16:50 03.04.2022
4437 Clouds 16 1015 40 10000 1.25 157 15:59 03.04.2022
4438 Clear 14 1013 42 10000 2.57 150 14:27 03.04.2022
4439 Clear 14 1014 41 10000 2.57 150 13:38 03.04.2022
4440 Clouds 16 1012 37 10000 0.89 76 11:59 03.04.2022
4441 Clear 18 1014 34 10000 3.09 110 10:22 03.04.2022
4442 Clear 18 1015 31 10000 2.06 150 09:19 03.04.2022
4443 Clear 21 1014 25 10000 2.06 280 06:41 03.04.2022
4444 Clear 27 1013 15 10000 5.14 250 03:37 03.04.2022
4445 Clear 30 1013 12 10000 3.09 330 00:29 03.04.2022
4446 Clear 29 1015 12 10000 4.63 210 22:52 02.04.2022
4447 Clear 28 1015 13 10000 2.68 21 21:57 02.04.2022
4448 Clear 27 1017 13 10000 6.17 180 21:26 02.04.2022
4449 Clear 27 1017 14 10000 4.12 210 20:41 02.04.2022
4450 Clear 24 1017 25 10000 1.34 154 18:51 02.04.2022
4451 Clear 22 1017 27 10000 2.57 190 18:20 02.04.2022
4452 Clear 20 1017 31 10000 3.09 160 17:43 02.04.2022
4453 Clear 16 1015 38 10000 1.42 146 15:59 02.04.2022
4454 Clear 15 1017 41 10000 3.6 160 15:21 02.04.2022
4455 Clear 15 1017 40 10000 3.6 130 14:42 02.04.2022
4456 Clear 15 1015 38 10000 3.6 150 13:34 02.04.2022
4457 Clear 16 1015 36 10000 2.57 150 12:34 02.04.2022
4458 Clear 17 1015 33 10000 2.06 160 10:50 02.04.2022
4459 Clear 18 1014 28 10000 3.09 210 08:44 02.04.2022
4460 Clear 19 1014 24 10000 2.06 140 06:43 02.04.2022
4461 Clear 26 1011 15 10000 1.34 341 03:39 02.04.2022
4462 Clouds 28 1011 11 10000 3.09 130 23:55 01.04.2022
4463 Clouds 27 1012 11 10000 3.09 130 23:18 01.04.2022
4464 Clear 25 1013 15 10000 3.09 270 21:32 01.04.2022
4465 Clear 25 1013 18 10000 1.34 121 20:50 01.04.2022
4466 Clear 24 1013 21 10000 1.79 164 19:51 01.04.2022
4467 Clear 23 1013 22 10000 1.34 178 19:30 01.04.2022
4468 Clear 21 1013 28 10000 3.09 0 18:44 01.04.2022
4469 Clear 19 1012 34 10000 3.6 160 17:46 01.04.2022
4470 Clear 15 1011 40 10000 4.12 140 16:42 01.04.2022
4471 Clear 12 1011 45 10000 4.63 130 15:23 01.04.2022
4472 Clear 14 1011 43 10000 3.09 130 14:19 01.04.2022
4473 Clear 14 1009 41 10000 3.09 140 13:33 01.04.2022
4474 Clear 14 1009 39 10000 3.09 130 12:32 01.04.2022
4475 Clear 15 1009 38 10000 4.12 130 11:33 01.04.2022
4476 Clear 15 1009 36 10000 3.09 130 10:18 01.04.2022
4477 Clear 16 1010 32 10000 3.09 190 08:30 01.04.2022
4478 Clear 19 1008 27 10000 2.06 230 06:39 01.04.2022
4479 Clear 21 1007 25 10000 3.09 280 04:47 01.04.2022
4480 Clear 22 1007 24 10000 3.09 280 04:28 01.04.2022
4481 Clear 26 1008 20 10000 4.12 290 01:54 01.04.2022
4482 Clouds 25 1010 22 10000 2.24 79 22:58 31.03.2022
4483 Clear 24 1011 23 10000 2.57 180 21:50 31.03.2022
4484 Clear 24 1012 24 10000 2.57 180 21:31 31.03.2022
4485 Clear 23 1013 27 10000 2.24 92 20:29 31.03.2022
4486 Clear 22 1013 31 10000 1.54 0 19:47 31.03.2022
4487 Clear 20 1013 38 10000 2.24 198 18:43 31.03.2022
4488 Clear 17 1013 45 10000 3.6 150 17:41 31.03.2022
4489 Clear 15 1014 52 10000 3.6 140 16:34 31.03.2022
4490 Clear 12 1013 56 10000 3.6 150 15:35 31.03.2022
4491 Clear 12 1012 55 10000 2.06 130 14:54 31.03.2022
4492 Clear 12 1012 55 10000 3.09 160 14:20 31.03.2022
4493 Clear 13 1012 54 10000 3.09 140 11:32 31.03.2022
4494 Clear 13 1013 52 10000 3.09 160 10:41 31.03.2022
4495 Clear 13 1012 51 10000 4.63 280 09:44 31.03.2022
4496 Clear 15 1013 44 10000 2.57 230 07:49 31.03.2022
4497 Clear 20 1012 31 10000 4.47 328 03:57 31.03.2022
4498 Clouds 22 1014 30 10000 6.26 293 23:27 30.03.2022
4499 Clouds 21 1015 33 10000 6.17 270 22:20 30.03.2022
4500 Clear 20 1016 35 10000 4.47 262 21:32 30.03.2022
4501 Clear 19 1017 37 10000 3.58 8 20:44 30.03.2022
4502 Clouds 18 1017 41 10000 3.58 280 19:57 30.03.2022
4503 Clear 17 1017 49 10000 1.34 264 18:50 30.03.2022
4504 Clear 16 1017 49 10000 1.34 264 18:50 30.03.2022
4505 Clear 15 1017 56 10000 1.34 120 17:52 30.03.2022
4506 Clear 15 1017 57 10000 1.34 120 17:52 30.03.2022
4507 Clouds 14 1017 62 10000 2.06 170 17:29 30.03.2022
4508 Clouds 12 1017 73 10000 1.79 168 16:41 30.03.2022
4509 Clouds 10 1016 78 10000 2.57 160 16:19 30.03.2022
4510 Clouds 10 1016 81 10000 1.54 160 14:47 30.03.2022
4511 Clouds 10 1015 80 10000 3.09 140 13:26 30.03.2022
4512 Clouds 10 1015 80 10000 2.06 190 12:32 30.03.2022
4513 Clouds 10 1015 79 10000 1.54 130 10:48 30.03.2022
4514 Clouds 10 1014 80 10000 1.54 130 09:58 30.03.2022
4515 Clear 10 1015 79 10000 1.54 140 08:28 30.03.2022
4516 Clear 10 1014 78 10000 2.57 130 07:29 30.03.2022
4517 Clouds 11 1014 76 10000 3.6 170 05:40 30.03.2022
4518 Clouds 13 1012 63 10000 6.17 230 02:40 30.03.2022
4519 Rain 15 1010 60 10000 6.69 220 22:43 29.03.2022
4520 Drizzle 15 1010 62 10000 8.75 220 21:58 29.03.2022
4521 Rain 15 1012 59 10000 7.2 240 21:37 29.03.2022
4522 Clouds 13 1010 77 10000 5.14 240 20:30 29.03.2022
4523 Clouds 13 1011 67 10000 5.14 250 19:34 29.03.2022
4524 Drizzle 13 1012 67 10000 7.72 220 18:53 29.03.2022
4525 Clouds 14 1011 58 10000 6.17 220 17:52 29.03.2022
4526 Clouds 14 1011 62 10000 4.63 200 17:19 29.03.2022
4527 Clouds 13 1011 65 10000 5.66 190 16:53 29.03.2022
4528 Clouds 13 1011 67 10000 5.14 200 15:41 29.03.2022
4529 Clouds 13 1010 63 10000 5.14 150 14:43 29.03.2022
4530 Clouds 13 1010 60 10000 6.17 160 13:35 29.03.2022
4531 Clouds 14 1010 54 10000 6.17 200 12:22 29.03.2022
4532 Clouds 15 1010 47 10000 4.63 160 11:18 29.03.2022
4533 Clouds 16 1011 38 10000 3.58 258 09:58 29.03.2022
4534 Clouds 18 1010 33 10000 3.09 200 08:44 29.03.2022
4535 Clear 17 1010 43 10000 5.66 180 06:48 29.03.2022
4536 Clouds 24 1009 14 10000 6.17 200 02:27 29.03.2022
4537 Clouds 25 1011 12 10000 3.13 159 23:37 28.03.2022
4538 Clouds 25 1012 13 10000 2.68 174 22:57 28.03.2022
4539 Clouds 24 1013 13 10000 3.6 160 22:31 28.03.2022
4540 Clouds 24 1013 14 10000 3.6 160 21:38 28.03.2022
4541 Clouds 24 1014 13 10000 2.06 230 20:32 28.03.2022
4542 Clouds 23 1014 14 10000 1.54 0 19:48 28.03.2022
4543 Clouds 23 1014 15 10000 1.54 0 19:30 28.03.2022
4544 Clear 22 1014 16 10000 1.54 0 18:50 28.03.2022
4545 Clouds 21 1015 17 10000 3.6 160 17:41 28.03.2022
4546 Clouds 19 1014 18 10000 2.06 120 16:48 28.03.2022
4547 Clouds 16 1013 21 10000 3.6 180 14:56 28.03.2022
4548 Clouds 16 1013 21 10000 4.63 180 14:23 28.03.2022
4549 Clear 17 1014 21 10000 4.12 160 13:18 28.03.2022
4550 Haze 18 1013 19 6437 2.57 90 11:43 28.03.2022
4551 Clear 19 1014 16 10000 2.06 170 09:55 28.03.2022
4552 Clear 19 1013 16 10000 4.12 170 09:20 28.03.2022
4553 Clear 20 1014 14 10000 3.6 120 08:23 28.03.2022
4554 Clear 20 1014 15 10000 1.34 167 07:56 28.03.2022
4555 Clear 22 1013 13 10000 3.09 180 06:30 28.03.2022
4556 Clear 33 1011 6 10000 4.63 280 00:19 28.03.2022
4557 Clear 32 1011 6 10000 2.24 37 22:34 27.03.2022
4558 Clear 31 1013 7 10000 3.09 150 21:42 27.03.2022
4559 Clouds 30 1013 7 10000 1.34 171 20:58 27.03.2022
4560 Clear 29 1015 7 10000 2.24 183 20:18 27.03.2022
4561 Clear 27 1014 10 10000 2.57 170 19:34 27.03.2022
4562 Clear 23 1014 13 10000 4.63 130 18:30 27.03.2022
4563 Clouds 22 1014 14 10000 2.68 236 17:55 27.03.2022
4564 Clear 21 1014 13 10000 5.14 130 17:35 27.03.2022
4565 Clear 16 1013 14 10000 5.14 140 15:39 27.03.2022
4566 Clear 17 1012 14 10000 4.12 130 13:57 27.03.2022
4567 Clear 17 1013 15 10000 4.63 140 12:50 27.03.2022
4568 Clear 19 1013 13 10000 4.63 150 11:30 27.03.2022
4569 Clear 19 1012 14 10000 2.57 120 09:32 27.03.2022
4570 Clear 22 1012 15 10000 3.09 240 06:44 27.03.2022
4571 Clear 32 1012 8 10000 8.23 300 01:41 27.03.2022
4572 Clear 33 1011 6 10000 4.63 240 00:25 27.03.2022
4573 Clear 33 1012 6 10000 3.13 3 22:45 26.03.2022
4574 Clouds 33 1013 6 10000 3.09 240 21:50 26.03.2022
4575 Clouds 33 1013 6 10000 3.09 240 21:26 26.03.2022
4576 Clear 30 1014 10 10000 2.06 170 19:31 26.03.2022
4577 Clear 27 1016 13 10000 2.06 180 18:24 26.03.2022
4578 Clear 25 1016 15 10000 4.12 160 17:33 26.03.2022
4579 Clear 21 1014 18 10000 5.66 140 16:27 26.03.2022
4580 Clear 17 1015 18 10000 6.17 140 15:35 26.03.2022
4581 Clouds 17 1013 20 10000 2.5 115 13:55 26.03.2022
4582 Clear 17 1016 21 10000 3.6 140 13:19 26.03.2022
4583 Clear 19 1016 18 10000 3.09 140 11:42 26.03.2022
4584 Clear 19 1017 17 10000 3.09 140 10:32 26.03.2022
4585 Clear 20 1015 17 10000 4.12 100 08:44 26.03.2022
4586 Clear 23 1015 16 10000 3.6 160 06:30 26.03.2022
4587 Clear 24 1015 14 10000 2.06 340 05:28 26.03.2022
4588 Clear 32 1014 7 10000 2.06 0 00:30 26.03.2022
4589 Clouds 32 1016 7 10000 1.34 162 21:56 25.03.2022
4590 Clear 31 1017 8 10000 3.09 0 20:46 25.03.2022
4591 Clear 30 1017 8 10000 3.09 0 20:20 25.03.2022
4592 Clear 27 1018 11 10000 1.34 291 18:51 25.03.2022
4593 Clear 24 1019 15 10000 3.09 120 17:49 25.03.2022
4594 Clear 22 1019 16 10000 3.09 120 17:27 25.03.2022
4595 Clear 19 1019 18 10000 4.12 150 16:19 25.03.2022
4596 Clear 15 1019 19 10000 4.12 130 14:49 25.03.2022
4597 Clear 14 1017 22 10000 5.14 130 13:24 25.03.2022
4598 Clear 16 1018 19 10000 2.06 140 10:35 25.03.2022
4599 Clear 16 1019 19 10000 2.57 130 09:28 25.03.2022
4600 Clear 17 1018 18 10000 2.57 130 08:24 25.03.2022
4601 Clear 17 1018 18 10000 3.6 120 07:28 25.03.2022
4602 Clear 18 1017 17 10000 1.54 160 06:29 25.03.2022
4603 Clear 27 1016 8 10000 4.92 313 01:32 25.03.2022
4604 Clear 28 1017 8 10000 3.13 6 22:53 24.03.2022
4605 Clear 28 1018 8 10000 2.68 309 21:52 24.03.2022
4606 Clear 26 1019 8 10000 2.24 262 20:37 24.03.2022
4607 Clear 25 1020 9 10000 1.79 194 19:47 24.03.2022
4608 Clear 19 1021 16 10000 2.06 140 17:48 24.03.2022
4609 Clear 18 1021 17 10000 2.57 170 17:23 24.03.2022
4610 Clear 15 1019 19 10000 2.09 111 15:45 24.03.2022
4611 Clear 11 1021 22 10000 4.12 140 14:50 24.03.2022
4612 Clear 10 1021 23 10000 4.12 140 14:19 24.03.2022
4613 Clear 10 1021 22 10000 3.6 140 13:24 24.03.2022
4614 Clear 11 1021 23 10000 3.6 140 11:52 24.03.2022
4615 Clear 12 1021 20 10000 2.57 110 10:18 24.03.2022
4616 Clear 12 1020 21 10000 3.09 130 08:49 24.03.2022
4617 Clear 14 1020 18 10000 2.57 270 06:49 24.03.2022
4618 Clear 18 1019 13 10000 3.13 289 03:57 24.03.2022
4619 Clear 23 1020 8 10000 5.14 290 23:20 23.03.2022
4620 Clear 22 1021 10 10000 4.02 325 21:40 23.03.2022
4621 Clear 21 1021 11 10000 3.13 10 21:18 23.03.2022
4622 Clear 20 1022 13 10000 6.69 30 19:46 23.03.2022
4623 Clear 19 1022 13 10000 3.58 74 18:55 23.03.2022
4624 Clear 17 1022 14 10000 5.14 70 17:37 23.03.2022
4625 Clear 16 1022 15 10000 7.2 60 16:39 23.03.2022
4626 Clear 12 1021 19 10000 6.17 40 14:51 23.03.2022
4627 Clear 12 1021 18 10000 6.17 40 14:26 23.03.2022
4628 Clear 14 1020 15 10000 8.23 30 12:54 23.03.2022
4629 Clear 15 1019 15 10000 2.68 27 09:45 23.03.2022
4630 Clear 14 1018 24 10000 2.57 120 06:48 23.03.2022
4631 Clear 15 1017 21 10000 1.54 210 05:23 23.03.2022
4632 Clear 23 1015 14 10000 7.72 280 00:29 23.03.2022
4633 Clear 23 1016 13 10000 4.63 320 23:39 22.03.2022
4634 Clear 22 1017 14 10000 7.2 310 21:30 22.03.2022
4635 Clear 21 1017 14 10000 4.47 0 20:45 22.03.2022
4636 Clear 20 1017 17 10000 3.6 10 19:43 22.03.2022
4637 Clear 20 1018 18 10000 3.6 10 19:23 22.03.2022
4638 Clear 18 1018 21 10000 2.68 231 18:38 22.03.2022
4639 Clear 16 1018 26 10000 1.34 197 17:37 22.03.2022
4640 Clear 13 1017 34 10000 0.52 22 16:27 22.03.2022
4641 Clear 10 1017 38 10000 3.09 160 15:23 22.03.2022
4642 Clear 8 1015 43 10000 4.12 140 14:47 22.03.2022
4643 Clear 8 1015 41 10000 4.12 140 14:27 22.03.2022
4644 Clear 10 1016 34 10000 3.6 150 13:36 22.03.2022
4645 Clear 10 1015 32 10000 3.09 130 11:52 22.03.2022
4646 Clear 10 1015 34 10000 4.63 140 10:44 22.03.2022
4647 Clear 11 1015 35 10000 3.09 170 08:36 22.03.2022
4648 Clear 12 1015 32 10000 2.06 210 06:53 22.03.2022
4649 Clear 16 1014 24 10000 3.6 290 03:49 22.03.2022
4650 Clear 19 1013 23 10000 6.69 300 00:28 22.03.2022
4651 Clear 19 1013 27 10000 7.72 270 22:42 21.03.2022
4652 Clear 17 1014 28 10000 6.17 230 21:18 21.03.2022
4653 Clear 17 1014 28 10000 8.23 290 20:40 21.03.2022
4654 Clear 16 1014 29 10000 3.58 262 19:58 21.03.2022
4655 Clear 16 1014 30 10000 7.6 297 19:34 21.03.2022
4656 Clear 15 1015 41 10000 6.69 280 18:31 21.03.2022
4657 Clear 13 1014 60 10000 4.12 280 17:19 21.03.2022
4658 Clouds 12 1013 69 10000 0.89 77 16:44 21.03.2022
4659 Clouds 10 1013 81 10000 0.89 229 15:55 21.03.2022
4660 Clouds 9 1013 86 10000 0.45 96 15:19 21.03.2022
4661 Clouds 9 1012 86 10000 3.6 150 14:25 21.03.2022
4662 Clouds 9 1012 84 10000 2.06 220 12:42 21.03.2022
4663 Clouds 9 1010 84 10000 3.09 250 11:53 21.03.2022
4664 Rain 10 1011 76 10000 6.26 287 10:40 21.03.2022
4665 Clouds 10 1011 76 10000 3.09 110 08:55 21.03.2022
4666 Clouds 10 1012 75 10000 5.14 140 06:54 21.03.2022
4667 Clouds 14 1011 54 10000 5.66 310 02:52 21.03.2022
4668 Clouds 17 1011 38 10000 8.75 300 00:19 21.03.2022
4669 Clouds 18 1011 30 10000 6.17 280 22:44 20.03.2022
4670 Clouds 20 1010 27 10000 6.69 270 21:52 20.03.2022
4671 Clouds 20 1009 30 10000 6.69 270 21:25 20.03.2022
4672 Clouds 20 1010 31 10000 8.75 280 20:43 20.03.2022
4673 Clear 20 1010 29 10000 8.05 313 19:59 20.03.2022
4674 Clouds 20 1010 27 10000 5.66 290 19:31 20.03.2022
4675 Clouds 20 1010 22 10000 5.14 320 18:34 20.03.2022
4676 Clouds 20 1010 17 10000 7.2 220 17:33 20.03.2022
4677 Clouds 20 1010 16 10000 3.13 51 16:57 20.03.2022
4678 Clouds 16 1010 19 10000 4.63 150 15:35 20.03.2022
4679 Clouds 16 1011 17 10000 4.63 100 14:35 20.03.2022
4680 Clear 16 1010 15 10000 2.06 130 12:35 20.03.2022
4681 Clear 16 1011 15 10000 4.12 130 11:32 20.03.2022
4682 Clear 16 1011 13 10000 4.12 130 09:30 20.03.2022
4683 Clear 17 1012 11 10000 4.12 160 07:47 20.03.2022
4684 Clear 18 1012 12 10000 3.6 160 05:48 20.03.2022
4685 Clear 27 1012 7 10000 4.12 270 01:56 20.03.2022
4686 Clouds 28 1013 6 10000 3.13 313 00:47 20.03.2022
4687 Clouds 28 1014 6 10000 2.06 230 23:19 19.03.2022
4688 Clouds 27 1016 6 10000 2.24 295 21:28 19.03.2022
4689 Clouds 27 1017 6 10000 2.24 0 20:58 19.03.2022
4690 Clouds 24 1018 10 10000 1.34 106 18:58 19.03.2022
4691 Clear 22 1018 12 10000 2.57 150 18:24 19.03.2022
4692 Clear 20 1019 14 10000 5.66 130 17:35 19.03.2022
4693 Clear 13 1018 19 10000 4.63 160 15:46 19.03.2022
4694 Clear 11 1018 18 10000 2.57 140 14:57 19.03.2022
4695 Clear 12 1018 19 10000 5.14 150 13:19 19.03.2022
4696 Clear 12 1017 17 10000 5.14 130 12:40 19.03.2022
4697 Clear 13 1016 16 10000 2.48 95 11:54 19.03.2022
4698 Clear 13 1016 16 10000 2.48 95 11:54 19.03.2022
4699 Clear 14 1017 15 10000 2.57 120 10:53 19.03.2022
4700 Clear 15 1018 16 10000 3.6 140 07:33 19.03.2022
4701 Clear 20 1016 11 10000 4.12 320 03:49 19.03.2022
4702 Clear 23 1016 8 10000 6.69 320 02:29 19.03.2022
4703 Clear 26 1015 7 10000 4.12 360 23:45 18.03.2022
4704 Clear 25 1016 8 10000 3.58 261 22:28 18.03.2022
4705 Clear 25 1017 7 10000 3.13 213 21:45 18.03.2022
4706 Clear 24 1018 10 10000 2.24 283 19:52 18.03.2022
4707 Clear 24 1018 10 10000 2.24 283 19:52 18.03.2022
4708 Clear 23 1018 12 10000 2.06 350 19:21 18.03.2022
4709 Clear 20 1019 18 10000 3.09 140 17:52 18.03.2022
4710 Clouds 16 1017 23 10000 0.45 157 16:49 18.03.2022
4711 Clouds 12 1018 26 10000 4.63 150 15:32 18.03.2022
4712 Clouds 12 1018 27 10000 5.66 140 14:23 18.03.2022
4713 Clear 12 1017 27 10000 4.63 140 12:36 18.03.2022
4714 Clear 12 1017 27 10000 3.09 90 10:53 18.03.2022
4715 Clear 13 1018 25 10000 3.09 130 09:30 18.03.2022
4716 Clear 13 1018 26 10000 3.6 140 08:42 18.03.2022
4717 Clear 14 1017 24 10000 0.89 32 06:37 18.03.2022
4718 Clear 19 1016 19 10000 3.09 280 03:19 18.03.2022
4719 Clear 23 1015 15 10000 5.66 280 00:39 18.03.2022
4720 Clear 23 1016 15 10000 6.17 300 23:38 17.03.2022
4721 Clear 23 1016 15 10000 6.26 287 22:25 17.03.2022
4722 Clear 23 1017 14 10000 5.14 350 21:48 17.03.2022
4723 Clear 22 1017 14 10000 5.14 350 21:26 17.03.2022
4724 Clear 22 1017 16 10000 6.71 264 20:45 17.03.2022
4725 Clear 21 1018 19 10000 4.92 295 19:50 17.03.2022
4726 Clear 21 1018 22 10000 4.02 293 19:28 17.03.2022
4727 Clear 20 1018 26 10000 2.68 46 18:46 17.03.2022
4728 Clear 16 1017 32 10000 3.13 338 16:58 17.03.2022
4729 Clear 13 1014 35 10000 2.06 260 15:44 17.03.2022
4730 Clear 12 1016 38 10000 3.09 100 15:25 17.03.2022
4731 Clear 11 1015 38 10000 2.24 295 14:29 17.03.2022
4732 Clear 13 1014 34 10000 3.6 260 12:55 17.03.2022
4733 Clear 13 1014 33 10000 3.6 260 12:25 17.03.2022
4734 Clear 14 1013 31 10000 3.6 270 11:29 17.03.2022
4735 Clear 15 1012 30 10000 4.12 280 10:30 17.03.2022
4736 Clear 16 1012 30 10000 4.63 270 08:37 17.03.2022
4737 Clear 17 1012 28 10000 2.57 200 07:34 17.03.2022
4738 Clear 19 1012 24 10000 5.14 270 05:47 17.03.2022
4739 Clear 25 1009 13 10000 8.75 270 01:30 17.03.2022
4740 Clear 27 1009 9 10000 9.77 260 23:50 16.03.2022
4741 Clear 28 1010 7 10000 9.77 270 22:48 16.03.2022
4742 Clear 28 1010 7 10000 9.77 270 22:48 16.03.2022
4743 Clear 28 1010 8 10000 9.77 270 22:30 16.03.2022
4744 Clear 28 1011 8 10000 8.23 290 21:39 16.03.2022
4745 Clear 26 1013 10 10000 2.24 285 19:47 16.03.2022
4746 Clear 26 1013 10 10000 2.24 185 19:21 16.03.2022
4747 Clouds 25 1014 13 10000 1.34 72 18:37 16.03.2022
4748 Clear 22 1014 16 10000 3.09 110 17:43 16.03.2022
4749 Clear 21 1015 18 10000 3.09 110 17:19 16.03.2022
4750 Clouds 18 1013 20 10000 2.24 147 15:55 16.03.2022
4751 Clear 13 1014 23 10000 4.63 140 14:25 16.03.2022
4752 Clear 14 1014 23 10000 3.6 140 13:31 16.03.2022
4753 Clear 15 1015 21 10000 2.06 170 11:56 16.03.2022
4754 Clear 15 1015 21 10000 3.6 130 11:21 16.03.2022
4755 Clear 16 1017 21 10000 3.6 130 10:23 16.03.2022
4756 Clear 16 1017 21 10000 3.09 160 08:52 16.03.2022
4757 Clear 19 1017 19 10000 1.34 258 05:58 16.03.2022
4758 Clear 28 1016 10 10000 5.14 290 01:35 16.03.2022
4759 Clear 29 1018 8 10000 3.09 270 22:38 15.03.2022
4760 Clear 29 1019 8 10000 3.09 310 21:52 15.03.2022
4761 Clear 27 1021 10 10000 2.68 323 20:18 15.03.2022
4762 Clear 24 1022 14 10000 2.06 140 18:57 15.03.2022
4763 Clear 18 1022 20 10000 1.79 226 16:57 15.03.2022
4764 Clear 16 1022 22 10000 3.09 160 16:28 15.03.2022
4765 Clear 13 1020 23 10000 2.65 89 14:58 15.03.2022
4766 Clear 11 1022 24 10000 4.12 150 14:39 15.03.2022
4767 Clear 12 1023 23 10000 3.09 140 13:28 15.03.2022
4768 Clear 13 1023 23 10000 4.12 130 12:24 15.03.2022
4769 Clear 13 1022 22 10000 3.09 140 11:31 15.03.2022
4770 Clear 14 1024 21 10000 2.57 120 09:40 15.03.2022
4771 Clear 14 1023 21 10000 3.09 140 08:42 15.03.2022
4772 Clear 15 1022 20 10000 2.57 170 07:50 15.03.2022
4773 Clear 16 1023 18 10000 2.06 170 06:54 15.03.2022
4774 Clear 21 1021 13 10000 3.58 279 02:59 15.03.2022
4775 Clear 25 1020 10 10000 4.12 300 23:39 14.03.2022
4776 Clear 25 1021 11 10000 4.12 300 23:21 14.03.2022
4777 Clear 25 1021 11 10000 6.17 320 22:26 14.03.2022
4778 Clear 24 1022 12 10000 2.68 272 21:26 14.03.2022
4779 Clear 23 1023 14 10000 2.24 82 20:35 14.03.2022
4780 Clear 23 1023 15 10000 1.34 0 19:59 14.03.2022
4781 Clear 20 1023 16 10000 1.34 288 18:37 14.03.2022
4782 Clear 18 1023 19 10000 2.57 140 17:44 14.03.2022
4783 Clear 16 1023 22 10000 0.89 0 16:57 14.03.2022
4784 Clear 11 1020 27 10000 4.63 130 15:34 14.03.2022
4785 Clear 10 1021 27 10000 4.12 150 14:33 14.03.2022
4786 Clear 11 1019 27 10000 3.09 150 12:21 14.03.2022
4787 Clear 12 1018 24 10000 3.6 130 10:50 14.03.2022
4788 Clear 12 1019 23 10000 4.63 140 09:39 14.03.2022
4789 Clear 13 1018 22 10000 4.63 140 09:20 14.03.2022
4790 Clear 13 1019 22 10000 4.12 230 08:49 14.03.2022
4791 Clear 15 1018 18 10000 5.14 260 07:21 14.03.2022
4792 Clear 17 1017 16 10000 2.57 230 05:22 14.03.2022
4793 Clear 23 1015 10 10000 5.66 250 01:52 14.03.2022
4794 Clear 25 1015 9 10000 4.12 280 00:40 14.03.2022
4795 Clear 24 1017 9 10000 4.02 359 21:56 13.03.2022
4796 Clear 23 1017 10 10000 1.79 284 21:28 13.03.2022
4797 Clear 23 1018 10 10000 3.13 324 20:53 13.03.2022
4798 Clear 22 1018 12 10000 2.57 300 20:28 13.03.2022
4799 Clear 21 1019 13 10000 2.68 265 19:43 13.03.2022
4800 Clear 21 1019 14 10000 2.06 300 19:25 13.03.2022
4801 Clear 20 1019 16 10000 1.34 178 18:49 13.03.2022
4802 Clear 19 1019 16 10000 1.54 220 18:26 13.03.2022
4803 Clear 17 1019 18 10000 3.6 160 17:39 13.03.2022
4804 Clear 15 1018 22 10000 0.45 0 16:48 13.03.2022
4805 Clear 13 1018 23 10000 3.09 140 16:27 13.03.2022
4806 Clear 7 1018 26 10000 3.6 140 15:43 13.03.2022
4807 Clear 10 1019 26 10000 3.6 140 14:49 13.03.2022
4808 Clear 9 1018 27 10000 0 0 13:30 13.03.2022
4809 Clear 10 1018 27 10000 3.09 160 12:26 13.03.2022
4810 Clear 9 1018 27 10000 4.12 160 11:45 13.03.2022
4811 Clear 10 1018 26 10000 4.12 160 11:25 13.03.2022
4812 Clear 11 1018 26 10000 3.09 140 10:44 13.03.2022
4813 Clear 11 1018 24 10000 4.12 140 09:43 13.03.2022
4814 Clear 12 1018 23 10000 4.12 140 09:20 13.03.2022
4815 Clear 12 1020 23 10000 4.12 130 08:39 13.03.2022
4816 Clear 13 1018 23 10000 3.6 140 07:37 13.03.2022
4817 Clear 15 1018 19 10000 3.6 260 05:39 13.03.2022
4818 Clear 23 1016 10 10000 4.63 320 01:48 13.03.2022
4819 Clear 24 1017 8 10000 3.13 330 23:28 12.03.2022
4820 Clear 23 1020 9 10000 5.14 110 21:43 12.03.2022
4821 Clear 21 1021 12 10000 6.69 110 20:20 12.03.2022
4822 Clear 20 1022 13 10000 7.2 110 19:46 12.03.2022
4823 Clear 18 1023 15 10000 9.77 110 18:41 12.03.2022
4824 Clear 17 1024 16 10000 9.77 110 18:19 12.03.2022
4825 Clear 11 1023 22 10000 3.6 130 16:32 12.03.2022
4826 Clear 10 1023 21 10000 0 0 15:52 12.03.2022
4827 Clear 8 1023 22 10000 3.09 140 15:21 12.03.2022
4828 Clear 7 1023 23 10000 0 0 13:54 12.03.2022
4829 Clear 7 1023 23 10000 0 0 13:54 12.03.2022
4830 Clear 7 1023 24 10000 2.57 170 12:33 12.03.2022
4831 Clear 7 1023 23 10000 1.83 93 11:55 12.03.2022
4832 Clear 7 1024 23 10000 3.09 140 11:34 12.03.2022
4833 Clear 7 1024 23 10000 3.09 150 10:26 12.03.2022
4834 Clear 8 1024 21 10000 1.54 150 09:43 12.03.2022
4835 Clear 8 1024 21 10000 3.09 140 07:58 12.03.2022
4836 Clear 9 1025 19 10000 3.09 270 06:40 12.03.2022
4837 Clear 18 1022 9 10000 5.14 270 00:31 12.03.2022
4838 Clear 18 1022 10 10000 4.92 277 23:43 11.03.2022
4839 Clear 18 1022 12 10000 5.66 280 22:32 11.03.2022
4840 Clear 17 1023 13 10000 5.66 10 21:24 11.03.2022
4841 Clear 17 1023 13 10000 5.66 10 21:24 11.03.2022
4842 Clear 16 1023 15 10000 5.66 310 20:46 11.03.2022
4843 Clear 15 1023 16 10000 5.14 350 20:26 11.03.2022
4844 Clear 14 1024 23 10000 3.58 314 19:32 11.03.2022
4845 Clear 11 1023 29 10000 3.6 330 17:53 11.03.2022
4846 Clear 10 1023 30 10000 3.6 330 17:24 11.03.2022
4847 Clear 6 1021 33 10000 3.13 335 15:58 11.03.2022
4848 Clear 5 1020 35 10000 3.6 250 15:29 11.03.2022
4849 Clouds 6 1018 32 10000 4.12 260 13:42 11.03.2022
4850 Clouds 7 1017 29 10000 3.6 290 12:37 11.03.2022
4851 Clouds 7 1016 28 10000 4.02 297 11:57 11.03.2022
4852 Clouds 8 1015 28 10000 3.6 260 10:30 11.03.2022
4853 Clouds 9 1015 28 10000 5.66 280 09:33 11.03.2022
4854 Clouds 11 1015 27 10000 4.63 280 08:27 11.03.2022
4855 Clouds 12 1014 27 10000 8.75 300 07:46 11.03.2022
4856 Clouds 13 1014 32 10000 9.26 290 06:26 11.03.2022
4857 Clouds 16 1011 32 10000 5.66 260 04:28 11.03.2022
4858 Clear 21 1009 18 10000 7.15 304 01:20 11.03.2022
4859 Clouds 22 1009 16 10000 8.23 240 22:32 10.03.2022
4860 Clouds 22 1010 16 10000 6.69 250 21:53 10.03.2022
4861 Clouds 21 1010 16 10000 8.23 260 21:24 10.03.2022
4862 Clouds 21 1011 16 10000 7.2 230 20:18 10.03.2022
4863 Clear 19 1012 17 10000 7.2 210 18:56 10.03.2022
4864 Clear 16 1012 20 10000 3.6 120 17:37 10.03.2022
4865 Clear 13 1013 22 10000 5.66 130 16:42 10.03.2022
4866 Clear 8 1013 28 10000 2.57 110 15:27 10.03.2022
4867 Clear 8 1011 28 10000 4.12 130 13:30 10.03.2022
4868 Clear 8 1011 27 10000 3.09 130 12:35 10.03.2022
4869 Clear 9 1011 26 10000 3.09 110 11:26 10.03.2022
4870 Clear 10 1012 24 10000 3.6 130 09:28 10.03.2022
4871 Clear 10 1012 24 10000 3.09 160 07:46 10.03.2022
4872 Clear 12 1012 23 10000 0.45 188 04:59 10.03.2022
4873 Clear 18 1012 14 10000 5.14 260 01:53 10.03.2022
4874 Clear 19 1013 12 10000 6.69 300 23:29 09.03.2022
4875 Clear 18 1014 13 10000 3.6 330 21:54 09.03.2022
4876 Clear 18 1015 13 10000 3.6 330 21:34 09.03.2022
4877 Clear 16 1015 16 10000 2.68 275 19:55 09.03.2022
4878 Clear 14 1016 19 10000 1.34 183 18:34 09.03.2022
4879 Clear 11 1016 23 10000 1.34 230 17:27 09.03.2022
4880 Clear 9 1018 26 10000 1.34 230 16:34 09.03.2022
4881 Clear 4 1016 33 10000 3.09 140 15:31 09.03.2022
4882 Clear 4 1015 33 10000 2.57 150 13:54 09.03.2022
4883 Clear 4 1016 33 10000 4.12 150 12:48 09.03.2022
4884 Clear 6 1015 28 10000 2.57 170 11:54 09.03.2022
4885 Clear 6 1015 28 10000 4.12 150 11:35 09.03.2022
4886 Clear 6 1015 29 10000 3.09 150 10:34 09.03.2022
4887 Clear 6 1015 29 10000 3.09 150 08:57 09.03.2022
4888 Clear 7 1014 26 10000 0.45 37 07:54 09.03.2022
4889 Clear 13 1014 17 10000 3.13 104 02:57 09.03.2022
4890 Clear 17 1014 13 10000 3.6 300 00:43 09.03.2022
4891 Clear 17 1016 15 10000 3.6 340 22:47 08.03.2022
4892 Clear 17 1016 15 10000 5.36 283 22:26 08.03.2022
4893 Clear 16 1016 17 10000 3.13 213 21:23 08.03.2022
4894 Clear 15 1017 19 10000 3.09 350 20:35 08.03.2022
4895 Clear 14 1019 21 10000 1.79 245 19:35 08.03.2022
4896 Clear 13 1018 24 10000 1.34 0 18:44 08.03.2022
4897 Clear 10 1019 27 10000 0.89 240 17:32 08.03.2022
4898 Clear 6 1018 38 10000 0.5 77 15:56 08.03.2022
4899 Clear 4 1019 36 10000 2.57 160 14:19 08.03.2022
4900 Clear 4 1017 33 10000 2.57 120 12:43 08.03.2022
4901 Clear 5 1017 31 10000 3.6 210 11:45 08.03.2022
4902 Clear 6 1018 30 10000 2.57 180 10:45 08.03.2022
4903 Clear 6 1019 29 10000 3.09 280 09:43 08.03.2022
4904 Clear 10 1018 24 10000 2.24 216 06:59 08.03.2022
4905 Clear 11 1018 28 10000 3.6 320 04:52 08.03.2022
4906 Clear 17 1017 19 10000 6.17 270 23:50 07.03.2022
4907 Clear 17 1019 20 10000 4.12 310 21:54 07.03.2022
4908 Clear 17 1019 20 10000 4.12 310 21:31 07.03.2022
4909 Clear 16 1020 22 10000 2.68 69 20:44 07.03.2022
4910 Clear 15 1021 24 10000 1.79 124 19:55 07.03.2022
4911 Clear 15 1021 24 10000 1.54 200 19:31 07.03.2022
4912 Clear 13 1021 27 10000 1.79 282 18:42 07.03.2022
4913 Clear 12 1021 31 10000 0.89 0 17:47 07.03.2022
4914 Clear 9 1022 35 10000 0.89 0 16:55 07.03.2022
4915 Clear 4 1020 44 10000 3.09 130 15:32 07.03.2022
4916 Clear 4 1020 44 10000 3.6 140 13:24 07.03.2022
4917 Clear 4 1020 43 10000 3.09 120 12:23 07.03.2022
4918 Clear 6 1021 40 10000 2.06 110 10:38 07.03.2022
4919 Clear 6 1021 37 10000 1.54 160 08:48 07.03.2022
4920 Clear 11 1020 28 10000 3.6 320 03:41 07.03.2022
4921 Clear 15 1020 20 10000 2.68 131 00:22 07.03.2022
4922 Clear 15 1020 21 10000 2.68 146 23:31 06.03.2022
4923 Clear 15 1021 22 10000 3.6 360 22:37 06.03.2022
4924 Clear 15 1021 24 10000 4.47 302 21:46 06.03.2022
4925 Clear 13 1022 27 10000 4.12 220 20:30 06.03.2022
4926 Clear 13 1022 29 10000 3.58 283 19:51 06.03.2022
4927 Clear 11 1022 34 10000 2.68 306 18:51 06.03.2022
4928 Clear 10 1021 40 10000 1.34 0 17:57 06.03.2022
4929 Clear 9 1021 42 10000 3.6 290 17:21 06.03.2022
4930 Clear 8 1020 45 10000 4.02 298 16:41 06.03.2022
4931 Clear 6 1020 50 10000 3.09 260 15:45 06.03.2022
4932 Clear 5 1019 51 10000 5.66 260 14:49 06.03.2022
4933 Clear 6 1019 50 10000 5.66 260 14:30 06.03.2022
4934 Clouds 7 1017 45 10000 8.23 320 12:44 06.03.2022
4935 Clouds 8 1017 44 10000 5.66 300 11:56 06.03.2022
4936 Clear 10 1016 53 10000 4.92 72 10:45 06.03.2022
4937 Clear 10 1016 52 10000 3.09 220 09:34 06.03.2022
4938 Clear 11 1014 50 10000 6.17 210 08:28 06.03.2022
4939 Clear 11 1015 47 10000 5.14 240 07:34 06.03.2022
4940 Clear 15 1014 39 10000 4.63 220 04:45 06.03.2022
4941 Clear 21 1013 21 10000 7.2 270 00:42 06.03.2022
4942 Clear 21 1013 20 10000 7.2 270 00:23 06.03.2022
4943 Clear 22 1014 20 10000 9.77 260 23:19 05.03.2022
4944 Clear 22 1014 21 10000 8.75 240 22:42 05.03.2022
4945 Clear 21 1015 26 10000 2.68 316 21:36 05.03.2022
4946 Clear 20 1015 29 10000 3.13 296 20:57 05.03.2022
4947 Clear 17 1017 35 10000 4.63 160 19:23 05.03.2022
4948 Clear 16 1017 38 10000 2.68 0 18:50 05.03.2022
4949 Clear 14 1018 45 10000 2.24 130 17:41 05.03.2022
4950 Clear 11 1018 57 10000 4.63 130 16:20 05.03.2022
4951 Clear 8 1018 65 10000 4.12 140 15:30 05.03.2022
4952 Clear 7 1017 67 10000 3.6 110 14:42 05.03.2022
4953 Clear 7 1017 67 10000 3.6 110 14:24 05.03.2022
4954 Clear 8 1017 67 10000 4.63 140 12:55 05.03.2022
4955 Clear 8 1016 65 10000 3.09 160 11:39 05.03.2022
4956 Clear 9 1016 64 10000 3.09 160 11:18 05.03.2022
4957 Clear 9 1017 61 10000 3.09 160 09:40 05.03.2022
4958 Clear 10 1017 59 10000 1.54 210 08:46 05.03.2022
4959 Clear 11 1017 55 10000 2.57 260 07:23 05.03.2022
4960 Clear 13 1016 47 10000 3.09 230 05:39 05.03.2022
4961 Clear 19 1013 25 10000 8.75 220 01:24 05.03.2022
4962 Clear 21 1013 19 10000 11.32 230 23:30 04.03.2022
4963 Clear 21 1013 18 10000 13.89 220 22:40 04.03.2022
4964 Clear 21 1013 18 10000 10.29 210 21:45 04.03.2022
4965 Clear 21 1014 16 10000 10.29 230 20:48 04.03.2022
4966 Clear 21 1014 15 10000 13.89 200 19:39 04.03.2022
4967 Clear 21 1015 15 10000 7.72 190 18:59 04.03.2022
4968 Clear 21 1014 15 10000 9.77 210 18:36 04.03.2022
4969 Clear 19 1015 18 10000 8.23 200 17:29 04.03.2022
4970 Clear 17 1015 24 10000 2.57 190 16:26 04.03.2022
4971 Clouds 14 1015 29 10000 2.06 120 15:27 04.03.2022
4972 Clear 15 1014 26 10000 4.63 220 13:38 04.03.2022
4973 Clear 15 1014 26 10000 5.14 180 12:51 04.03.2022
4974 Clear 16 1013 26 10000 3.13 160 11:37 04.03.2022
4975 Clear 17 1014 24 10000 3.09 190 10:30 04.03.2022
4976 Clouds 19 1013 23 10000 7.2 170 09:28 04.03.2022
4977 Clouds 20 1014 22 10000 5.66 180 08:20 04.03.2022
4978 Clouds 21 1014 24 10000 6.17 230 06:55 04.03.2022
4979 Clouds 25 1012 11 10000 7.72 200 02:52 04.03.2022
4980 Clear 29 1013 7 10000 6.17 200 23:43 03.03.2022
4981 Clear 30 1013 8 10000 4.63 190 22:19 03.03.2022
4982 Clear 29 1014 8 10000 5.66 200 21:37 03.03.2022
4983 Clouds 29 1015 10 10000 3.6 190 20:56 03.03.2022
4984 Clear 27 1016 12 10000 4.63 180 19:42 03.03.2022
4985 Clouds 26 1016 15 10000 0.45 109 18:44 03.03.2022
4986 Clear 23 1016 18 10000 3.6 140 17:43 03.03.2022
4987 Clear 22 1016 19 10000 4.12 180 17:24 03.03.2022
4988 Clear 18 1016 21 10000 4.12 110 15:47 03.03.2022
4989 Clouds 17 1015 23 10000 4.12 140 14:51 03.03.2022
4990 Clouds 17 1015 22 10000 4.12 140 14:32 03.03.2022
4991 Clouds 17 1015 23 10000 3.6 130 12:44 03.03.2022
4992 Clouds 16 1015 25 10000 4.12 130 11:32 03.03.2022
4993 Clear 17 1015 24 10000 4.12 150 10:39 03.03.2022
4994 Clear 17 1016 24 10000 3.6 150 08:44 03.03.2022
4995 Clouds 18 1014 23 10000 0.45 116 06:58 03.03.2022
4996 Clear 19 1015 22 10000 2.57 180 06:33 03.03.2022
4997 Clear 29 1015 11 10000 4.63 330 00:43 03.03.2022
4998 Clear 29 1016 10 10000 3.13 294 23:28 02.03.2022
4999 Clear 29 1017 10 10000 3.6 360 22:48 02.03.2022
5000 Clear 27 1018 12 10000 3.13 328 21:23 02.03.2022
5001 Clear 26 1019 14 10000 1.79 280 20:30 02.03.2022
5002 Clear 25 1020 16 10000 0.89 291 19:49 02.03.2022
5003 Clear 24 1020 17 10000 1.54 350 19:30 02.03.2022
5004 Clear 22 1020 20 10000 0.45 0 18:39 02.03.2022
5005 Clear 20 1021 23 10000 2.06 150 17:50 02.03.2022
5006 Clear 18 1018 27 10000 1.12 127 16:59 02.03.2022
5007 Clear 17 1020 27 10000 4.12 140 16:41 02.03.2022
5008 Clear 11 1019 35 10000 3.6 150 14:42 02.03.2022
5009 Clear 13 1017 30 10000 0.23 334 13:24 02.03.2022
5010 Clear 12 1018 32 10000 3.09 160 12:41 02.03.2022
5011 Clear 12 1019 32 10000 3.6 150 11:39 02.03.2022
5012 Clear 13 1019 31 10000 3.6 150 11:18 02.03.2022
5013 Clear 14 1020 29 10000 2.57 130 09:41 02.03.2022
5014 Clear 15 1019 28 10000 3.6 130 08:52 02.03.2022
5015 Clear 16 1019 26 10000 2.57 180 07:28 02.03.2022
5016 Clear 17 1019 25 10000 2.57 180 05:44 02.03.2022
5017 Clear 17 1019 24 10000 2.57 180 05:44 02.03.2022
5018 Clear 26 1016 12 10000 4.92 321 00:58 02.03.2022
5019 Clear 27 1017 11 10000 4.12 300 23:46 01.03.2022
5020 Clear 27 1017 11 10000 3.6 350 22:45 01.03.2022
5021 Clear 26 1018 11 10000 2.57 0 21:56 01.03.2022
5022 Clear 26 1018 12 10000 2.57 0 21:21 01.03.2022
5023 Clear 25 1019 13 10000 3.6 360 20:24 01.03.2022
5024 Clear 23 1019 17 10000 3.09 350 19:23 01.03.2022
5025 Clear 21 1019 20 10000 1.54 340 18:35 01.03.2022
5026 Clear 19 1018 21 10000 1.54 290 17:55 01.03.2022
5027 Clear 17 1018 24 10000 2.57 150 16:54 01.03.2022
5028 Clear 14 1017 27 10000 2.9 100 15:59 01.03.2022
5029 Clear 11 1018 30 10000 1.54 130 15:23 01.03.2022
5030 Clear 10 1018 30 10000 4.63 140 14:34 01.03.2022
5031 Clear 11 1018 32 10000 0 0 13:27 01.03.2022
5032 Clear 12 1017 29 10000 2.06 350 12:58 01.03.2022
5033 Clear 12 1017 30 10000 3.09 150 12:22 01.03.2022
5034 Clear 13 1018 27 10000 2.06 180 10:27 01.03.2022
5035 Clear 14 1018 27 10000 4.63 150 08:41 01.03.2022
5036 Clear 14 1018 30 10000 5.14 140 07:36 01.03.2022
5037 Clear 17 1018 24 10000 3.09 250 04:28 01.03.2022
5038 Clouds 24 1017 16 10000 3.58 339 00:59 01.03.2022
5039 Clouds 25 1017 12 10000 3.58 305 23:48 28.02.2022
5040 Clouds 25 1018 12 10000 2.24 0 22:58 28.02.2022
5041 Clouds 24 1018 12 10000 3.09 10 21:50 28.02.2022
5042 Clouds 24 1019 12 10000 3.09 10 21:24 28.02.2022
5043 Clouds 21 1020 15 10000 5.14 80 19:52 28.02.2022
5044 Clouds 20 1021 17 10000 5.14 80 19:26 28.02.2022
5045 Clouds 19 1021 20 10000 0.89 0 18:36 28.02.2022
5046 Clouds 19 1021 20 10000 5.14 100 18:36 28.02.2022
5047 Clouds 15 1020 25 10000 3.6 120 17:23 28.02.2022
5048 Clouds 14 1020 23 10000 5.66 90 16:32 28.02.2022
5049 Clouds 12 1020 25 10000 5.14 150 15:23 28.02.2022
5050 Clouds 13 1019 24 10000 4.63 140 14:30 28.02.2022
5051 Clouds 13 1019 25 10000 0 0 13:34 28.02.2022
5052 Clouds 13 1019 23 10000 0 0 13:34 28.02.2022
5053 Clouds 13 1019 25 10000 4.12 130 12:37 28.02.2022
5054 Clouds 13 1021 27 10000 3.09 100 11:40 28.02.2022
5055 Clouds 12 1021 30 10000 2.57 180 10:44 28.02.2022
5056 Clouds 12 1021 31 10000 2.57 180 10:19 28.02.2022
5057 Clear 12 1021 30 10000 2.06 160 09:30 28.02.2022
5058 Clouds 12 1021 32 10000 0 0 08:26 28.02.2022
5059 Clouds 14 1021 28 10000 3.09 190 07:19 28.02.2022
5060 Clear 16 1022 24 10000 2.57 290 04:31 28.02.2022
5061 Clear 18 1022 22 10000 3.6 320 03:30 28.02.2022
5062 Clear 23 1022 13 10000 4.63 330 23:26 27.02.2022
5063 Clear 22 1023 13 10000 4.12 330 22:33 27.02.2022
5064 Clear 22 1024 14 10000 3.6 330 21:47 27.02.2022
5065 Clear 20 1024 18 10000 3.09 360 20:54 27.02.2022
5066 Clear 19 1025 19 10000 3.09 360 20:27 27.02.2022
5067 Clear 18 1025 21 10000 3.09 360 19:56 27.02.2022
5068 Clear 17 1026 23 10000 3.09 360 19:26 27.02.2022
5069 Clear 15 1026 27 10000 3.09 300 18:39 27.02.2022
5070 Clear 14 1025 31 10000 5.14 150 17:54 27.02.2022
5071 Clear 10 1025 37 10000 3.6 160 16:37 27.02.2022
5072 Clear 8 1025 43 10000 5.14 130 15:55 27.02.2022
5073 Clear 6 1025 48 10000 5.14 130 13:21 27.02.2022
5074 Clear 6 1025 52 10000 4.63 140 12:32 27.02.2022
5075 Clear 7 1026 49 10000 2.06 90 10:54 27.02.2022
5076 Clear 7 1026 49 10000 3.09 150 09:58 27.02.2022
5077 Clear 7 1026 50 10000 3.09 150 09:37 27.02.2022
5078 Clear 8 1026 48 10000 3.09 150 09:18 27.02.2022
5079 Clear 9 1025 45 10000 2.57 140 07:34 27.02.2022
5080 Clear 10 1026 40 10000 2.57 240 05:36 27.02.2022
5081 Clear 18 1023 25 10000 6.17 300 00:53 27.02.2022
5082 Clear 18 1023 25 10000 4.47 273 22:58 26.02.2022
5083 Clear 18 1024 26 10000 4.02 313 21:44 26.02.2022
5084 Clear 17 1024 28 10000 2.57 300 20:52 26.02.2022
5085 Clear 16 1025 30 10000 2.57 300 20:19 26.02.2022
5086 Clear 15 1025 34 10000 1.34 8 19:41 26.02.2022
5087 Clear 14 1025 36 10000 0.89 0 19:19 26.02.2022
5088 Clear 11 1025 47 10000 1.34 156 17:45 26.02.2022
5089 Clear 9 1026 54 10000 2.06 150 16:49 26.02.2022
5090 Clear 5 1022 65 10000 3.6 150 15:49 26.02.2022
5091 Clear 4 1023 67 10000 3.6 150 15:22 26.02.2022
5092 Clear 4 1022 65 10000 4.12 140 14:53 26.02.2022
5093 Clear 3 1022 68 10000 4.12 140 14:33 26.02.2022
5094 Clear 4 1021 67 10000 3.09 150 13:19 26.02.2022
5095 Clear 4 1020 67 10000 4.12 150 12:20 26.02.2022
5096 Clear 5 1021 63 10000 3.09 130 11:28 26.02.2022
5097 Clear 6 1021 62 10000 2.57 150 10:39 26.02.2022
5098 Clear 7 1020 55 10000 1.54 180 08:53 26.02.2022
5099 Clear 8 1020 50 10000 1.54 190 06:51 26.02.2022
5100 Clear 17 1018 31 10000 5.14 340 00:50 26.02.2022
5101 Clear 18 1019 26 10000 4.02 316 22:49 25.02.2022
5102 Clear 17 1019 25 10000 2.68 243 21:43 25.02.2022
5103 Clear 17 1019 25 10000 3.13 265 21:23 25.02.2022
5104 Clear 16 1020 27 10000 2.06 0 20:32 25.02.2022
5105 Clouds 12 1021 39 10000 1.79 174 18:59 25.02.2022
5106 Clear 8 1021 54 10000 3.09 170 17:27 25.02.2022
5107 Clear 5 1022 64 10000 2.57 150 16:24 25.02.2022
5108 Clear 2 1019 71 10000 3.6 150 15:47 25.02.2022
5109 Clear 1 1019 70 10000 3.6 150 15:21 25.02.2022
5110 Clear 1 1019 76 10000 2.57 140 14:42 25.02.2022
5111 Clear 2 1018 73 10000 3.6 140 13:36 25.02.2022
5112 Clear 3 1018 73 10000 2.57 150 12:56 25.02.2022
5113 Clear 3 1019 73 10000 3.6 140 11:28 25.02.2022
5114 Clear 3 1019 73 10000 2.57 150 10:40 25.02.2022
5115 Clear 3 1019 73 10000 2.57 150 10:22 25.02.2022
5116 Clear 4 1020 70 10000 2.06 180 09:18 25.02.2022
5117 Clear 5 1020 63 10000 2.57 240 07:41 25.02.2022
5118 Clear 6 1021 62 10000 4.12 310 05:49 25.02.2022
5119 Clear 7 1020 56 10000 4.63 330 04:32 25.02.2022
5120 Clear 13 1021 28 10000 2.68 287 23:47 24.02.2022
5121 Clear 12 1022 31 10000 3.6 140 21:56 24.02.2022
5122 Clear 11 1023 31 10000 3.6 140 21:38 24.02.2022
5123 Clear 11 1023 33 10000 3.6 140 21:19 24.02.2022
5124 Clear 10 1024 44 10000 2.06 150 19:38 24.02.2022
5125 Clouds 8 1024 54 10000 2.06 150 18:43 24.02.2022
5126 Clouds 8 1024 61 10000 2.24 175 18:19 24.02.2022
5127 Clear 6 1024 72 10000 1.54 160 17:34 24.02.2022
5128 Clear 5 1024 79 10000 2.57 150 16:49 24.02.2022
5129 Clear 4 1023 84 10000 2.57 150 16:23 24.02.2022
5130 Rain 1 1022 89 10000 2.06 270 14:54 24.02.2022
5131 Rain 1 1022 90 10000 2.06 270 14:35 24.02.2022
5132 Clear 2 1021 87 10000 3.09 280 13:39 24.02.2022
5133 Clouds 2 1020 87 10000 2.06 270 12:50 24.02.2022
5134 Clouds 4 1020 88 10000 0 0 10:41 24.02.2022
5135 Clouds 4 1020 88 10000 0 0 10:41 24.02.2022
5136 Clouds 4 1019 88 10000 2.06 180 09:18 24.02.2022
5137 Clouds 4 1019 88 10000 2.57 170 08:40 24.02.2022
5138 Rain 4 1018 87 10000 1.54 180 05:53 24.02.2022
5139 Clouds 5 1014 82 10000 6.69 340 01:56 24.02.2022
5140 Clouds 9 1010 71 10000 11.32 240 23:31 23.02.2022
5141 Clouds 16 1011 35 10000 7.2 220 21:43 23.02.2022
5142 Thunderstorm 16 1013 34 10000 9.26 210 20:31 23.02.2022
5143 Clear 16 1013 34 10000 9.26 200 19:48 23.02.2022
5144 Clear 14 1014 40 10000 9.26 220 18:32 23.02.2022
5145 Clear 14 1014 40 10000 9.26 220 18:32 23.02.2022
5146 Clear 13 1014 45 10000 6.17 220 17:44 23.02.2022
5147 Clear 9 1014 57 10000 6.17 250 15:19 23.02.2022
5148 Clear 9 1013 56 10000 4.12 220 12:50 23.02.2022
5149 Clear 9 1013 56 10000 4.12 220 12:24 23.02.2022
5150 Clear 9 1014 56 10000 2.57 240 10:35 23.02.2022
5151 Clear 10 1015 55 10000 2.68 176 08:59 23.02.2022
5152 Clear 10 1015 55 10000 2.68 176 08:59 23.02.2022
5153 Clear 10 1014 53 10000 4.12 200 08:23 23.02.2022
5154 Clear 12 1015 48 10000 2.57 240 05:49 23.02.2022
5155 Clear 19 1013 26 10000 9.77 240 00:40 23.02.2022
5156 Clear 20 1013 24 10000 7.2 190 23:38 22.02.2022
5157 Clear 19 1014 25 10000 5.66 240 22:32 22.02.2022
5158 Clear 19 1014 26 10000 7.2 220 21:49 22.02.2022
5159 Clear 19 1015 27 10000 8.75 230 21:31 22.02.2022
5160 Clear 18 1015 29 10000 6.69 220 20:57 22.02.2022
5161 Clear 18 1015 31 10000 8.23 220 20:30 22.02.2022
5162 Clear 17 1016 34 10000 6.17 200 19:42 22.02.2022
5163 Clear 16 1016 35 10000 6.17 200 19:23 22.02.2022
5164 Clear 14 1017 44 10000 3.13 198 17:49 22.02.2022
5165 Clear 13 1017 47 10000 3.09 170 17:23 22.02.2022
5166 Clear 11 1016 54 10000 4.12 140 16:41 22.02.2022
5167 Clear 8 1017 62 10000 3.09 200 15:44 22.02.2022
5168 Clear 8 1017 62 10000 3.09 200 15:44 22.02.2022
5169 Clear 7 1014 66 10000 3.09 140 14:44 22.02.2022
5170 Clear 8 1015 59 10000 2.57 130 12:31 22.02.2022
5171 Clear 9 1016 57 10000 3.09 230 10:52 22.02.2022
5172 Clear 9 1016 53 10000 5.14 210 08:41 22.02.2022
5173 Clear 10 1016 51 10000 5.14 200 07:26 22.02.2022
5174 Clear 12 1015 44 10000 5.66 230 04:59 22.02.2022
5175 Clouds 16 1013 32 10000 6.69 210 01:45 22.02.2022
5176 Clear 18 1012 31 10000 8.23 200 22:46 21.02.2022
5177 Clouds 18 1013 28 10000 9.77 220 21:33 21.02.2022
5178 Clear 18 1013 25 10000 7.72 210 20:35 21.02.2022
5179 Clear 18 1013 25 10000 7.72 210 20:35 21.02.2022
5180 Clear 17 1013 25 10000 4.12 270 18:46 21.02.2022
5181 Clouds 14 1012 27 10000 0.45 0 16:58 21.02.2022
5182 Clouds 10 1011 29 10000 3.6 150 15:20 21.02.2022
5183 Clear 11 1011 27 10000 1.54 0 14:21 21.02.2022
5184 Clear 11 1011 27 10000 1.54 0 14:21 21.02.2022
5185 Clouds 12 1011 25 10000 3.09 150 13:20 21.02.2022
5186 Clear 11 1011 26 10000 2.57 140 12:23 21.02.2022
5187 Clear 12 1012 25 10000 3.6 150 10:58 21.02.2022
5188 Clear 13 1013 22 10000 1.54 90 09:34 21.02.2022
5189 Clear 15 1014 19 10000 2.57 170 05:35 21.02.2022
5190 Clouds 25 1014 10 10000 6.17 250 23:41 20.02.2022
5191 Clear 25 1016 9 10000 5.66 230 22:21 20.02.2022
5192 Clouds 25 1016 10 10000 6.17 190 21:42 20.02.2022
5193 Clear 24 1017 10 10000 5.66 170 20:53 20.02.2022
5194 Clear 24 1017 10 10000 5.66 170 20:33 20.02.2022
5195 Clear 22 1017 14 10000 4.63 150 19:31 20.02.2022
5196 Clear 22 1017 14 10000 4.63 150 19:31 20.02.2022
5197 Clouds 20 1017 17 10000 1.34 0 18:50 20.02.2022
5198 Clouds 19 1017 20 10000 4.12 140 18:31 20.02.2022
5199 Clear 17 1018 21 10000 5.66 140 17:47 20.02.2022
5200 Clear 10 1016 27 10000 5.14 140 15:32 20.02.2022
5201 Clear 10 1015 27 10000 4.63 140 14:41 20.02.2022
5202 Clear 10 1016 26 10000 4.12 150 13:23 20.02.2022
5203 Clear 11 1016 27 10000 4.63 150 12:25 20.02.2022
5204 Clear 12 1017 25 10000 4.63 150 10:21 20.02.2022
5205 Clear 12 1018 24 10000 3.6 140 09:53 20.02.2022
5206 Clear 13 1017 23 10000 3.6 140 08:25 20.02.2022
5207 Clear 25 1018 9 10000 2.06 110 00:54 20.02.2022
5208 Clear 25 1018 8 10000 2.06 110 00:29 20.02.2022
5209 Clear 24 1019 10 10000 2.57 0 22:44 19.02.2022
5210 Clear 24 1019 10 10000 2.68 141 22:21 19.02.2022
5211 Clear 23 1020 11 10000 5.66 120 20:51 19.02.2022
5212 Clear 21 1021 13 10000 6.69 120 19:42 19.02.2022
5213 Clear 20 1022 14 10000 6.69 120 19:20 19.02.2022
5214 Clear 18 1022 17 10000 7.2 110 18:29 19.02.2022
5215 Clear 16 1021 20 10000 6.69 130 17:33 19.02.2022
5216 Clear 10 1021 28 10000 4.63 140 16:22 19.02.2022
5217 Clear 9 1020 28 10000 2.06 140 14:56 19.02.2022
5218 Clear 8 1020 29 10000 3.6 140 14:37 19.02.2022
5219 Clear 9 1019 29 10000 2.52 86 11:59 19.02.2022
5220 Clear 8 1020 32 10000 3.6 180 11:36 19.02.2022
5221 Clear 9 1022 30 10000 2.06 180 09:36 19.02.2022
5222 Clear 11 1022 29 10000 2.06 170 06:53 19.02.2022
5223 Clear 16 1020 22 10000 3.6 340 02:38 19.02.2022
5224 Clear 20 1021 16 10000 2.57 320 23:28 18.02.2022
5225 Clear 18 1023 18 10000 1.79 88 21:30 18.02.2022
5226 Clear 18 1024 20 10000 2.24 278 20:39 18.02.2022
5227 Clear 16 1025 23 10000 2.06 350 19:51 18.02.2022
5228 Clear 14 1025 27 10000 0.89 0 18:49 18.02.2022
5229 Clear 12 1025 31 10000 0.89 17 18:19 18.02.2022
5230 Clear 10 1024 36 10000 0 0 17:25 18.02.2022
5231 Clear 4 1023 49 10000 3.09 140 14:47 18.02.2022
5232 Clear 4 1023 48 10000 2.06 140 13:54 18.02.2022
5233 Clear 5 1023 46 10000 1.54 190 12:51 18.02.2022
5234 Clear 6 1022 43 10000 0.87 69 11:58 18.02.2022
5235 Clear 5 1023 47 10000 2.06 140 11:21 18.02.2022
5236 Clear 6 1023 47 10000 3.6 150 09:30 18.02.2022
5237 Clear 8 1024 43 10000 2.06 270 06:51 18.02.2022
5238 Clear 9 1024 39 10000 1.34 335 05:37 18.02.2022
5239 Clear 15 1022 32 10000 2.24 276 22:46 17.02.2022
5240 Clouds 15 1023 35 10000 2.68 215 21:42 17.02.2022
5241 Clear 14 1023 41 10000 3.13 287 20:52 17.02.2022
5242 Clear 13 1024 42 10000 3.13 287 20:33 17.02.2022
5243 Clear 13 1024 46 10000 3.13 285 19:43 17.02.2022
5244 Clouds 11 1024 52 10000 2.68 292 18:37 17.02.2022
5245 Clouds 9 1023 58 10000 3.13 195 17:47 17.02.2022
5246 Clouds 6 1022 70 10000 5.14 180 16:20 17.02.2022
5247 Clouds 5 1021 74 10000 3.09 160 14:39 17.02.2022
5248 Clouds 5 1020 74 10000 4.63 140 13:47 17.02.2022
5249 Clouds 6 1020 73 10000 3.6 110 11:57 17.02.2022
5250 Clouds 5 1020 73 10000 3.6 110 11:21 17.02.2022
5251 Clear 6 1020 70 10000 2.06 150 08:37 17.02.2022
5252 Clouds 11 1015 47 10000 5.66 280 00:20 17.02.2022
5253 Clouds 10 1014 55 10000 4.47 295 22:38 16.02.2022
5254 Clouds 9 1016 67 10000 3.6 250 20:32 16.02.2022
5255 Clouds 7 1016 82 10000 4.63 250 19:27 16.02.2022
5256 Rain 6 1014 84 10000 4.47 307 18:35 16.02.2022
5257 Clouds 6 1012 84 8047 5.14 280 17:27 16.02.2022
5258 Clear 8 1010 63 10000 4.92 325 15:24 16.02.2022
5259 Clear 9 1010 55 10000 4.12 240 14:29 16.02.2022
5260 Clear 11 1009 35 10000 5.66 240 12:31 16.02.2022
5261 Clear 12 1009 29 10000 5.14 220 11:46 16.02.2022
5262 Clear 12 1010 24 10000 7.72 210 10:35 16.02.2022
5263 Clear 13 1010 22 10000 3.6 230 09:54 16.02.2022
5264 Clear 15 1010 15 10000 6.17 200 06:44 16.02.2022
5265 Clear 20 1007 10 10000 9.77 220 02:48 16.02.2022
5266 Clear 24 1010 8 10000 11.32 190 22:34 15.02.2022
5267 Clear 24 1011 7 10000 10.8 200 21:51 15.02.2022
5268 Clear 24 1011 7 10000 10.8 220 21:31 15.02.2022
5269 Clear 24 1012 6 10000 9.26 240 20:58 15.02.2022
5270 Clear 24 1013 6 10000 8.23 200 20:27 15.02.2022
5271 Clear 24 1013 7 10000 7.72 210 19:46 15.02.2022
5272 Clear 21 1013 11 10000 5.14 160 18:27 15.02.2022
5273 Clear 20 1014 14 10000 4.63 160 17:55 15.02.2022
5274 Clear 17 1014 16 10000 4.63 160 17:37 15.02.2022
5275 Clear 13 1014 17 10000 4.63 140 15:43 15.02.2022
5276 Clear 12 1013 19 10000 1.54 80 14:31 15.02.2022
5277 Clear 13 1014 16 10000 2.57 140 13:25 15.02.2022
5278 Clear 12 1013 17 10000 4.12 150 11:41 15.02.2022
5279 Clear 13 1014 17 10000 4.12 140 10:30 15.02.2022
5280 Clear 14 1014 17 10000 3.6 140 08:48 15.02.2022
5281 Clear 15 1014 17 10000 3.6 140 06:46 15.02.2022
5282 Clear 27 1017 6 10000 3.13 319 23:35 14.02.2022
5283 Clear 27 1018 6 10000 1.79 261 21:57 14.02.2022
5284 Clear 26 1020 8 10000 0.45 11 20:54 14.02.2022
5285 Clear 24 1021 11 10000 3.6 180 19:49 14.02.2022
5286 Clear 23 1021 12 10000 3.6 180 19:29 14.02.2022
5287 Clear 20 1022 16 10000 3.6 150 18:24 14.02.2022
5288 Clear 17 1021 20 10000 5.14 150 17:30 14.02.2022
5289 Clear 15 1021 19 10000 4.63 160 16:37 14.02.2022
5290 Clear 11 1021 19 10000 4.63 160 15:22 14.02.2022
5291 Clear 12 1021 21 10000 2.06 130 13:35 14.02.2022
5292 Clear 12 1021 20 10000 5.14 140 12:58 14.02.2022
5293 Clear 12 1021 19 10000 5.14 140 12:32 14.02.2022
5294 Clear 13 1021 18 10000 5.14 140 11:38 14.02.2022
5295 Clear 13 1022 18 10000 4.63 160 10:18 14.02.2022
5296 Clear 15 1023 18 10000 4.12 120 07:49 14.02.2022
5297 Clear 15 1023 18 10000 4.12 120 07:24 14.02.2022
5298 Clear 26 1024 8 10000 4.12 150 22:48 13.02.2022
5299 Clear 26 1024 9 10000 4.12 150 22:30 13.02.2022
5300 Clear 26 1026 9 10000 7.72 150 21:57 13.02.2022
5301 Clear 25 1026 10 10000 7.72 150 21:20 13.02.2022
5302 Clear 24 1027 12 10000 7.2 150 20:27 13.02.2022
5303 Clear 22 1027 17 10000 8.75 120 19:18 13.02.2022
5304 Clear 20 1027 19 10000 7.72 120 18:41 13.02.2022
5305 Clear 15 1027 26 10000 5.66 140 17:22 13.02.2022
5306 Clear 11 1025 32 10000 4.63 140 15:51 13.02.2022
5307 Clear 11 1024 31 10000 5.66 130 14:50 13.02.2022
5308 Clear 12 1024 28 10000 6.17 120 13:27 13.02.2022
5309 Clear 11 1024 30 10000 4.12 130 12:42 13.02.2022
5310 Clear 13 1024 27 10000 5.14 130 10:43 13.02.2022
5311 Clear 14 1024 26 10000 5.14 130 10:23 13.02.2022
5312 Clear 14 1024 25 10000 4.12 110 08:55 13.02.2022
5313 Clear 24 1023 11 10000 4.63 50 01:26 13.02.2022
5314 Clear 25 1023 9 10000 4.12 110 00:21 13.02.2022
5315 Clear 25 1024 9 10000 2.57 120 22:55 12.02.2022
5316 Clear 25 1024 9 10000 2.57 120 22:30 12.02.2022
5317 Clear 24 1025 11 10000 3.13 73 20:55 12.02.2022
5318 Clear 23 1024 12 10000 3.58 70 20:23 12.02.2022
5319 Clear 21 1023 16 10000 2.06 320 18:54 12.02.2022
5320 Clear 20 1023 16 10000 2.06 320 18:36 12.02.2022
5321 Clear 17 1021 23 10000 2.57 190 17:39 12.02.2022
5322 Clear 14 1022 28 10000 2.06 170 16:46 12.02.2022
5323 Clear 11 1021 31 10000 2.57 180 15:53 12.02.2022
5324 Clear 10 1021 33 10000 3.09 150 15:20 12.02.2022
5325 Clear 10 1020 33 10000 2.06 130 14:25 12.02.2022
5326 Clear 12 1019 30 10000 3.09 130 11:33 12.02.2022
5327 Clear 12 1018 30 10000 4.12 160 10:32 12.02.2022
5328 Clear 12 1018 28 10000 3.09 150 09:37 12.02.2022
5329 Clear 13 1018 28 10000 4.12 130 08:47 12.02.2022
5330 Clear 14 1018 28 10000 4.63 140 07:45 12.02.2022
5331 Clear 16 1017 25 10000 2.57 330 04:50 12.02.2022
5332 Clear 21 1016 17 10000 4.63 290 02:19 12.02.2022
5333 Clear 25 1016 14 10000 5.14 320 23:56 11.02.2022
5334 Clear 25 1016 14 10000 4.02 219 22:23 11.02.2022
5335 Clear 24 1016 15 10000 3.09 340 21:37 11.02.2022
5336 Clear 22 1018 17 10000 2.06 0 20:29 11.02.2022
5337 Clear 21 1018 19 10000 2.06 230 19:29 11.02.2022
5338 Clear 19 1019 21 10000 2.06 190 18:44 11.02.2022
5339 Clear 15 1019 27 10000 4.12 160 17:27 11.02.2022
5340 Clear 15 1020 29 10000 1.29 136 16:56 11.02.2022
5341 Clear 9 1018 32 10000 4.12 140 15:26 11.02.2022
5342 Clear 10 1018 32 10000 4.12 150 14:38 11.02.2022
5343 Clear 10 1017 31 10000 4.12 150 14:20 11.02.2022
5344 Clear 9 1017 32 10000 4.12 160 13:47 11.02.2022
5345 Clear 10 1017 31 10000 3.6 130 13:28 11.02.2022
5346 Clear 11 1017 30 10000 2.57 150 11:23 11.02.2022
5347 Clear 12 1018 27 10000 2.57 110 09:38 11.02.2022
5348 Clear 13 1017 27 10000 4.12 140 08:36 11.02.2022
5349 Clear 14 1017 25 10000 2.57 140 07:47 11.02.2022
5350 Clear 15 1017 23 10000 3.6 190 06:29 11.02.2022
5351 Clear 21 1017 17 10000 4.12 350 02:24 11.02.2022
5352 Clear 24 1017 11 10000 2.57 310 00:44 11.02.2022
5353 Clear 24 1018 11 10000 2.24 295 22:39 10.02.2022
5354 Clear 24 1018 12 10000 3.13 289 21:43 10.02.2022
5355 Clear 23 1019 13 10000 2.68 293 20:50 10.02.2022
5356 Clear 22 1020 15 10000 2.68 30 19:59 10.02.2022
5357 Clear 20 1020 16 10000 2.57 320 19:23 10.02.2022
5358 Clear 18 1019 19 10000 1.54 110 18:33 10.02.2022
5359 Clear 14 1019 24 10000 2.06 10 17:23 10.02.2022
5360 Clear 10 1018 24 10000 2.06 110 16:43 10.02.2022
5361 Clear 7 1018 26 10000 3.6 160 15:41 10.02.2022
5362 Clear 8 1018 27 10000 3.6 160 15:21 10.02.2022
5363 Clear 8 1017 28 10000 4.12 150 14:35 10.02.2022
5364 Clear 10 1017 26 10000 5.14 140 13:56 10.02.2022
5365 Clear 9 1017 28 10000 5.14 140 13:19 10.02.2022
5366 Clear 10 1016 27 10000 4.63 150 11:53 10.02.2022
5367 Clear 9 1016 27 10000 4.63 150 11:32 10.02.2022
5368 Clear 11 1017 26 10000 1.54 90 10:23 10.02.2022
5369 Clear 11 1017 26 10000 3.6 150 09:44 10.02.2022
5370 Clear 11 1017 26 10000 4.63 160 08:42 10.02.2022
5371 Clear 13 1016 23 10000 2.57 120 06:33 10.02.2022
5372 Clear 17 1016 19 10000 3.09 320 03:21 10.02.2022
5373 Clear 23 1015 11 10000 3.58 295 00:56 10.02.2022
5374 Clear 24 1016 10 10000 2.06 360 00:38 10.02.2022
5375 Clear 24 1016 10 10000 2.06 360 00:20 10.02.2022
5376 Clear 24 1018 10 10000 1.54 140 22:54 09.02.2022
5377 Clear 24 1018 10 10000 3.6 120 22:30 09.02.2022
5378 Clear 23 1018 11 10000 4.12 50 21:47 09.02.2022
5379 Clear 23 1018 11 10000 4.12 50 21:27 09.02.2022
5380 Clear 22 1019 13 10000 4.12 120 20:43 09.02.2022
5381 Clear 22 1019 13 10000 4.12 120 20:22 09.02.2022
5382 Clear 21 1020 15 10000 3.58 155 19:41 09.02.2022
5383 Clear 19 1021 18 10000 3.13 86 18:38 09.02.2022
5384 Clear 14 1020 23 10000 3.09 160 16:55 09.02.2022
5385 Clear 11 1018 26 10000 3.19 95 15:59 09.02.2022
5386 Clear 9 1020 28 10000 0 0 15:22 09.02.2022
5387 Clear 9 1019 27 10000 2.06 160 12:43 09.02.2022
5388 Clear 10 1018 27 10000 4.12 150 11:23 09.02.2022
5389 Clear 10 1019 27 10000 3.6 150 10:33 09.02.2022
5390 Clear 10 1019 27 10000 3.09 140 09:47 09.02.2022
5391 Clear 10 1019 27 10000 3.09 140 09:21 09.02.2022
5392 Clear 11 1019 26 10000 3.6 150 08:43 09.02.2022
5393 Clear 13 1019 25 10000 1.54 170 05:55 09.02.2022
5394 Clear 14 1019 23 10000 2.06 350 03:51 09.02.2022
5395 Clear 19 1019 17 10000 4.12 340 01:55 09.02.2022
5396 Clear 21 1019 12 10000 3.6 30 23:42 08.02.2022
5397 Clear 21 1020 12 10000 2.68 358 22:53 08.02.2022
5398 Clear 21 1020 12 10000 1.79 192 22:27 08.02.2022
5399 Clear 20 1021 13 10000 3.13 269 21:58 08.02.2022
5400 Clear 19 1022 14 10000 2.06 280 21:22 08.02.2022
5401 Clear 19 1022 15 10000 1.54 360 20:56 08.02.2022
5402 Clear 18 1022 16 10000 1.54 360 20:31 08.02.2022
5403 Clear 16 1023 19 10000 1.54 120 18:55 08.02.2022
5404 Clear 13 1024 24 10000 6.69 120 17:50 08.02.2022
5405 Clear 10 1024 29 10000 3.6 140 16:55 08.02.2022
5406 Clear 8 1023 31 10000 6.69 130 15:45 08.02.2022
5407 Clear 7 1022 34 10000 3.09 160 14:57 08.02.2022
5408 Clear 8 1023 30 10000 5.66 130 13:30 08.02.2022
5409 Clear 9 1022 30 10000 4.12 140 12:20 08.02.2022
5410 Clear 9 1024 28 10000 4.63 150 10:47 08.02.2022
5411 Clear 10 1024 28 10000 5.14 120 09:46 08.02.2022
5412 Clear 10 1025 28 10000 4.63 120 08:27 08.02.2022
5413 Clear 12 1025 25 10000 3.6 110 05:46 08.02.2022
5414 Clear 13 1025 23 10000 3.6 100 04:40 08.02.2022
5415 Clear 13 1024 22 10000 3.6 100 04:21 08.02.2022
5416 Clear 14 1025 21 10000 4.63 80 03:36 08.02.2022
5417 Clear 14 1025 21 10000 4.63 80 03:18 08.02.2022
5418 Clear 14 1025 21 10000 4.63 80 03:18 08.02.2022
5419 Clear 15 1025 20 10000 3.58 131 02:59 08.02.2022
5420 Clear 15 1024 19 10000 5.14 70 02:36 08.02.2022
5421 Clear 16 1024 19 10000 5.14 70 02:18 08.02.2022
5422 Clear 16 1024 18 10000 5.14 70 02:18 08.02.2022
5423 Clear 17 1024 17 10000 6.69 50 01:44 08.02.2022
5424 Clear 18 1024 17 10000 6.69 50 01:24 08.02.2022
5425 Clear 18 1024 16 10000 7.72 50 00:55 08.02.2022
5426 Clear 19 1024 16 10000 7.2 50 23:58 07.02.2022
5427 Clear 19 1025 16 10000 7.2 50 23:40 07.02.2022
5428 Clear 19 1025 16 10000 7.2 50 23:18 07.02.2022
5429 Clear 19 1025 16 10000 4.63 90 22:54 07.02.2022
5430 Clear 18 1026 17 10000 6.17 120 22:18 07.02.2022
5431 Clear 18 1026 18 10000 9.26 110 21:44 07.02.2022
5432 Clear 18 1027 19 10000 9.26 110 21:25 07.02.2022
5433 Clear 17 1028 20 10000 10.29 150 20:41 07.02.2022
5434 Clear 17 1029 21 10000 10.29 150 20:18 07.02.2022
5435 Clear 16 1028 23 10000 9.26 100 19:45 07.02.2022
5436 Clear 14 1030 26 10000 11.83 120 18:22 07.02.2022
5437 Clear 11 1028 31 10000 4.47 91 16:53 07.02.2022
5438 Clear 9 1027 33 10000 3.6 90 16:20 07.02.2022
5439 Clear 9 1027 35 10000 5.66 100 15:48 07.02.2022
5440 Clear 9 1026 32 10000 6.17 90 13:37 07.02.2022
5441 Clear 10 1026 31 10000 6.17 90 13:19 07.02.2022
5442 Clear 10 1026 28 10000 1.34 0 11:58 07.02.2022
5443 Clear 10 1026 28 10000 1.34 0 11:58 07.02.2022
5444 Clear 10 1026 28 10000 1.34 0 11:58 07.02.2022
5445 Clear 10 1026 27 10000 0.89 0 11:37 07.02.2022
5446 Clear 11 1025 25 10000 1.34 0 10:52 07.02.2022
5447 Clear 11 1025 24 10000 0.89 0 10:32 07.02.2022
5448 Clear 11 1025 22 10000 0.89 0 09:53 07.02.2022
5449 Clear 11 1024 22 10000 1.34 0 09:18 07.02.2022
5450 Clear 11 1024 21 10000 0.89 0 08:39 07.02.2022
5451 Clear 10 1023 21 10000 1.34 149 07:19 07.02.2022
5452 Clear 11 1024 19 10000 0.89 146 06:34 07.02.2022
5453 Clear 15 1021 15 10000 0.45 309 03:27 07.02.2022
5454 Clear 20 1019 11 10000 2.24 0 00:46 07.02.2022
5455 Clear 20 1019 12 10000 0.89 0 23:49 06.02.2022
5456 Clear 19 1020 13 10000 0.45 0 22:49 06.02.2022
5457 Clear 19 1021 14 10000 1.34 0 21:56 06.02.2022
5458 Clear 19 1021 15 10000 0.89 0 21:35 06.02.2022
5459 Clear 18 1022 16 10000 0.45 0 20:55 06.02.2022
5460 Clear 18 1022 16 10000 0.45 0 20:55 06.02.2022
5461 Clear 17 1021 17 10000 0.45 0 20:31 06.02.2022
5462 Clear 15 1022 20 10000 0.45 0 19:40 06.02.2022
5463 Clear 13 1022 23 10000 0.89 0 18:41 06.02.2022
5464 Clear 11 1022 26 10000 0.89 146 17:56 06.02.2022
5465 Clear 10 1021 28 10000 0.45 146 17:21 06.02.2022
5466 Clear 7 1021 30 10000 2.57 150 16:47 06.02.2022
5467 Clear 4 1020 36 10000 1.54 330 15:49 06.02.2022
5468 Clear 5 1020 33 10000 1.54 330 15:27 06.02.2022
5469 Clear 5 1019 32 10000 3.6 140 14:45 06.02.2022
5470 Clear 6 1020 32 10000 3.6 150 13:27 06.02.2022
5471 Clouds 6 1019 31 10000 1.93 107 12:58 06.02.2022
5472 Clear 6 1020 32 10000 3.09 150 11:35 06.02.2022
5473 Clear 7 1021 29 10000 3.6 140 10:31 06.02.2022
5474 Clouds 8 1020 28 10000 1.21 59 08:59 06.02.2022
5475 Clear 8 1021 27 10000 2.06 140 08:30 06.02.2022
5476 Clear 9 1019 24 10000 0 0 05:31 06.02.2022
5477 Clear 13 1020 20 10000 0.89 0 02:50 06.02.2022
5478 Clear 15 1020 18 10000 0.45 0 02:24 06.02.2022
5479 Clear 18 1020 15 10000 1.79 0 00:29 06.02.2022
5480 Clear 18 1021 14 10000 0.45 0 22:31 05.02.2022
5481 Clear 17 1022 13 10000 1.34 0 21:32 05.02.2022
5482 Clear 15 1023 14 10000 0.89 0 20:24 05.02.2022
5483 Clear 14 1024 15 10000 0.45 0 19:46 05.02.2022
5484 Clear 12 1025 16 10000 0.89 0 18:58 05.02.2022
5485 Clear 9 1024 18 10000 0.45 0 17:39 05.02.2022
5486 Clear 9 1024 18 10000 0.45 0 17:39 05.02.2022
5487 Clear 9 1024 18 10000 0.45 0 17:39 05.02.2022
5488 Clear 7 1025 20 10000 1.34 0 16:58 05.02.2022
5489 Clear 3 1025 23 10000 2.68 135 15:34 05.02.2022
5490 Clear 3 1025 23 10000 0.89 196 14:55 05.02.2022
5491 Clear 4 1025 21 10000 1.34 190 12:47 05.02.2022
5492 Clear 4 1025 20 10000 0.89 206 12:22 05.02.2022
5493 Clear 6 1026 19 10000 0.89 191 10:48 05.02.2022
5494 Clear 6 1026 19 10000 0.89 194 10:20 05.02.2022
5495 Clear 6 1027 19 10000 0.89 188 09:43 05.02.2022
5496 Clear 7 1027 19 10000 1.34 177 07:51 05.02.2022
5497 Clear 7 1027 20 10000 0.89 202 06:57 05.02.2022
5498 Clear 9 1027 17 10000 0.89 0 04:29 05.02.2022
5499 Clear 13 1027 13 10000 1.79 0 01:19 05.02.2022
5500 Clear 14 1027 12 10000 1.79 0 00:52 05.02.2022
5501 Clear 14 1027 13 10000 2.68 0 23:39 04.02.2022
5502 Clear 14 1027 14 10000 2.24 0 23:21 04.02.2022
5503 Clear 14 1028 14 10000 3.13 0 21:54 04.02.2022
5504 Clear 13 1029 15 10000 2.68 0 21:36 04.02.2022
5505 Clear 13 1029 15 10000 3.13 0 21:18 04.02.2022
5506 Clear 11 1031 19 10000 0.89 0 19:36 04.02.2022
5507 Clear 8 1031 25 10000 1.79 0 17:40 04.02.2022
5508 Clear 2 1030 38 10000 0.45 96 15:39 04.02.2022
5509 Clear 3 1027 36 10000 0.45 9 14:52 04.02.2022
5510 Clear 3 1026 36 10000 1.79 27 13:24 04.02.2022
5511 Clear 4 1026 34 10000 0.89 132 12:42 04.02.2022
5512 Clear 4 1026 31 10000 0.89 51 11:41 04.02.2022
5513 Clear 3 1025 28 10000 2.06 190 10:34 04.02.2022
5514 Clear 3 1025 23 10000 4.12 150 08:34 04.02.2022
5515 Clear 5 1025 20 10000 0.45 218 05:23 04.02.2022
5516 Clear 8 1022 16 10000 1.79 0 02:40 04.02.2022
5517 Clear 12 1020 13 10000 1.79 0 00:31 04.02.2022
5518 Clear 12 1020 13 10000 1.79 0 23:28 03.02.2022
5519 Clear 11 1020 13 10000 2.24 0 22:31 03.02.2022
5520 Clear 11 1020 14 10000 1.34 0 21:48 03.02.2022
5521 Clear 10 1021 17 10000 0.45 0 20:27 03.02.2022
5522 Clear 9 1021 19 10000 0.45 0 19:59 03.02.2022
5523 Clear 8 1021 20 10000 0.45 0 19:26 03.02.2022
5524 Clear 7 1021 24 10000 0.45 0 18:28 03.02.2022
5525 Clear 4 1021 29 10000 0.45 0 17:32 03.02.2022
5526 Clear 0 1018 32 10000 3.6 150 15:52 03.02.2022
5527 Clear 0 1018 33 10000 4.12 150 14:26 03.02.2022
5528 Clear 0 1017 32 10000 3.6 150 12:37 03.02.2022
5529 Clear 2 1016 28 10000 3.6 150 09:29 03.02.2022
5530 Clear 3 1015 25 10000 3.6 140 08:23 03.02.2022
5531 Clear 7 1013 17 10000 1.79 319 03:28 03.02.2022
5532 Clear 12 1010 14 10000 3.13 0 00:30 03.02.2022
5533 Clear 14 1008 18 10000 4.02 279 22:47 02.02.2022
5534 Clouds 15 1008 30 10000 2.68 0 21:53 02.02.2022
5535 Clouds 14 1008 38 10000 2.68 0 21:29 02.02.2022
5536 Clouds 14 1009 40 10000 1.79 0 20:28 02.02.2022
5537 Clouds 14 1010 42 10000 1.34 0 19:49 02.02.2022
5538 Clouds 14 1010 44 10000 0.89 0 19:20 02.02.2022
5539 Clouds 12 1011 42 10000 0.89 0 18:25 02.02.2022
5540 Clouds 12 1010 42 10000 1.34 0 17:37 02.02.2022
5541 Clouds 11 1010 43 10000 0.89 0 17:18 02.02.2022
5542 Clouds 10 1010 45 10000 1.34 175 16:20 02.02.2022
5543 Clouds 10 1008 40 10000 0.45 179 12:50 02.02.2022
5544 Clouds 10 1008 38 10000 0.89 192 11:51 02.02.2022
5545 Clouds 10 1009 37 10000 0.45 179 11:31 02.02.2022
5546 Clouds 11 1008 34 10000 0 0 09:22 02.02.2022
5547 Clouds 12 1010 31 10000 0.45 183 05:29 02.02.2022
5548 Clouds 18 1009 24 10000 0.89 0 22:36 01.02.2022
5549 Clouds 18 1010 25 10000 0.89 0 21:30 01.02.2022
5550 Clouds 17 1012 27 10000 0.45 0 19:56 01.02.2022
5551 Clear 13 1013 36 10000 0.45 0 17:38 01.02.2022
5552 Clouds 10 1015 41 10000 0.89 166 16:31 01.02.2022
5553 Clouds 8 1013 42 10000 3.6 140 13:27 01.02.2022
5554 Clouds 8 1013 41 10000 4.12 150 12:28 01.02.2022
5555 Clouds 8 1013 41 10000 4.12 150 12:28 01.02.2022
5556 Clouds 8 1014 40 10000 3.6 150 10:42 01.02.2022
5557 Clear 16 1016 27 10000 0.45 0 02:24 01.02.2022
5558 Clear 19 1017 21 10000 2.24 0 23:39 31.01.2022
5559 Clear 20 1017 21 10000 2.24 0 22:42 31.01.2022
5560 Clear 20 1017 22 10000 1.79 0 21:36 31.01.2022
5561 Clear 19 1019 24 10000 0.89 168 20:35 31.01.2022
5562 Clear 18 1019 26 10000 0.45 0 19:59 31.01.2022
5563 Clear 16 1020 30 10000 1.34 270 18:54 31.01.2022
5564 Clear 14 1020 33 10000 0.45 0 18:18 31.01.2022
5565 Clear 12 1020 39 10000 0.45 0 17:24 31.01.2022
5566 Clear 8 1020 44 10000 3.09 120 16:25 31.01.2022
5567 Clear 5 1020 45 10000 1.54 130 14:54 31.01.2022
5568 Clear 6 1020 48 10000 2.57 150 13:43 31.01.2022
5569 Clear 6 1020 47 10000 1.54 110 12:38 31.01.2022
5570 Clear 8 1020 45 10000 2.06 140 11:31 31.01.2022
5571 Clear 8 1020 43 10000 2.06 150 10:48 31.01.2022
5572 Clear 9 1020 42 10000 3.6 150 09:38 31.01.2022
5573 Clear 9 1021 41 10000 2.57 130 08:56 31.01.2022
5574 Clear 10 1020 41 10000 2.57 130 08:38 31.01.2022
5575 Clear 10 1020 40 10000 2.57 130 08:19 31.01.2022
5576 Clear 11 1020 37 10000 0.45 66 06:18 31.01.2022
5577 Clear 19 1019 21 10000 2.24 0 00:43 31.01.2022
5578 Clear 19 1018 20 10000 1.79 0 22:34 30.01.2022
5579 Clouds 19 1019 21 10000 1.79 0 21:47 30.01.2022
5580 Clear 19 1019 21 10000 1.34 0 21:26 30.01.2022
5581 Clear 18 1019 22 10000 2.68 0 20:55 30.01.2022
5582 Clear 18 1020 22 10000 2.24 0 20:31 30.01.2022
5583 Clear 18 1020 23 10000 1.79 0 19:58 30.01.2022
5584 Clear 16 1020 27 10000 0.89 0 18:52 30.01.2022
5585 Clear 16 1020 28 10000 0.45 0 18:26 30.01.2022
5586 Clouds 14 1019 33 10000 0.89 155 17:33 30.01.2022
5587 Clear 12 1019 38 10000 0.89 157 16:44 30.01.2022
5588 Clear 10 1019 43 10000 0.45 171 16:23 30.01.2022
5589 Clouds 9 1017 42 10000 3.6 160 15:55 30.01.2022
5590 Clouds 9 1017 42 10000 3.6 160 15:37 30.01.2022
5591 Clouds 10 1018 41 10000 0.45 128 15:19 30.01.2022
5592 Clouds 10 1016 43 10000 2.57 150 14:44 30.01.2022
5593 Clouds 10 1017 42 10000 0.89 183 12:46 30.01.2022
5594 Clouds 10 1017 40 10000 0.45 173 11:49 30.01.2022
5595 Clouds 11 1017 37 10000 2.06 130 10:26 30.01.2022
5596 Clouds 12 1017 38 10000 1.34 112 09:26 30.01.2022
5597 Clouds 12 1018 37 10000 1.54 110 08:32 30.01.2022
5598 Clear 16 1017 26 10000 0.45 181 02:58 30.01.2022
5599 Clear 19 1017 22 10000 0.89 43 01:54 30.01.2022
5600 Clear 21 1018 17 10000 1.34 40 23:49 29.01.2022
5601 Clear 21 1020 17 10000 1.34 125 22:58 29.01.2022
5602 Clear 20 1021 19 10000 1.34 0 21:35 29.01.2022
5603 Clear 20 1022 20 10000 5.36 133 21:00 29.01.2022
5604 Clear 18 1021 21 10000 3.58 116 20:21 29.01.2022
5605 Clear 18 1022 22 10000 12.35 140 19:33 29.01.2022
5606 Clear 16 1023 24 10000 3.58 123 18:51 29.01.2022
5607 Clouds 14 1024 26 10000 0.89 0 17:56 29.01.2022
5608 Clear 12 1022 31 10000 0.89 142 17:19 29.01.2022
5609 Clear 8 1022 36 10000 0.89 193 15:42 29.01.2022
5610 Clear 8 1023 35 10000 0.45 0 13:58 29.01.2022
5611 Clear 9 1023 34 10000 0.89 0 13:36 29.01.2022
5612 Clear 9 1023 34 10000 0.45 0 13:18 29.01.2022
5613 Clear 9 1023 32 10000 0.45 0 11:39 29.01.2022
5614 Clear 10 1022 30 10000 1.34 0 10:34 29.01.2022
5615 Clear 11 1024 28 10000 0.89 0 08:20 29.01.2022
5616 Clouds 14 1024 22 10000 1.34 0 02:48 29.01.2022
5617 Clear 17 1024 19 10000 2.24 0 00:32 29.01.2022
5618 Clear 18 1024 19 10000 3.13 0 23:32 28.01.2022
5619 Clear 18 1025 19 10000 1.79 0 22:47 28.01.2022
5620 Clear 18 1025 19 10000 1.79 0 22:19 28.01.2022
5621 Clear 17 1027 21 10000 1.34 0 20:41 28.01.2022
5622 Clouds 16 1028 22 10000 0.89 0 19:58 28.01.2022
5623 Clear 14 1028 24 10000 3.58 129 18:52 28.01.2022
5624 Clear 14 1027 24 10000 0.89 0 18:34 28.01.2022
5625 Clear 9 1027 30 10000 0.89 39 16:23 28.01.2022
5626 Clear 8 1026 31 10000 2.24 75 14:54 28.01.2022
5627 Clear 7 1024 30 10000 1.54 140 12:42 28.01.2022
5628 Clear 7 1024 31 10000 4.63 140 11:49 28.01.2022
5629 Clear 8 1024 26 10000 5.14 140 10:27 28.01.2022
5630 Clear 8 1025 28 10000 5.66 140 09:46 28.01.2022
5631 Clear 10 1024 30 10000 3.09 200 07:41 28.01.2022
5632 Clear 11 1023 31 10000 3.6 190 06:29 28.01.2022
5633 Clear 11 1022 34 10000 0.45 0 03:51 28.01.2022
5634 Clear 14 1022 30 10000 0.45 0 02:27 28.01.2022
5635 Clear 16 1021 25 10000 1.34 0 01:37 28.01.2022
5636 Clear 16 1021 25 10000 1.34 0 01:37 28.01.2022
5637 Clear 17 1021 21 10000 0.89 0 00:42 28.01.2022
5638 Clear 17 1020 23 10000 0.89 0 22:20 27.01.2022
5639 Clear 17 1021 25 10000 0.89 0 21:37 27.01.2022
5640 Clear 16 1021 26 10000 0.45 0 20:59 27.01.2022
5641 Clear 14 1022 30 10000 0.45 0 19:37 27.01.2022
5642 Clear 11 1023 36 10000 0.89 118 18:19 27.01.2022
5643 Clear 7 1021 48 10000 2.06 130 16:45 27.01.2022
5644 Clear 4 1020 50 10000 3.09 160 13:57 27.01.2022
5645 Clear 4 1020 51 10000 4.12 140 12:49 27.01.2022
5646 Clear 4 1020 48 10000 0 0 11:53 27.01.2022
5647 Clear 6 1020 47 10000 4.63 150 09:48 27.01.2022
5648 Clear 8 1020 42 10000 4.63 150 08:40 27.01.2022
5649 Clear 8 1020 41 10000 4.12 160 07:31 27.01.2022
5650 Clear 12 1019 32 10000 0.89 0 03:19 27.01.2022
5651 Clear 18 1018 19 10000 0.89 0 00:23 27.01.2022
5652 Clear 18 1019 18 10000 1.79 195 22:27 26.01.2022
5653 Clear 17 1020 21 10000 0.45 0 21:44 26.01.2022
5654 Clear 16 1020 27 10000 0.45 327 20:43 26.01.2022
5655 Clear 16 1021 28 10000 0.45 0 20:24 26.01.2022
5656 Clear 14 1021 32 10000 0.45 0 19:30 26.01.2022
5657 Clear 13 1022 36 10000 0.45 0 18:46 26.01.2022
5658 Clear 11 1021 42 10000 0 0 17:53 26.01.2022
5659 Clear 10 1021 44 10000 0.89 253 17:32 26.01.2022
5660 Clear 7 1020 50 10000 2.57 150 16:46 26.01.2022
5661 Clear 5 1019 53 10000 0 0 15:50 26.01.2022
5662 Clear 5 1018 50 10000 4.12 140 14:30 26.01.2022
5663 Clear 7 1019 45 10000 0.16 282 11:59 26.01.2022
5664 Clear 7 1018 46 10000 1.54 120 10:49 26.01.2022
5665 Clear 8 1017 44 10000 2.06 130 09:50 26.01.2022
5666 Clear 9 1017 41 10000 2.06 200 08:32 26.01.2022
5667 Clear 10 1017 37 10000 1.79 236 06:20 26.01.2022
5668 Clear 10 1017 37 10000 1.79 236 06:20 26.01.2022
5669 Clear 19 1014 22 10000 1.79 0 00:18 26.01.2022
5670 Clear 20 1014 21 10000 2.24 0 23:34 25.01.2022
5671 Clear 19 1014 22 10000 1.79 0 22:48 25.01.2022
5672 Clear 19 1014 22 10000 1.34 0 22:18 25.01.2022
5673 Clear 19 1015 23 10000 0.45 0 21:22 25.01.2022
5674 Clear 18 1015 26 10000 0.89 0 20:44 25.01.2022
5675 Clear 17 1016 28 10000 0.45 111 19:53 25.01.2022
5676 Clear 14 1017 35 10000 0.45 0 18:46 25.01.2022
5677 Clear 12 1017 41 10000 0.89 0 17:45 25.01.2022
5678 Clear 10 1017 47 10000 0.45 0 16:58 25.01.2022
5679 Clear 7 1016 49 10000 4.12 140 16:34 25.01.2022
5680 Clear 7 1015 50 10000 4.63 150 15:39 25.01.2022
5681 Clouds 7 1015 51 10000 2.03 145 14:58 25.01.2022
5682 Clear 6 1014 49 10000 2.06 140 13:47 25.01.2022
5683 Clear 9 1014 44 10000 0.42 265 10:59 25.01.2022
5684 Clear 8 1017 47 10000 3.6 130 09:21 25.01.2022
5685 Clear 9 1016 45 10000 3.6 160 07:31 25.01.2022
5686 Clear 9 1015 43 10000 3.6 170 06:53 25.01.2022
5687 Clear 11 1015 39 10000 2.57 160 05:22 25.01.2022
5688 Clear 19 1016 24 10000 2.24 0 23:37 24.01.2022
5689 Clear 19 1016 24 10000 2.24 0 23:19 24.01.2022
5690 Clear 19 1016 25 10000 2.24 0 23:00 24.01.2022
5691 Clear 19 1016 26 10000 2.24 0 22:41 24.01.2022
5692 Clear 18 1016 29 10000 2.24 0 21:55 24.01.2022
5693 Clear 18 1016 30 10000 1.79 0 21:32 24.01.2022
5694 Clear 17 1018 35 10000 1.34 0 20:33 24.01.2022
5695 Clear 16 1019 39 10000 0.89 0 19:57 24.01.2022
5696 Clear 16 1019 42 10000 0.45 0 19:35 24.01.2022
5697 Clear 13 1019 51 10000 0.89 0 18:19 24.01.2022
5698 Clear 10 1019 61 10000 1.34 0 17:24 24.01.2022
5699 Clear 9 1019 64 10000 0.45 183 16:55 24.01.2022
5700 Clear 7 1018 67 10000 3.09 130 16:19 24.01.2022
5701 Clear 6 1019 70 10000 4.12 150 14:44 24.01.2022
5702 Clear 6 1018 69 10000 3.09 150 13:26 24.01.2022
5703 Clear 6 1018 70 10000 3.6 150 12:30 24.01.2022
5704 Clear 7 1018 65 10000 2.57 180 10:46 24.01.2022
5705 Clear 8 1019 68 10000 2.57 150 09:48 24.01.2022
5706 Clear 8 1019 62 10000 3.09 160 08:41 24.01.2022
5707 Clear 9 1019 60 10000 2.06 170 06:41 24.01.2022
5708 Clear 16 1019 38 10000 0.45 0 01:31 24.01.2022
5709 Clear 17 1018 35 10000 0.45 0 00:38 24.01.2022
5710 Clear 17 1018 35 10000 0.89 0 00:20 24.01.2022
5711 Clear 17 1018 36 10000 0.89 0 22:37 23.01.2022
5712 Clear 17 1019 37 10000 1.34 0 21:50 23.01.2022
5713 Clear 16 1019 38 10000 1.34 0 21:26 23.01.2022
5714 Clear 16 1020 38 10000 1.34 0 20:45 23.01.2022
5715 Clouds 15 1020 40 10000 1.79 0 19:54 23.01.2022
5716 Clouds 14 1021 47 10000 1.79 0 18:52 23.01.2022
5717 Clear 12 1020 52 10000 1.34 0 17:50 23.01.2022
5718 Clear 11 1019 56 10000 1.34 0 16:48 23.01.2022
5719 Clear 8 1018 66 10000 2.24 121 15:18 23.01.2022
5720 Clear 8 1019 70 10000 0.45 180 14:31 23.01.2022
5721 Clear 8 1018 69 10000 0.45 180 14:31 23.01.2022
5722 Clear 8 1017 74 10000 0.45 180 13:22 23.01.2022
5723 Clear 8 1018 74 10000 3.09 80 12:36 23.01.2022
5724 Clear 8 1018 74 10000 0.45 194 12:18 23.01.2022
5725 Clouds 9 1018 75 10000 0.45 0 11:23 23.01.2022
5726 Clouds 9 1019 77 10000 0 0 10:43 23.01.2022
5727 Clouds 9 1019 76 10000 0.45 0 10:19 23.01.2022
5728 Clouds 10 1019 69 10000 0.89 0 09:19 23.01.2022
5729 Clouds 11 1018 66 10000 0.89 0 05:58 23.01.2022
5730 Clouds 13 1015 51 10000 1.79 0 01:54 23.01.2022
5731 Clouds 13 1015 50 10000 0.89 0 01:34 23.01.2022
5732 Clouds 15 1014 39 10000 1.79 0 00:31 23.01.2022
5733 Clouds 16 1014 37 10000 0.45 0 23:57 22.01.2022
5734 Clouds 15 1014 36 10000 0.45 0 22:46 22.01.2022
5735 Clouds 15 1015 36 10000 1.34 0 21:38 22.01.2022
5736 Clouds 15 1015 37 10000 0.89 0 20:24 22.01.2022
5737 Clouds 14 1016 39 10000 0.45 0 19:27 22.01.2022
5738 Clouds 12 1016 43 10000 0.45 0 18:25 22.01.2022
5739 Clouds 11 1016 44 10000 1.79 241 17:41 22.01.2022
5740 Clouds 9 1014 47 10000 3.43 105 16:57 22.01.2022
5741 Clouds 9 1013 48 10000 3.17 103 15:55 22.01.2022
5742 Clouds 9 1013 46 10000 0 0 15:37 22.01.2022
5743 Clear 8 1012 47 10000 2.1 115 13:59 22.01.2022
5744 Clear 8 1012 46 10000 2.06 190 12:55 22.01.2022
5745 Clear 8 1012 46 10000 2.06 190 12:30 22.01.2022
5746 Clear 8 1012 44 10000 3.09 130 11:49 22.01.2022
5747 Clear 9 1013 46 10000 3.6 150 10:31 22.01.2022
5748 Clear 9 1012 46 10000 0.89 91 09:59 22.01.2022
5749 Clear 10 1013 44 10000 2.57 190 08:53 22.01.2022
5750 Clear 10 1012 44 10000 3.09 160 07:56 22.01.2022
5751 Clear 12 1013 39 10000 0.45 0 04:53 22.01.2022
5752 Clear 17 1013 29 10000 0.45 208 01:58 22.01.2022
5753 Clear 20 1014 19 10000 1.34 0 23:46 21.01.2022
5754 Clear 20 1015 19 10000 0.45 0 22:41 21.01.2022
5755 Clear 19 1017 25 10000 0.89 0 20:45 21.01.2022
5756 Clear 15 1019 40 10000 0.45 0 18:41 21.01.2022
5757 Clear 12 1019 49 10000 0.89 0 17:45 21.01.2022
5758 Clear 7 1018 58 10000 4.12 160 15:47 21.01.2022
5759 Clear 7 1019 61 10000 4.12 150 13:55 21.01.2022
5760 Clear 7 1020 64 10000 3.6 140 12:39 21.01.2022
5761 Clear 7 1020 59 10000 4.63 140 11:28 21.01.2022
5762 Clear 9 1021 53 10000 5.14 150 10:20 21.01.2022
5763 Clear 9 1021 57 10000 3.09 150 08:25 21.01.2022
5764 Clear 10 1022 55 10000 3.09 160 07:19 21.01.2022
5765 Clear 19 1021 36 10000 0.89 0 23:54 20.01.2022
5766 Clear 19 1022 37 10000 0.89 0 22:44 20.01.2022
5767 Clear 18 1022 40 10000 0.45 0 21:47 20.01.2022
5768 Clear 17 1023 45 10000 0.89 0 20:56 20.01.2022
5769 Clear 15 1024 54 10000 0.89 0 19:21 20.01.2022
5770 Clear 14 1024 59 10000 0.45 0 18:51 20.01.2022
5771 Clear 11 1025 70 10000 2.06 160 17:31 20.01.2022
5772 Clear 5 1021 81 10000 0 0 15:45 20.01.2022
5773 Clear 6 1021 81 10000 0 0 15:24 20.01.2022
5774 Clear 7 1021 78 10000 2.57 120 13:42 20.01.2022
5775 Clear 7 1020 76 10000 4.12 140 12:38 20.01.2022
5776 Clear 8 1021 76 10000 2.57 150 11:57 20.01.2022
5777 Clear 8 1022 76 10000 2.57 140 10:47 20.01.2022
5778 Clear 8 1020 75 10000 2.57 150 09:42 20.01.2022
5779 Clear 9 1020 73 10000 4.12 150 08:34 20.01.2022
5780 Clear 11 1020 64 10000 0.45 210 05:34 20.01.2022
5781 Clear 18 1019 44 10000 2.24 0 23:35 19.01.2022
5782 Clear 17 1019 46 10000 1.79 0 22:32 19.01.2022
5783 Clear 16 1020 51 10000 2.24 0 21:24 19.01.2022
5784 Clear 16 1020 53 10000 1.34 0 20:50 19.01.2022
5785 Clouds 16 1021 61 10000 1.34 0 19:58 19.01.2022
5786 Clouds 13 1021 76 10000 1.34 0 18:43 19.01.2022
5787 Clouds 11 1021 81 10000 1.34 0 17:49 19.01.2022
5788 Clouds 10 1020 84 10000 1.79 258 16:57 19.01.2022
5789 Clouds 8 1018 87 10000 2.57 150 14:42 19.01.2022
5790 Clouds 9 1019 86 10000 0 0 12:53 19.01.2022
5791 Clear 9 1018 84 10000 0 0 11:42 19.01.2022
5792 Clear 9 1018 83 10000 1.54 60 10:37 19.01.2022
5793 Clear 10 1018 84 10000 2.57 140 09:34 19.01.2022
5794 Clear 11 1018 85 10000 1.54 150 07:18 19.01.2022
5795 Clouds 12 1018 83 10000 0.45 0 05:18 19.01.2022
5796 Drizzle 17 1015 57 10000 2.68 0 23:24 18.01.2022
5797 Clouds 18 1016 57 10000 3.13 0 22:44 18.01.2022
5798 Rain 17 1016 61 10000 1.79 0 21:20 18.01.2022
5799 Clouds 17 1018 64 10000 0.89 0 19:55 18.01.2022
5800 Clouds 17 1018 65 10000 0.45 0 19:37 18.01.2022
5801 Clouds 17 1019 59 10000 0.45 0 18:57 18.01.2022
5802 Clouds 15 1019 63 10000 0.89 0 17:58 18.01.2022
5803 Clear 13 1018 68 10000 3.09 140 16:59 18.01.2022
5804 Clouds 11 1017 70 10000 2.06 150 15:48 18.01.2022
5805 Clouds 11 1017 70 10000 2.06 150 15:48 18.01.2022
5806 Clouds 11 1017 70 10000 2.06 150 15:48 18.01.2022
5807 Clouds 11 1017 69 10000 2.06 150 15:22 18.01.2022
5808 Clouds 12 1017 59 10000 3.09 140 12:49 18.01.2022
5809 Clouds 11 1017 56 10000 3.6 140 10:48 18.01.2022
5810 Clouds 12 1018 52 10000 3.6 150 09:28 18.01.2022
5811 Clear 13 1018 45 10000 1.54 180 07:56 18.01.2022
5812 Clouds 14 1018 43 10000 0.45 0 05:31 18.01.2022
5813 Clear 22 1017 27 10000 1.79 0 23:55 17.01.2022
5814 Clear 22 1018 25 10000 0.89 0 22:29 17.01.2022
5815 Clouds 21 1019 22 10000 0.45 0 21:35 17.01.2022
5816 Clouds 19 1020 26 10000 0.45 0 20:27 17.01.2022
5817 Clouds 15 1021 36 10000 0.45 293 18:31 17.01.2022
5818 Clouds 13 1019 37 10000 2.57 160 17:44 17.01.2022
5819 Clear 10 1019 39 10000 3.09 160 16:44 17.01.2022
5820 Clear 10 1019 38 10000 3.6 140 15:22 17.01.2022
5821 Clear 10 1019 39 10000 1.54 70 14:56 17.01.2022
5822 Clear 9 1018 39 10000 3.09 130 13:27 17.01.2022
5823 Clear 10 1018 35 10000 3.6 160 12:56 17.01.2022
5824 Clear 11 1018 34 10000 3.09 160 11:49 17.01.2022
5825 Clear 10 1018 33 10000 2.57 160 10:25 17.01.2022
5826 Clear 12 1019 33 10000 2.57 160 09:34 17.01.2022
5827 Clear 13 1019 31 10000 4.12 140 07:24 17.01.2022
5828 Clear 13 1018 31 10000 4.12 150 06:56 17.01.2022
5829 Clear 21 1017 15 10000 2.24 0 00:55 17.01.2022
5830 Clear 23 1018 13 10000 0.45 0 22:30 16.01.2022
5831 Clear 21 1019 13 10000 0.89 0 20:36 16.01.2022
5832 Clear 17 1021 19 10000 0.89 117 18:52 16.01.2022
5833 Clouds 14 1021 23 10000 0.89 0 17:59 16.01.2022
5834 Clear 12 1021 26 10000 0.89 0 17:21 16.01.2022
5835 Clear 9 1021 30 10000 1.34 0 16:33 16.01.2022
5836 Clear 9 1020 29 10000 0.45 0 14:31 16.01.2022
5837 Clear 9 1020 29 10000 1.34 0 13:49 16.01.2022
5838 Clouds 10 1020 28 10000 0.45 0 12:48 16.01.2022
5839 Clouds 10 1020 27 10000 0.45 0 11:42 16.01.2022
5840 Clear 10 1021 28 10000 1.34 0 10:54 16.01.2022
5841 Clear 10 1021 28 10000 1.79 0 10:19 16.01.2022
5842 Clear 11 1021 27 10000 1.79 0 09:40 16.01.2022
5843 Clear 11 1020 26 10000 1.79 0 09:22 16.01.2022
5844 Clear 12 1022 25 10000 0.89 0 07:30 16.01.2022
5845 Clear 18 1022 21 10000 1.79 0 00:38 16.01.2022
5846 Clear 18 1022 21 10000 1.79 0 23:40 15.01.2022
5847 Clouds 19 1023 22 10000 2.24 0 21:23 15.01.2022
5848 Clear 19 1023 22 10000 2.24 0 20:56 15.01.2022
5849 Clear 19 1024 22 10000 2.68 0 20:38 15.01.2022
5850 Clear 18 1024 22 10000 2.24 0 19:28 15.01.2022
5851 Clear 16 1025 25 10000 1.79 0 18:31 15.01.2022
5852 Clear 11 1023 32 10000 0 0 16:52 15.01.2022
5853 Clear 7 1022 40 10000 0 0 15:39 15.01.2022
5854 Clear 8 1021 43 10000 2.06 120 13:35 15.01.2022
5855 Clear 9 1021 43 10000 2.57 130 11:46 15.01.2022
5856 Clear 9 1021 43 10000 2.57 130 11:46 15.01.2022
5857 Clear 9 1021 43 10000 4.63 150 09:49 15.01.2022
5858 Clear 13 1021 32 10000 0.45 0 05:27 15.01.2022
5859 Clouds 19 1019 23 10000 2.68 0 23:44 14.01.2022
5860 Clouds 20 1019 24 10000 0.89 0 21:29 14.01.2022
5861 Clouds 19 1020 25 10000 0.45 0 20:37 14.01.2022
5862 Clear 19 1020 26 10000 0.89 0 19:56 14.01.2022
5863 Clouds 17 1022 33 10000 0.45 222 18:43 14.01.2022
5864 Clouds 15 1020 35 10000 2.06 170 17:53 14.01.2022
5865 Clear 10 1020 41 10000 3.09 120 16:43 14.01.2022
5866 Clear 10 1020 41 10000 3.09 120 16:43 14.01.2022
5867 Clear 8 1020 44 10000 2.57 120 15:33 14.01.2022
5868 Clouds 8 1019 44 10000 2.57 140 14:29 14.01.2022
5869 Clouds 11 1018 43 10000 0.3 71 12:59 14.01.2022
5870 Clear 10 1020 44 10000 3.6 150 11:53 14.01.2022
5871 Clear 11 1021 44 10000 4.63 130 10:40 14.01.2022
5872 Clear 11 1021 44 10000 3.09 140 08:53 14.01.2022
5873 Clear 11 1021 42 10000 3.6 150 07:35 14.01.2022
5874 Clear 17 1021 29 10000 0.45 0 02:28 14.01.2022
5875 Clear 22 1021 20 10000 0.89 0 00:33 14.01.2022
5876 Clear 23 1022 18 10000 1.79 0 21:52 13.01.2022
5877 Clear 22 1022 19 10000 0.89 0 21:29 13.01.2022
5878 Clouds 19 1024 26 10000 0.45 0 19:58 13.01.2022
5879 Clouds 18 1025 28 10000 0.89 61 19:29 13.01.2022
5880 Clouds 17 1025 30 10000 0.89 226 18:49 13.01.2022
5881 Clouds 12 1023 37 10000 2.29 103 16:57 13.01.2022
5882 Clear 8 1024 42 10000 3.6 130 15:39 13.01.2022
5883 Clear 8 1024 43 10000 3.6 130 15:21 13.01.2022
5884 Clear 9 1024 43 10000 4.63 140 13:29 13.01.2022
5885 Clear 9 1025 43 10000 4.63 180 11:18 13.01.2022
5886 Clear 10 1025 43 10000 2.06 120 09:23 13.01.2022
5887 Clear 10 1025 45 10000 3.09 170 08:29 13.01.2022
5888 Clouds 10 1023 43 10000 2.29 99 07:58 13.01.2022
5889 Clear 11 1025 47 10000 3.6 150 07:19 13.01.2022
5890 Clear 12 1025 45 10000 1.54 140 05:21 13.01.2022
5891 Clear 13 1024 44 10000 0 0 03:48 13.01.2022
5892 Clear 17 1024 38 10000 0.89 0 01:39 13.01.2022
5893 Clear 20 1024 28 10000 1.79 0 23:54 12.01.2022
5894 Clear 20 1024 27 10000 1.34 0 23:34 12.01.2022
5895 Clear 21 1025 26 10000 1.34 0 22:32 12.01.2022
5896 Clear 20 1025 26 10000 0.89 88 21:43 12.01.2022
5897 Clear 20 1025 27 10000 0.89 146 21:19 12.01.2022
5898 Clear 19 1026 29 10000 0.45 0 20:47 12.01.2022
5899 Clear 16 1027 37 10000 4.63 140 18:52 12.01.2022
5900 Clear 13 1027 42 10000 4.63 140 18:18 12.01.2022
5901 Clear 10 1026 47 10000 2.57 130 16:57 12.01.2022
5902 Clear 8 1025 49 10000 1.54 100 15:38 12.01.2022
5903 Clear 8 1025 50 10000 2.06 60 14:39 12.01.2022
5904 Clear 9 1025 48 10000 2.57 80 12:57 12.01.2022
5905 Clear 10 1025 43 10000 4.63 140 09:57 12.01.2022
5906 Clouds 11 1025 43 10000 3 87 07:58 12.01.2022
5907 Clear 11 1026 41 10000 0 0 07:33 12.01.2022
5908 Clear 14 1024 34 10000 0.89 0 02:38 12.01.2022
5909 Clear 19 1023 24 10000 0.89 93 23:27 11.01.2022
5910 Clear 18 1024 25 10000 0.89 54 22:39 11.01.2022
5911 Clear 18 1024 25 10000 0.45 0 22:18 11.01.2022
5912 Clear 18 1026 27 10000 0.89 72 20:40 11.01.2022
5913 Clear 16 1027 30 10000 0.89 0 19:35 11.01.2022
5914 Clear 13 1028 38 10000 1.34 0 17:55 11.01.2022
5915 Clear 10 1026 45 10000 0.45 0 16:46 11.01.2022
5916 Clear 9 1026 48 10000 0.45 0 16:28 11.01.2022
5917 Clear 8 1025 50 10000 1.79 0 14:53 11.01.2022
5918 Clear 9 1025 49 10000 1.79 0 14:34 11.01.2022
5919 Clear 9 1025 48 10000 1.79 0 13:52 11.01.2022
5920 Clear 9 1025 47 10000 1.79 0 13:28 11.01.2022
5921 Clear 9 1025 46 10000 1.79 0 12:34 11.01.2022
5922 Clear 10 1025 45 10000 2.68 0 10:32 11.01.2022
5923 Clear 11 1026 47 10000 2.24 0 08:26 11.01.2022
5924 Clear 13 1027 42 10000 1.79 0 04:28 11.01.2022
5925 Clear 18 1025 34 10000 2.24 76 00:27 11.01.2022
5926 Clear 19 1026 30 10000 1.79 0 23:39 10.01.2022
5927 Clear 20 1026 27 10000 2.68 0 22:39 10.01.2022
5928 Clear 20 1026 26 10000 1.79 0 22:18 10.01.2022
5929 Clear 20 1026 26 10000 2.68 0 21:36 10.01.2022
5930 Clear 19 1026 26 10000 1.79 0 21:18 10.01.2022
5931 Clear 19 1027 26 10000 1.79 0 20:54 10.01.2022
5932 Clear 19 1028 27 10000 2.24 0 20:19 10.01.2022
5933 Clear 18 1029 28 10000 1.79 0 19:39 10.01.2022
5934 Clear 18 1029 29 10000 2.24 0 19:19 10.01.2022
5935 Clear 18 1029 29 10000 2.24 0 19:19 10.01.2022
5936 Clear 17 1029 29 10000 1.79 0 18:46 10.01.2022
5937 Clear 13 1028 37 10000 1.34 0 16:48 10.01.2022
5938 Clear 12 1028 43 10000 1.79 3 16:27 10.01.2022
5939 Clear 12 1027 42 10000 1.79 0 14:44 10.01.2022
5940 Clear 12 1026 41 10000 1.79 0 13:35 10.01.2022
5941 Clear 12 1027 42 10000 1.79 0 11:56 10.01.2022
5942 Clear 12 1027 42 10000 0.89 0 10:49 10.01.2022
5943 Clear 12 1027 44 10000 1.34 0 09:37 10.01.2022
5944 Clear 13 1028 46 10000 0.45 0 05:52 10.01.2022
5945 Clear 16 1026 40 10000 0.89 0 02:38 10.01.2022
5946 Clear 19 1025 32 10000 0.45 0 01:21 10.01.2022
5947 Clear 21 1025 28 10000 0.89 49 00:21 10.01.2022
5948 Clear 21 1025 27 10000 1.79 0 22:47 09.01.2022
5949 Clear 21 1025 28 10000 0.89 0 22:21 09.01.2022
5950 Clear 21 1025 31 10000 0.89 0 21:41 09.01.2022
5951 Clear 20 1025 31 10000 0.89 0 21:22 09.01.2022
5952 Clear 20 1026 34 10000 1.34 0 20:47 09.01.2022
5953 Clear 19 1026 36 10000 1.34 0 20:28 09.01.2022
5954 Clear 18 1026 39 10000 0.89 344 19:41 09.01.2022
5955 Clear 17 1026 42 10000 0.45 0 19:21 09.01.2022
5956 Clear 16 1026 45 10000 1.54 160 18:41 09.01.2022
5957 Clear 15 1026 49 10000 1.54 160 18:23 09.01.2022
5958 Clear 11 1025 59 10000 0 0 17:30 09.01.2022
5959 Clear 11 1024 57 10000 1.54 150 16:50 09.01.2022
5960 Clear 8 1023 63 10000 2.06 90 15:52 09.01.2022
5961 Clear 8 1023 64 10000 2.06 90 15:33 09.01.2022
5962 Clear 8 1023 64 10000 2.06 140 14:39 09.01.2022
5963 Clear 9 1023 64 10000 2.57 80 13:49 09.01.2022
5964 Clear 9 1022 64 10000 2.06 160 12:26 09.01.2022
5965 Clear 9 1022 65 10000 2.57 130 11:45 09.01.2022
5966 Clear 9 1021 62 10000 3.6 120 09:55 09.01.2022
5967 Clear 10 1021 62 10000 3.6 120 09:29 09.01.2022
5968 Clear 9 1021 61 10000 2.57 110 08:18 09.01.2022
5969 Clouds 17 1017 39 10000 1.34 0 01:43 09.01.2022
5970 Clouds 18 1017 37 10000 1.79 0 01:19 09.01.2022
5971 Clouds 20 1016 30 10000 2.68 0 23:38 08.01.2022
5972 Clouds 20 1016 29 10000 2.24 0 22:58 08.01.2022
5973 Clouds 20 1016 29 10000 2.24 0 22:58 08.01.2022
5974 Clouds 20 1016 28 10000 0.89 0 21:32 08.01.2022
5975 Clouds 20 1016 28 10000 0.89 0 21:32 08.01.2022
5976 Clouds 20 1016 28 10000 0.45 0 20:44 08.01.2022
5977 Clouds 20 1017 28 10000 1.34 0 20:23 08.01.2022
5978 Clear 20 1017 29 10000 1.34 0 19:46 08.01.2022
5979 Clear 16 1017 40 10000 0.45 0 17:49 08.01.2022
5980 Clouds 14 1017 45 10000 0.45 0 16:57 08.01.2022
5981 Clouds 12 1014 47 10000 3.09 150 15:37 08.01.2022
5982 Clear 12 1014 45 10000 2.57 100 14:38 08.01.2022
5983 Clear 13 1013 43 10000 3.09 120 12:36 08.01.2022
5984 Clear 12 1013 46 10000 4.12 120 10:46 08.01.2022
5985 Clear 13 1013 44 10000 4.12 120 10:24 08.01.2022
5986 Clouds 13 1014 44 10000 5.14 150 09:34 08.01.2022
5987 Clear 13 1015 41 10000 4.63 140 07:18 08.01.2022
5988 Clear 19 1013 34 10000 0.45 198 01:52 08.01.2022
5989 Clear 23 1012 24 10000 1.79 0 00:25 08.01.2022
5990 Clear 24 1013 22 10000 0.89 327 22:39 07.01.2022
5991 Clear 22 1015 25 10000 0.89 0 20:56 07.01.2022
5992 Clear 20 1016 32 10000 0.45 0 19:39 07.01.2022
5993 Clear 18 1017 37 10000 0.45 0 18:53 07.01.2022
5994 Clear 17 1017 39 10000 0.45 92 18:30 07.01.2022
5995 Clear 13 1017 45 10000 0.89 163 17:25 07.01.2022
5996 Clear 10 1015 51 10000 4.63 140 16:23 07.01.2022
5997 Clear 10 1015 52 10000 2.57 120 13:53 07.01.2022
5998 Clear 10 1015 52 10000 2.57 120 13:19 07.01.2022
5999 Clear 10 1014 53 10000 4.12 130 12:35 07.01.2022
6000 Clear 10 1015 51 10000 3.6 120 09:21 07.01.2022
6001 Clear 14 1015 43 10000 0.45 0 02:54 07.01.2022
6002 Clear 17 1015 39 10000 0.45 209 01:53 07.01.2022
6003 Clear 18 1015 34 10000 0.45 0 01:27 07.01.2022
6004 Clear 19 1015 32 10000 0.45 0 00:57 07.01.2022
6005 Clear 21 1015 27 10000 0.89 0 22:46 06.01.2022
6006 Clear 20 1016 28 10000 0.45 0 21:23 06.01.2022
6007 Clear 18 1017 31 10000 0.45 146 20:20 06.01.2022
6008 Clear 17 1018 34 10000 0.45 0 19:41 06.01.2022
6009 Clear 12 1017 46 10000 4.12 160 17:53 06.01.2022
6010 Clear 11 1018 44 10000 4.12 160 17:34 06.01.2022
6011 Clear 8 1017 48 10000 3.09 150 16:40 06.01.2022
6012 Clear 7 1017 55 10000 2.06 120 15:45 06.01.2022
6013 Clear 6 1017 55 10000 2.06 120 15:24 06.01.2022
6014 Clear 4 1017 61 10000 0 0 14:21 06.01.2022
6015 Clear 7 1017 55 10000 1.54 170 13:47 06.01.2022
6016 Clear 7 1017 54 10000 3.6 160 12:43 06.01.2022
6017 Clear 7 1017 52 10000 2.06 120 11:42 06.01.2022
6018 Clear 7 1017 52 10000 2.06 120 11:42 06.01.2022
6019 Clear 8 1017 52 10000 2.06 120 11:22 06.01.2022
6020 Clear 8 1019 52 10000 2.57 140 08:51 06.01.2022
6021 Clear 18 1018 26 10000 1.79 0 00:43 06.01.2022
6022 Clear 19 1018 21 10000 1.34 0 23:36 05.01.2022
6023 Clear 19 1018 21 10000 1.34 0 22:54 05.01.2022
6024 Clear 19 1018 20 10000 1.34 0 22:31 05.01.2022
6025 Clear 18 1019 21 10000 0.89 0 21:47 05.01.2022
6026 Clear 18 1019 24 10000 1.34 0 20:50 05.01.2022
6027 Clear 16 1020 27 10000 0.45 0 19:59 05.01.2022
6028 Clear 13 1021 34 10000 0.89 0 18:38 05.01.2022
6029 Clear 10 1020 38 10000 3.6 170 17:23 05.01.2022
6030 Clear 6 1020 47 10000 2.57 160 16:38 05.01.2022
6031 Clear 6 1020 46 10000 2.06 190 15:21 05.01.2022
6032 Clear 6 1019 44 10000 3.09 140 13:51 05.01.2022
6033 Clear 6 1020 44 10000 4.12 150 12:51 05.01.2022
6034 Clear 7 1020 39 10000 2.57 140 09:30 05.01.2022
6035 Clear 9 1021 36 10000 2.06 160 07:45 05.01.2022
6036 Clear 10 1020 32 10000 0.45 103 04:58 05.01.2022
6037 Clear 18 1021 16 10000 1.34 0 00:58 05.01.2022
6038 Clear 20 1022 12 10000 2.24 0 23:27 04.01.2022
6039 Clear 20 1022 13 10000 1.79 0 22:42 04.01.2022
6040 Clear 19 1022 18 10000 0.89 0 21:21 04.01.2022
6041 Clear 16 1024 33 10000 0.45 0 19:20 04.01.2022
6042 Clear 12 1023 38 10000 3.09 150 17:44 04.01.2022
6043 Clear 8 1023 47 10000 6.17 150 16:42 04.01.2022
6044 Clear 8 1023 45 10000 6.17 150 16:23 04.01.2022
6045 Clear 6 1022 51 10000 5.14 150 14:54 04.01.2022
6046 Clear 6 1022 49 10000 5.14 150 14:34 04.01.2022
6047 Clear 7 1021 50 10000 4.12 150 13:27 04.01.2022
6048 Clear 7 1022 56 10000 3.6 140 10:41 04.01.2022
6049 Clear 7 1023 56 10000 4.12 140 09:20 04.01.2022
6050 Clear 7 1023 56 10000 0 0 08:28 04.01.2022
6051 Clear 12 1020 47 10000 1.54 290 02:28 04.01.2022
6052 Clear 17 1020 31 10000 1.79 0 00:40 04.01.2022
6053 Clear 19 1021 21 10000 0.45 355 23:18 03.01.2022
6054 Clear 18 1021 23 10000 0.89 0 21:52 03.01.2022
6055 Clear 18 1021 23 10000 0.45 0 21:32 03.01.2022
6056 Clear 15 1022 27 10000 0.45 0 19:47 03.01.2022
6057 Clear 13 1023 32 10000 0.45 0 18:48 03.01.2022
6058 Clear 11 1023 34 10000 0.45 0 18:27 03.01.2022
6059 Clear 7 1021 42 10000 2.24 138 16:58 03.01.2022
6060 Clear 5 1021 45 10000 4.02 166 14:56 03.01.2022
6061 Clear 5 1021 45 10000 1.79 166 14:30 03.01.2022
6062 Clear 5 1022 46 10000 1.34 169 12:39 03.01.2022
6063 Clear 5 1022 49 10000 3.58 169 11:35 03.01.2022
6064 Clear 5 1022 49 10000 2.68 168 10:26 03.01.2022
6065 Clear 6 1024 45 10000 1.34 158 08:47 03.01.2022
6066 Clear 6 1024 51 10000 5.14 110 07:34 03.01.2022
6067 Clear 15 1023 25 10000 1.34 0 23:55 02.01.2022
6068 Clear 15 1024 23 10000 1.34 9 23:20 02.01.2022
6069 Clear 15 1024 22 10000 0.89 0 22:43 02.01.2022
6070 Clear 14 1025 25 10000 0.89 0 21:39 02.01.2022
6071 Clear 12 1026 29 10000 0.45 0 20:31 02.01.2022
6072 Clear 11 1027 33 10000 0.89 0 19:53 02.01.2022
6073 Clear 10 1028 36 10000 0.89 0 19:26 02.01.2022
6074 Clear 8 1028 40 10000 0.89 0 18:39 02.01.2022
6075 Clear 8 1028 41 10000 0.45 0 18:38 02.01.2022
6076 Clear 6 1026 48 10000 0.45 128 17:43 02.01.2022
6077 Clear 5 1028 52 10000 0.89 129 17:22 02.01.2022
6078 Clear 4 1027 55 10000 0.45 129 16:53 02.01.2022
6079 Clear 2 1027 59 10000 0.45 169 16:23 02.01.2022
6080 Clear 2 1026 59 10000 0.45 134 14:21 02.01.2022
6081 Clear 3 1025 57 10000 1.34 196 12:39 02.01.2022
6082 Clear 3 1025 56 10000 6.17 130 11:57 02.01.2022
6083 Clear 3 1024 57 10000 0.45 199 11:20 02.01.2022
6084 Clear 3 1025 59 10000 1.79 199 10:44 02.01.2022
6085 Clear 3 1027 62 10000 1.54 120 08:42 02.01.2022
6086 Clear 5 1023 52 10000 0.89 298 03:25 02.01.2022
6087 Clear 10 1020 39 10000 3.58 0 23:58 01.01.2022
6088 Clear 10 1020 38 10000 3.58 0 23:39 01.01.2022
6089 Clear 10 1019 35 10000 3.58 0 22:45 01.01.2022
6090 Clear 11 1018 36 10000 3.13 0 22:19 01.01.2022
6091 Clouds 11 1018 40 10000 3.13 0 21:43 01.01.2022
6092 Clouds 10 1018 49 10000 3.58 0 20:52 01.01.2022
6093 Clouds 10 1017 59 10000 3.13 0 19:55 01.01.2022
6094 Clouds 9 1017 71 10000 2.68 292 18:58 01.01.2022
6095 Clouds 8 1016 82 10000 2.68 0 17:56 01.01.2022
6096 Clouds 8 1014 88 10000 2.68 331 16:35 01.01.2022
6097 Rain 8 1013 88 10000 3.13 315 15:57 01.01.2022
6098 Clouds 9 1010 84 10000 0.45 257 14:57 01.01.2022
6099 Clouds 9 1010 86 10000 0.45 209 13:42 01.01.2022
6100 Clouds 9 1010 85 10000 1.34 255 12:43 01.01.2022
6101 Rain 9 1010 85 10000 1.34 189 11:47 01.01.2022
6102 Clouds 9 1010 86 10000 1.79 190 11:20 01.01.2022
6103 Clouds 9 1010 88 10000 2.24 188 09:49 01.01.2022
6104 Clouds 9 1009 89 10000 3.13 182 09:21 01.01.2022
6105 Rain 9 1009 89 10000 1.79 200 08:24 01.01.2022
6106 Rain 9 1009 90 10000 0.45 140 07:41 01.01.2022
6107 Clouds 9 1009 88 10000 3.09 200 06:45 01.01.2022
6108 Drizzle 9 1008 85 10000 1.79 190 05:26 01.01.2022
6109 Clouds 9 1007 84 10000 2.24 190 04:37 01.01.2022
6110 Rain 11 1003 86 6437 3.13 0 00:41 01.01.2022
6111 Drizzle 14 1002 77 10000 3.13 0 22:59 31.12.2021
6112 Clouds 18 1002 63 10000 1.79 0 21:52 31.12.2021
6113 Clouds 17 1005 66 10000 0.45 0 20:32 31.12.2021
6114 Clouds 15 1007 75 10000 0.89 0 19:29 31.12.2021
6115 Clouds 13 1007 87 10000 3.09 90 18:30 31.12.2021
6116 Clouds 11 1009 90 10000 0.89 169 17:37 31.12.2021
6117 Clouds 11 1009 90 10000 0.89 169 17:18 31.12.2021
6118 Clouds 10 1009 91 10000 0.89 169 16:19 31.12.2021
6119 Mist 10 1008 90 10000 0.45 170 15:53 31.12.2021
6120 Drizzle 10 1008 90 10000 1.34 189 15:28 31.12.2021
6121 Clouds 10 1008 91 10000 0.89 119 14:43 31.12.2021
6122 Clouds 9 1008 93 10000 0.89 119 14:18 31.12.2021
6123 Rain 10 1008 90 8047 2.06 330 13:35 31.12.2021
6124 Rain 10 1009 87 10000 0.45 174 12:44 31.12.2021
6125 Clouds 10 1010 83 10000 0.45 183 11:43 31.12.2021
6126 Clouds 10 1010 84 10000 0.45 174 11:20 31.12.2021
6127 Clouds 10 1010 84 10000 0.45 177 10:30 31.12.2021
6128 Clouds 10 1012 84 10000 0.45 206 09:35 31.12.2021
6129 Clouds 10 1012 85 10000 1.34 198 08:56 31.12.2021
6130 Clouds 10 1012 84 10000 1.79 184 08:25 31.12.2021
6131 Clouds 10 1013 82 10000 0.45 178 07:30 31.12.2021
6132 Clouds 14 1014 53 10000 0.45 0 23:23 30.12.2021
6133 Clouds 14 1014 52 10000 0.45 0 22:33 30.12.2021
6134 Clouds 14 1015 52 10000 0.45 0 21:51 30.12.2021
6135 Clouds 14 1015 52 10000 0.45 0 21:33 30.12.2021
6136 Clouds 14 1016 55 10000 0.45 0 20:44 30.12.2021
6137 Clouds 13 1016 58 10000 0.45 0 20:24 30.12.2021
6138 Clouds 12 1016 62 10000 0.45 0 19:43 30.12.2021
6139 Clouds 10 1017 72 10000 0.89 0 18:29 30.12.2021
6140 Clouds 9 1017 75 10000 1.34 195 17:45 30.12.2021
6141 Clouds 7 1016 81 10000 2.73 128 15:58 30.12.2021
6142 Clouds 7 1015 80 10000 3.6 150 15:39 30.12.2021
6143 Clouds 7 1015 81 10000 2.24 138 14:37 30.12.2021
6144 Clouds 7 1016 82 10000 1.34 158 13:32 30.12.2021
6145 Clouds 8 1015 77 10000 1.17 295 11:59 30.12.2021
6146 Clear 8 1015 76 10000 2.06 130 10:50 30.12.2021
6147 Clouds 8 1015 75 10000 3.09 140 09:54 30.12.2021
6148 Clouds 8 1015 79 10000 2.06 160 08:49 30.12.2021
6149 Clouds 8 1016 80 10000 1.54 150 06:51 30.12.2021
6150 Clouds 10 1015 70 10000 0.45 0 03:41 30.12.2021
6151 Clouds 11 1015 63 10000 0.45 222 02:38 30.12.2021
6152 Clouds 13 1015 53 10000 2.68 193 23:41 29.12.2021
6153 Clouds 13 1014 55 10000 2.68 193 23:21 29.12.2021
6154 Clouds 13 1014 58 10000 1.34 0 22:18 29.12.2021
6155 Clouds 13 1014 63 10000 1.34 0 21:27 29.12.2021
6156 Clouds 12 1015 72 10000 2.24 0 20:34 29.12.2021
6157 Clouds 11 1016 80 10000 0.45 0 19:44 29.12.2021
6158 Clouds 10 1016 84 10000 0.89 0 18:45 29.12.2021
6159 Drizzle 9 1016 87 10000 0.45 203 17:53 29.12.2021
6160 Drizzle 9 1016 87 10000 1.34 203 17:27 29.12.2021
6161 Drizzle 9 1016 87 10000 1.34 203 17:27 29.12.2021
6162 Mist 8 1015 87 8047 1.79 182 16:24 29.12.2021
6163 Drizzle 8 1014 88 10000 1.79 196 15:45 29.12.2021
6164 Clouds 8 1013 84 10000 1.34 189 13:55 29.12.2021
6165 Clouds 8 1012 84 10000 0.89 188 12:36 29.12.2021
6166 Clouds 9 1012 82 10000 2.24 186 11:27 29.12.2021
6167 Clouds 8 1012 82 10000 2.24 192 09:56 29.12.2021
6168 Clear 8 1012 71 10000 0.89 208 07:51 29.12.2021
6169 Clear 8 1011 69 10000 1.34 160 06:38 29.12.2021
6170 Clouds 9 1011 66 10000 0.45 209 05:59 29.12.2021
6171 Clouds 9 1011 64 10000 1.79 203 05:36 29.12.2021
6172 Clouds 11 1009 56 10000 0.45 334 02:40 29.12.2021
6173 Clear 13 1009 46 10000 2.24 0 00:22 29.12.2021
6174 Clear 14 1010 41 10000 1.79 0 23:34 28.12.2021
6175 Clear 14 1010 40 10000 2.24 0 22:42 28.12.2021
6176 Clear 14 1010 41 10000 0.89 0 22:24 28.12.2021
6177 Clear 14 1011 41 10000 0.89 0 21:36 28.12.2021
6178 Clear 13 1012 45 10000 1.34 0 20:39 28.12.2021
6179 Clear 12 1013 52 10000 1.34 0 19:24 28.12.2021
6180 Clear 11 1013 60 10000 0.89 0 18:37 28.12.2021
6181 Clear 10 1014 65 10000 0.89 0 17:59 28.12.2021
6182 Clear 6 1012 80 10000 4.12 140 16:34 28.12.2021
6183 Clear 4 1012 81 10000 3.6 140 15:49 28.12.2021
6184 Clear 4 1012 82 10000 3.6 140 15:20 28.12.2021
6185 Clear 4 1012 83 10000 2.06 130 14:47 28.12.2021
6186 Clear 4 1012 83 10000 2.06 130 14:21 28.12.2021
6187 Clear 5 1011 82 10000 1.54 130 13:42 28.12.2021
6188 Clear 5 1011 81 10000 1.54 130 13:24 28.12.2021
6189 Mist 5 1011 81 8047 1.54 120 12:49 28.12.2021
6190 Clear 6 1011 80 10000 0 0 11:35 28.12.2021
6191 Clear 7 1012 78 10000 0 0 08:30 28.12.2021
6192 Clear 8 1013 78 10000 0.45 343 06:41 28.12.2021
6193 Clouds 12 1012 62 10000 0.45 37 23:43 27.12.2021
6194 Clouds 12 1012 63 10000 0.45 104 22:59 27.12.2021
6195 Clouds 12 1013 63 10000 1.54 40 21:38 27.12.2021
6196 Clouds 12 1013 63 10000 1.54 40 21:20 27.12.2021
6197 Clouds 11 1015 66 10000 3.09 310 19:58 27.12.2021
6198 Clouds 12 1015 66 10000 3.09 310 19:39 27.12.2021
6199 Clouds 10 1016 68 10000 0.45 189 18:23 27.12.2021
6200 Clouds 10 1016 71 10000 4.12 120 17:46 27.12.2021
6201 Clouds 9 1016 67 10000 2.06 170 16:40 27.12.2021
6202 Clouds 8 1015 70 10000 3.09 130 15:52 27.12.2021
6203 Clouds 7 1015 73 10000 3.09 160 14:32 27.12.2021
6204 Clouds 7 1015 75 10000 3.6 140 13:39 27.12.2021
6205 Clear 6 1015 77 10000 4.12 160 12:19 27.12.2021
6206 Clouds 8 1015 74 10000 3.6 130 10:31 27.12.2021
6207 Clear 8 1016 77 10000 0 0 09:47 27.12.2021
6208 Clear 9 1016 75 10000 4.12 140 07:38 27.12.2021
6209 Clear 9 1016 73 10000 4.12 140 07:20 27.12.2021
6210 Clear 13 1015 57 10000 2.06 10 02:19 27.12.2021
6211 Clouds 17 1015 42 10000 0.45 0 23:58 26.12.2021
6212 Clear 17 1015 42 10000 0.45 0 23:36 26.12.2021
6213 Clear 17 1016 47 10000 0.45 0 22:23 26.12.2021
6214 Clouds 16 1018 53 10000 1.79 0 20:54 26.12.2021
6215 Clouds 15 1019 56 10000 1.34 0 19:47 26.12.2021
6216 Clouds 15 1019 56 10000 1.34 0 19:47 26.12.2021
6217 Clouds 14 1019 63 10000 1.79 0 18:24 26.12.2021
6218 Clouds 12 1017 74 10000 0.89 0 16:20 26.12.2021
6219 Clouds 12 1016 74 10000 1.34 249 14:27 26.12.2021
6220 Clouds 12 1016 74 10000 0.45 0 13:40 26.12.2021
6221 Clouds 12 1016 74 10000 0.45 0 13:19 26.12.2021
6222 Clouds 12 1016 74 10000 0.45 0 12:32 26.12.2021
6223 Clouds 13 1016 74 10000 1.34 0 10:32 26.12.2021
6224 Clouds 13 1015 74 10000 0.89 0 09:21 26.12.2021
6225 Clouds 13 1015 74 10000 0.89 0 08:44 26.12.2021
6226 Clouds 13 1015 76 10000 1.34 0 07:49 26.12.2021
6227 Clouds 15 1014 71 10000 0.45 257 01:27 26.12.2021
6228 Clouds 16 1015 65 10000 0.45 0 23:54 25.12.2021
6229 Clouds 17 1015 63 10000 1.79 0 23:27 25.12.2021
6230 Clouds 17 1015 57 10000 0.45 0 22:26 25.12.2021
6231 Clouds 17 1016 59 10000 0.45 0 20:57 25.12.2021
6232 Clouds 17 1018 59 10000 0.89 0 19:26 25.12.2021
6233 Clouds 17 1019 61 10000 0.89 0 18:55 25.12.2021
6234 Clouds 15 1017 71 10000 0.45 0 17:37 25.12.2021
6235 Clouds 13 1017 78 10000 0.89 176 16:36 25.12.2021
6236 Clouds 13 1016 81 10000 0.45 0 15:18 25.12.2021
6237 Clear 12 1015 83 10000 0.45 0 13:30 25.12.2021
6238 Clouds 13 1016 84 10000 0 0 11:51 25.12.2021
6239 Clouds 13 1015 82 10000 2.06 30 09:54 25.12.2021
6240 Mist 13 1015 80 10000 2.06 30 09:34 25.12.2021
6241 Clouds 14 1015 81 10000 0.45 210 04:34 25.12.2021
6242 Clouds 16 1014 73 10000 0.45 0 01:25 25.12.2021
6243 Clouds 17 1013 70 10000 1.34 0 23:42 24.12.2021
6244 Rain 13 1014 90 10000 0.89 142 19:46 24.12.2021
6245 Rain 12 1014 89 10000 0.45 0 19:23 24.12.2021
6246 Rain 11 1014 88 10000 6.17 300 16:57 24.12.2021
6247 Rain 12 1015 83 10000 6.17 300 16:22 24.12.2021
6248 Drizzle 13 1015 78 10000 9.77 330 15:48 24.12.2021
6249 Clouds 16 1015 59 10000 3.13 0 14:47 24.12.2021
6250 Clouds 17 1014 54 10000 1.34 0 14:26 24.12.2021
6251 Clouds 18 1014 52 10000 2.24 0 13:41 24.12.2021
6252 Clouds 18 1014 52 10000 0.45 0 12:48 24.12.2021
6253 Clouds 18 1014 52 10000 0.89 0 12:20 24.12.2021
6254 Clouds 18 1014 52 10000 0.45 0 11:29 24.12.2021
6255 Clouds 18 1014 51 10000 0.45 0 10:59 24.12.2021
6256 Clouds 18 1015 50 10000 0.45 0 10:28 24.12.2021
6257 Clouds 17 1015 49 10000 0.45 0 08:26 24.12.2021
6258 Clouds 17 1015 49 10000 0.45 0 07:50 24.12.2021
6259 Clouds 17 1015 48 10000 0.89 166 06:18 24.12.2021
6260 Clear 25 1015 27 10000 1.34 0 00:19 24.12.2021
6261 Clear 26 1015 25 10000 0.89 295 23:23 23.12.2021
6262 Clear 26 1015 24 10000 0.89 295 23:23 23.12.2021
6263 Clear 25 1015 22 10000 0.89 0 22:40 23.12.2021
6264 Clear 25 1016 21 10000 0.89 349 22:20 23.12.2021
6265 Clear 25 1016 19 10000 0.45 91 21:34 23.12.2021
6266 Clouds 24 1019 15 10000 0.45 0 20:21 23.12.2021
6267 Clear 21 1019 21 10000 0.45 0 18:53 23.12.2021
6268 Clouds 18 1019 27 10000 0.45 0 17:57 23.12.2021
6269 Clouds 15 1018 30 10000 4.12 150 16:57 23.12.2021
6270 Clouds 14 1018 31 10000 0.45 141 16:25 23.12.2021
6271 Clouds 13 1018 34 10000 2.57 140 15:32 23.12.2021
6272 Clouds 13 1017 36 10000 2.06 140 14:54 23.12.2021
6273 Clouds 13 1018 37 10000 2.06 140 14:36 23.12.2021
6274 Clouds 13 1017 32 10000 0 0 13:19 23.12.2021
6275 Clouds 14 1017 28 10000 0.89 142 10:54 23.12.2021
6276 Clouds 14 1017 33 10000 2.57 150 09:47 23.12.2021
6277 Clouds 14 1017 31 10000 2.57 150 09:26 23.12.2021
6278 Clouds 15 1016 38 10000 1.34 64 06:59 23.12.2021
6279 Clouds 15 1017 34 10000 0 0 04:35 23.12.2021
6280 Clear 23 1016 15 10000 0 0 23:33 22.12.2021
6281 Clear 23 1016 17 10000 0.89 301 22:48 22.12.2021
6282 Clear 23 1018 21 10000 0.45 0 21:57 22.12.2021
6283 Clear 23 1018 22 10000 0.45 0 21:29 22.12.2021
6284 Clear 22 1018 24 10000 0.45 0 20:50 22.12.2021
6285 Clear 21 1019 25 10000 0.45 0 20:30 22.12.2021
6286 Clear 19 1020 29 10000 1.34 0 19:32 22.12.2021
6287 Clear 15 1020 38 10000 3.09 170 17:55 22.12.2021
6288 Clear 13 1020 40 10000 3.09 170 17:34 22.12.2021
6289 Clear 9 1019 43 10000 3.09 160 15:42 22.12.2021
6290 Clear 10 1020 48 10000 2.57 140 13:37 22.12.2021
6291 Clouds 10 1019 47 10000 0 0 12:41 22.12.2021
6292 Clouds 12 1019 48 10000 2.06 160 10:46 22.12.2021
6293 Clouds 12 1019 46 10000 1.54 130 09:40 22.12.2021
6294 Clouds 13 1020 49 10000 0.45 0 07:31 22.12.2021
6295 Clouds 13 1021 46 10000 0.45 0 05:50 22.12.2021
6296 Clouds 14 1020 46 10000 0.45 0 05:27 22.12.2021
6297 Clouds 14 1020 45 10000 0.45 0 04:52 22.12.2021
6298 Clouds 14 1020 44 10000 1.34 0 04:29 22.12.2021
6299 Clouds 15 1020 41 10000 0.45 0 03:33 22.12.2021
6300 Clouds 20 1018 30 10000 0.45 0 00:57 22.12.2021
6301 Clouds 23 1019 23 10000 0.45 0 23:32 21.12.2021
6302 Clouds 22 1019 24 10000 0.89 0 22:29 21.12.2021
6303 Clouds 22 1019 25 10000 0.45 144 21:44 21.12.2021
6304 Clouds 21 1020 25 10000 0.45 0 21:23 21.12.2021
6305 Clouds 20 1020 26 10000 0.45 0 20:22 21.12.2021
6306 Clear 19 1021 28 10000 0.45 0 19:43 21.12.2021
6307 Clouds 18 1021 30 10000 1.34 148 18:48 21.12.2021
6308 Clouds 16 1022 33 10000 0.45 153 18:21 21.12.2021
6309 Clouds 14 1021 32 10000 3.09 170 17:42 21.12.2021
6310 Clouds 11 1021 40 10000 2.06 180 16:26 21.12.2021
6311 Clouds 10 1021 42 10000 0 0 15:24 21.12.2021
6312 Clouds 10 1021 41 10000 2.57 160 13:50 21.12.2021
6313 Clouds 10 1021 44 10000 2.57 160 13:30 21.12.2021
6314 Clear 9 1021 39 10000 3.6 150 11:57 21.12.2021
6315 Clouds 10 1020 43 10000 4.63 160 10:25 21.12.2021
6316 Clouds 10 1021 40 10000 4.63 160 09:27 21.12.2021
6317 Clouds 11 1020 40 10000 1.42 66 07:59 21.12.2021
6318 Clear 11 1021 42 10000 2.06 150 07:29 21.12.2021
6319 Clear 11 1021 42 10000 3.09 130 06:50 21.12.2021
6320 Clear 14 1021 40 10000 0 0 02:51 21.12.2021
6321 Clear 21 1021 27 10000 0.45 329 23:59 20.12.2021
6322 Clear 21 1021 27 10000 0.45 328 23:29 20.12.2021
6323 Clear 21 1022 25 10000 0.89 0 22:30 20.12.2021
6324 Clear 20 1022 27 10000 0.45 0 21:47 20.12.2021
6325 Clear 20 1023 27 10000 0.89 0 21:23 20.12.2021
6326 Clear 19 1023 30 10000 0.89 0 20:45 20.12.2021
6327 Clear 18 1024 33 10000 0.45 0 19:53 20.12.2021
6328 Clear 17 1024 35 10000 0.89 0 19:31 20.12.2021
6329 Clear 15 1024 39 10000 0.89 0 18:54 20.12.2021
6330 Clear 13 1024 45 10000 0.89 142 17:52 20.12.2021
6331 Clear 11 1024 49 10000 0.89 143 17:25 20.12.2021
6332 Clear 11 1024 49 10000 0.89 143 17:25 20.12.2021
6333 Clear 9 1022 52 10000 2.57 150 16:40 20.12.2021
6334 Clear 7 1022 57 10000 3.6 150 15:50 20.12.2021
6335 Clear 7 1021 55 10000 3.6 170 14:51 20.12.2021
6336 Clear 7 1021 56 10000 3.6 140 12:53 20.12.2021
6337 Clear 7 1021 54 10000 2.06 210 11:19 20.12.2021
6338 Clear 7 1021 54 10000 4.12 160 09:47 20.12.2021
6339 Clear 8 1021 53 10000 4.12 160 09:28 20.12.2021
6340 Clear 8 1021 52 10000 2.06 120 08:41 20.12.2021
6341 Clear 9 1021 50 10000 3.6 170 07:49 20.12.2021
6342 Clear 9 1021 50 10000 3.6 170 07:29 20.12.2021
6343 Clear 12 1021 45 10000 0.45 181 03:59 20.12.2021
6344 Clear 19 1019 29 10000 0.45 0 23:58 19.12.2021
6345 Clear 19 1020 27 10000 1.34 0 22:45 19.12.2021
6346 Clear 19 1020 28 10000 0.89 0 21:50 19.12.2021
6347 Clear 19 1020 28 10000 0.89 0 21:29 19.12.2021
6348 Clear 17 1021 30 10000 0.89 0 20:30 19.12.2021
6349 Clear 17 1022 31 10000 1.34 0 19:46 19.12.2021
6350 Clear 15 1022 35 10000 0.89 0 18:59 19.12.2021
6351 Clear 14 1022 37 10000 1.34 0 18:29 19.12.2021
6352 Clear 12 1022 41 10000 0.45 0 17:51 19.12.2021
6353 Clear 11 1022 44 10000 0.89 195 17:18 19.12.2021
6354 Clear 8 1021 49 10000 5.66 150 16:25 19.12.2021
6355 Clear 7 1020 51 10000 0.45 203 15:31 19.12.2021
6356 Clear 7 1020 50 10000 4.63 140 14:57 19.12.2021
6357 Clear 8 1020 48 10000 1.34 203 14:36 19.12.2021
6358 Clear 8 1019 47 10000 5.14 150 13:22 19.12.2021
6359 Clear 9 1020 45 10000 4.12 120 12:33 19.12.2021
6360 Clear 9 1020 46 10000 5.14 150 11:44 19.12.2021
6361 Clear 9 1020 44 10000 2.57 180 10:58 19.12.2021
6362 Clear 9 1020 45 10000 2.57 180 10:25 19.12.2021
6363 Clear 9 1019 47 10000 4.63 140 09:26 19.12.2021
6364 Clear 9 1020 49 10000 3.09 160 07:50 19.12.2021
6365 Clear 10 1019 47 10000 4.12 150 04:45 19.12.2021
6366 Clear 15 1018 37 10000 1.79 0 00:56 19.12.2021
6367 Clear 16 1018 35 10000 2.24 0 00:28 19.12.2021
6368 Clear 16 1019 34 10000 2.68 0 22:32 18.12.2021
6369 Clear 15 1019 35 10000 2.68 0 21:54 18.12.2021
6370 Clear 15 1019 35 10000 2.68 0 21:54 18.12.2021
6371 Clear 15 1019 36 10000 1.79 0 21:34 18.12.2021
6372 Clear 14 1020 38 10000 1.34 0 20:44 18.12.2021
6373 Clear 13 1021 43 10000 0.89 0 19:51 18.12.2021
6374 Clear 11 1021 46 10000 0.89 0 19:19 18.12.2021
6375 Clear 9 1022 55 10000 0.45 0 18:19 18.12.2021
6376 Clear 9 1019 60 10000 0 0 17:47 18.12.2021
6377 Clear 3 1020 71 10000 1.54 160 16:25 18.12.2021
6378 Clear 2 1020 73 10000 3.09 150 15:26 18.12.2021
6379 Clear 2 1019 73 10000 0 0 14:22 18.12.2021
6380 Clear 3 1019 72 10000 3.6 150 12:39 18.12.2021
6381 Clear 4 1019 70 10000 3.6 150 10:52 18.12.2021
6382 Clouds 5 1019 68 10000 2.06 160 09:33 18.12.2021
6383 Clear 5 1019 69 10000 3.09 160 08:42 18.12.2021
6384 Clear 5 1019 68 10000 3.09 160 08:18 18.12.2021
6385 Clouds 11 1017 49 10000 1.79 306 01:48 18.12.2021
6386 Clear 13 1017 41 10000 2.68 0 00:27 18.12.2021
6387 Clouds 14 1017 40 10000 3.13 0 23:37 17.12.2021
6388 Clouds 14 1017 44 10000 2.24 0 21:55 17.12.2021
6389 Clouds 14 1017 47 10000 1.34 0 20:51 17.12.2021
6390 Clouds 14 1018 49 10000 0.89 0 20:28 17.12.2021
6391 Clear 11 1019 59 10000 0.45 0 18:54 17.12.2021
6392 Clear 10 1019 63 10000 1.34 0 18:21 17.12.2021
6393 Clear 8 1019 73 10000 2.24 175 17:25 17.12.2021
6394 Clear 5 1017 82 10000 3.09 130 16:29 17.12.2021
6395 Clear 2 1016 90 10000 2.06 150 15:51 17.12.2021
6396 Clear 3 1016 84 10000 2.06 150 15:18 17.12.2021
6397 Clear 3 1016 83 10000 0 0 14:34 17.12.2021
6398 Clear 5 1015 80 10000 0 0 12:38 17.12.2021
6399 Clear 6 1015 79 10000 2.57 160 11:18 17.12.2021
6400 Clear 6 1016 75 10000 3.09 150 09:52 17.12.2021
6401 Clear 7 1015 71 10000 1.29 293 08:58 17.12.2021
6402 Clear 7 1016 73 10000 1.54 170 08:19 17.12.2021
6403 Clear 10 1015 63 10000 2.57 320 04:58 17.12.2021
6404 Clear 16 1015 50 10000 1.79 0 00:58 17.12.2021
6405 Clear 18 1016 45 10000 0.45 0 22:44 16.12.2021
6406 Clear 17 1016 46 10000 0.89 0 22:22 16.12.2021
6407 Clear 17 1016 48 10000 0.89 0 21:43 16.12.2021
6408 Clear 15 1017 52 10000 0.45 0 20:42 16.12.2021
6409 Clear 15 1018 53 10000 0.45 0 20:21 16.12.2021
6410 Clear 13 1019 56 10000 0.89 0 19:30 16.12.2021
6411 Clear 12 1018 61 10000 0.89 0 18:33 16.12.2021
6412 Clear 10 1020 66 10000 0.45 0 17:46 16.12.2021
6413 Clear 6 1019 76 10000 3.09 180 16:24 16.12.2021
6414 Clear 3 1019 90 10000 2.57 160 15:38 16.12.2021
6415 Clear 4 1019 82 10000 2.57 170 13:45 16.12.2021
6416 Clear 5 1020 74 10000 2.06 140 11:56 16.12.2021
6417 Clear 5 1020 74 10000 2.06 140 11:18 16.12.2021
6418 Clear 5 1020 72 10000 2.06 210 10:39 16.12.2021
6419 Clear 6 1020 67 10000 2.06 200 09:43 16.12.2021
6420 Clear 8 1020 66 10000 2.06 330 06:23 16.12.2021
6421 Clouds 9 1021 61 10000 0.45 311 04:33 16.12.2021
6422 Clouds 13 1019 57 10000 1.34 0 23:47 15.12.2021
6423 Clouds 13 1019 55 10000 0.89 0 22:49 15.12.2021
6424 Clouds 13 1020 56 10000 0.89 0 22:21 15.12.2021
6425 Clouds 13 1020 57 10000 1.34 0 21:31 15.12.2021
6426 Clouds 12 1021 56 10000 0.89 0 20:41 15.12.2021
6427 Clouds 12 1021 59 10000 0.89 0 19:53 15.12.2021
6428 Clouds 10 1022 65 10000 0.89 0 18:50 15.12.2021
6429 Clouds 9 1022 69 10000 0.89 171 18:18 15.12.2021
6430 Clouds 8 1022 73 10000 0.89 139 17:43 15.12.2021
6431 Clouds 7 1022 77 10000 0.89 148 16:59 15.12.2021
6432 Clouds 6 1022 79 10000 1.34 188 15:47 15.12.2021
6433 Clouds 6 1022 78 10000 1.79 188 15:29 15.12.2021
6434 Clouds 7 1021 75 10000 0.89 215 14:44 15.12.2021
6435 Clouds 6 1021 83 10000 2.68 327 13:28 15.12.2021
6436 Clouds 10 1018 80 10000 4.47 271 11:40 15.12.2021
6437 Clouds 15 1017 55 10000 2.24 0 10:18 15.12.2021
6438 Clear 16 1015 58 10000 0.89 0 07:55 15.12.2021
6439 Clear 17 1015 52 10000 0.45 0 04:22 15.12.2021
6440 Clouds 21 1015 40 10000 3.58 0 23:53 14.12.2021
6441 Clouds 21 1015 42 10000 3.13 0 22:55 14.12.2021
6442 Clouds 21 1015 43 10000 1.79 179 22:37 14.12.2021
6443 Clouds 20 1015 45 10000 0.45 0 21:38 14.12.2021
6444 Clouds 20 1018 45 10000 0.45 0 20:20 14.12.2021
6445 Clouds 19 1019 46 10000 0.45 0 19:21 14.12.2021
6446 Clouds 18 1019 47 10000 0.89 92 18:38 14.12.2021
6447 Clouds 18 1019 46 10000 0.89 0 17:51 14.12.2021
6448 Clouds 16 1019 55 10000 0.89 0 16:43 14.12.2021
6449 Clouds 15 1020 56 10000 0.45 172 15:54 14.12.2021
6450 Drizzle 15 1019 56 10000 4.12 90 13:35 14.12.2021
6451 Clouds 14 1019 60 10000 4.63 30 12:47 14.12.2021
6452 Clouds 16 1020 39 10000 0.45 0 11:25 14.12.2021
6453 Clouds 17 1020 38 10000 0.45 0 10:28 14.12.2021
6454 Clouds 17 1021 37 10000 0.45 0 09:53 14.12.2021
6455 Clouds 16 1020 38 10000 2.57 140 08:48 14.12.2021
6456 Clouds 15 1021 42 10000 0.45 0 08:21 14.12.2021
6457 Clouds 15 1020 40 10000 2.06 140 06:40 14.12.2021
6458 Clear 23 1019 22 10000 0.89 40 23:42 13.12.2021
6459 Clear 23 1019 22 10000 0.89 0 22:18 13.12.2021
6460 Clear 23 1020 24 10000 0.89 0 21:34 13.12.2021
6461 Clear 22 1021 27 10000 0.89 0 20:51 13.12.2021
6462 Clear 22 1021 32 10000 0.89 0 20:20 13.12.2021
6463 Clear 21 1022 35 10000 0.89 119 19:49 13.12.2021
6464 Clear 14 1021 54 10000 0.45 0 17:27 13.12.2021
6465 Clear 12 1023 61 10000 1.79 175 16:24 13.12.2021
6466 Clear 12 1020 59 10000 3.09 150 15:43 13.12.2021
6467 Clear 11 1019 58 10000 3.09 110 13:57 13.12.2021
6468 Clear 11 1019 61 10000 3.09 110 13:31 13.12.2021
6469 Clear 11 1019 61 10000 3.09 150 12:39 13.12.2021
6470 Clear 10 1019 63 10000 0 0 11:44 13.12.2021
6471 Clear 10 1019 62 10000 0 0 11:24 13.12.2021
6472 Clear 11 1019 56 10000 4.63 130 10:21 13.12.2021
6473 Clear 12 1020 54 10000 2.06 160 08:43 13.12.2021
6474 Clear 13 1018 47 10000 3.6 140 05:38 13.12.2021
6475 Clear 15 1016 43 10000 2.06 190 03:57 13.12.2021
6476 Clear 22 1016 24 10000 0.45 0 23:43 12.12.2021
6477 Clear 21 1017 28 10000 0.89 0 21:57 12.12.2021
6478 Clear 20 1018 31 10000 0.89 0 20:48 12.12.2021
6479 Clear 18 1019 36 10000 0.45 0 19:34 12.12.2021
6480 Clear 14 1019 47 10000 0.45 0 17:54 12.12.2021
6481 Clear 9 1018 56 10000 2.57 150 16:29 12.12.2021
6482 Clear 10 1018 53 10000 2.57 160 15:54 12.12.2021
6483 Clear 8 1018 56 10000 2.57 160 15:28 12.12.2021
6484 Clear 8 1017 61 10000 4.63 140 14:42 12.12.2021
6485 Clear 8 1017 61 10000 3.6 140 13:47 12.12.2021
6486 Clear 9 1017 61 10000 3.6 140 12:47 12.12.2021
6487 Clear 9 1018 57 10000 2.06 160 11:45 12.12.2021
6488 Clear 9 1018 57 10000 2.06 160 11:45 12.12.2021
6489 Clear 9 1018 58 10000 2.06 160 11:25 12.12.2021
6490 Clear 10 1018 55 10000 4.12 140 10:43 12.12.2021
6491 Clear 10 1019 57 10000 5.14 130 09:45 12.12.2021
6492 Clear 10 1019 58 10000 4.63 140 08:42 12.12.2021
6493 Clear 10 1020 64 10000 2.06 180 06:38 12.12.2021
6494 Clear 10 1019 66 10000 0 0 05:28 12.12.2021
6495 Clear 12 1021 51 10000 0.45 0 03:58 12.12.2021
6496 Clear 18 1019 33 10000 0.45 0 00:42 12.12.2021
6497 Clear 18 1020 35 10000 0.89 0 22:42 11.12.2021
6498 Clear 18 1020 36 10000 1.34 0 22:19 11.12.2021
6499 Clear 17 1021 41 10000 0.89 0 21:22 11.12.2021
6500 Clear 15 1023 49 10000 0.89 312 19:46 11.12.2021
6501 Clear 14 1024 53 10000 0.89 0 19:20 11.12.2021
6502 Clear 13 1024 60 10000 0.89 0 18:38 11.12.2021
6503 Clear 11 1024 68 10000 1.34 288 17:41 11.12.2021
6504 Clear 6 1021 83 10000 2.57 150 15:57 11.12.2021
6505 Clear 6 1021 83 10000 2.57 150 15:37 11.12.2021
6506 Clear 7 1021 84 10000 3.09 150 14:21 11.12.2021
6507 Clear 8 1021 83 10000 0 0 11:58 11.12.2021
6508 Clear 8 1021 82 10000 1.54 140 10:24 11.12.2021
6509 Clouds 9 1022 82 10000 1.54 160 09:37 11.12.2021
6510 Clear 12 1019 64 10000 1.79 0 03:25 11.12.2021
6511 Clear 15 1018 49 10000 1.79 0 00:45 11.12.2021
6512 Clouds 15 1018 47 10000 2.24 0 23:40 10.12.2021
6513 Clouds 16 1018 48 10000 1.79 0 22:33 10.12.2021
6514 Clouds 15 1018 52 10000 1.34 0 21:37 10.12.2021
6515 Clouds 14 1018 63 10000 0.89 0 19:55 10.12.2021
6516 Clouds 13 1019 69 10000 1.34 0 19:18 10.12.2021
6517 Clouds 10 1018 84 10000 1.34 306 17:23 10.12.2021
6518 Rain 10 1017 86 10000 1.34 301 16:32 10.12.2021
6519 Clouds 9 1016 87 10000 2.24 315 15:42 10.12.2021
6520 Rain 9 1016 87 10000 2.24 355 15:23 10.12.2021
6521 Rain 10 1014 88 4023 2.68 349 13:53 10.12.2021
6522 Rain 11 1014 88 8047 3.13 343 13:31 10.12.2021
6523 Rain 11 1013 87 10000 1.34 243 12:47 10.12.2021
6524 Rain 12 1013 85 10000 1.79 230 11:34 10.12.2021
6525 Drizzle 12 1013 80 10000 1.34 215 10:50 10.12.2021
6526 Clouds 14 1013 64 10000 2.24 0 09:30 10.12.2021
6527 Clouds 15 1013 62 10000 0.89 0 07:21 10.12.2021
6528 Clouds 17 1012 36 10000 1.34 0 02:51 10.12.2021
6529 Clouds 20 1012 27 10000 1.34 197 00:57 10.12.2021
6530 Clouds 21 1012 26 10000 1.79 0 23:38 09.12.2021
6531 Clouds 21 1012 27 10000 3.13 0 22:40 09.12.2021
6532 Clouds 21 1012 27 10000 2.68 0 22:19 09.12.2021
6533 Clouds 20 1013 30 10000 1.79 0 21:20 09.12.2021
6534 Clouds 20 1014 33 10000 1.34 0 20:34 09.12.2021
6535 Clouds 18 1016 39 10000 0.89 0 19:22 09.12.2021
6536 Clear 17 1016 40 10000 0.89 0 18:53 09.12.2021
6537 Clouds 16 1017 42 10000 0.45 0 17:57 09.12.2021
6538 Clouds 13 1017 47 10000 0.45 0 17:27 09.12.2021
6539 Clear 13 1016 48 10000 1.79 155 16:57 09.12.2021
6540 Clear 11 1017 51 10000 0.45 0 16:20 09.12.2021
6541 Clear 10 1015 54 10000 0.89 191 14:52 09.12.2021
6542 Clear 10 1015 54 10000 4.12 140 13:50 09.12.2021
6543 Clear 10 1016 54 10000 4.63 130 12:47 09.12.2021
6544 Clear 10 1015 48 10000 3.09 130 11:25 09.12.2021
6545 Clear 10 1015 45 10000 3.09 140 10:19 09.12.2021
6546 Clear 12 1016 38 10000 0.45 182 06:51 09.12.2021
6547 Clear 15 1017 32 10000 0.45 243 03:49 09.12.2021
6548 Clear 22 1015 23 10000 1.79 0 23:50 08.12.2021
6549 Clear 22 1016 23 10000 1.79 0 23:31 08.12.2021
6550 Clear 23 1016 23 10000 1.34 0 22:53 08.12.2021
6551 Clear 22 1017 24 10000 1.79 0 21:49 08.12.2021
6552 Clear 22 1017 25 10000 0.89 0 21:30 08.12.2021
6553 Clear 21 1017 27 10000 0.89 0 20:19 08.12.2021
6554 Clear 20 1018 28 10000 1.34 92 19:39 08.12.2021
6555 Clear 19 1019 31 10000 0.45 111 18:53 08.12.2021
6556 Clear 19 1019 31 10000 0.45 111 18:53 08.12.2021
6557 Clear 15 1018 38 10000 0.45 0 17:52 08.12.2021
6558 Clouds 10 1017 44 10000 1.88 152 15:59 08.12.2021
6559 Clear 10 1017 44 10000 3.09 170 15:31 08.12.2021
6560 Clear 10 1016 46 10000 4.63 160 14:52 08.12.2021
6561 Clear 10 1017 45 10000 4.63 140 12:39 08.12.2021
6562 Clear 11 1016 42 10000 3.09 120 10:36 08.12.2021
6563 Clear 12 1016 39 10000 3.6 140 09:31 08.12.2021
6564 Clear 13 1017 37 10000 1.79 243 07:34 08.12.2021
6565 Clouds 14 1017 34 10000 0.45 0 04:58 08.12.2021
6566 Clear 24 1014 20 10000 0.45 0 23:48 07.12.2021
6567 Clear 24 1014 20 10000 0.89 0 22:27 07.12.2021
6568 Clear 23 1014 22 10000 0.89 0 21:23 07.12.2021
6569 Clouds 22 1015 23 10000 0.89 0 20:24 07.12.2021
6570 Clear 19 1016 30 10000 0.45 0 18:55 07.12.2021
6571 Clear 18 1017 33 10000 0.45 0 17:53 07.12.2021
6572 Clear 16 1017 33 10000 0.45 0 17:20 07.12.2021
6573 Clear 14 1018 36 10000 0.89 174 16:34 07.12.2021
6574 Clear 13 1015 36 10000 4.63 130 15:34 07.12.2021
6575 Clear 12 1015 36 10000 2.57 90 14:30 07.12.2021
6576 Clear 13 1016 34 10000 0.45 125 12:56 07.12.2021
6577 Clear 13 1016 34 10000 0.45 125 12:56 07.12.2021
6578 Clear 13 1016 34 10000 0.89 149 12:21 07.12.2021
6579 Clear 14 1015 34 10000 4.12 140 10:43 07.12.2021
6580 Clear 14 1016 34 10000 3.6 140 08:42 07.12.2021
6581 Clear 15 1016 35 10000 4.12 140 06:21 07.12.2021
6582 Clear 15 1016 35 10000 0.45 0 05:39 07.12.2021
6583 Clear 25 1016 19 10000 0.89 355 23:58 06.12.2021
6584 Clear 26 1017 18 10000 0.45 347 22:58 06.12.2021
6585 Clear 25 1018 18 10000 0.89 348 22:37 06.12.2021
6586 Clear 25 1019 19 10000 0.89 337 21:52 06.12.2021
6587 Clear 24 1019 23 10000 0.45 0 20:40 06.12.2021
6588 Clear 23 1019 24 10000 0.45 0 20:22 06.12.2021
6589 Clear 21 1021 28 10000 0.89 0 19:22 06.12.2021
6590 Clear 18 1021 32 10000 1.79 0 18:29 06.12.2021
6591 Clear 16 1023 35 10000 0.45 180 17:40 06.12.2021
6592 Clear 13 1020 39 10000 3.6 160 16:49 06.12.2021
6593 Clear 11 1019 42 10000 4.63 160 15:41 06.12.2021
6594 Clear 9 1019 46 10000 4.63 150 13:46 06.12.2021
6595 Clear 10 1018 44 10000 2.06 170 12:39 06.12.2021
6596 Clear 11 1018 44 10000 4.12 150 11:38 06.12.2021
6597 Clear 12 1018 43 10000 4.12 150 08:51 06.12.2021
6598 Clear 13 1018 43 10000 3.6 160 06:42 06.12.2021
6599 Clear 23 1015 24 10000 2.24 335 23:44 05.12.2021
6600 Clear 23 1017 24 10000 1.79 335 21:52 05.12.2021
6601 Clear 22 1016 26 10000 1.34 0 21:19 05.12.2021
6602 Clear 21 1018 28 10000 0.45 229 20:19 05.12.2021
6603 Clear 20 1018 30 10000 0.45 0 19:33 05.12.2021
6604 Clear 19 1019 32 10000 0.45 0 18:55 05.12.2021
6605 Clear 17 1019 35 10000 0.89 0 18:20 05.12.2021
6606 Clear 16 1019 36 10000 0.89 190 17:48 05.12.2021
6607 Clear 13 1018 42 10000 0 0 16:48 05.12.2021
6608 Clear 11 1018 47 10000 0 0 16:26 05.12.2021
6609 Clear 9 1018 48 10000 2.57 160 15:48 05.12.2021
6610 Clear 8 1017 49 10000 2.57 150 14:41 05.12.2021
6611 Clear 8 1017 49 10000 2.57 150 14:23 05.12.2021
6612 Clear 10 1017 49 10000 1.54 150 13:22 05.12.2021
6613 Clear 10 1017 47 10000 2.06 150 12:40 05.12.2021
6614 Clear 10 1017 47 10000 2.06 150 12:18 05.12.2021
6615 Clear 10 1018 44 10000 3.6 140 11:30 05.12.2021
6616 Clear 11 1019 45 10000 4.12 140 09:59 05.12.2021
6617 Clear 13 1018 43 10000 3.09 150 08:24 05.12.2021
6618 Clouds 18 1018 32 10000 0.89 0 03:27 05.12.2021
6619 Clouds 22 1018 29 10000 0.89 0 23:45 04.12.2021
6620 Clouds 23 1018 28 10000 0.89 0 21:55 04.12.2021
6621 Clear 23 1019 28 10000 0.89 0 20:57 04.12.2021
6622 Clear 22 1020 29 10000 0.45 0 20:20 04.12.2021
6623 Clouds 21 1020 31 10000 0.89 0 19:32 04.12.2021
6624 Clear 19 1021 36 10000 1.34 170 18:21 04.12.2021
6625 Clear 18 1022 39 10000 1.79 165 17:40 04.12.2021
6626 Clear 14 1020 47 10000 3.09 160 16:52 04.12.2021
6627 Clear 12 1020 47 10000 3.09 160 16:31 04.12.2021
6628 Clouds 12 1020 47 10000 3.6 150 15:57 04.12.2021
6629 Clear 13 1019 46 10000 4.12 160 11:54 04.12.2021
6630 Clear 13 1019 47 10000 4.12 160 11:32 04.12.2021
6631 Clear 13 1019 46 10000 3.6 150 10:53 04.12.2021
6632 Clear 14 1019 45 10000 4.12 140 08:49 04.12.2021
6633 Clear 15 1019 42 10000 0.89 183 06:42 04.12.2021
6634 Clear 17 1018 38 10000 0.89 0 04:42 04.12.2021
6635 Clear 24 1016 27 10000 0.45 341 00:35 04.12.2021
6636 Clear 26 1017 25 10000 0.89 324 23:27 03.12.2021
6637 Clear 26 1017 26 10000 1.34 45 22:47 03.12.2021
6638 Clear 25 1018 28 10000 0.89 311 21:26 03.12.2021
6639 Clear 25 1018 29 10000 0.89 0 20:54 03.12.2021
6640 Clear 23 1019 32 10000 0.89 0 19:53 03.12.2021
6641 Clear 20 1020 38 10000 1.34 0 18:34 03.12.2021
6642 Clear 19 1021 41 10000 0.89 0 17:59 03.12.2021
6643 Clear 12 1019 54 10000 4.12 140 15:47 03.12.2021
6644 Clear 13 1020 52 10000 0.71 136 12:59 03.12.2021
6645 Clear 13 1018 52 10000 2.06 110 12:19 03.12.2021
6646 Clear 14 1019 50 10000 0 0 10:55 03.12.2021
6647 Clear 15 1018 48 10000 3.09 160 08:27 03.12.2021
6648 Clear 15 1019 46 10000 0.45 189 07:43 03.12.2021
6649 Clear 19 1018 39 10000 0.89 0 04:44 03.12.2021
6650 Clear 25 1017 29 10000 1.34 0 00:48 03.12.2021
6651 Clear 27</